<?xml version="1.0" encoding="UTF-8" standalone="no" ?>
<gpx xmlns="http://www.topografix.com/GPX/1/1" xmlns:xsi="http://www.w3.org/2001/XMLSchema-instance" xsi:schemaLocation="http://www.topografix.com/GPX/1/1 http://www.topografix.com/GPX/1/1/gpx.xsd" version="1.1" creator="VisuGPX - https://www.visugpx.com">
  <metadata>
    <name>Férel 17/10/2021</name>
    <desc><![CDATA[Rando Férel 35kms dimanche 17 octobre 2021]]></desc>
  </metadata>
  <trk>
    <name><![CDATA[Férel Cyclisme]]></name>
    <trkseg>
      <trkpt lat="47.47584" lon="-2.34522">
        <ele>29.799999237061</ele>
        <time>2021-10-17T06:58:00.000Z</time>
      </trkpt>
      <trkpt lat="47.47593" lon="-2.34539">
        <ele>29.799999237061</ele>
        <time>2021-10-17T06:58:04.000Z</time>
      </trkpt>
      <trkpt lat="47.47597" lon="-2.34544">
        <ele>29.200000762939</ele>
        <time>2021-10-17T06:58:05.000Z</time>
      </trkpt>
      <trkpt lat="47.47618" lon="-2.34577">
        <ele>29.200000762939</ele>
        <time>2021-10-17T06:58:12.000Z</time>
      </trkpt>
      <trkpt lat="47.47622" lon="-2.34582">
        <ele>29.200000762939</ele>
        <time>2021-10-17T06:58:13.000Z</time>
      </trkpt>
      <trkpt lat="47.47636" lon="-2.346">
        <ele>29.200000762939</ele>
        <time>2021-10-17T06:58:17.000Z</time>
      </trkpt>
      <trkpt lat="47.47664" lon="-2.34626">
        <ele>29.200000762939</ele>
        <time>2021-10-17T06:58:24.000Z</time>
      </trkpt>
      <trkpt lat="47.4767" lon="-2.34634">
        <ele>29.200000762939</ele>
        <time>2021-10-17T06:58:26.000Z</time>
      </trkpt>
      <trkpt lat="47.47677" lon="-2.3465">
        <ele>29.200000762939</ele>
        <time>2021-10-17T06:58:29.000Z</time>
      </trkpt>
      <trkpt lat="47.47679" lon="-2.34663">
        <ele>29.200000762939</ele>
        <time>2021-10-17T06:58:31.000Z</time>
      </trkpt>
      <trkpt lat="47.47679" lon="-2.34681">
        <ele>29.200000762939</ele>
        <time>2021-10-17T06:58:34.000Z</time>
      </trkpt>
      <trkpt lat="47.47685" lon="-2.34713">
        <ele>29.200000762939</ele>
        <time>2021-10-17T06:58:40.000Z</time>
      </trkpt>
      <trkpt lat="47.47688" lon="-2.34722">
        <ele>29.200000762939</ele>
        <time>2021-10-17T06:58:44.000Z</time>
      </trkpt>
      <trkpt lat="47.47683" lon="-2.34738">
        <ele>29.200000762939</ele>
        <time>2021-10-17T06:58:49.000Z</time>
      </trkpt>
      <trkpt lat="47.47671" lon="-2.34751">
        <ele>29.200000762939</ele>
        <time>2021-10-17T06:58:54.000Z</time>
      </trkpt>
      <trkpt lat="47.47677" lon="-2.34779">
        <ele>29.200000762939</ele>
        <time>2021-10-17T06:58:59.000Z</time>
      </trkpt>
      <trkpt lat="47.47679" lon="-2.34811">
        <ele>29.200000762939</ele>
        <time>2021-10-17T06:59:04.000Z</time>
      </trkpt>
      <trkpt lat="47.47681" lon="-2.34845">
        <ele>29.200000762939</ele>
        <time>2021-10-17T06:59:09.000Z</time>
      </trkpt>
      <trkpt lat="47.47681" lon="-2.34857">
        <ele>29.200000762939</ele>
        <time>2021-10-17T06:59:11.000Z</time>
      </trkpt>
      <trkpt lat="47.47681" lon="-2.3487">
        <ele>29.200000762939</ele>
        <time>2021-10-17T06:59:13.000Z</time>
      </trkpt>
      <trkpt lat="47.47677" lon="-2.34907">
        <ele>29.200000762939</ele>
        <time>2021-10-17T06:59:18.000Z</time>
      </trkpt>
      <trkpt lat="47.47674" lon="-2.34946">
        <ele>29.200000762939</ele>
        <time>2021-10-17T06:59:23.000Z</time>
      </trkpt>
      <trkpt lat="47.4767" lon="-2.34971">
        <ele>29.200000762939</ele>
        <time>2021-10-17T06:59:26.000Z</time>
      </trkpt>
      <trkpt lat="47.47652" lon="-2.35039">
        <ele>29.200000762939</ele>
        <time>2021-10-17T06:59:34.000Z</time>
      </trkpt>
      <trkpt lat="47.47649" lon="-2.35066">
        <ele>29.200000762939</ele>
        <time>2021-10-17T06:59:37.000Z</time>
      </trkpt>
      <trkpt lat="47.47649" lon="-2.35084">
        <ele>29.200000762939</ele>
        <time>2021-10-17T06:59:39.000Z</time>
      </trkpt>
      <trkpt lat="47.47658" lon="-2.35145">
        <ele>29.200000762939</ele>
        <time>2021-10-17T06:59:46.000Z</time>
      </trkpt>
      <trkpt lat="47.47666" lon="-2.35204">
        <ele>29.200000762939</ele>
        <time>2021-10-17T06:59:53.000Z</time>
      </trkpt>
      <trkpt lat="47.47667" lon="-2.35229">
        <ele>29.200000762939</ele>
        <time>2021-10-17T06:59:56.000Z</time>
      </trkpt>
      <trkpt lat="47.47672" lon="-2.35252">
        <ele>29.200000762939</ele>
        <time>2021-10-17T06:59:59.000Z</time>
      </trkpt>
      <trkpt lat="47.47675" lon="-2.35259">
        <ele>29.200000762939</ele>
        <time>2021-10-17T07:00:00.000Z</time>
      </trkpt>
      <trkpt lat="47.47684" lon="-2.35295">
        <ele>29.200000762939</ele>
        <time>2021-10-17T07:00:05.000Z</time>
      </trkpt>
      <trkpt lat="47.47692" lon="-2.35354">
        <ele>29.200000762939</ele>
        <time>2021-10-17T07:00:13.000Z</time>
      </trkpt>
      <trkpt lat="47.477" lon="-2.3539">
        <ele>29.200000762939</ele>
        <time>2021-10-17T07:00:18.000Z</time>
      </trkpt>
      <trkpt lat="47.47705" lon="-2.35403">
        <ele>29.200000762939</ele>
        <time>2021-10-17T07:00:20.000Z</time>
      </trkpt>
      <trkpt lat="47.47715" lon="-2.35425">
        <ele>29.200000762939</ele>
        <time>2021-10-17T07:00:24.000Z</time>
      </trkpt>
      <trkpt lat="47.47722" lon="-2.35434">
        <ele>29.200000762939</ele>
        <time>2021-10-17T07:00:26.000Z</time>
      </trkpt>
      <trkpt lat="47.47735" lon="-2.35442">
        <ele>29.200000762939</ele>
        <time>2021-10-17T07:00:29.000Z</time>
      </trkpt>
      <trkpt lat="47.47739" lon="-2.35444">
        <ele>29.200000762939</ele>
        <time>2021-10-17T07:00:30.000Z</time>
      </trkpt>
      <trkpt lat="47.47748" lon="-2.35448">
        <ele>29.200000762939</ele>
        <time>2021-10-17T07:00:32.000Z</time>
      </trkpt>
      <trkpt lat="47.47769" lon="-2.35462">
        <ele>29.200000762939</ele>
        <time>2021-10-17T07:00:37.000Z</time>
      </trkpt>
      <trkpt lat="47.47777" lon="-2.35472">
        <ele>29.60000038147</ele>
        <time>2021-10-17T07:00:39.000Z</time>
      </trkpt>
      <trkpt lat="47.47779" lon="-2.35478">
        <ele>30</ele>
        <time>2021-10-17T07:00:40.000Z</time>
      </trkpt>
      <trkpt lat="47.47782" lon="-2.35485">
        <ele>30.799999237061</ele>
        <time>2021-10-17T07:00:41.000Z</time>
      </trkpt>
      <trkpt lat="47.47784" lon="-2.3549">
        <ele>31.200000762939</ele>
        <time>2021-10-17T07:00:42.000Z</time>
      </trkpt>
      <trkpt lat="47.47794" lon="-2.35504">
        <ele>31.200000762939</ele>
        <time>2021-10-17T07:00:45.000Z</time>
      </trkpt>
      <trkpt lat="47.47816" lon="-2.35536">
        <ele>31.200000762939</ele>
        <time>2021-10-17T07:00:51.000Z</time>
      </trkpt>
      <trkpt lat="47.47824" lon="-2.35547">
        <ele>31.200000762939</ele>
        <time>2021-10-17T07:00:53.000Z</time>
      </trkpt>
      <trkpt lat="47.47838" lon="-2.3556">
        <ele>31.200000762939</ele>
        <time>2021-10-17T07:00:56.000Z</time>
      </trkpt>
      <trkpt lat="47.47872" lon="-2.35579">
        <ele>31.200000762939</ele>
        <time>2021-10-17T07:01:02.000Z</time>
      </trkpt>
      <trkpt lat="47.479" lon="-2.35592">
        <ele>31.200000762939</ele>
        <time>2021-10-17T07:01:07.000Z</time>
      </trkpt>
      <trkpt lat="47.47912" lon="-2.35596">
        <ele>31.200000762939</ele>
        <time>2021-10-17T07:01:09.000Z</time>
      </trkpt>
      <trkpt lat="47.47952" lon="-2.356">
        <ele>31.200000762939</ele>
        <time>2021-10-17T07:01:16.000Z</time>
      </trkpt>
      <trkpt lat="47.47999" lon="-2.35596">
        <ele>31.200000762939</ele>
        <time>2021-10-17T07:01:24.000Z</time>
      </trkpt>
      <trkpt lat="47.48042" lon="-2.35586">
        <ele>31.200000762939</ele>
        <time>2021-10-17T07:01:31.000Z</time>
      </trkpt>
      <trkpt lat="47.48072" lon="-2.35566">
        <ele>31.200000762939</ele>
        <time>2021-10-17T07:01:37.000Z</time>
      </trkpt>
      <trkpt lat="47.481" lon="-2.35541">
        <ele>31.200000762939</ele>
        <time>2021-10-17T07:01:43.000Z</time>
      </trkpt>
      <trkpt lat="47.48113" lon="-2.35532">
        <ele>31.200000762939</ele>
        <time>2021-10-17T07:01:46.000Z</time>
      </trkpt>
      <trkpt lat="47.48119" lon="-2.35522">
        <ele>31.200000762939</ele>
        <time>2021-10-17T07:01:48.000Z</time>
      </trkpt>
      <trkpt lat="47.48124" lon="-2.35503">
        <ele>31.200000762939</ele>
        <time>2021-10-17T07:01:51.000Z</time>
      </trkpt>
      <trkpt lat="47.48128" lon="-2.35483">
        <ele>31.200000762939</ele>
        <time>2021-10-17T07:01:54.000Z</time>
      </trkpt>
      <trkpt lat="47.4813" lon="-2.35477">
        <ele>31.200000762939</ele>
        <time>2021-10-17T07:01:55.000Z</time>
      </trkpt>
      <trkpt lat="47.48137" lon="-2.35456">
        <ele>31.200000762939</ele>
        <time>2021-10-17T07:01:58.000Z</time>
      </trkpt>
      <trkpt lat="47.48143" lon="-2.35441">
        <ele>31.200000762939</ele>
        <time>2021-10-17T07:02:00.000Z</time>
      </trkpt>
      <trkpt lat="47.48151" lon="-2.35407">
        <ele>31.200000762939</ele>
        <time>2021-10-17T07:02:04.000Z</time>
      </trkpt>
      <trkpt lat="47.48162" lon="-2.35357">
        <ele>31.200000762939</ele>
        <time>2021-10-17T07:02:11.000Z</time>
      </trkpt>
      <trkpt lat="47.48165" lon="-2.35355">
        <ele>31.200000762939</ele>
        <time>2021-10-17T07:02:12.000Z</time>
      </trkpt>
      <trkpt lat="47.48169" lon="-2.35356">
        <ele>31.200000762939</ele>
        <time>2021-10-17T07:02:13.000Z</time>
      </trkpt>
      <trkpt lat="47.48177" lon="-2.35363">
        <ele>31.200000762939</ele>
        <time>2021-10-17T07:02:15.000Z</time>
      </trkpt>
      <trkpt lat="47.48188" lon="-2.35372">
        <ele>31.200000762939</ele>
        <time>2021-10-17T07:02:17.000Z</time>
      </trkpt>
      <trkpt lat="47.48235" lon="-2.3542">
        <ele>31.200000762939</ele>
        <time>2021-10-17T07:02:26.000Z</time>
      </trkpt>
      <trkpt lat="47.48239" lon="-2.35424">
        <ele>30.799999237061</ele>
        <time>2021-10-17T07:02:27.000Z</time>
      </trkpt>
      <trkpt lat="47.48244" lon="-2.35427">
        <ele>30.39999961853</ele>
        <time>2021-10-17T07:02:28.000Z</time>
      </trkpt>
      <trkpt lat="47.48248" lon="-2.35428">
        <ele>30</ele>
        <time>2021-10-17T07:02:29.000Z</time>
      </trkpt>
      <trkpt lat="47.48252" lon="-2.35429">
        <ele>29.60000038147</ele>
        <time>2021-10-17T07:02:30.000Z</time>
      </trkpt>
      <trkpt lat="47.48256" lon="-2.3543">
        <ele>29</ele>
        <time>2021-10-17T07:02:31.000Z</time>
      </trkpt>
      <trkpt lat="47.48261" lon="-2.3543">
        <ele>29</ele>
        <time>2021-10-17T07:02:32.000Z</time>
      </trkpt>
      <trkpt lat="47.48265" lon="-2.3543">
        <ele>29</ele>
        <time>2021-10-17T07:02:33.000Z</time>
      </trkpt>
      <trkpt lat="47.48274" lon="-2.35429">
        <ele>29</ele>
        <time>2021-10-17T07:02:35.000Z</time>
      </trkpt>
      <trkpt lat="47.48309" lon="-2.35428">
        <ele>29</ele>
        <time>2021-10-17T07:02:42.000Z</time>
      </trkpt>
      <trkpt lat="47.48319" lon="-2.35428">
        <ele>28.60000038147</ele>
        <time>2021-10-17T07:02:44.000Z</time>
      </trkpt>
      <trkpt lat="47.48324" lon="-2.35429">
        <ele>28.200000762939</ele>
        <time>2021-10-17T07:02:45.000Z</time>
      </trkpt>
      <trkpt lat="47.48329" lon="-2.35429">
        <ele>27.799999237061</ele>
        <time>2021-10-17T07:02:46.000Z</time>
      </trkpt>
      <trkpt lat="47.48334" lon="-2.35429">
        <ele>27.39999961853</ele>
        <time>2021-10-17T07:02:47.000Z</time>
      </trkpt>
      <trkpt lat="47.48338" lon="-2.35429">
        <ele>27</ele>
        <time>2021-10-17T07:02:48.000Z</time>
      </trkpt>
      <trkpt lat="47.48343" lon="-2.35428">
        <ele>27</ele>
        <time>2021-10-17T07:02:49.000Z</time>
      </trkpt>
      <trkpt lat="47.48352" lon="-2.35414">
        <ele>27</ele>
        <time>2021-10-17T07:02:52.000Z</time>
      </trkpt>
      <trkpt lat="47.48354" lon="-2.35393">
        <ele>27</ele>
        <time>2021-10-17T07:02:55.000Z</time>
      </trkpt>
      <trkpt lat="47.48354" lon="-2.35385">
        <ele>27</ele>
        <time>2021-10-17T07:02:56.000Z</time>
      </trkpt>
      <trkpt lat="47.4835" lon="-2.3534">
        <ele>27</ele>
        <time>2021-10-17T07:03:02.000Z</time>
      </trkpt>
      <trkpt lat="47.48343" lon="-2.35277">
        <ele>27</ele>
        <time>2021-10-17T07:03:11.000Z</time>
      </trkpt>
      <trkpt lat="47.48341" lon="-2.3523">
        <ele>27</ele>
        <time>2021-10-17T07:03:18.000Z</time>
      </trkpt>
      <trkpt lat="47.48343" lon="-2.35224">
        <ele>27</ele>
        <time>2021-10-17T07:03:19.000Z</time>
      </trkpt>
      <trkpt lat="47.48353" lon="-2.35211">
        <ele>27</ele>
        <time>2021-10-17T07:03:22.000Z</time>
      </trkpt>
      <trkpt lat="47.48357" lon="-2.35207">
        <ele>27</ele>
        <time>2021-10-17T07:03:23.000Z</time>
      </trkpt>
      <trkpt lat="47.48366" lon="-2.35196">
        <ele>27</ele>
        <time>2021-10-17T07:03:25.000Z</time>
      </trkpt>
      <trkpt lat="47.48379" lon="-2.35176">
        <ele>27</ele>
        <time>2021-10-17T07:03:28.000Z</time>
      </trkpt>
      <trkpt lat="47.48398" lon="-2.35136">
        <ele>27</ele>
        <time>2021-10-17T07:03:34.000Z</time>
      </trkpt>
      <trkpt lat="47.48402" lon="-2.35128">
        <ele>27</ele>
        <time>2021-10-17T07:03:36.000Z</time>
      </trkpt>
      <trkpt lat="47.48405" lon="-2.35128">
        <ele>27</ele>
        <time>2021-10-17T07:03:37.000Z</time>
      </trkpt>
      <trkpt lat="47.48417" lon="-2.35138">
        <ele>27</ele>
        <time>2021-10-17T07:03:42.000Z</time>
      </trkpt>
      <trkpt lat="47.48419" lon="-2.35141">
        <ele>27</ele>
        <time>2021-10-17T07:03:43.000Z</time>
      </trkpt>
      <trkpt lat="47.48434" lon="-2.35161">
        <ele>27</ele>
        <time>2021-10-17T07:03:48.000Z</time>
      </trkpt>
      <trkpt lat="47.48451" lon="-2.35185">
        <ele>27</ele>
        <time>2021-10-17T07:03:53.000Z</time>
      </trkpt>
      <trkpt lat="47.48469" lon="-2.35212">
        <ele>26.60000038147</ele>
        <time>2021-10-17T07:03:59.000Z</time>
      </trkpt>
      <trkpt lat="47.48471" lon="-2.35217">
        <ele>26.200000762939</ele>
        <time>2021-10-17T07:04:00.000Z</time>
      </trkpt>
      <trkpt lat="47.48473" lon="-2.35222">
        <ele>25.799999237061</ele>
        <time>2021-10-17T07:04:01.000Z</time>
      </trkpt>
      <trkpt lat="47.48473" lon="-2.35226">
        <ele>25.39999961853</ele>
        <time>2021-10-17T07:04:02.000Z</time>
      </trkpt>
      <trkpt lat="47.48474" lon="-2.35229">
        <ele>25</ele>
        <time>2021-10-17T07:04:03.000Z</time>
      </trkpt>
      <trkpt lat="47.48486" lon="-2.35233">
        <ele>25</ele>
        <time>2021-10-17T07:04:07.000Z</time>
      </trkpt>
      <trkpt lat="47.48492" lon="-2.35232">
        <ele>25</ele>
        <time>2021-10-17T07:04:09.000Z</time>
      </trkpt>
      <trkpt lat="47.48495" lon="-2.35235">
        <ele>25</ele>
        <time>2021-10-17T07:04:11.000Z</time>
      </trkpt>
      <trkpt lat="47.48501" lon="-2.35244">
        <ele>25</ele>
        <time>2021-10-17T07:04:15.000Z</time>
      </trkpt>
      <trkpt lat="47.48503" lon="-2.35247">
        <ele>25</ele>
        <time>2021-10-17T07:04:16.000Z</time>
      </trkpt>
      <trkpt lat="47.48512" lon="-2.35251">
        <ele>25</ele>
        <time>2021-10-17T07:04:20.000Z</time>
      </trkpt>
      <trkpt lat="47.48515" lon="-2.3525">
        <ele>25</ele>
        <time>2021-10-17T07:04:21.000Z</time>
      </trkpt>
      <trkpt lat="47.48523" lon="-2.3525">
        <ele>25</ele>
        <time>2021-10-17T07:04:24.000Z</time>
      </trkpt>
      <trkpt lat="47.48529" lon="-2.35253">
        <ele>25</ele>
        <time>2021-10-17T07:04:27.000Z</time>
      </trkpt>
      <trkpt lat="47.48534" lon="-2.35254">
        <ele>25</ele>
        <time>2021-10-17T07:04:30.000Z</time>
      </trkpt>
      <trkpt lat="47.48538" lon="-2.35257">
        <ele>24.60000038147</ele>
        <time>2021-10-17T07:04:32.000Z</time>
      </trkpt>
      <trkpt lat="47.4854" lon="-2.35258">
        <ele>24.200000762939</ele>
        <time>2021-10-17T07:04:33.000Z</time>
      </trkpt>
      <trkpt lat="47.48543" lon="-2.3526">
        <ele>23.799999237061</ele>
        <time>2021-10-17T07:04:34.000Z</time>
      </trkpt>
      <trkpt lat="47.48547" lon="-2.35262">
        <ele>23.39999961853</ele>
        <time>2021-10-17T07:04:35.000Z</time>
      </trkpt>
      <trkpt lat="47.48551" lon="-2.35267">
        <ele>23</ele>
        <time>2021-10-17T07:04:36.000Z</time>
      </trkpt>
      <trkpt lat="47.48553" lon="-2.35272">
        <ele>23</ele>
        <time>2021-10-17T07:04:37.000Z</time>
      </trkpt>
      <trkpt lat="47.48553" lon="-2.35279">
        <ele>23</ele>
        <time>2021-10-17T07:04:39.000Z</time>
      </trkpt>
      <trkpt lat="47.48545" lon="-2.35291">
        <ele>23</ele>
        <time>2021-10-17T07:04:43.000Z</time>
      </trkpt>
      <trkpt lat="47.48542" lon="-2.35294">
        <ele>23</ele>
        <time>2021-10-17T07:04:44.000Z</time>
      </trkpt>
      <trkpt lat="47.48539" lon="-2.35304">
        <ele>23</ele>
        <time>2021-10-17T07:04:49.000Z</time>
      </trkpt>
      <trkpt lat="47.4854" lon="-2.35305">
        <ele>23</ele>
        <time>2021-10-17T07:04:50.000Z</time>
      </trkpt>
      <trkpt lat="47.48548" lon="-2.35299">
        <ele>23</ele>
        <time>2021-10-17T07:04:54.000Z</time>
      </trkpt>
      <trkpt lat="47.48551" lon="-2.35296">
        <ele>23</ele>
        <time>2021-10-17T07:04:55.000Z</time>
      </trkpt>
      <trkpt lat="47.48557" lon="-2.35298">
        <ele>23</ele>
        <time>2021-10-17T07:04:57.000Z</time>
      </trkpt>
      <trkpt lat="47.48569" lon="-2.35305">
        <ele>23</ele>
        <time>2021-10-17T07:05:02.000Z</time>
      </trkpt>
      <trkpt lat="47.48572" lon="-2.35307">
        <ele>23</ele>
        <time>2021-10-17T07:05:03.000Z</time>
      </trkpt>
      <trkpt lat="47.48578" lon="-2.3532">
        <ele>23</ele>
        <time>2021-10-17T07:05:06.000Z</time>
      </trkpt>
      <trkpt lat="47.48587" lon="-2.35338">
        <ele>23</ele>
        <time>2021-10-17T07:05:10.000Z</time>
      </trkpt>
      <trkpt lat="47.4859" lon="-2.35342">
        <ele>23</ele>
        <time>2021-10-17T07:05:11.000Z</time>
      </trkpt>
      <trkpt lat="47.48596" lon="-2.35353">
        <ele>22.60000038147</ele>
        <time>2021-10-17T07:05:14.000Z</time>
      </trkpt>
      <trkpt lat="47.48598" lon="-2.35357">
        <ele>22.200000762939</ele>
        <time>2021-10-17T07:05:15.000Z</time>
      </trkpt>
      <trkpt lat="47.486" lon="-2.35358">
        <ele>21.60000038147</ele>
        <time>2021-10-17T07:05:16.000Z</time>
      </trkpt>
      <trkpt lat="47.48603" lon="-2.35359">
        <ele>21.200000762939</ele>
        <time>2021-10-17T07:05:17.000Z</time>
      </trkpt>
      <trkpt lat="47.48606" lon="-2.35359">
        <ele>20.799999237061</ele>
        <time>2021-10-17T07:05:18.000Z</time>
      </trkpt>
      <trkpt lat="47.48625" lon="-2.35359">
        <ele>20.799999237061</ele>
        <time>2021-10-17T07:05:23.000Z</time>
      </trkpt>
      <trkpt lat="47.48628" lon="-2.35356">
        <ele>20.799999237061</ele>
        <time>2021-10-17T07:05:24.000Z</time>
      </trkpt>
      <trkpt lat="47.48631" lon="-2.35348">
        <ele>20.799999237061</ele>
        <time>2021-10-17T07:05:26.000Z</time>
      </trkpt>
      <trkpt lat="47.48626" lon="-2.35334">
        <ele>20.799999237061</ele>
        <time>2021-10-17T07:05:30.000Z</time>
      </trkpt>
      <trkpt lat="47.48621" lon="-2.35334">
        <ele>20.799999237061</ele>
        <time>2021-10-17T07:05:32.000Z</time>
      </trkpt>
      <trkpt lat="47.48618" lon="-2.35333">
        <ele>20.799999237061</ele>
        <time>2021-10-17T07:05:33.000Z</time>
      </trkpt>
      <trkpt lat="47.48617" lon="-2.35327">
        <ele>20.799999237061</ele>
        <time>2021-10-17T07:05:35.000Z</time>
      </trkpt>
      <trkpt lat="47.48611" lon="-2.3531">
        <ele>20.799999237061</ele>
        <time>2021-10-17T07:05:39.000Z</time>
      </trkpt>
      <trkpt lat="47.48605" lon="-2.35296">
        <ele>20.799999237061</ele>
        <time>2021-10-17T07:05:42.000Z</time>
      </trkpt>
      <trkpt lat="47.48605" lon="-2.35288">
        <ele>20.799999237061</ele>
        <time>2021-10-17T07:05:44.000Z</time>
      </trkpt>
      <trkpt lat="47.48604" lon="-2.35285">
        <ele>20.799999237061</ele>
        <time>2021-10-17T07:05:45.000Z</time>
      </trkpt>
      <trkpt lat="47.486" lon="-2.35284">
        <ele>20.799999237061</ele>
        <time>2021-10-17T07:05:48.000Z</time>
      </trkpt>
      <trkpt lat="47.48596" lon="-2.35276">
        <ele>20.799999237061</ele>
        <time>2021-10-17T07:05:53.000Z</time>
      </trkpt>
      <trkpt lat="47.48604" lon="-2.35271">
        <ele>20.799999237061</ele>
        <time>2021-10-17T07:05:57.000Z</time>
      </trkpt>
      <trkpt lat="47.48606" lon="-2.35272">
        <ele>20.799999237061</ele>
        <time>2021-10-17T07:05:58.000Z</time>
      </trkpt>
      <trkpt lat="47.48613" lon="-2.35284">
        <ele>20.799999237061</ele>
        <time>2021-10-17T07:06:02.000Z</time>
      </trkpt>
      <trkpt lat="47.48613" lon="-2.35287">
        <ele>20.799999237061</ele>
        <time>2021-10-17T07:06:03.000Z</time>
      </trkpt>
      <trkpt lat="47.4862" lon="-2.35298">
        <ele>20.799999237061</ele>
        <time>2021-10-17T07:06:06.000Z</time>
      </trkpt>
      <trkpt lat="47.48621" lon="-2.35301">
        <ele>20.799999237061</ele>
        <time>2021-10-17T07:06:07.000Z</time>
      </trkpt>
      <trkpt lat="47.48629" lon="-2.3532">
        <ele>20.799999237061</ele>
        <time>2021-10-17T07:06:12.000Z</time>
      </trkpt>
      <trkpt lat="47.48634" lon="-2.35323">
        <ele>20.799999237061</ele>
        <time>2021-10-17T07:06:16.000Z</time>
      </trkpt>
      <trkpt lat="47.48634" lon="-2.35321">
        <ele>20.799999237061</ele>
        <time>2021-10-17T07:06:17.000Z</time>
      </trkpt>
      <trkpt lat="47.48637" lon="-2.35304">
        <ele>20.799999237061</ele>
        <time>2021-10-17T07:06:21.000Z</time>
      </trkpt>
      <trkpt lat="47.48638" lon="-2.353">
        <ele>20.799999237061</ele>
        <time>2021-10-17T07:06:22.000Z</time>
      </trkpt>
      <trkpt lat="47.48639" lon="-2.3529">
        <ele>20.799999237061</ele>
        <time>2021-10-17T07:06:25.000Z</time>
      </trkpt>
      <trkpt lat="47.48634" lon="-2.35268">
        <ele>20.799999237061</ele>
        <time>2021-10-17T07:06:30.000Z</time>
      </trkpt>
      <trkpt lat="47.48633" lon="-2.35246">
        <ele>20.799999237061</ele>
        <time>2021-10-17T07:06:35.000Z</time>
      </trkpt>
      <trkpt lat="47.4863" lon="-2.35247">
        <ele>20.799999237061</ele>
        <time>2021-10-17T07:06:39.000Z</time>
      </trkpt>
      <trkpt lat="47.48624" lon="-2.35251">
        <ele>20.799999237061</ele>
        <time>2021-10-17T07:06:43.000Z</time>
      </trkpt>
      <trkpt lat="47.4861" lon="-2.35256">
        <ele>20.799999237061</ele>
        <time>2021-10-17T07:06:49.000Z</time>
      </trkpt>
      <trkpt lat="47.48598" lon="-2.3525">
        <ele>20.799999237061</ele>
        <time>2021-10-17T07:06:55.000Z</time>
      </trkpt>
      <trkpt lat="47.48586" lon="-2.35242">
        <ele>20.799999237061</ele>
        <time>2021-10-17T07:07:00.000Z</time>
      </trkpt>
      <trkpt lat="47.4858" lon="-2.35235">
        <ele>20.799999237061</ele>
        <time>2021-10-17T07:07:05.000Z</time>
      </trkpt>
      <trkpt lat="47.48578" lon="-2.35235">
        <ele>20.799999237061</ele>
        <time>2021-10-17T07:07:06.000Z</time>
      </trkpt>
      <trkpt lat="47.48574" lon="-2.35231">
        <ele>20.799999237061</ele>
        <time>2021-10-17T07:07:10.000Z</time>
      </trkpt>
      <trkpt lat="47.48577" lon="-2.35216">
        <ele>20.799999237061</ele>
        <time>2021-10-17T07:07:15.000Z</time>
      </trkpt>
      <trkpt lat="47.48584" lon="-2.35205">
        <ele>20.799999237061</ele>
        <time>2021-10-17T07:07:19.000Z</time>
      </trkpt>
      <trkpt lat="47.48593" lon="-2.352">
        <ele>20.799999237061</ele>
        <time>2021-10-17T07:07:22.000Z</time>
      </trkpt>
      <trkpt lat="47.48595" lon="-2.35199">
        <ele>20.799999237061</ele>
        <time>2021-10-17T07:07:23.000Z</time>
      </trkpt>
      <trkpt lat="47.48603" lon="-2.35195">
        <ele>20.799999237061</ele>
        <time>2021-10-17T07:07:28.000Z</time>
      </trkpt>
      <trkpt lat="47.4861" lon="-2.35197">
        <ele>20.799999237061</ele>
        <time>2021-10-17T07:07:32.000Z</time>
      </trkpt>
      <trkpt lat="47.48612" lon="-2.35196">
        <ele>20.799999237061</ele>
        <time>2021-10-17T07:07:33.000Z</time>
      </trkpt>
      <trkpt lat="47.48614" lon="-2.35193">
        <ele>20.799999237061</ele>
        <time>2021-10-17T07:07:35.000Z</time>
      </trkpt>
      <trkpt lat="47.48616" lon="-2.35189">
        <ele>20.799999237061</ele>
        <time>2021-10-17T07:07:36.000Z</time>
      </trkpt>
      <trkpt lat="47.48622" lon="-2.35167">
        <ele>20.799999237061</ele>
        <time>2021-10-17T07:07:41.000Z</time>
      </trkpt>
      <trkpt lat="47.48625" lon="-2.35159">
        <ele>20.799999237061</ele>
        <time>2021-10-17T07:07:43.000Z</time>
      </trkpt>
      <trkpt lat="47.4863" lon="-2.35155">
        <ele>20.799999237061</ele>
        <time>2021-10-17T07:07:45.000Z</time>
      </trkpt>
      <trkpt lat="47.48639" lon="-2.3516">
        <ele>20.799999237061</ele>
        <time>2021-10-17T07:07:49.000Z</time>
      </trkpt>
      <trkpt lat="47.48638" lon="-2.35163">
        <ele>20.799999237061</ele>
        <time>2021-10-17T07:07:50.000Z</time>
      </trkpt>
      <trkpt lat="47.48638" lon="-2.35177">
        <ele>20.799999237061</ele>
        <time>2021-10-17T07:07:53.000Z</time>
      </trkpt>
      <trkpt lat="47.48639" lon="-2.35181">
        <ele>20.799999237061</ele>
        <time>2021-10-17T07:07:54.000Z</time>
      </trkpt>
      <trkpt lat="47.48647" lon="-2.35198">
        <ele>20.799999237061</ele>
        <time>2021-10-17T07:08:00.000Z</time>
      </trkpt>
      <trkpt lat="47.48649" lon="-2.35199">
        <ele>20.799999237061</ele>
        <time>2021-10-17T07:08:01.000Z</time>
      </trkpt>
      <trkpt lat="47.48655" lon="-2.35207">
        <ele>20.799999237061</ele>
        <time>2021-10-17T07:08:05.000Z</time>
      </trkpt>
      <trkpt lat="47.48655" lon="-2.3521">
        <ele>20.799999237061</ele>
        <time>2021-10-17T07:08:06.000Z</time>
      </trkpt>
      <trkpt lat="47.48657" lon="-2.35228">
        <ele>20.799999237061</ele>
        <time>2021-10-17T07:08:11.000Z</time>
      </trkpt>
      <trkpt lat="47.48665" lon="-2.35238">
        <ele>20.799999237061</ele>
        <time>2021-10-17T07:08:16.000Z</time>
      </trkpt>
      <trkpt lat="47.48667" lon="-2.3524">
        <ele>20.799999237061</ele>
        <time>2021-10-17T07:08:17.000Z</time>
      </trkpt>
      <trkpt lat="47.4867" lon="-2.3524">
        <ele>20.799999237061</ele>
        <time>2021-10-17T07:08:18.000Z</time>
      </trkpt>
      <trkpt lat="47.48672" lon="-2.35247">
        <ele>20.799999237061</ele>
        <time>2021-10-17T07:08:20.000Z</time>
      </trkpt>
      <trkpt lat="47.48671" lon="-2.35265">
        <ele>20.799999237061</ele>
        <time>2021-10-17T07:08:26.000Z</time>
      </trkpt>
      <trkpt lat="47.48676" lon="-2.35279">
        <ele>20.799999237061</ele>
        <time>2021-10-17T07:08:32.000Z</time>
      </trkpt>
      <trkpt lat="47.48677" lon="-2.3528">
        <ele>20.799999237061</ele>
        <time>2021-10-17T07:08:34.000Z</time>
      </trkpt>
      <trkpt lat="47.48681" lon="-2.35276">
        <ele>20.799999237061</ele>
        <time>2021-10-17T07:08:37.000Z</time>
      </trkpt>
      <trkpt lat="47.48681" lon="-2.3527">
        <ele>20.799999237061</ele>
        <time>2021-10-17T07:08:39.000Z</time>
      </trkpt>
      <trkpt lat="47.48678" lon="-2.35259">
        <ele>20.799999237061</ele>
        <time>2021-10-17T07:08:43.000Z</time>
      </trkpt>
      <trkpt lat="47.48679" lon="-2.35255">
        <ele>20.799999237061</ele>
        <time>2021-10-17T07:08:45.000Z</time>
      </trkpt>
      <trkpt lat="47.48682" lon="-2.35252">
        <ele>20.799999237061</ele>
        <time>2021-10-17T07:08:47.000Z</time>
      </trkpt>
      <trkpt lat="47.48683" lon="-2.35252">
        <ele>20.39999961853</ele>
        <time>2021-10-17T07:08:48.000Z</time>
      </trkpt>
      <trkpt lat="47.48684" lon="-2.35252">
        <ele>20</ele>
        <time>2021-10-17T07:08:49.000Z</time>
      </trkpt>
      <trkpt lat="47.48685" lon="-2.35252">
        <ele>19.60000038147</ele>
        <time>2021-10-17T07:08:50.000Z</time>
      </trkpt>
      <trkpt lat="47.48686" lon="-2.35251">
        <ele>19.200000762939</ele>
        <time>2021-10-17T07:08:51.000Z</time>
      </trkpt>
      <trkpt lat="47.48687" lon="-2.35251">
        <ele>18.799999237061</ele>
        <time>2021-10-17T07:08:52.000Z</time>
      </trkpt>
      <trkpt lat="47.48688" lon="-2.35252">
        <ele>18.799999237061</ele>
        <time>2021-10-17T07:08:53.000Z</time>
      </trkpt>
      <trkpt lat="47.48694" lon="-2.35255">
        <ele>18.799999237061</ele>
        <time>2021-10-17T07:09:04.000Z</time>
      </trkpt>
      <trkpt lat="47.48699" lon="-2.35259">
        <ele>18.799999237061</ele>
        <time>2021-10-17T07:09:06.000Z</time>
      </trkpt>
      <trkpt lat="47.48703" lon="-2.35255">
        <ele>18.799999237061</ele>
        <time>2021-10-17T07:09:09.000Z</time>
      </trkpt>
      <trkpt lat="47.48704" lon="-2.35243">
        <ele>18.799999237061</ele>
        <time>2021-10-17T07:09:14.000Z</time>
      </trkpt>
      <trkpt lat="47.48706" lon="-2.35238">
        <ele>18.799999237061</ele>
        <time>2021-10-17T07:09:17.000Z</time>
      </trkpt>
      <trkpt lat="47.48709" lon="-2.35235">
        <ele>18.799999237061</ele>
        <time>2021-10-17T07:09:20.000Z</time>
      </trkpt>
      <trkpt lat="47.48716" lon="-2.35236">
        <ele>18.39999961853</ele>
        <time>2021-10-17T07:09:25.000Z</time>
      </trkpt>
      <trkpt lat="47.48716" lon="-2.35235">
        <ele>18</ele>
        <time>2021-10-17T07:09:26.000Z</time>
      </trkpt>
      <trkpt lat="47.4872" lon="-2.35237">
        <ele>16.799999237061</ele>
        <time>2021-10-17T07:09:31.000Z</time>
      </trkpt>
      <trkpt lat="47.48723" lon="-2.35236">
        <ele>16.799999237061</ele>
        <time>2021-10-17T07:09:32.000Z</time>
      </trkpt>
      <trkpt lat="47.48724" lon="-2.35236">
        <ele>16.799999237061</ele>
        <time>2021-10-17T07:09:33.000Z</time>
      </trkpt>
      <trkpt lat="47.48726" lon="-2.35234">
        <ele>16.799999237061</ele>
        <time>2021-10-17T07:09:35.000Z</time>
      </trkpt>
      <trkpt lat="47.48723" lon="-2.35231">
        <ele>16.799999237061</ele>
        <time>2021-10-17T07:09:40.000Z</time>
      </trkpt>
      <trkpt lat="47.48721" lon="-2.35231">
        <ele>16.799999237061</ele>
        <time>2021-10-17T07:09:42.000Z</time>
      </trkpt>
      <trkpt lat="47.48714" lon="-2.35225">
        <ele>16.799999237061</ele>
        <time>2021-10-17T07:09:48.000Z</time>
      </trkpt>
      <trkpt lat="47.48713" lon="-2.35225">
        <ele>16.799999237061</ele>
        <time>2021-10-17T07:09:49.000Z</time>
      </trkpt>
      <trkpt lat="47.48706" lon="-2.35225">
        <ele>16.799999237061</ele>
        <time>2021-10-17T07:09:53.000Z</time>
      </trkpt>
      <trkpt lat="47.48701" lon="-2.35222">
        <ele>16.799999237061</ele>
        <time>2021-10-17T07:09:56.000Z</time>
      </trkpt>
      <trkpt lat="47.48697" lon="-2.35211">
        <ele>16.799999237061</ele>
        <time>2021-10-17T07:10:01.000Z</time>
      </trkpt>
      <trkpt lat="47.48704" lon="-2.35197">
        <ele>16.799999237061</ele>
        <time>2021-10-17T07:10:05.000Z</time>
      </trkpt>
      <trkpt lat="47.48716" lon="-2.35177">
        <ele>16.799999237061</ele>
        <time>2021-10-17T07:10:10.000Z</time>
      </trkpt>
      <trkpt lat="47.4871" lon="-2.35159">
        <ele>16.799999237061</ele>
        <time>2021-10-17T07:10:14.000Z</time>
      </trkpt>
      <trkpt lat="47.48708" lon="-2.35144">
        <ele>16.799999237061</ele>
        <time>2021-10-17T07:10:17.000Z</time>
      </trkpt>
      <trkpt lat="47.4871" lon="-2.35139">
        <ele>16.799999237061</ele>
        <time>2021-10-17T07:10:18.000Z</time>
      </trkpt>
      <trkpt lat="47.48726" lon="-2.35124">
        <ele>16.799999237061</ele>
        <time>2021-10-17T07:10:22.000Z</time>
      </trkpt>
      <trkpt lat="47.48734" lon="-2.35116">
        <ele>16.799999237061</ele>
        <time>2021-10-17T07:10:24.000Z</time>
      </trkpt>
      <trkpt lat="47.48748" lon="-2.35102">
        <ele>16.799999237061</ele>
        <time>2021-10-17T07:10:27.000Z</time>
      </trkpt>
      <trkpt lat="47.48752" lon="-2.35096">
        <ele>16.799999237061</ele>
        <time>2021-10-17T07:10:28.000Z</time>
      </trkpt>
      <trkpt lat="47.4877" lon="-2.35074">
        <ele>16.39999961853</ele>
        <time>2021-10-17T07:10:32.000Z</time>
      </trkpt>
      <trkpt lat="47.48774" lon="-2.35067">
        <ele>15.39999961853</ele>
        <time>2021-10-17T07:10:33.000Z</time>
      </trkpt>
      <trkpt lat="47.48777" lon="-2.35059">
        <ele>15</ele>
        <time>2021-10-17T07:10:34.000Z</time>
      </trkpt>
      <trkpt lat="47.48779" lon="-2.35051">
        <ele>14.60000038147</ele>
        <time>2021-10-17T07:10:35.000Z</time>
      </trkpt>
      <trkpt lat="47.48776" lon="-2.3504">
        <ele>14.60000038147</ele>
        <time>2021-10-17T07:10:37.000Z</time>
      </trkpt>
      <trkpt lat="47.48768" lon="-2.35033">
        <ele>14.60000038147</ele>
        <time>2021-10-17T07:10:39.000Z</time>
      </trkpt>
      <trkpt lat="47.48756" lon="-2.35018">
        <ele>14.60000038147</ele>
        <time>2021-10-17T07:10:42.000Z</time>
      </trkpt>
      <trkpt lat="47.48738" lon="-2.34984">
        <ele>14.60000038147</ele>
        <time>2021-10-17T07:10:48.000Z</time>
      </trkpt>
      <trkpt lat="47.48742" lon="-2.34971">
        <ele>14.60000038147</ele>
        <time>2021-10-17T07:10:51.000Z</time>
      </trkpt>
      <trkpt lat="47.48744" lon="-2.34968">
        <ele>14.60000038147</ele>
        <time>2021-10-17T07:10:52.000Z</time>
      </trkpt>
      <trkpt lat="47.48758" lon="-2.34949">
        <ele>15</ele>
        <time>2021-10-17T07:10:57.000Z</time>
      </trkpt>
      <trkpt lat="47.48761" lon="-2.34945">
        <ele>15.39999961853</ele>
        <time>2021-10-17T07:10:58.000Z</time>
      </trkpt>
      <trkpt lat="47.48765" lon="-2.34943">
        <ele>15.800000190735</ele>
        <time>2021-10-17T07:10:59.000Z</time>
      </trkpt>
      <trkpt lat="47.4877" lon="-2.3494">
        <ele>16.200000762939</ele>
        <time>2021-10-17T07:11:00.000Z</time>
      </trkpt>
      <trkpt lat="47.48776" lon="-2.34937">
        <ele>16.60000038147</ele>
        <time>2021-10-17T07:11:01.000Z</time>
      </trkpt>
      <trkpt lat="47.48814" lon="-2.34924">
        <ele>16.60000038147</ele>
        <time>2021-10-17T07:11:07.000Z</time>
      </trkpt>
      <trkpt lat="47.48826" lon="-2.34918">
        <ele>16.60000038147</ele>
        <time>2021-10-17T07:11:09.000Z</time>
      </trkpt>
      <trkpt lat="47.4884" lon="-2.34902">
        <ele>16.60000038147</ele>
        <time>2021-10-17T07:11:12.000Z</time>
      </trkpt>
      <trkpt lat="47.48847" lon="-2.34889">
        <ele>16.60000038147</ele>
        <time>2021-10-17T07:11:14.000Z</time>
      </trkpt>
      <trkpt lat="47.48859" lon="-2.34872">
        <ele>16.60000038147</ele>
        <time>2021-10-17T07:11:17.000Z</time>
      </trkpt>
      <trkpt lat="47.48875" lon="-2.34859">
        <ele>16.60000038147</ele>
        <time>2021-10-17T07:11:20.000Z</time>
      </trkpt>
      <trkpt lat="47.48888" lon="-2.34853">
        <ele>16.60000038147</ele>
        <time>2021-10-17T07:11:22.000Z</time>
      </trkpt>
      <trkpt lat="47.489" lon="-2.34851">
        <ele>16.60000038147</ele>
        <time>2021-10-17T07:11:24.000Z</time>
      </trkpt>
      <trkpt lat="47.4892" lon="-2.34847">
        <ele>16.60000038147</ele>
        <time>2021-10-17T07:11:27.000Z</time>
      </trkpt>
      <trkpt lat="47.48927" lon="-2.34844">
        <ele>16.60000038147</ele>
        <time>2021-10-17T07:11:28.000Z</time>
      </trkpt>
      <trkpt lat="47.48942" lon="-2.34827">
        <ele>16.60000038147</ele>
        <time>2021-10-17T07:11:31.000Z</time>
      </trkpt>
      <trkpt lat="47.48943" lon="-2.34801">
        <ele>16.60000038147</ele>
        <time>2021-10-17T07:11:34.000Z</time>
      </trkpt>
      <trkpt lat="47.48949" lon="-2.34788">
        <ele>16.60000038147</ele>
        <time>2021-10-17T07:11:36.000Z</time>
      </trkpt>
      <trkpt lat="47.4897" lon="-2.34775">
        <ele>16.60000038147</ele>
        <time>2021-10-17T07:11:40.000Z</time>
      </trkpt>
      <trkpt lat="47.48991" lon="-2.34763">
        <ele>16.60000038147</ele>
        <time>2021-10-17T07:11:44.000Z</time>
      </trkpt>
      <trkpt lat="47.49" lon="-2.34754">
        <ele>16.60000038147</ele>
        <time>2021-10-17T07:11:46.000Z</time>
      </trkpt>
      <trkpt lat="47.4901" lon="-2.34726">
        <ele>16.60000038147</ele>
        <time>2021-10-17T07:11:50.000Z</time>
      </trkpt>
      <trkpt lat="47.49007" lon="-2.34704">
        <ele>16.60000038147</ele>
        <time>2021-10-17T07:11:53.000Z</time>
      </trkpt>
      <trkpt lat="47.49006" lon="-2.34697">
        <ele>16.60000038147</ele>
        <time>2021-10-17T07:11:54.000Z</time>
      </trkpt>
      <trkpt lat="47.48996" lon="-2.34662">
        <ele>16.60000038147</ele>
        <time>2021-10-17T07:11:59.000Z</time>
      </trkpt>
      <trkpt lat="47.48979" lon="-2.34622">
        <ele>16.60000038147</ele>
        <time>2021-10-17T07:12:05.000Z</time>
      </trkpt>
      <trkpt lat="47.48977" lon="-2.34615">
        <ele>16.60000038147</ele>
        <time>2021-10-17T07:12:06.000Z</time>
      </trkpt>
      <trkpt lat="47.48974" lon="-2.34592">
        <ele>16.60000038147</ele>
        <time>2021-10-17T07:12:09.000Z</time>
      </trkpt>
      <trkpt lat="47.48982" lon="-2.34573">
        <ele>16.60000038147</ele>
        <time>2021-10-17T07:12:13.000Z</time>
      </trkpt>
      <trkpt lat="47.48993" lon="-2.34576">
        <ele>16.60000038147</ele>
        <time>2021-10-17T07:12:16.000Z</time>
      </trkpt>
      <trkpt lat="47.48996" lon="-2.34577">
        <ele>16.60000038147</ele>
        <time>2021-10-17T07:12:17.000Z</time>
      </trkpt>
      <trkpt lat="47.49008" lon="-2.3458">
        <ele>16.60000038147</ele>
        <time>2021-10-17T07:12:20.000Z</time>
      </trkpt>
      <trkpt lat="47.49022" lon="-2.34579">
        <ele>16.60000038147</ele>
        <time>2021-10-17T07:12:23.000Z</time>
      </trkpt>
      <trkpt lat="47.49027" lon="-2.34578">
        <ele>16.60000038147</ele>
        <time>2021-10-17T07:12:24.000Z</time>
      </trkpt>
      <trkpt lat="47.49037" lon="-2.34574">
        <ele>16.200000762939</ele>
        <time>2021-10-17T07:12:26.000Z</time>
      </trkpt>
      <trkpt lat="47.49042" lon="-2.3457">
        <ele>15.800000190735</ele>
        <time>2021-10-17T07:12:27.000Z</time>
      </trkpt>
      <trkpt lat="47.49047" lon="-2.34566">
        <ele>15.39999961853</ele>
        <time>2021-10-17T07:12:28.000Z</time>
      </trkpt>
      <trkpt lat="47.49052" lon="-2.34561">
        <ele>15</ele>
        <time>2021-10-17T07:12:29.000Z</time>
      </trkpt>
      <trkpt lat="47.49057" lon="-2.34556">
        <ele>14.60000038147</ele>
        <time>2021-10-17T07:12:30.000Z</time>
      </trkpt>
      <trkpt lat="47.49067" lon="-2.34544">
        <ele>14.60000038147</ele>
        <time>2021-10-17T07:12:32.000Z</time>
      </trkpt>
      <trkpt lat="47.4908" lon="-2.34527">
        <ele>14</ele>
        <time>2021-10-17T07:12:35.000Z</time>
      </trkpt>
      <trkpt lat="47.49084" lon="-2.34525">
        <ele>13.199999809265</ele>
        <time>2021-10-17T07:12:36.000Z</time>
      </trkpt>
      <trkpt lat="47.49088" lon="-2.34524">
        <ele>12.60000038147</ele>
        <time>2021-10-17T07:12:37.000Z</time>
      </trkpt>
      <trkpt lat="47.4909" lon="-2.34524">
        <ele>12.199999809265</ele>
        <time>2021-10-17T07:12:38.000Z</time>
      </trkpt>
      <trkpt lat="47.49092" lon="-2.34524">
        <ele>11.800000190735</ele>
        <time>2021-10-17T07:12:39.000Z</time>
      </trkpt>
      <trkpt lat="47.49093" lon="-2.34524">
        <ele>11.39999961853</ele>
        <time>2021-10-17T07:12:40.000Z</time>
      </trkpt>
      <trkpt lat="47.49094" lon="-2.34524">
        <ele>10.800000190735</ele>
        <time>2021-10-17T07:12:41.000Z</time>
      </trkpt>
      <trkpt lat="47.49095" lon="-2.34525">
        <ele>10.39999961853</ele>
        <time>2021-10-17T07:12:42.000Z</time>
      </trkpt>
      <trkpt lat="47.49097" lon="-2.34526">
        <ele>10</ele>
        <time>2021-10-17T07:12:43.000Z</time>
      </trkpt>
      <trkpt lat="47.49097" lon="-2.34526">
        <ele>10</ele>
        <time>2021-10-17T07:12:44.000Z</time>
      </trkpt>
      <trkpt lat="47.49101" lon="-2.3453">
        <ele>10</ele>
        <time>2021-10-17T07:13:18.000Z</time>
      </trkpt>
      <trkpt lat="47.49104" lon="-2.34536">
        <ele>10</ele>
        <time>2021-10-17T07:13:23.000Z</time>
      </trkpt>
      <trkpt lat="47.49104" lon="-2.34537">
        <ele>10</ele>
        <time>2021-10-17T07:13:24.000Z</time>
      </trkpt>
      <trkpt lat="47.49104" lon="-2.34537">
        <ele>10</ele>
        <time>2021-10-17T07:13:25.000Z</time>
      </trkpt>
      <trkpt lat="47.49107" lon="-2.34545">
        <ele>10</ele>
        <time>2021-10-17T07:14:19.000Z</time>
      </trkpt>
      <trkpt lat="47.49109" lon="-2.34548">
        <ele>10</ele>
        <time>2021-10-17T07:14:22.000Z</time>
      </trkpt>
      <trkpt lat="47.49113" lon="-2.34552">
        <ele>8</ele>
        <time>2021-10-17T07:14:39.000Z</time>
      </trkpt>
      <trkpt lat="47.49117" lon="-2.34547">
        <ele>8</ele>
        <time>2021-10-17T07:14:42.000Z</time>
      </trkpt>
      <trkpt lat="47.49118" lon="-2.34547">
        <ele>7.5999999046326</ele>
        <time>2021-10-17T07:14:43.000Z</time>
      </trkpt>
      <trkpt lat="47.49118" lon="-2.34546">
        <ele>7</ele>
        <time>2021-10-17T07:14:44.000Z</time>
      </trkpt>
      <trkpt lat="47.49122" lon="-2.34547">
        <ele>5.5999999046326</ele>
        <time>2021-10-17T07:14:49.000Z</time>
      </trkpt>
      <trkpt lat="47.49138" lon="-2.34546">
        <ele>5.5999999046326</ele>
        <time>2021-10-17T07:14:54.000Z</time>
      </trkpt>
      <trkpt lat="47.49149" lon="-2.34548">
        <ele>5.5999999046326</ele>
        <time>2021-10-17T07:14:57.000Z</time>
      </trkpt>
      <trkpt lat="47.49152" lon="-2.34551">
        <ele>5.5999999046326</ele>
        <time>2021-10-17T07:14:58.000Z</time>
      </trkpt>
      <trkpt lat="47.49165" lon="-2.34553">
        <ele>5.5999999046326</ele>
        <time>2021-10-17T07:15:01.000Z</time>
      </trkpt>
      <trkpt lat="47.4917" lon="-2.34552">
        <ele>5.5999999046326</ele>
        <time>2021-10-17T07:15:02.000Z</time>
      </trkpt>
      <trkpt lat="47.49188" lon="-2.34551">
        <ele>5.5999999046326</ele>
        <time>2021-10-17T07:15:06.000Z</time>
      </trkpt>
      <trkpt lat="47.49197" lon="-2.34553">
        <ele>5.5999999046326</ele>
        <time>2021-10-17T07:15:08.000Z</time>
      </trkpt>
      <trkpt lat="47.49208" lon="-2.3456">
        <ele>5.5999999046326</ele>
        <time>2021-10-17T07:15:10.000Z</time>
      </trkpt>
      <trkpt lat="47.49247" lon="-2.34583">
        <ele>5.5999999046326</ele>
        <time>2021-10-17T07:15:17.000Z</time>
      </trkpt>
      <trkpt lat="47.4926" lon="-2.34591">
        <ele>5.1999998092651</ele>
        <time>2021-10-17T07:15:19.000Z</time>
      </trkpt>
      <trkpt lat="47.49266" lon="-2.34595">
        <ele>4.8000001907349</ele>
        <time>2021-10-17T07:15:20.000Z</time>
      </trkpt>
      <trkpt lat="47.49272" lon="-2.34598">
        <ele>4.4000000953674</ele>
        <time>2021-10-17T07:15:21.000Z</time>
      </trkpt>
      <trkpt lat="47.49279" lon="-2.34602">
        <ele>4</ele>
        <time>2021-10-17T07:15:22.000Z</time>
      </trkpt>
      <trkpt lat="47.49286" lon="-2.34605">
        <ele>3.5999999046326</ele>
        <time>2021-10-17T07:15:23.000Z</time>
      </trkpt>
      <trkpt lat="47.49305" lon="-2.34618">
        <ele>3</ele>
        <time>2021-10-17T07:15:27.000Z</time>
      </trkpt>
      <trkpt lat="47.49308" lon="-2.34621">
        <ele>2.5999999046326</ele>
        <time>2021-10-17T07:15:28.000Z</time>
      </trkpt>
      <trkpt lat="47.49313" lon="-2.34625">
        <ele>1.7999999523163</ele>
        <time>2021-10-17T07:15:29.000Z</time>
      </trkpt>
      <trkpt lat="47.49318" lon="-2.34629">
        <ele>1.3999999761581</ele>
        <time>2021-10-17T07:15:30.000Z</time>
      </trkpt>
      <trkpt lat="47.49323" lon="-2.34633">
        <ele>1.3999999761581</ele>
        <time>2021-10-17T07:15:31.000Z</time>
      </trkpt>
      <trkpt lat="47.4935" lon="-2.34659">
        <ele>1.3999999761581</ele>
        <time>2021-10-17T07:15:37.000Z</time>
      </trkpt>
      <trkpt lat="47.49371" lon="-2.34682">
        <ele>1.3999999761581</ele>
        <time>2021-10-17T07:15:42.000Z</time>
      </trkpt>
      <trkpt lat="47.49376" lon="-2.34688">
        <ele>1</ele>
        <time>2021-10-17T07:15:43.000Z</time>
      </trkpt>
      <trkpt lat="47.49381" lon="-2.34694">
        <ele>0.60000002384186</ele>
        <time>2021-10-17T07:15:44.000Z</time>
      </trkpt>
      <trkpt lat="47.49386" lon="-2.34701">
        <ele>12.9</ele>
        <time>2021-10-17T07:15:45.000Z</time>
      </trkpt>
      <trkpt lat="47.49391" lon="-2.34708">
        <ele>-0.40000000596046</ele>
        <time>2021-10-17T07:15:46.000Z</time>
      </trkpt>
      <trkpt lat="47.49396" lon="-2.34715">
        <ele>-0.80000001192093</ele>
        <time>2021-10-17T07:15:47.000Z</time>
      </trkpt>
      <trkpt lat="47.4941" lon="-2.34739">
        <ele>-0.80000001192093</ele>
        <time>2021-10-17T07:15:50.000Z</time>
      </trkpt>
      <trkpt lat="47.49414" lon="-2.34748">
        <ele>-1.2000000476837</ele>
        <time>2021-10-17T07:15:51.000Z</time>
      </trkpt>
      <trkpt lat="47.49418" lon="-2.34757">
        <ele>-1.6000000238419</ele>
        <time>2021-10-17T07:15:52.000Z</time>
      </trkpt>
      <trkpt lat="47.49422" lon="-2.34765">
        <ele>-2</ele>
        <time>2021-10-17T07:15:53.000Z</time>
      </trkpt>
      <trkpt lat="47.49426" lon="-2.34774">
        <ele>-2.7999999523163</ele>
        <time>2021-10-17T07:15:54.000Z</time>
      </trkpt>
      <trkpt lat="47.49441" lon="-2.34806">
        <ele>-2.7999999523163</ele>
        <time>2021-10-17T07:15:58.000Z</time>
      </trkpt>
      <trkpt lat="47.49462" lon="-2.34852">
        <ele>-2.7999999523163</ele>
        <time>2021-10-17T07:16:04.000Z</time>
      </trkpt>
      <trkpt lat="47.49469" lon="-2.34871">
        <ele>-3.4000000953674</ele>
        <time>2021-10-17T07:16:06.000Z</time>
      </trkpt>
      <trkpt lat="47.4947" lon="-2.34881">
        <ele>-3.7999999523163</ele>
        <time>2021-10-17T07:16:07.000Z</time>
      </trkpt>
      <trkpt lat="47.4947" lon="-2.34891">
        <ele>-4.1999998092651</ele>
        <time>2021-10-17T07:16:08.000Z</time>
      </trkpt>
      <trkpt lat="47.49471" lon="-2.34901">
        <ele>-4.5999999046326</ele>
        <time>2021-10-17T07:16:09.000Z</time>
      </trkpt>
      <trkpt lat="47.49472" lon="-2.3491">
        <ele>-5</ele>
        <time>2021-10-17T07:16:10.000Z</time>
      </trkpt>
      <trkpt lat="47.49478" lon="-2.34947">
        <ele>-5</ele>
        <time>2021-10-17T07:16:14.000Z</time>
      </trkpt>
      <trkpt lat="47.49479" lon="-2.34955">
        <ele>-5.4000000953674</ele>
        <time>2021-10-17T07:16:15.000Z</time>
      </trkpt>
      <trkpt lat="47.49479" lon="-2.34963">
        <ele>-6</ele>
        <time>2021-10-17T07:16:16.000Z</time>
      </trkpt>
      <trkpt lat="47.4948" lon="-2.34971">
        <ele>-6.4000000953674</ele>
        <time>2021-10-17T07:16:17.000Z</time>
      </trkpt>
      <trkpt lat="47.49481" lon="-2.34979">
        <ele>-7.1999998092651</ele>
        <time>2021-10-17T07:16:18.000Z</time>
      </trkpt>
      <trkpt lat="47.49482" lon="-2.34987">
        <ele>-7.1999998092651</ele>
        <time>2021-10-17T07:16:19.000Z</time>
      </trkpt>
      <trkpt lat="47.4949" lon="-2.35013">
        <ele>-7.1999998092651</ele>
        <time>2021-10-17T07:16:24.000Z</time>
      </trkpt>
      <trkpt lat="47.495" lon="-2.35006">
        <ele>-7.1999998092651</ele>
        <time>2021-10-17T07:16:27.000Z</time>
      </trkpt>
      <trkpt lat="47.49503" lon="-2.35001">
        <ele>-7.1999998092651</ele>
        <time>2021-10-17T07:16:28.000Z</time>
      </trkpt>
      <trkpt lat="47.4952" lon="-2.3498">
        <ele>-7.1999998092651</ele>
        <time>2021-10-17T07:16:34.000Z</time>
      </trkpt>
      <trkpt lat="47.49536" lon="-2.34968">
        <ele>-7.1999998092651</ele>
        <time>2021-10-17T07:16:39.000Z</time>
      </trkpt>
      <trkpt lat="47.49546" lon="-2.34962">
        <ele>-6.8000001907349</ele>
        <time>2021-10-17T07:16:42.000Z</time>
      </trkpt>
      <trkpt lat="47.49549" lon="-2.34959">
        <ele>-6.4000000953674</ele>
        <time>2021-10-17T07:16:43.000Z</time>
      </trkpt>
      <trkpt lat="47.49552" lon="-2.34957">
        <ele>-6</ele>
        <time>2021-10-17T07:16:44.000Z</time>
      </trkpt>
      <trkpt lat="47.49555" lon="-2.34955">
        <ele>-5.5999999046326</ele>
        <time>2021-10-17T07:16:45.000Z</time>
      </trkpt>
      <trkpt lat="47.49558" lon="-2.34953">
        <ele>-5.1999998092651</ele>
        <time>2021-10-17T07:16:46.000Z</time>
      </trkpt>
      <trkpt lat="47.49566" lon="-2.34948">
        <ele>-4.8000001907349</ele>
        <time>2021-10-17T07:16:49.000Z</time>
      </trkpt>
      <trkpt lat="47.49568" lon="-2.34946">
        <ele>-4.4000000953674</ele>
        <time>2021-10-17T07:16:50.000Z</time>
      </trkpt>
      <trkpt lat="47.49571" lon="-2.34945">
        <ele>-3.7999999523163</ele>
        <time>2021-10-17T07:16:51.000Z</time>
      </trkpt>
      <trkpt lat="47.49573" lon="-2.34944">
        <ele>-3.4000000953674</ele>
        <time>2021-10-17T07:16:52.000Z</time>
      </trkpt>
      <trkpt lat="47.49576" lon="-2.34943">
        <ele>-3</ele>
        <time>2021-10-17T07:16:53.000Z</time>
      </trkpt>
      <trkpt lat="47.49581" lon="-2.3494">
        <ele>-2.5999999046326</ele>
        <time>2021-10-17T07:16:55.000Z</time>
      </trkpt>
      <trkpt lat="47.49584" lon="-2.34939">
        <ele>-2</ele>
        <time>2021-10-17T07:16:56.000Z</time>
      </trkpt>
      <trkpt lat="47.49586" lon="-2.34939">
        <ele>-1.6000000238419</ele>
        <time>2021-10-17T07:16:57.000Z</time>
      </trkpt>
      <trkpt lat="47.49589" lon="-2.34938">
        <ele>-1.2000000476837</ele>
        <time>2021-10-17T07:16:58.000Z</time>
      </trkpt>
      <trkpt lat="47.49591" lon="-2.34936">
        <ele>-0.80000001192093</ele>
        <time>2021-10-17T07:16:59.000Z</time>
      </trkpt>
      <trkpt lat="47.49594" lon="-2.34937">
        <ele>-0.80000001192093</ele>
        <time>2021-10-17T07:17:00.000Z</time>
      </trkpt>
      <trkpt lat="47.49596" lon="-2.34937">
        <ele>-0.20000000298023</ele>
        <time>2021-10-17T07:17:01.000Z</time>
      </trkpt>
      <trkpt lat="47.49599" lon="-2.34936">
        <ele>0.20000000298023</ele>
        <time>2021-10-17T07:17:02.000Z</time>
      </trkpt>
      <trkpt lat="47.49602" lon="-2.34934">
        <ele>0.60000002384186</ele>
        <time>2021-10-17T07:17:03.000Z</time>
      </trkpt>
      <trkpt lat="47.49605" lon="-2.34932">
        <ele>1</ele>
        <time>2021-10-17T07:17:04.000Z</time>
      </trkpt>
      <trkpt lat="47.49609" lon="-2.3493">
        <ele>1.3999999761581</ele>
        <time>2021-10-17T07:17:05.000Z</time>
      </trkpt>
      <trkpt lat="47.49614" lon="-2.34929">
        <ele>1.7999999523163</ele>
        <time>2021-10-17T07:17:07.000Z</time>
      </trkpt>
      <trkpt lat="47.49618" lon="-2.34928">
        <ele>2.4000000953674</ele>
        <time>2021-10-17T07:17:08.000Z</time>
      </trkpt>
      <trkpt lat="47.49621" lon="-2.34927">
        <ele>2.7999999523163</ele>
        <time>2021-10-17T07:17:09.000Z</time>
      </trkpt>
      <trkpt lat="47.49624" lon="-2.34926">
        <ele>3.2000000476837</ele>
        <time>2021-10-17T07:17:10.000Z</time>
      </trkpt>
      <trkpt lat="47.49627" lon="-2.34926">
        <ele>3.5999999046326</ele>
        <time>2021-10-17T07:17:11.000Z</time>
      </trkpt>
      <trkpt lat="47.49645" lon="-2.34921">
        <ele>3.5999999046326</ele>
        <time>2021-10-17T07:17:17.000Z</time>
      </trkpt>
      <trkpt lat="47.49652" lon="-2.3492">
        <ele>4</ele>
        <time>2021-10-17T07:17:19.000Z</time>
      </trkpt>
      <trkpt lat="47.49655" lon="-2.34919">
        <ele>4.4000000953674</ele>
        <time>2021-10-17T07:17:20.000Z</time>
      </trkpt>
      <trkpt lat="47.49658" lon="-2.34918">
        <ele>4.8000001907349</ele>
        <time>2021-10-17T07:17:21.000Z</time>
      </trkpt>
      <trkpt lat="47.49661" lon="-2.34918">
        <ele>5.1999998092651</ele>
        <time>2021-10-17T07:17:22.000Z</time>
      </trkpt>
      <trkpt lat="47.49664" lon="-2.34917">
        <ele>5.5999999046326</ele>
        <time>2021-10-17T07:17:23.000Z</time>
      </trkpt>
      <trkpt lat="47.49667" lon="-2.34917">
        <ele>5.5999999046326</ele>
        <time>2021-10-17T07:17:24.000Z</time>
      </trkpt>
      <trkpt lat="47.49691" lon="-2.34917">
        <ele>5.5999999046326</ele>
        <time>2021-10-17T07:17:31.000Z</time>
      </trkpt>
      <trkpt lat="47.49697" lon="-2.34915">
        <ele>6</ele>
        <time>2021-10-17T07:17:33.000Z</time>
      </trkpt>
      <trkpt lat="47.49701" lon="-2.34913">
        <ele>6.4000000953674</ele>
        <time>2021-10-17T07:17:34.000Z</time>
      </trkpt>
      <trkpt lat="47.49704" lon="-2.34911">
        <ele>6.8000001907349</ele>
        <time>2021-10-17T07:17:35.000Z</time>
      </trkpt>
      <trkpt lat="47.49707" lon="-2.3491">
        <ele>7.1999998092651</ele>
        <time>2021-10-17T07:17:36.000Z</time>
      </trkpt>
      <trkpt lat="47.4971" lon="-2.34908">
        <ele>7.5999999046326</ele>
        <time>2021-10-17T07:17:37.000Z</time>
      </trkpt>
      <trkpt lat="47.49726" lon="-2.34897">
        <ele>7.5999999046326</ele>
        <time>2021-10-17T07:17:43.000Z</time>
      </trkpt>
      <trkpt lat="47.49745" lon="-2.34889">
        <ele>7.5999999046326</ele>
        <time>2021-10-17T07:17:49.000Z</time>
      </trkpt>
      <trkpt lat="47.49748" lon="-2.34889">
        <ele>8</ele>
        <time>2021-10-17T07:17:50.000Z</time>
      </trkpt>
      <trkpt lat="47.49751" lon="-2.34888">
        <ele>8.3999996185303</ele>
        <time>2021-10-17T07:17:51.000Z</time>
      </trkpt>
      <trkpt lat="47.49755" lon="-2.34887">
        <ele>9</ele>
        <time>2021-10-17T07:17:52.000Z</time>
      </trkpt>
      <trkpt lat="47.49758" lon="-2.34886">
        <ele>9.3999996185303</ele>
        <time>2021-10-17T07:17:53.000Z</time>
      </trkpt>
      <trkpt lat="47.49761" lon="-2.34885">
        <ele>9.8000001907349</ele>
        <time>2021-10-17T07:17:54.000Z</time>
      </trkpt>
      <trkpt lat="47.49768" lon="-2.34882">
        <ele>9.8000001907349</ele>
        <time>2021-10-17T07:17:56.000Z</time>
      </trkpt>
      <trkpt lat="47.49783" lon="-2.34877">
        <ele>10.199999809265</ele>
        <time>2021-10-17T07:18:01.000Z</time>
      </trkpt>
      <trkpt lat="47.49786" lon="-2.34876">
        <ele>10.60000038147</ele>
        <time>2021-10-17T07:18:02.000Z</time>
      </trkpt>
      <trkpt lat="47.49789" lon="-2.34875">
        <ele>11</ele>
        <time>2021-10-17T07:18:03.000Z</time>
      </trkpt>
      <trkpt lat="47.49792" lon="-2.34874">
        <ele>11.39999961853</ele>
        <time>2021-10-17T07:18:04.000Z</time>
      </trkpt>
      <trkpt lat="47.49795" lon="-2.34873">
        <ele>11.800000190735</ele>
        <time>2021-10-17T07:18:05.000Z</time>
      </trkpt>
      <trkpt lat="47.49808" lon="-2.34866">
        <ele>11.800000190735</ele>
        <time>2021-10-17T07:18:10.000Z</time>
      </trkpt>
      <trkpt lat="47.49812" lon="-2.34863">
        <ele>12.199999809265</ele>
        <time>2021-10-17T07:18:12.000Z</time>
      </trkpt>
      <trkpt lat="47.49814" lon="-2.3486">
        <ele>12.60000038147</ele>
        <time>2021-10-17T07:18:13.000Z</time>
      </trkpt>
      <trkpt lat="47.49817" lon="-2.34858">
        <ele>13</ele>
        <time>2021-10-17T07:18:14.000Z</time>
      </trkpt>
      <trkpt lat="47.49819" lon="-2.34855">
        <ele>13.60000038147</ele>
        <time>2021-10-17T07:18:15.000Z</time>
      </trkpt>
      <trkpt lat="47.49821" lon="-2.34852">
        <ele>14</ele>
        <time>2021-10-17T07:18:16.000Z</time>
      </trkpt>
      <trkpt lat="47.49823" lon="-2.34849">
        <ele>14</ele>
        <time>2021-10-17T07:18:17.000Z</time>
      </trkpt>
      <trkpt lat="47.49834" lon="-2.3483">
        <ele>14.39999961853</ele>
        <time>2021-10-17T07:18:23.000Z</time>
      </trkpt>
      <trkpt lat="47.49836" lon="-2.34826">
        <ele>14.800000190735</ele>
        <time>2021-10-17T07:18:24.000Z</time>
      </trkpt>
      <trkpt lat="47.49838" lon="-2.34823">
        <ele>15.199999809265</ele>
        <time>2021-10-17T07:18:25.000Z</time>
      </trkpt>
      <trkpt lat="47.4984" lon="-2.34819">
        <ele>15.60000038147</ele>
        <time>2021-10-17T07:18:26.000Z</time>
      </trkpt>
      <trkpt lat="47.49843" lon="-2.34816">
        <ele>16</ele>
        <time>2021-10-17T07:18:27.000Z</time>
      </trkpt>
      <trkpt lat="47.49853" lon="-2.34801">
        <ele>16</ele>
        <time>2021-10-17T07:18:32.000Z</time>
      </trkpt>
      <trkpt lat="47.49859" lon="-2.34792">
        <ele>16.39999961853</ele>
        <time>2021-10-17T07:18:35.000Z</time>
      </trkpt>
      <trkpt lat="47.49861" lon="-2.34789">
        <ele>16.799999237061</ele>
        <time>2021-10-17T07:18:36.000Z</time>
      </trkpt>
      <trkpt lat="47.49863" lon="-2.34786">
        <ele>17.200000762939</ele>
        <time>2021-10-17T07:18:37.000Z</time>
      </trkpt>
      <trkpt lat="47.49866" lon="-2.34784">
        <ele>17.60000038147</ele>
        <time>2021-10-17T07:18:38.000Z</time>
      </trkpt>
      <trkpt lat="47.49868" lon="-2.34781">
        <ele>18</ele>
        <time>2021-10-17T07:18:39.000Z</time>
      </trkpt>
      <trkpt lat="47.4987" lon="-2.34778">
        <ele>18</ele>
        <time>2021-10-17T07:18:40.000Z</time>
      </trkpt>
      <trkpt lat="47.49881" lon="-2.34765">
        <ele>18.799999237061</ele>
        <time>2021-10-17T07:18:45.000Z</time>
      </trkpt>
      <trkpt lat="47.49883" lon="-2.34763">
        <ele>19.200000762939</ele>
        <time>2021-10-17T07:18:46.000Z</time>
      </trkpt>
      <trkpt lat="47.49884" lon="-2.3476">
        <ele>19.799999237061</ele>
        <time>2021-10-17T07:18:47.000Z</time>
      </trkpt>
      <trkpt lat="47.49886" lon="-2.34758">
        <ele>20.200000762939</ele>
        <time>2021-10-17T07:18:48.000Z</time>
      </trkpt>
      <trkpt lat="47.49888" lon="-2.34755">
        <ele>20.200000762939</ele>
        <time>2021-10-17T07:18:49.000Z</time>
      </trkpt>
      <trkpt lat="47.49897" lon="-2.34752">
        <ele>20.200000762939</ele>
        <time>2021-10-17T07:18:53.000Z</time>
      </trkpt>
      <trkpt lat="47.49899" lon="-2.34754">
        <ele>20.200000762939</ele>
        <time>2021-10-17T07:18:54.000Z</time>
      </trkpt>
      <trkpt lat="47.49901" lon="-2.34757">
        <ele>20.60000038147</ele>
        <time>2021-10-17T07:18:55.000Z</time>
      </trkpt>
      <trkpt lat="47.49903" lon="-2.3476">
        <ele>21</ele>
        <time>2021-10-17T07:18:56.000Z</time>
      </trkpt>
      <trkpt lat="47.49904" lon="-2.34764">
        <ele>21.39999961853</ele>
        <time>2021-10-17T07:18:57.000Z</time>
      </trkpt>
      <trkpt lat="47.49905" lon="-2.34769">
        <ele>21.799999237061</ele>
        <time>2021-10-17T07:18:58.000Z</time>
      </trkpt>
      <trkpt lat="47.49907" lon="-2.34774">
        <ele>22.200000762939</ele>
        <time>2021-10-17T07:18:59.000Z</time>
      </trkpt>
      <trkpt lat="47.49919" lon="-2.34812">
        <ele>22.200000762939</ele>
        <time>2021-10-17T07:19:07.000Z</time>
      </trkpt>
      <trkpt lat="47.49936" lon="-2.3486">
        <ele>22.200000762939</ele>
        <time>2021-10-17T07:19:17.000Z</time>
      </trkpt>
      <trkpt lat="47.49941" lon="-2.3487">
        <ele>22.60000038147</ele>
        <time>2021-10-17T07:19:19.000Z</time>
      </trkpt>
      <trkpt lat="47.49944" lon="-2.34874">
        <ele>23</ele>
        <time>2021-10-17T07:19:20.000Z</time>
      </trkpt>
      <trkpt lat="47.49946" lon="-2.34878">
        <ele>23.39999961853</ele>
        <time>2021-10-17T07:19:21.000Z</time>
      </trkpt>
      <trkpt lat="47.49949" lon="-2.34883">
        <ele>23.799999237061</ele>
        <time>2021-10-17T07:19:22.000Z</time>
      </trkpt>
      <trkpt lat="47.49952" lon="-2.34886">
        <ele>24.200000762939</ele>
        <time>2021-10-17T07:19:23.000Z</time>
      </trkpt>
      <trkpt lat="47.49956" lon="-2.3489">
        <ele>24.200000762939</ele>
        <time>2021-10-17T07:19:24.000Z</time>
      </trkpt>
      <trkpt lat="47.49978" lon="-2.34913">
        <ele>24.200000762939</ele>
        <time>2021-10-17T07:19:31.000Z</time>
      </trkpt>
      <trkpt lat="47.5" lon="-2.34935">
        <ele>24.200000762939</ele>
        <time>2021-10-17T07:19:38.000Z</time>
      </trkpt>
      <trkpt lat="47.50021" lon="-2.34956">
        <ele>24.200000762939</ele>
        <time>2021-10-17T07:19:45.000Z</time>
      </trkpt>
      <trkpt lat="47.50034" lon="-2.3499">
        <ele>24.200000762939</ele>
        <time>2021-10-17T07:19:52.000Z</time>
      </trkpt>
      <trkpt lat="47.50046" lon="-2.35039">
        <ele>24.200000762939</ele>
        <time>2021-10-17T07:20:00.000Z</time>
      </trkpt>
      <trkpt lat="47.50061" lon="-2.35099">
        <ele>24.200000762939</ele>
        <time>2021-10-17T07:20:09.000Z</time>
      </trkpt>
      <trkpt lat="47.50074" lon="-2.35157">
        <ele>24.200000762939</ele>
        <time>2021-10-17T07:20:18.000Z</time>
      </trkpt>
      <trkpt lat="47.50087" lon="-2.35201">
        <ele>24.200000762939</ele>
        <time>2021-10-17T07:20:25.000Z</time>
      </trkpt>
      <trkpt lat="47.50098" lon="-2.35203">
        <ele>24.200000762939</ele>
        <time>2021-10-17T07:20:28.000Z</time>
      </trkpt>
      <trkpt lat="47.50108" lon="-2.35198">
        <ele>24.200000762939</ele>
        <time>2021-10-17T07:20:30.000Z</time>
      </trkpt>
      <trkpt lat="47.50128" lon="-2.3519">
        <ele>24.200000762939</ele>
        <time>2021-10-17T07:20:34.000Z</time>
      </trkpt>
      <trkpt lat="47.50159" lon="-2.35178">
        <ele>24.200000762939</ele>
        <time>2021-10-17T07:20:40.000Z</time>
      </trkpt>
      <trkpt lat="47.502" lon="-2.3516">
        <ele>24.200000762939</ele>
        <time>2021-10-17T07:20:47.000Z</time>
      </trkpt>
      <trkpt lat="47.50221" lon="-2.35149">
        <ele>23.799999237061</ele>
        <time>2021-10-17T07:20:51.000Z</time>
      </trkpt>
      <trkpt lat="47.50225" lon="-2.35149">
        <ele>23.39999961853</ele>
        <time>2021-10-17T07:20:52.000Z</time>
      </trkpt>
      <trkpt lat="47.50229" lon="-2.35152">
        <ele>22.799999237061</ele>
        <time>2021-10-17T07:20:53.000Z</time>
      </trkpt>
      <trkpt lat="47.50232" lon="-2.35157">
        <ele>22.39999961853</ele>
        <time>2021-10-17T07:20:54.000Z</time>
      </trkpt>
      <trkpt lat="47.50234" lon="-2.35163">
        <ele>22</ele>
        <time>2021-10-17T07:20:55.000Z</time>
      </trkpt>
      <trkpt lat="47.50234" lon="-2.3517">
        <ele>22</ele>
        <time>2021-10-17T07:20:56.000Z</time>
      </trkpt>
      <trkpt lat="47.50235" lon="-2.35183">
        <ele>22</ele>
        <time>2021-10-17T07:20:58.000Z</time>
      </trkpt>
      <trkpt lat="47.50236" lon="-2.35189">
        <ele>22</ele>
        <time>2021-10-17T07:20:59.000Z</time>
      </trkpt>
      <trkpt lat="47.50238" lon="-2.35211">
        <ele>22</ele>
        <time>2021-10-17T07:21:02.000Z</time>
      </trkpt>
      <trkpt lat="47.50241" lon="-2.35218">
        <ele>21.60000038147</ele>
        <time>2021-10-17T07:21:03.000Z</time>
      </trkpt>
      <trkpt lat="47.50244" lon="-2.35224">
        <ele>21.200000762939</ele>
        <time>2021-10-17T07:21:04.000Z</time>
      </trkpt>
      <trkpt lat="47.50249" lon="-2.3523">
        <ele>20.799999237061</ele>
        <time>2021-10-17T07:21:05.000Z</time>
      </trkpt>
      <trkpt lat="47.50254" lon="-2.35234">
        <ele>20.39999961853</ele>
        <time>2021-10-17T07:21:06.000Z</time>
      </trkpt>
      <trkpt lat="47.5026" lon="-2.35238">
        <ele>20</ele>
        <time>2021-10-17T07:21:07.000Z</time>
      </trkpt>
      <trkpt lat="47.50273" lon="-2.35243">
        <ele>20</ele>
        <time>2021-10-17T07:21:09.000Z</time>
      </trkpt>
      <trkpt lat="47.50295" lon="-2.35244">
        <ele>19.200000762939</ele>
        <time>2021-10-17T07:21:12.000Z</time>
      </trkpt>
      <trkpt lat="47.50302" lon="-2.35243">
        <ele>18.60000038147</ele>
        <time>2021-10-17T07:21:13.000Z</time>
      </trkpt>
      <trkpt lat="47.50309" lon="-2.35242">
        <ele>18.200000762939</ele>
        <time>2021-10-17T07:21:14.000Z</time>
      </trkpt>
      <trkpt lat="47.50317" lon="-2.35241">
        <ele>17.799999237061</ele>
        <time>2021-10-17T07:21:15.000Z</time>
      </trkpt>
      <trkpt lat="47.50341" lon="-2.35239">
        <ele>17.39999961853</ele>
        <time>2021-10-17T07:21:18.000Z</time>
      </trkpt>
      <trkpt lat="47.50348" lon="-2.35241">
        <ele>17</ele>
        <time>2021-10-17T07:21:19.000Z</time>
      </trkpt>
      <trkpt lat="47.50356" lon="-2.35245">
        <ele>16.39999961853</ele>
        <time>2021-10-17T07:21:20.000Z</time>
      </trkpt>
      <trkpt lat="47.50363" lon="-2.35249">
        <ele>16</ele>
        <time>2021-10-17T07:21:21.000Z</time>
      </trkpt>
      <trkpt lat="47.50371" lon="-2.35252">
        <ele>15.39999961853</ele>
        <time>2021-10-17T07:21:22.000Z</time>
      </trkpt>
      <trkpt lat="47.50379" lon="-2.35255">
        <ele>14.800000190735</ele>
        <time>2021-10-17T07:21:23.000Z</time>
      </trkpt>
      <trkpt lat="47.50387" lon="-2.35258">
        <ele>14.199999809265</ele>
        <time>2021-10-17T07:21:24.000Z</time>
      </trkpt>
      <trkpt lat="47.50394" lon="-2.35262">
        <ele>13.60000038147</ele>
        <time>2021-10-17T07:21:25.000Z</time>
      </trkpt>
      <trkpt lat="47.504" lon="-2.35268">
        <ele>13.199999809265</ele>
        <time>2021-10-17T07:21:26.000Z</time>
      </trkpt>
      <trkpt lat="47.50405" lon="-2.35276">
        <ele>12.60000038147</ele>
        <time>2021-10-17T07:21:27.000Z</time>
      </trkpt>
      <trkpt lat="47.5041" lon="-2.35284">
        <ele>12.199999809265</ele>
        <time>2021-10-17T07:21:28.000Z</time>
      </trkpt>
      <trkpt lat="47.50415" lon="-2.35291">
        <ele>11.800000190735</ele>
        <time>2021-10-17T07:21:29.000Z</time>
      </trkpt>
      <trkpt lat="47.50421" lon="-2.353">
        <ele>11.39999961853</ele>
        <time>2021-10-17T07:21:30.000Z</time>
      </trkpt>
      <trkpt lat="47.50426" lon="-2.35308">
        <ele>11</ele>
        <time>2021-10-17T07:21:31.000Z</time>
      </trkpt>
      <trkpt lat="47.5043" lon="-2.35316">
        <ele>11</ele>
        <time>2021-10-17T07:21:32.000Z</time>
      </trkpt>
      <trkpt lat="47.50434" lon="-2.35325">
        <ele>11</ele>
        <time>2021-10-17T07:21:33.000Z</time>
      </trkpt>
      <trkpt lat="47.50437" lon="-2.35334">
        <ele>10.60000038147</ele>
        <time>2021-10-17T07:21:34.000Z</time>
      </trkpt>
      <trkpt lat="47.50441" lon="-2.35342">
        <ele>10.199999809265</ele>
        <time>2021-10-17T07:21:35.000Z</time>
      </trkpt>
      <trkpt lat="47.50445" lon="-2.3535">
        <ele>9.8000001907349</ele>
        <time>2021-10-17T07:21:36.000Z</time>
      </trkpt>
      <trkpt lat="47.50448" lon="-2.35356">
        <ele>8.8000001907349</ele>
        <time>2021-10-17T07:21:37.000Z</time>
      </trkpt>
      <trkpt lat="47.50453" lon="-2.35362">
        <ele>8.1999998092651</ele>
        <time>2021-10-17T07:21:38.000Z</time>
      </trkpt>
      <trkpt lat="47.50457" lon="-2.35368">
        <ele>7.5999999046326</ele>
        <time>2021-10-17T07:21:39.000Z</time>
      </trkpt>
      <trkpt lat="47.50461" lon="-2.35373">
        <ele>6.8000001907349</ele>
        <time>2021-10-17T07:21:40.000Z</time>
      </trkpt>
      <trkpt lat="47.50466" lon="-2.35378">
        <ele>6</ele>
        <time>2021-10-17T07:21:41.000Z</time>
      </trkpt>
      <trkpt lat="47.50471" lon="-2.35381">
        <ele>5.1999998092651</ele>
        <time>2021-10-17T07:21:42.000Z</time>
      </trkpt>
      <trkpt lat="47.50477" lon="-2.35384">
        <ele>4.4000000953674</ele>
        <time>2021-10-17T07:21:43.000Z</time>
      </trkpt>
      <trkpt lat="47.50483" lon="-2.35385">
        <ele>3.5999999046326</ele>
        <time>2021-10-17T07:21:44.000Z</time>
      </trkpt>
      <trkpt lat="47.5049" lon="-2.35386">
        <ele>2.7999999523163</ele>
        <time>2021-10-17T07:21:45.000Z</time>
      </trkpt>
      <trkpt lat="47.50498" lon="-2.35387">
        <ele>2</ele>
        <time>2021-10-17T07:21:46.000Z</time>
      </trkpt>
      <trkpt lat="47.50506" lon="-2.35388">
        <ele>1.2000000476837</ele>
        <time>2021-10-17T07:21:47.000Z</time>
      </trkpt>
      <trkpt lat="47.50515" lon="-2.35388">
        <ele>0.60000002384186</ele>
        <time>2021-10-17T07:21:48.000Z</time>
      </trkpt>
      <trkpt lat="47.50524" lon="-2.35388">
        <ele>-0.20000000298023</ele>
        <time>2021-10-17T07:21:49.000Z</time>
      </trkpt>
      <trkpt lat="47.50534" lon="-2.35387">
        <ele>-0.80000001192093</ele>
        <time>2021-10-17T07:21:50.000Z</time>
      </trkpt>
      <trkpt lat="47.50543" lon="-2.35387">
        <ele>-1.6000000238419</ele>
        <time>2021-10-17T07:21:51.000Z</time>
      </trkpt>
      <trkpt lat="47.50554" lon="-2.35386">
        <ele>-2.2000000476837</ele>
        <time>2021-10-17T07:21:52.000Z</time>
      </trkpt>
      <trkpt lat="47.50563" lon="-2.35386">
        <ele>-3</ele>
        <time>2021-10-17T07:21:53.000Z</time>
      </trkpt>
      <trkpt lat="47.50573" lon="-2.35385">
        <ele>-3.5999999046326</ele>
        <time>2021-10-17T07:21:54.000Z</time>
      </trkpt>
      <trkpt lat="47.50583" lon="-2.35385">
        <ele>-4.1999998092651</ele>
        <time>2021-10-17T07:21:55.000Z</time>
      </trkpt>
      <trkpt lat="47.50593" lon="-2.35384">
        <ele>-5</ele>
        <time>2021-10-17T07:21:56.000Z</time>
      </trkpt>
      <trkpt lat="47.50603" lon="-2.35383">
        <ele>-5.5999999046326</ele>
        <time>2021-10-17T07:21:57.000Z</time>
      </trkpt>
      <trkpt lat="47.50613" lon="-2.35383">
        <ele>-6.1999998092651</ele>
        <time>2021-10-17T07:21:58.000Z</time>
      </trkpt>
      <trkpt lat="47.50623" lon="-2.35383">
        <ele>-6.8000001907349</ele>
        <time>2021-10-17T07:21:59.000Z</time>
      </trkpt>
      <trkpt lat="47.50634" lon="-2.35383">
        <ele>-7.1999998092651</ele>
        <time>2021-10-17T07:22:00.000Z</time>
      </trkpt>
      <trkpt lat="47.50644" lon="-2.35385">
        <ele>-7.5999999046326</ele>
        <time>2021-10-17T07:22:01.000Z</time>
      </trkpt>
      <trkpt lat="47.50654" lon="-2.35385">
        <ele>-8.6000003814697</ele>
        <time>2021-10-17T07:22:02.000Z</time>
      </trkpt>
      <trkpt lat="47.50672" lon="-2.35388">
        <ele>-8.6000003814697</ele>
        <time>2021-10-17T07:22:04.000Z</time>
      </trkpt>
      <trkpt lat="47.50729" lon="-2.35392">
        <ele>-8.6000003814697</ele>
        <time>2021-10-17T07:22:11.000Z</time>
      </trkpt>
      <trkpt lat="47.50773" lon="-2.35398">
        <ele>-8.6000003814697</ele>
        <time>2021-10-17T07:22:17.000Z</time>
      </trkpt>
      <trkpt lat="47.50812" lon="-2.35401">
        <ele>-8.6000003814697</ele>
        <time>2021-10-17T07:22:23.000Z</time>
      </trkpt>
      <trkpt lat="47.50837" lon="-2.35397">
        <ele>-8.6000003814697</ele>
        <time>2021-10-17T07:22:28.000Z</time>
      </trkpt>
      <trkpt lat="47.50842" lon="-2.3538">
        <ele>-8.6000003814697</ele>
        <time>2021-10-17T07:22:31.000Z</time>
      </trkpt>
      <trkpt lat="47.50841" lon="-2.35364">
        <ele>-8.6000003814697</ele>
        <time>2021-10-17T07:22:34.000Z</time>
      </trkpt>
      <trkpt lat="47.5084" lon="-2.35359">
        <ele>-8.6000003814697</ele>
        <time>2021-10-17T07:22:35.000Z</time>
      </trkpt>
      <trkpt lat="47.50838" lon="-2.3535">
        <ele>-8.1999998092651</ele>
        <time>2021-10-17T07:22:37.000Z</time>
      </trkpt>
      <trkpt lat="47.50837" lon="-2.35346">
        <ele>-7.5999999046326</ele>
        <time>2021-10-17T07:22:38.000Z</time>
      </trkpt>
      <trkpt lat="47.50836" lon="-2.35341">
        <ele>-7.1999998092651</ele>
        <time>2021-10-17T07:22:39.000Z</time>
      </trkpt>
      <trkpt lat="47.50835" lon="-2.35337">
        <ele>-6.8000001907349</ele>
        <time>2021-10-17T07:22:40.000Z</time>
      </trkpt>
      <trkpt lat="47.50835" lon="-2.35333">
        <ele>-6.4000000953674</ele>
        <time>2021-10-17T07:22:41.000Z</time>
      </trkpt>
      <trkpt lat="47.50836" lon="-2.35324">
        <ele>-6</ele>
        <time>2021-10-17T07:22:43.000Z</time>
      </trkpt>
      <trkpt lat="47.50836" lon="-2.3532">
        <ele>-5.4000000953674</ele>
        <time>2021-10-17T07:22:44.000Z</time>
      </trkpt>
      <trkpt lat="47.50837" lon="-2.35316">
        <ele>-5</ele>
        <time>2021-10-17T07:22:45.000Z</time>
      </trkpt>
      <trkpt lat="47.50837" lon="-2.35312">
        <ele>-4.5999999046326</ele>
        <time>2021-10-17T07:22:46.000Z</time>
      </trkpt>
      <trkpt lat="47.50837" lon="-2.35308">
        <ele>-4.1999998092651</ele>
        <time>2021-10-17T07:22:47.000Z</time>
      </trkpt>
      <trkpt lat="47.50838" lon="-2.35304">
        <ele>-3.7999999523163</ele>
        <time>2021-10-17T07:22:48.000Z</time>
      </trkpt>
      <trkpt lat="47.50837" lon="-2.35299">
        <ele>-3.2000000476837</ele>
        <time>2021-10-17T07:22:49.000Z</time>
      </trkpt>
      <trkpt lat="47.50837" lon="-2.35295">
        <ele>-2.7999999523163</ele>
        <time>2021-10-17T07:22:50.000Z</time>
      </trkpt>
      <trkpt lat="47.50837" lon="-2.35292">
        <ele>-2</ele>
        <time>2021-10-17T07:22:51.000Z</time>
      </trkpt>
      <trkpt lat="47.50837" lon="-2.35287">
        <ele>-2</ele>
        <time>2021-10-17T07:22:52.000Z</time>
      </trkpt>
      <trkpt lat="47.50837" lon="-2.35283">
        <ele>-1.3999999761581</ele>
        <time>2021-10-17T07:22:53.000Z</time>
      </trkpt>
      <trkpt lat="47.50837" lon="-2.35279">
        <ele>-1</ele>
        <time>2021-10-17T07:22:54.000Z</time>
      </trkpt>
      <trkpt lat="47.50837" lon="-2.35274">
        <ele>-0.60000002384186</ele>
        <time>2021-10-17T07:22:55.000Z</time>
      </trkpt>
      <trkpt lat="47.50837" lon="-2.3527">
        <ele>-0.20000000298023</ele>
        <time>2021-10-17T07:22:56.000Z</time>
      </trkpt>
      <trkpt lat="47.50837" lon="-2.35266">
        <ele>0.20000000298023</ele>
        <time>2021-10-17T07:22:57.000Z</time>
      </trkpt>
      <trkpt lat="47.50837" lon="-2.35259">
        <ele>0.20000000298023</ele>
        <time>2021-10-17T07:22:59.000Z</time>
      </trkpt>
      <trkpt lat="47.5084" lon="-2.35254">
        <ele>0.60000002384186</ele>
        <time>2021-10-17T07:23:01.000Z</time>
      </trkpt>
      <trkpt lat="47.50842" lon="-2.35252">
        <ele>1.2000000476837</ele>
        <time>2021-10-17T07:23:02.000Z</time>
      </trkpt>
      <trkpt lat="47.50844" lon="-2.35251">
        <ele>1.6000000238419</ele>
        <time>2021-10-17T07:23:03.000Z</time>
      </trkpt>
      <trkpt lat="47.50847" lon="-2.3525">
        <ele>2</ele>
        <time>2021-10-17T07:23:04.000Z</time>
      </trkpt>
      <trkpt lat="47.50849" lon="-2.35249">
        <ele>2.4000000953674</ele>
        <time>2021-10-17T07:23:05.000Z</time>
      </trkpt>
      <trkpt lat="47.50855" lon="-2.35251">
        <ele>2.7999999523163</ele>
        <time>2021-10-17T07:23:08.000Z</time>
      </trkpt>
      <trkpt lat="47.50857" lon="-2.35252">
        <ele>3.2000000476837</ele>
        <time>2021-10-17T07:23:09.000Z</time>
      </trkpt>
      <trkpt lat="47.50859" lon="-2.35252">
        <ele>3.5999999046326</ele>
        <time>2021-10-17T07:23:10.000Z</time>
      </trkpt>
      <trkpt lat="47.5086" lon="-2.35252">
        <ele>4</ele>
        <time>2021-10-17T07:23:11.000Z</time>
      </trkpt>
      <trkpt lat="47.50862" lon="-2.35253">
        <ele>4.5999999046326</ele>
        <time>2021-10-17T07:23:12.000Z</time>
      </trkpt>
      <trkpt lat="47.50868" lon="-2.35255">
        <ele>5</ele>
        <time>2021-10-17T07:23:15.000Z</time>
      </trkpt>
      <trkpt lat="47.50869" lon="-2.35254">
        <ele>5.8000001907349</ele>
        <time>2021-10-17T07:23:16.000Z</time>
      </trkpt>
      <trkpt lat="47.50871" lon="-2.35253">
        <ele>6.1999998092651</ele>
        <time>2021-10-17T07:23:17.000Z</time>
      </trkpt>
      <trkpt lat="47.50874" lon="-2.35252">
        <ele>6.5999999046326</ele>
        <time>2021-10-17T07:23:18.000Z</time>
      </trkpt>
      <trkpt lat="47.50877" lon="-2.35251">
        <ele>6.5999999046326</ele>
        <time>2021-10-17T07:23:20.000Z</time>
      </trkpt>
      <trkpt lat="47.5088" lon="-2.3525">
        <ele>7</ele>
        <time>2021-10-17T07:23:22.000Z</time>
      </trkpt>
      <trkpt lat="47.50882" lon="-2.3525">
        <ele>7.4000000953674</ele>
        <time>2021-10-17T07:23:23.000Z</time>
      </trkpt>
      <trkpt lat="47.50884" lon="-2.3525">
        <ele>7.8000001907349</ele>
        <time>2021-10-17T07:23:24.000Z</time>
      </trkpt>
      <trkpt lat="47.50886" lon="-2.3525">
        <ele>8.1999998092651</ele>
        <time>2021-10-17T07:23:25.000Z</time>
      </trkpt>
      <trkpt lat="47.50888" lon="-2.3525">
        <ele>8.6000003814697</ele>
        <time>2021-10-17T07:23:26.000Z</time>
      </trkpt>
      <trkpt lat="47.50897" lon="-2.35249">
        <ele>8.6000003814697</ele>
        <time>2021-10-17T07:23:30.000Z</time>
      </trkpt>
      <trkpt lat="47.509" lon="-2.35247">
        <ele>9</ele>
        <time>2021-10-17T07:23:32.000Z</time>
      </trkpt>
      <trkpt lat="47.50902" lon="-2.35247">
        <ele>9.3999996185303</ele>
        <time>2021-10-17T07:23:33.000Z</time>
      </trkpt>
      <trkpt lat="47.50904" lon="-2.35246">
        <ele>9.8000001907349</ele>
        <time>2021-10-17T07:23:34.000Z</time>
      </trkpt>
      <trkpt lat="47.50906" lon="-2.35246">
        <ele>10.39999961853</ele>
        <time>2021-10-17T07:23:35.000Z</time>
      </trkpt>
      <trkpt lat="47.50908" lon="-2.35245">
        <ele>10.800000190735</ele>
        <time>2021-10-17T07:23:36.000Z</time>
      </trkpt>
      <trkpt lat="47.5091" lon="-2.35244">
        <ele>10.800000190735</ele>
        <time>2021-10-17T07:23:37.000Z</time>
      </trkpt>
      <trkpt lat="47.5092" lon="-2.35238">
        <ele>11.199999809265</ele>
        <time>2021-10-17T07:23:42.000Z</time>
      </trkpt>
      <trkpt lat="47.50922" lon="-2.35238">
        <ele>11.60000038147</ele>
        <time>2021-10-17T07:23:43.000Z</time>
      </trkpt>
      <trkpt lat="47.50924" lon="-2.35237">
        <ele>12</ele>
        <time>2021-10-17T07:23:44.000Z</time>
      </trkpt>
      <trkpt lat="47.50926" lon="-2.35235">
        <ele>12.60000038147</ele>
        <time>2021-10-17T07:23:45.000Z</time>
      </trkpt>
      <trkpt lat="47.50928" lon="-2.35235">
        <ele>13</ele>
        <time>2021-10-17T07:23:46.000Z</time>
      </trkpt>
      <trkpt lat="47.50936" lon="-2.35229">
        <ele>13</ele>
        <time>2021-10-17T07:23:50.000Z</time>
      </trkpt>
      <trkpt lat="47.50949" lon="-2.35223">
        <ele>13.39999961853</ele>
        <time>2021-10-17T07:23:56.000Z</time>
      </trkpt>
      <trkpt lat="47.50951" lon="-2.35221">
        <ele>13.800000190735</ele>
        <time>2021-10-17T07:23:57.000Z</time>
      </trkpt>
      <trkpt lat="47.50953" lon="-2.3522">
        <ele>14.199999809265</ele>
        <time>2021-10-17T07:23:58.000Z</time>
      </trkpt>
      <trkpt lat="47.50954" lon="-2.35219">
        <ele>14.60000038147</ele>
        <time>2021-10-17T07:23:59.000Z</time>
      </trkpt>
      <trkpt lat="47.50956" lon="-2.35218">
        <ele>15</ele>
        <time>2021-10-17T07:24:00.000Z</time>
      </trkpt>
      <trkpt lat="47.50964" lon="-2.35211">
        <ele>15</ele>
        <time>2021-10-17T07:24:04.000Z</time>
      </trkpt>
      <trkpt lat="47.50973" lon="-2.35204">
        <ele>15.39999961853</ele>
        <time>2021-10-17T07:24:09.000Z</time>
      </trkpt>
      <trkpt lat="47.50974" lon="-2.35203">
        <ele>15.800000190735</ele>
        <time>2021-10-17T07:24:10.000Z</time>
      </trkpt>
      <trkpt lat="47.50976" lon="-2.35201">
        <ele>16.200000762939</ele>
        <time>2021-10-17T07:24:11.000Z</time>
      </trkpt>
      <trkpt lat="47.50978" lon="-2.352">
        <ele>16.799999237061</ele>
        <time>2021-10-17T07:24:12.000Z</time>
      </trkpt>
      <trkpt lat="47.50979" lon="-2.35197">
        <ele>17.200000762939</ele>
        <time>2021-10-17T07:24:13.000Z</time>
      </trkpt>
      <trkpt lat="47.50994" lon="-2.35183">
        <ele>17.200000762939</ele>
        <time>2021-10-17T07:24:21.000Z</time>
      </trkpt>
      <trkpt lat="47.50996" lon="-2.35181">
        <ele>17.60000038147</ele>
        <time>2021-10-17T07:24:22.000Z</time>
      </trkpt>
      <trkpt lat="47.50999" lon="-2.3518">
        <ele>18</ele>
        <time>2021-10-17T07:24:23.000Z</time>
      </trkpt>
      <trkpt lat="47.51001" lon="-2.35179">
        <ele>18.39999961853</ele>
        <time>2021-10-17T07:24:24.000Z</time>
      </trkpt>
      <trkpt lat="47.51003" lon="-2.35177">
        <ele>18.799999237061</ele>
        <time>2021-10-17T07:24:25.000Z</time>
      </trkpt>
      <trkpt lat="47.51005" lon="-2.35176">
        <ele>19.200000762939</ele>
        <time>2021-10-17T07:24:26.000Z</time>
      </trkpt>
      <trkpt lat="47.51008" lon="-2.35175">
        <ele>19.200000762939</ele>
        <time>2021-10-17T07:24:27.000Z</time>
      </trkpt>
      <trkpt lat="47.5103" lon="-2.35166">
        <ele>19.200000762939</ele>
        <time>2021-10-17T07:24:35.000Z</time>
      </trkpt>
      <trkpt lat="47.51053" lon="-2.35156">
        <ele>19.200000762939</ele>
        <time>2021-10-17T07:24:43.000Z</time>
      </trkpt>
      <trkpt lat="47.51068" lon="-2.35149">
        <ele>19.60000038147</ele>
        <time>2021-10-17T07:24:48.000Z</time>
      </trkpt>
      <trkpt lat="47.5107" lon="-2.35145">
        <ele>20</ele>
        <time>2021-10-17T07:24:49.000Z</time>
      </trkpt>
      <trkpt lat="47.51072" lon="-2.35141">
        <ele>20.39999961853</ele>
        <time>2021-10-17T07:24:50.000Z</time>
      </trkpt>
      <trkpt lat="47.51074" lon="-2.35136">
        <ele>20.799999237061</ele>
        <time>2021-10-17T07:24:51.000Z</time>
      </trkpt>
      <trkpt lat="47.51075" lon="-2.35131">
        <ele>21.200000762939</ele>
        <time>2021-10-17T07:24:52.000Z</time>
      </trkpt>
      <trkpt lat="47.51076" lon="-2.35126">
        <ele>21.200000762939</ele>
        <time>2021-10-17T07:24:53.000Z</time>
      </trkpt>
      <trkpt lat="47.51079" lon="-2.35089">
        <ele>21.200000762939</ele>
        <time>2021-10-17T07:25:00.000Z</time>
      </trkpt>
      <trkpt lat="47.51086" lon="-2.35074">
        <ele>21.200000762939</ele>
        <time>2021-10-17T07:25:04.000Z</time>
      </trkpt>
      <trkpt lat="47.51109" lon="-2.35066">
        <ele>21.200000762939</ele>
        <time>2021-10-17T07:25:10.000Z</time>
      </trkpt>
      <trkpt lat="47.51142" lon="-2.35059">
        <ele>21.200000762939</ele>
        <time>2021-10-17T07:25:17.000Z</time>
      </trkpt>
      <trkpt lat="47.51148" lon="-2.35056">
        <ele>21.200000762939</ele>
        <time>2021-10-17T07:25:18.000Z</time>
      </trkpt>
      <trkpt lat="47.51157" lon="-2.35047">
        <ele>20.39999961853</ele>
        <time>2021-10-17T07:25:20.000Z</time>
      </trkpt>
      <trkpt lat="47.51161" lon="-2.35042">
        <ele>20</ele>
        <time>2021-10-17T07:25:21.000Z</time>
      </trkpt>
      <trkpt lat="47.51166" lon="-2.35036">
        <ele>19.60000038147</ele>
        <time>2021-10-17T07:25:22.000Z</time>
      </trkpt>
      <trkpt lat="47.5117" lon="-2.35031">
        <ele>19.200000762939</ele>
        <time>2021-10-17T07:25:23.000Z</time>
      </trkpt>
      <trkpt lat="47.51174" lon="-2.35024">
        <ele>19.200000762939</ele>
        <time>2021-10-17T07:25:24.000Z</time>
      </trkpt>
      <trkpt lat="47.51178" lon="-2.35009">
        <ele>19.200000762939</ele>
        <time>2021-10-17T07:25:26.000Z</time>
      </trkpt>
      <trkpt lat="47.5118" lon="-2.34995">
        <ele>19.200000762939</ele>
        <time>2021-10-17T07:25:28.000Z</time>
      </trkpt>
      <trkpt lat="47.51182" lon="-2.34974">
        <ele>19.200000762939</ele>
        <time>2021-10-17T07:25:31.000Z</time>
      </trkpt>
      <trkpt lat="47.51182" lon="-2.34967">
        <ele>19.200000762939</ele>
        <time>2021-10-17T07:25:32.000Z</time>
      </trkpt>
      <trkpt lat="47.51181" lon="-2.34955">
        <ele>19.200000762939</ele>
        <time>2021-10-17T07:25:34.000Z</time>
      </trkpt>
      <trkpt lat="47.51178" lon="-2.34942">
        <ele>19.200000762939</ele>
        <time>2021-10-17T07:25:36.000Z</time>
      </trkpt>
      <trkpt lat="47.51171" lon="-2.349">
        <ele>19.200000762939</ele>
        <time>2021-10-17T07:25:44.000Z</time>
      </trkpt>
      <trkpt lat="47.51172" lon="-2.34896">
        <ele>19.60000038147</ele>
        <time>2021-10-17T07:25:45.000Z</time>
      </trkpt>
      <trkpt lat="47.51172" lon="-2.34893">
        <ele>20</ele>
        <time>2021-10-17T07:25:46.000Z</time>
      </trkpt>
      <trkpt lat="47.51173" lon="-2.34891">
        <ele>20.39999961853</ele>
        <time>2021-10-17T07:25:47.000Z</time>
      </trkpt>
      <trkpt lat="47.51175" lon="-2.3489">
        <ele>20.799999237061</ele>
        <time>2021-10-17T07:25:48.000Z</time>
      </trkpt>
      <trkpt lat="47.51178" lon="-2.3489">
        <ele>21.200000762939</ele>
        <time>2021-10-17T07:25:49.000Z</time>
      </trkpt>
      <trkpt lat="47.51188" lon="-2.34895">
        <ele>21.200000762939</ele>
        <time>2021-10-17T07:25:52.000Z</time>
      </trkpt>
      <trkpt lat="47.51205" lon="-2.34914">
        <ele>21.200000762939</ele>
        <time>2021-10-17T07:25:57.000Z</time>
      </trkpt>
      <trkpt lat="47.51219" lon="-2.34926">
        <ele>21.200000762939</ele>
        <time>2021-10-17T07:26:00.000Z</time>
      </trkpt>
      <trkpt lat="47.51224" lon="-2.34928">
        <ele>20.799999237061</ele>
        <time>2021-10-17T07:26:01.000Z</time>
      </trkpt>
      <trkpt lat="47.5123" lon="-2.3493">
        <ele>20.39999961853</ele>
        <time>2021-10-17T07:26:02.000Z</time>
      </trkpt>
      <trkpt lat="47.51236" lon="-2.34931">
        <ele>20</ele>
        <time>2021-10-17T07:26:03.000Z</time>
      </trkpt>
      <trkpt lat="47.51242" lon="-2.34932">
        <ele>19.60000038147</ele>
        <time>2021-10-17T07:26:04.000Z</time>
      </trkpt>
      <trkpt lat="47.51248" lon="-2.34935">
        <ele>19</ele>
        <time>2021-10-17T07:26:05.000Z</time>
      </trkpt>
      <trkpt lat="47.51253" lon="-2.34939">
        <ele>18.60000038147</ele>
        <time>2021-10-17T07:26:06.000Z</time>
      </trkpt>
      <trkpt lat="47.51259" lon="-2.34942">
        <ele>18.200000762939</ele>
        <time>2021-10-17T07:26:07.000Z</time>
      </trkpt>
      <trkpt lat="47.51264" lon="-2.34944">
        <ele>17.799999237061</ele>
        <time>2021-10-17T07:26:08.000Z</time>
      </trkpt>
      <trkpt lat="47.51269" lon="-2.34945">
        <ele>16.799999237061</ele>
        <time>2021-10-17T07:26:09.000Z</time>
      </trkpt>
      <trkpt lat="47.51273" lon="-2.34947">
        <ele>16.200000762939</ele>
        <time>2021-10-17T07:26:10.000Z</time>
      </trkpt>
      <trkpt lat="47.51278" lon="-2.34947">
        <ele>15.60000038147</ele>
        <time>2021-10-17T07:26:11.000Z</time>
      </trkpt>
      <trkpt lat="47.51282" lon="-2.34945">
        <ele>14.800000190735</ele>
        <time>2021-10-17T07:26:12.000Z</time>
      </trkpt>
      <trkpt lat="47.51287" lon="-2.34942">
        <ele>14</ele>
        <time>2021-10-17T07:26:13.000Z</time>
      </trkpt>
      <trkpt lat="47.5129" lon="-2.34936">
        <ele>13.39999961853</ele>
        <time>2021-10-17T07:26:14.000Z</time>
      </trkpt>
      <trkpt lat="47.51293" lon="-2.34929">
        <ele>12.60000038147</ele>
        <time>2021-10-17T07:26:15.000Z</time>
      </trkpt>
      <trkpt lat="47.51297" lon="-2.34922">
        <ele>12</ele>
        <time>2021-10-17T07:26:16.000Z</time>
      </trkpt>
      <trkpt lat="47.51299" lon="-2.34913">
        <ele>11.39999961853</ele>
        <time>2021-10-17T07:26:17.000Z</time>
      </trkpt>
      <trkpt lat="47.51301" lon="-2.34903">
        <ele>10.800000190735</ele>
        <time>2021-10-17T07:26:18.000Z</time>
      </trkpt>
      <trkpt lat="47.51303" lon="-2.34892">
        <ele>10.199999809265</ele>
        <time>2021-10-17T07:26:19.000Z</time>
      </trkpt>
      <trkpt lat="47.51305" lon="-2.34881">
        <ele>9.6000003814697</ele>
        <time>2021-10-17T07:26:20.000Z</time>
      </trkpt>
      <trkpt lat="47.51308" lon="-2.3487">
        <ele>8.8000001907349</ele>
        <time>2021-10-17T07:26:21.000Z</time>
      </trkpt>
      <trkpt lat="47.51311" lon="-2.34858">
        <ele>8.1999998092651</ele>
        <time>2021-10-17T07:26:22.000Z</time>
      </trkpt>
      <trkpt lat="47.51314" lon="-2.34847">
        <ele>7.4000000953674</ele>
        <time>2021-10-17T07:26:23.000Z</time>
      </trkpt>
      <trkpt lat="47.51317" lon="-2.34835">
        <ele>6.8000001907349</ele>
        <time>2021-10-17T07:26:24.000Z</time>
      </trkpt>
      <trkpt lat="47.51321" lon="-2.34825">
        <ele>6</ele>
        <time>2021-10-17T07:26:25.000Z</time>
      </trkpt>
      <trkpt lat="47.51324" lon="-2.34816">
        <ele>5.1999998092651</ele>
        <time>2021-10-17T07:26:26.000Z</time>
      </trkpt>
      <trkpt lat="47.51326" lon="-2.34809">
        <ele>4.5999999046326</ele>
        <time>2021-10-17T07:26:27.000Z</time>
      </trkpt>
      <trkpt lat="47.51327" lon="-2.34801">
        <ele>4</ele>
        <time>2021-10-17T07:26:28.000Z</time>
      </trkpt>
      <trkpt lat="47.51326" lon="-2.34793">
        <ele>3.2000000476837</ele>
        <time>2021-10-17T07:26:29.000Z</time>
      </trkpt>
      <trkpt lat="47.51324" lon="-2.34787">
        <ele>2.5999999046326</ele>
        <time>2021-10-17T07:26:30.000Z</time>
      </trkpt>
      <trkpt lat="47.51322" lon="-2.34779">
        <ele>2</ele>
        <time>2021-10-17T07:26:31.000Z</time>
      </trkpt>
      <trkpt lat="47.5132" lon="-2.34771">
        <ele>2</ele>
        <time>2021-10-17T07:26:32.000Z</time>
      </trkpt>
      <trkpt lat="47.51307" lon="-2.34726">
        <ele>2</ele>
        <time>2021-10-17T07:26:39.000Z</time>
      </trkpt>
      <trkpt lat="47.51298" lon="-2.3468">
        <ele>2</ele>
        <time>2021-10-17T07:26:45.000Z</time>
      </trkpt>
      <trkpt lat="47.51287" lon="-2.3462">
        <ele>2</ele>
        <time>2021-10-17T07:26:53.000Z</time>
      </trkpt>
      <trkpt lat="47.51285" lon="-2.34606">
        <ele>2</ele>
        <time>2021-10-17T07:26:55.000Z</time>
      </trkpt>
      <trkpt lat="47.51279" lon="-2.34579">
        <ele>2</ele>
        <time>2021-10-17T07:26:59.000Z</time>
      </trkpt>
      <trkpt lat="47.51269" lon="-2.34553">
        <ele>2</ele>
        <time>2021-10-17T07:27:04.000Z</time>
      </trkpt>
      <trkpt lat="47.51261" lon="-2.34533">
        <ele>2</ele>
        <time>2021-10-17T07:27:08.000Z</time>
      </trkpt>
      <trkpt lat="47.51257" lon="-2.3452">
        <ele>2</ele>
        <time>2021-10-17T07:27:10.000Z</time>
      </trkpt>
      <trkpt lat="47.51255" lon="-2.34505">
        <ele>2</ele>
        <time>2021-10-17T07:27:12.000Z</time>
      </trkpt>
      <trkpt lat="47.51251" lon="-2.34479">
        <ele>2</ele>
        <time>2021-10-17T07:27:15.000Z</time>
      </trkpt>
      <trkpt lat="47.51239" lon="-2.34427">
        <ele>2</ele>
        <time>2021-10-17T07:27:20.000Z</time>
      </trkpt>
      <trkpt lat="47.51223" lon="-2.34389">
        <ele>2</ele>
        <time>2021-10-17T07:27:25.000Z</time>
      </trkpt>
      <trkpt lat="47.5122" lon="-2.34357">
        <ele>2</ele>
        <time>2021-10-17T07:27:29.000Z</time>
      </trkpt>
      <trkpt lat="47.51219" lon="-2.34349">
        <ele>1.6000000238419</ele>
        <time>2021-10-17T07:27:30.000Z</time>
      </trkpt>
      <trkpt lat="47.51218" lon="-2.3434">
        <ele>1.2000000476837</ele>
        <time>2021-10-17T07:27:31.000Z</time>
      </trkpt>
      <trkpt lat="47.51217" lon="-2.34331">
        <ele>0.80000001192093</ele>
        <time>2021-10-17T07:27:32.000Z</time>
      </trkpt>
      <trkpt lat="47.51216" lon="-2.3432">
        <ele>0.40000000596046</ele>
        <time>2021-10-17T07:27:33.000Z</time>
      </trkpt>
      <trkpt lat="47.51215" lon="-2.3431">
        <ele>11.2</ele>
        <time>2021-10-17T07:27:34.000Z</time>
      </trkpt>
      <trkpt lat="47.51214" lon="-2.34298">
        <ele>-0.60000002384186</ele>
        <time>2021-10-17T07:27:35.000Z</time>
      </trkpt>
      <trkpt lat="47.51214" lon="-2.34287">
        <ele>-1</ele>
        <time>2021-10-17T07:27:36.000Z</time>
      </trkpt>
      <trkpt lat="47.51213" lon="-2.34276">
        <ele>-1.3999999761581</ele>
        <time>2021-10-17T07:27:37.000Z</time>
      </trkpt>
      <trkpt lat="47.51212" lon="-2.34267">
        <ele>-2</ele>
        <time>2021-10-17T07:27:38.000Z</time>
      </trkpt>
      <trkpt lat="47.51211" lon="-2.34256">
        <ele>-2.5999999046326</ele>
        <time>2021-10-17T07:27:39.000Z</time>
      </trkpt>
      <trkpt lat="47.5121" lon="-2.34246">
        <ele>-3.2000000476837</ele>
        <time>2021-10-17T07:27:40.000Z</time>
      </trkpt>
      <trkpt lat="47.51209" lon="-2.34237">
        <ele>-4</ele>
        <time>2021-10-17T07:27:41.000Z</time>
      </trkpt>
      <trkpt lat="47.5121" lon="-2.34227">
        <ele>-5</ele>
        <time>2021-10-17T07:27:42.000Z</time>
      </trkpt>
      <trkpt lat="47.51211" lon="-2.34218">
        <ele>-5.8000001907349</ele>
        <time>2021-10-17T07:27:43.000Z</time>
      </trkpt>
      <trkpt lat="47.51212" lon="-2.34211">
        <ele>-6.5999999046326</ele>
        <time>2021-10-17T07:27:44.000Z</time>
      </trkpt>
      <trkpt lat="47.51215" lon="-2.34204">
        <ele>-7.1999998092651</ele>
        <time>2021-10-17T07:27:45.000Z</time>
      </trkpt>
      <trkpt lat="47.51218" lon="-2.34199">
        <ele>-7.8000001907349</ele>
        <time>2021-10-17T07:27:46.000Z</time>
      </trkpt>
      <trkpt lat="47.5122" lon="-2.34193">
        <ele>-8.3999996185303</ele>
        <time>2021-10-17T07:27:47.000Z</time>
      </trkpt>
      <trkpt lat="47.51222" lon="-2.34187">
        <ele>-9.6000003814697</ele>
        <time>2021-10-17T07:27:48.000Z</time>
      </trkpt>
      <trkpt lat="47.51226" lon="-2.34183">
        <ele>-9.6000003814697</ele>
        <time>2021-10-17T07:27:49.000Z</time>
      </trkpt>
      <trkpt lat="47.51232" lon="-2.34177">
        <ele>-9.6000003814697</ele>
        <time>2021-10-17T07:27:51.000Z</time>
      </trkpt>
      <trkpt lat="47.5124" lon="-2.34178">
        <ele>-9.6000003814697</ele>
        <time>2021-10-17T07:27:53.000Z</time>
      </trkpt>
      <trkpt lat="47.5125" lon="-2.34181">
        <ele>-9.6000003814697</ele>
        <time>2021-10-17T07:27:55.000Z</time>
      </trkpt>
      <trkpt lat="47.51259" lon="-2.34184">
        <ele>-9.6000003814697</ele>
        <time>2021-10-17T07:27:57.000Z</time>
      </trkpt>
      <trkpt lat="47.51263" lon="-2.34183">
        <ele>-9.6000003814697</ele>
        <time>2021-10-17T07:27:58.000Z</time>
      </trkpt>
      <trkpt lat="47.51268" lon="-2.34176">
        <ele>-9.6000003814697</ele>
        <time>2021-10-17T07:28:00.000Z</time>
      </trkpt>
      <trkpt lat="47.5127" lon="-2.34163">
        <ele>-9.6000003814697</ele>
        <time>2021-10-17T07:28:04.000Z</time>
      </trkpt>
      <trkpt lat="47.51272" lon="-2.34164">
        <ele>-9.6000003814697</ele>
        <time>2021-10-17T07:28:05.000Z</time>
      </trkpt>
      <trkpt lat="47.51273" lon="-2.34159">
        <ele>-9.6000003814697</ele>
        <time>2021-10-17T07:28:17.000Z</time>
      </trkpt>
      <trkpt lat="47.51273" lon="-2.34158">
        <ele>-9.6000003814697</ele>
        <time>2021-10-17T07:28:18.000Z</time>
      </trkpt>
      <trkpt lat="47.51274" lon="-2.34153">
        <ele>-9.6000003814697</ele>
        <time>2021-10-17T07:28:23.000Z</time>
      </trkpt>
      <trkpt lat="47.51274" lon="-2.3415">
        <ele>-9.6000003814697</ele>
        <time>2021-10-17T07:28:35.000Z</time>
      </trkpt>
      <trkpt lat="47.51275" lon="-2.34142">
        <ele>-9.6000003814697</ele>
        <time>2021-10-17T07:28:39.000Z</time>
      </trkpt>
      <trkpt lat="47.51274" lon="-2.34137">
        <ele>-9.6000003814697</ele>
        <time>2021-10-17T07:28:42.000Z</time>
      </trkpt>
      <trkpt lat="47.51274" lon="-2.34136">
        <ele>-9.6000003814697</ele>
        <time>2021-10-17T07:28:45.000Z</time>
      </trkpt>
      <trkpt lat="47.51262" lon="-2.34125">
        <ele>-7.5999999046326</ele>
        <time>2021-10-17T07:29:06.000Z</time>
      </trkpt>
      <trkpt lat="47.51262" lon="-2.34123">
        <ele>-7.5999999046326</ele>
        <time>2021-10-17T07:29:07.000Z</time>
      </trkpt>
      <trkpt lat="47.51261" lon="-2.34121">
        <ele>-7.5999999046326</ele>
        <time>2021-10-17T07:29:08.000Z</time>
      </trkpt>
      <trkpt lat="47.51254" lon="-2.34113">
        <ele>-7.1999998092651</ele>
        <time>2021-10-17T07:29:13.000Z</time>
      </trkpt>
      <trkpt lat="47.51253" lon="-2.34111">
        <ele>-6.8000001907349</ele>
        <time>2021-10-17T07:29:14.000Z</time>
      </trkpt>
      <trkpt lat="47.51251" lon="-2.34109">
        <ele>-6.1999998092651</ele>
        <time>2021-10-17T07:29:15.000Z</time>
      </trkpt>
      <trkpt lat="47.51249" lon="-2.3411">
        <ele>-5.8000001907349</ele>
        <time>2021-10-17T07:29:16.000Z</time>
      </trkpt>
      <trkpt lat="47.51248" lon="-2.34111">
        <ele>-5.4000000953674</ele>
        <time>2021-10-17T07:29:17.000Z</time>
      </trkpt>
      <trkpt lat="47.51246" lon="-2.34111">
        <ele>-5.4000000953674</ele>
        <time>2021-10-17T07:29:18.000Z</time>
      </trkpt>
      <trkpt lat="47.51238" lon="-2.34107">
        <ele>-5.4000000953674</ele>
        <time>2021-10-17T07:29:23.000Z</time>
      </trkpt>
      <trkpt lat="47.51235" lon="-2.341">
        <ele>-5</ele>
        <time>2021-10-17T07:29:26.000Z</time>
      </trkpt>
      <trkpt lat="47.51233" lon="-2.34097">
        <ele>-4.5999999046326</ele>
        <time>2021-10-17T07:29:27.000Z</time>
      </trkpt>
      <trkpt lat="47.51231" lon="-2.34095">
        <ele>-3.7999999523163</ele>
        <time>2021-10-17T07:29:28.000Z</time>
      </trkpt>
      <trkpt lat="47.5123" lon="-2.34092">
        <ele>-3.4000000953674</ele>
        <time>2021-10-17T07:29:29.000Z</time>
      </trkpt>
      <trkpt lat="47.5123" lon="-2.34076">
        <ele>-3.4000000953674</ele>
        <time>2021-10-17T07:29:34.000Z</time>
      </trkpt>
      <trkpt lat="47.51228" lon="-2.34073">
        <ele>-3.4000000953674</ele>
        <time>2021-10-17T07:29:36.000Z</time>
      </trkpt>
      <trkpt lat="47.51225" lon="-2.34072">
        <ele>-3.4000000953674</ele>
        <time>2021-10-17T07:29:38.000Z</time>
      </trkpt>
      <trkpt lat="47.51223" lon="-2.34066">
        <ele>-3.4000000953674</ele>
        <time>2021-10-17T07:29:41.000Z</time>
      </trkpt>
      <trkpt lat="47.51221" lon="-2.34062">
        <ele>-3.4000000953674</ele>
        <time>2021-10-17T07:29:43.000Z</time>
      </trkpt>
      <trkpt lat="47.51218" lon="-2.34056">
        <ele>-3.4000000953674</ele>
        <time>2021-10-17T07:29:46.000Z</time>
      </trkpt>
      <trkpt lat="47.51216" lon="-2.34056">
        <ele>-3.4000000953674</ele>
        <time>2021-10-17T07:29:48.000Z</time>
      </trkpt>
      <trkpt lat="47.51214" lon="-2.34057">
        <ele>-3</ele>
        <time>2021-10-17T07:29:50.000Z</time>
      </trkpt>
      <trkpt lat="47.51213" lon="-2.34058">
        <ele>-2.5999999046326</ele>
        <time>2021-10-17T07:29:51.000Z</time>
      </trkpt>
      <trkpt lat="47.51212" lon="-2.3406">
        <ele>-2.2000000476837</ele>
        <time>2021-10-17T07:29:52.000Z</time>
      </trkpt>
      <trkpt lat="47.51212" lon="-2.34061">
        <ele>-1.2000000476837</ele>
        <time>2021-10-17T07:29:53.000Z</time>
      </trkpt>
      <trkpt lat="47.51211" lon="-2.34064">
        <ele>-1.2000000476837</ele>
        <time>2021-10-17T07:29:55.000Z</time>
      </trkpt>
      <trkpt lat="47.51209" lon="-2.34074">
        <ele>-1.2000000476837</ele>
        <time>2021-10-17T07:30:01.000Z</time>
      </trkpt>
      <trkpt lat="47.51206" lon="-2.34071">
        <ele>-1.2000000476837</ele>
        <time>2021-10-17T07:30:04.000Z</time>
      </trkpt>
      <trkpt lat="47.51204" lon="-2.34067">
        <ele>-1.2000000476837</ele>
        <time>2021-10-17T07:30:06.000Z</time>
      </trkpt>
      <trkpt lat="47.51203" lon="-2.34065">
        <ele>-0.80000001192093</ele>
        <time>2021-10-17T07:30:08.000Z</time>
      </trkpt>
      <trkpt lat="47.51203" lon="-2.34065">
        <ele>-0.40000000596046</ele>
        <time>2021-10-17T07:30:09.000Z</time>
      </trkpt>
      <trkpt lat="47.51203" lon="-2.34062">
        <ele>14.3</ele>
        <time>2021-10-17T07:30:10.000Z</time>
      </trkpt>
      <trkpt lat="47.51204" lon="-2.34059">
        <ele>0.40000000596046</ele>
        <time>2021-10-17T07:30:11.000Z</time>
      </trkpt>
      <trkpt lat="47.51204" lon="-2.34057">
        <ele>0.80000001192093</ele>
        <time>2021-10-17T07:30:12.000Z</time>
      </trkpt>
      <trkpt lat="47.51205" lon="-2.34049">
        <ele>0.80000001192093</ele>
        <time>2021-10-17T07:30:15.000Z</time>
      </trkpt>
      <trkpt lat="47.51204" lon="-2.34042">
        <ele>0.80000001192093</ele>
        <time>2021-10-17T07:30:18.000Z</time>
      </trkpt>
      <trkpt lat="47.512" lon="-2.3403">
        <ele>0.80000001192093</ele>
        <time>2021-10-17T07:30:25.000Z</time>
      </trkpt>
      <trkpt lat="47.51204" lon="-2.3402">
        <ele>0.80000001192093</ele>
        <time>2021-10-17T07:30:30.000Z</time>
      </trkpt>
      <trkpt lat="47.51205" lon="-2.34018">
        <ele>0.40000000596046</ele>
        <time>2021-10-17T07:30:31.000Z</time>
      </trkpt>
      <trkpt lat="47.51205" lon="-2.34015">
        <ele>-0.20000000298023</ele>
        <time>2021-10-17T07:30:32.000Z</time>
      </trkpt>
      <trkpt lat="47.51205" lon="-2.34013">
        <ele>-0.80000001192093</ele>
        <time>2021-10-17T07:30:33.000Z</time>
      </trkpt>
      <trkpt lat="47.51205" lon="-2.3401">
        <ele>-1.3999999761581</ele>
        <time>2021-10-17T07:30:34.000Z</time>
      </trkpt>
      <trkpt lat="47.51205" lon="-2.34007">
        <ele>-2</ele>
        <time>2021-10-17T07:30:35.000Z</time>
      </trkpt>
      <trkpt lat="47.51204" lon="-2.33981">
        <ele>-2</ele>
        <time>2021-10-17T07:30:41.000Z</time>
      </trkpt>
      <trkpt lat="47.51201" lon="-2.33976">
        <ele>-2</ele>
        <time>2021-10-17T07:30:43.000Z</time>
      </trkpt>
      <trkpt lat="47.51198" lon="-2.33973">
        <ele>-2</ele>
        <time>2021-10-17T07:30:45.000Z</time>
      </trkpt>
      <trkpt lat="47.51194" lon="-2.3397">
        <ele>-1.3999999761581</ele>
        <time>2021-10-17T07:30:47.000Z</time>
      </trkpt>
      <trkpt lat="47.51192" lon="-2.3397">
        <ele>-1</ele>
        <time>2021-10-17T07:30:48.000Z</time>
      </trkpt>
      <trkpt lat="47.5119" lon="-2.3397">
        <ele>-0.40000000596046</ele>
        <time>2021-10-17T07:30:49.000Z</time>
      </trkpt>
      <trkpt lat="47.51188" lon="-2.3397">
        <ele>15.9</ele>
        <time>2021-10-17T07:30:50.000Z</time>
      </trkpt>
      <trkpt lat="47.51186" lon="-2.33971">
        <ele>0.60000002384186</ele>
        <time>2021-10-17T07:30:51.000Z</time>
      </trkpt>
      <trkpt lat="47.51184" lon="-2.33971">
        <ele>1</ele>
        <time>2021-10-17T07:30:52.000Z</time>
      </trkpt>
      <trkpt lat="47.51183" lon="-2.33971">
        <ele>1.6000000238419</ele>
        <time>2021-10-17T07:30:53.000Z</time>
      </trkpt>
      <trkpt lat="47.51181" lon="-2.33971">
        <ele>2.2000000476837</ele>
        <time>2021-10-17T07:30:54.000Z</time>
      </trkpt>
      <trkpt lat="47.51179" lon="-2.3397">
        <ele>2.5999999046326</ele>
        <time>2021-10-17T07:30:55.000Z</time>
      </trkpt>
      <trkpt lat="47.51178" lon="-2.33969">
        <ele>2.5999999046326</ele>
        <time>2021-10-17T07:30:56.000Z</time>
      </trkpt>
      <trkpt lat="47.51176" lon="-2.33966">
        <ele>3.2000000476837</ele>
        <time>2021-10-17T07:30:58.000Z</time>
      </trkpt>
      <trkpt lat="47.51175" lon="-2.33964">
        <ele>3.5999999046326</ele>
        <time>2021-10-17T07:30:59.000Z</time>
      </trkpt>
      <trkpt lat="47.51175" lon="-2.33962">
        <ele>4</ele>
        <time>2021-10-17T07:31:00.000Z</time>
      </trkpt>
      <trkpt lat="47.51173" lon="-2.3396">
        <ele>4.4000000953674</ele>
        <time>2021-10-17T07:31:01.000Z</time>
      </trkpt>
      <trkpt lat="47.51172" lon="-2.33959">
        <ele>4.8000001907349</ele>
        <time>2021-10-17T07:31:02.000Z</time>
      </trkpt>
      <trkpt lat="47.51171" lon="-2.33957">
        <ele>4.8000001907349</ele>
        <time>2021-10-17T07:31:03.000Z</time>
      </trkpt>
      <trkpt lat="47.51168" lon="-2.33956">
        <ele>4.8000001907349</ele>
        <time>2021-10-17T07:31:05.000Z</time>
      </trkpt>
      <trkpt lat="47.51161" lon="-2.33956">
        <ele>4.8000001907349</ele>
        <time>2021-10-17T07:31:08.000Z</time>
      </trkpt>
      <trkpt lat="47.51155" lon="-2.33957">
        <ele>4.8000001907349</ele>
        <time>2021-10-17T07:31:11.000Z</time>
      </trkpt>
      <trkpt lat="47.51152" lon="-2.33959">
        <ele>5.1999998092651</ele>
        <time>2021-10-17T07:31:13.000Z</time>
      </trkpt>
      <trkpt lat="47.5115" lon="-2.33959">
        <ele>5.5999999046326</ele>
        <time>2021-10-17T07:31:14.000Z</time>
      </trkpt>
      <trkpt lat="47.51148" lon="-2.33957">
        <ele>6</ele>
        <time>2021-10-17T07:31:15.000Z</time>
      </trkpt>
      <trkpt lat="47.51146" lon="-2.33956">
        <ele>6.4000000953674</ele>
        <time>2021-10-17T07:31:16.000Z</time>
      </trkpt>
      <trkpt lat="47.51144" lon="-2.33954">
        <ele>6.8000001907349</ele>
        <time>2021-10-17T07:31:17.000Z</time>
      </trkpt>
      <trkpt lat="47.51141" lon="-2.33947">
        <ele>6.8000001907349</ele>
        <time>2021-10-17T07:31:19.000Z</time>
      </trkpt>
      <trkpt lat="47.5114" lon="-2.33944">
        <ele>6.8000001907349</ele>
        <time>2021-10-17T07:31:20.000Z</time>
      </trkpt>
      <trkpt lat="47.51136" lon="-2.33923">
        <ele>6.8000001907349</ele>
        <time>2021-10-17T07:31:26.000Z</time>
      </trkpt>
      <trkpt lat="47.51134" lon="-2.33902">
        <ele>6.8000001907349</ele>
        <time>2021-10-17T07:31:32.000Z</time>
      </trkpt>
      <trkpt lat="47.51134" lon="-2.33896">
        <ele>7.1999998092651</ele>
        <time>2021-10-17T07:31:33.000Z</time>
      </trkpt>
      <trkpt lat="47.51132" lon="-2.33892">
        <ele>7.5999999046326</ele>
        <time>2021-10-17T07:31:34.000Z</time>
      </trkpt>
      <trkpt lat="47.51132" lon="-2.33887">
        <ele>8</ele>
        <time>2021-10-17T07:31:35.000Z</time>
      </trkpt>
      <trkpt lat="47.51131" lon="-2.33883">
        <ele>8.3999996185303</ele>
        <time>2021-10-17T07:31:36.000Z</time>
      </trkpt>
      <trkpt lat="47.5113" lon="-2.33879">
        <ele>8.8000001907349</ele>
        <time>2021-10-17T07:31:37.000Z</time>
      </trkpt>
      <trkpt lat="47.51122" lon="-2.33855">
        <ele>8.8000001907349</ele>
        <time>2021-10-17T07:31:43.000Z</time>
      </trkpt>
      <trkpt lat="47.5111" lon="-2.33826">
        <ele>8.8000001907349</ele>
        <time>2021-10-17T07:31:50.000Z</time>
      </trkpt>
      <trkpt lat="47.51094" lon="-2.33789">
        <ele>8.8000001907349</ele>
        <time>2021-10-17T07:31:57.000Z</time>
      </trkpt>
      <trkpt lat="47.51086" lon="-2.33757">
        <ele>8.8000001907349</ele>
        <time>2021-10-17T07:32:01.000Z</time>
      </trkpt>
      <trkpt lat="47.51082" lon="-2.33742">
        <ele>8.8000001907349</ele>
        <time>2021-10-17T07:32:03.000Z</time>
      </trkpt>
      <trkpt lat="47.51076" lon="-2.33728">
        <ele>8.8000001907349</ele>
        <time>2021-10-17T07:32:05.000Z</time>
      </trkpt>
      <trkpt lat="47.51066" lon="-2.33713">
        <ele>8.8000001907349</ele>
        <time>2021-10-17T07:32:08.000Z</time>
      </trkpt>
      <trkpt lat="47.51051" lon="-2.33694">
        <ele>8.8000001907349</ele>
        <time>2021-10-17T07:32:12.000Z</time>
      </trkpt>
      <trkpt lat="47.51048" lon="-2.33673">
        <ele>8.8000001907349</ele>
        <time>2021-10-17T07:32:15.000Z</time>
      </trkpt>
      <trkpt lat="47.51049" lon="-2.33656">
        <ele>8.8000001907349</ele>
        <time>2021-10-17T07:32:17.000Z</time>
      </trkpt>
      <trkpt lat="47.51048" lon="-2.33629">
        <ele>8.8000001907349</ele>
        <time>2021-10-17T07:32:20.000Z</time>
      </trkpt>
      <trkpt lat="47.51046" lon="-2.33616">
        <ele>8.3999996185303</ele>
        <time>2021-10-17T07:32:22.000Z</time>
      </trkpt>
      <trkpt lat="47.51045" lon="-2.33611">
        <ele>8</ele>
        <time>2021-10-17T07:32:23.000Z</time>
      </trkpt>
      <trkpt lat="47.51042" lon="-2.33607">
        <ele>7.5999999046326</ele>
        <time>2021-10-17T07:32:24.000Z</time>
      </trkpt>
      <trkpt lat="47.5104" lon="-2.33604">
        <ele>7.1999998092651</ele>
        <time>2021-10-17T07:32:25.000Z</time>
      </trkpt>
      <trkpt lat="47.51037" lon="-2.33602">
        <ele>6.8000001907349</ele>
        <time>2021-10-17T07:32:26.000Z</time>
      </trkpt>
      <trkpt lat="47.51033" lon="-2.33601">
        <ele>6.8000001907349</ele>
        <time>2021-10-17T07:32:27.000Z</time>
      </trkpt>
      <trkpt lat="47.51021" lon="-2.33597">
        <ele>6.8000001907349</ele>
        <time>2021-10-17T07:32:30.000Z</time>
      </trkpt>
      <trkpt lat="47.51016" lon="-2.33586">
        <ele>6.4000000953674</ele>
        <time>2021-10-17T07:32:32.000Z</time>
      </trkpt>
      <trkpt lat="47.51015" lon="-2.33577">
        <ele>6</ele>
        <time>2021-10-17T07:32:33.000Z</time>
      </trkpt>
      <trkpt lat="47.51013" lon="-2.33569">
        <ele>5.4000000953674</ele>
        <time>2021-10-17T07:32:34.000Z</time>
      </trkpt>
      <trkpt lat="47.51011" lon="-2.33563">
        <ele>5</ele>
        <time>2021-10-17T07:32:35.000Z</time>
      </trkpt>
      <trkpt lat="47.51009" lon="-2.33556">
        <ele>4.4000000953674</ele>
        <time>2021-10-17T07:32:36.000Z</time>
      </trkpt>
      <trkpt lat="47.51008" lon="-2.33548">
        <ele>4</ele>
        <time>2021-10-17T07:32:37.000Z</time>
      </trkpt>
      <trkpt lat="47.51008" lon="-2.33541">
        <ele>3.4000000953674</ele>
        <time>2021-10-17T07:32:38.000Z</time>
      </trkpt>
      <trkpt lat="47.51006" lon="-2.33535">
        <ele>2.5999999046326</ele>
        <time>2021-10-17T07:32:39.000Z</time>
      </trkpt>
      <trkpt lat="47.51004" lon="-2.33529">
        <ele>1.7999999523163</ele>
        <time>2021-10-17T07:32:40.000Z</time>
      </trkpt>
      <trkpt lat="47.51" lon="-2.33528">
        <ele>1.2000000476837</ele>
        <time>2021-10-17T07:32:41.000Z</time>
      </trkpt>
      <trkpt lat="47.50995" lon="-2.33526">
        <ele>0.40000000596046</ele>
        <time>2021-10-17T07:32:42.000Z</time>
      </trkpt>
      <trkpt lat="47.5099" lon="-2.33525">
        <ele>-0.20000000298023</ele>
        <time>2021-10-17T07:32:43.000Z</time>
      </trkpt>
      <trkpt lat="47.50986" lon="-2.33521">
        <ele>-0.80000001192093</ele>
        <time>2021-10-17T07:32:44.000Z</time>
      </trkpt>
      <trkpt lat="47.50983" lon="-2.33518">
        <ele>-2</ele>
        <time>2021-10-17T07:32:45.000Z</time>
      </trkpt>
      <trkpt lat="47.5098" lon="-2.33514">
        <ele>-2.7999999523163</ele>
        <time>2021-10-17T07:32:46.000Z</time>
      </trkpt>
      <trkpt lat="47.50972" lon="-2.33496">
        <ele>-2.7999999523163</ele>
        <time>2021-10-17T07:32:50.000Z</time>
      </trkpt>
      <trkpt lat="47.50972" lon="-2.33476">
        <ele>-2.7999999523163</ele>
        <time>2021-10-17T07:32:54.000Z</time>
      </trkpt>
      <trkpt lat="47.50974" lon="-2.33472">
        <ele>-2.7999999523163</ele>
        <time>2021-10-17T07:32:55.000Z</time>
      </trkpt>
      <trkpt lat="47.50982" lon="-2.33457">
        <ele>-2.7999999523163</ele>
        <time>2021-10-17T07:32:58.000Z</time>
      </trkpt>
      <trkpt lat="47.50988" lon="-2.33444">
        <ele>-2.7999999523163</ele>
        <time>2021-10-17T07:33:01.000Z</time>
      </trkpt>
      <trkpt lat="47.51001" lon="-2.33432">
        <ele>-2.7999999523163</ele>
        <time>2021-10-17T07:33:06.000Z</time>
      </trkpt>
      <trkpt lat="47.51003" lon="-2.3343">
        <ele>-2.2000000476837</ele>
        <time>2021-10-17T07:33:07.000Z</time>
      </trkpt>
      <trkpt lat="47.51005" lon="-2.33427">
        <ele>-1.7999999523163</ele>
        <time>2021-10-17T07:33:08.000Z</time>
      </trkpt>
      <trkpt lat="47.51006" lon="-2.33423">
        <ele>-1.3999999761581</ele>
        <time>2021-10-17T07:33:09.000Z</time>
      </trkpt>
      <trkpt lat="47.51006" lon="-2.33417">
        <ele>-0.60000002384186</ele>
        <time>2021-10-17T07:33:10.000Z</time>
      </trkpt>
      <trkpt lat="47.51001" lon="-2.33398">
        <ele>-0.60000002384186</ele>
        <time>2021-10-17T07:33:14.000Z</time>
      </trkpt>
      <trkpt lat="47.51" lon="-2.33393">
        <ele>-0.60000002384186</ele>
        <time>2021-10-17T07:33:15.000Z</time>
      </trkpt>
      <trkpt lat="47.50991" lon="-2.33367">
        <ele>-0.60000002384186</ele>
        <time>2021-10-17T07:33:21.000Z</time>
      </trkpt>
      <trkpt lat="47.5099" lon="-2.33364">
        <ele>-0.20000000298023</ele>
        <time>2021-10-17T07:33:22.000Z</time>
      </trkpt>
      <trkpt lat="47.50989" lon="-2.33361">
        <ele>0.20000000298023</ele>
        <time>2021-10-17T07:33:23.000Z</time>
      </trkpt>
      <trkpt lat="47.50987" lon="-2.33359">
        <ele>0.60000002384186</ele>
        <time>2021-10-17T07:33:24.000Z</time>
      </trkpt>
      <trkpt lat="47.50985" lon="-2.33358">
        <ele>1</ele>
        <time>2021-10-17T07:33:25.000Z</time>
      </trkpt>
      <trkpt lat="47.50984" lon="-2.33356">
        <ele>1.3999999761581</ele>
        <time>2021-10-17T07:33:26.000Z</time>
      </trkpt>
      <trkpt lat="47.50981" lon="-2.33348">
        <ele>1.3999999761581</ele>
        <time>2021-10-17T07:33:29.000Z</time>
      </trkpt>
      <trkpt lat="47.5098" lon="-2.33343">
        <ele>1.3999999761581</ele>
        <time>2021-10-17T07:33:31.000Z</time>
      </trkpt>
      <trkpt lat="47.50978" lon="-2.3334">
        <ele>1.7999999523163</ele>
        <time>2021-10-17T07:33:33.000Z</time>
      </trkpt>
      <trkpt lat="47.50977" lon="-2.33337">
        <ele>2.2000000476837</ele>
        <time>2021-10-17T07:33:34.000Z</time>
      </trkpt>
      <trkpt lat="47.50975" lon="-2.33334">
        <ele>3.2000000476837</ele>
        <time>2021-10-17T07:33:35.000Z</time>
      </trkpt>
      <trkpt lat="47.50974" lon="-2.33331">
        <ele>3.5999999046326</ele>
        <time>2021-10-17T07:33:36.000Z</time>
      </trkpt>
      <trkpt lat="47.50973" lon="-2.3333">
        <ele>3.5999999046326</ele>
        <time>2021-10-17T07:33:37.000Z</time>
      </trkpt>
      <trkpt lat="47.50962" lon="-2.33308">
        <ele>3.5999999046326</ele>
        <time>2021-10-17T07:33:45.000Z</time>
      </trkpt>
      <trkpt lat="47.50957" lon="-2.33294">
        <ele>4</ele>
        <time>2021-10-17T07:33:52.000Z</time>
      </trkpt>
      <trkpt lat="47.50955" lon="-2.33292">
        <ele>4.4000000953674</ele>
        <time>2021-10-17T07:33:53.000Z</time>
      </trkpt>
      <trkpt lat="47.50954" lon="-2.33289">
        <ele>4.8000001907349</ele>
        <time>2021-10-17T07:33:54.000Z</time>
      </trkpt>
      <trkpt lat="47.50953" lon="-2.33287">
        <ele>5.4000000953674</ele>
        <time>2021-10-17T07:33:55.000Z</time>
      </trkpt>
      <trkpt lat="47.50951" lon="-2.33285">
        <ele>5.8000001907349</ele>
        <time>2021-10-17T07:33:56.000Z</time>
      </trkpt>
      <trkpt lat="47.50949" lon="-2.33283">
        <ele>5.8000001907349</ele>
        <time>2021-10-17T07:33:58.000Z</time>
      </trkpt>
      <trkpt lat="47.50933" lon="-2.33278">
        <ele>12.800000190735</ele>
        <time>2021-10-17T07:34:39.000Z</time>
      </trkpt>
      <trkpt lat="47.50925" lon="-2.33271">
        <ele>13.199999809265</ele>
        <time>2021-10-17T07:34:45.000Z</time>
      </trkpt>
      <trkpt lat="47.50924" lon="-2.33269">
        <ele>13.60000038147</ele>
        <time>2021-10-17T07:34:46.000Z</time>
      </trkpt>
      <trkpt lat="47.50923" lon="-2.33267">
        <ele>14.199999809265</ele>
        <time>2021-10-17T07:34:47.000Z</time>
      </trkpt>
      <trkpt lat="47.50921" lon="-2.33265">
        <ele>14.60000038147</ele>
        <time>2021-10-17T07:34:48.000Z</time>
      </trkpt>
      <trkpt lat="47.5092" lon="-2.33264">
        <ele>15</ele>
        <time>2021-10-17T07:34:49.000Z</time>
      </trkpt>
      <trkpt lat="47.50918" lon="-2.33261">
        <ele>15</ele>
        <time>2021-10-17T07:34:51.000Z</time>
      </trkpt>
      <trkpt lat="47.50916" lon="-2.33257">
        <ele>15</ele>
        <time>2021-10-17T07:34:53.000Z</time>
      </trkpt>
      <trkpt lat="47.50911" lon="-2.33251">
        <ele>15</ele>
        <time>2021-10-17T07:34:57.000Z</time>
      </trkpt>
      <trkpt lat="47.5091" lon="-2.33249">
        <ele>15.39999961853</ele>
        <time>2021-10-17T07:34:58.000Z</time>
      </trkpt>
      <trkpt lat="47.50909" lon="-2.33247">
        <ele>15.800000190735</ele>
        <time>2021-10-17T07:34:59.000Z</time>
      </trkpt>
      <trkpt lat="47.50909" lon="-2.33245">
        <ele>16.200000762939</ele>
        <time>2021-10-17T07:35:00.000Z</time>
      </trkpt>
      <trkpt lat="47.50908" lon="-2.33243">
        <ele>16.60000038147</ele>
        <time>2021-10-17T07:35:01.000Z</time>
      </trkpt>
      <trkpt lat="47.50907" lon="-2.33241">
        <ele>17</ele>
        <time>2021-10-17T07:35:02.000Z</time>
      </trkpt>
      <trkpt lat="47.50905" lon="-2.33237">
        <ele>17</ele>
        <time>2021-10-17T07:35:04.000Z</time>
      </trkpt>
      <trkpt lat="47.50897" lon="-2.3322">
        <ele>17</ele>
        <time>2021-10-17T07:35:11.000Z</time>
      </trkpt>
      <trkpt lat="47.50894" lon="-2.33209">
        <ele>17.39999961853</ele>
        <time>2021-10-17T07:35:16.000Z</time>
      </trkpt>
      <trkpt lat="47.50894" lon="-2.33208">
        <ele>17.799999237061</ele>
        <time>2021-10-17T07:35:17.000Z</time>
      </trkpt>
      <trkpt lat="47.50894" lon="-2.33207">
        <ele>18.200000762939</ele>
        <time>2021-10-17T07:35:18.000Z</time>
      </trkpt>
      <trkpt lat="47.50893" lon="-2.33206">
        <ele>18.60000038147</ele>
        <time>2021-10-17T07:35:19.000Z</time>
      </trkpt>
      <trkpt lat="47.50893" lon="-2.33204">
        <ele>19</ele>
        <time>2021-10-17T07:35:20.000Z</time>
      </trkpt>
      <trkpt lat="47.50891" lon="-2.33195">
        <ele>19</ele>
        <time>2021-10-17T07:35:24.000Z</time>
      </trkpt>
      <trkpt lat="47.50889" lon="-2.33193">
        <ele>19</ele>
        <time>2021-10-17T07:35:25.000Z</time>
      </trkpt>
      <trkpt lat="47.50887" lon="-2.33177">
        <ele>19</ele>
        <time>2021-10-17T07:35:32.000Z</time>
      </trkpt>
      <trkpt lat="47.50886" lon="-2.3317">
        <ele>19.39999961853</ele>
        <time>2021-10-17T07:35:35.000Z</time>
      </trkpt>
      <trkpt lat="47.50885" lon="-2.33167">
        <ele>19.799999237061</ele>
        <time>2021-10-17T07:35:36.000Z</time>
      </trkpt>
      <trkpt lat="47.50885" lon="-2.33165">
        <ele>20.200000762939</ele>
        <time>2021-10-17T07:35:37.000Z</time>
      </trkpt>
      <trkpt lat="47.50884" lon="-2.33163">
        <ele>21</ele>
        <time>2021-10-17T07:35:38.000Z</time>
      </trkpt>
      <trkpt lat="47.50879" lon="-2.33142">
        <ele>21</ele>
        <time>2021-10-17T07:35:46.000Z</time>
      </trkpt>
      <trkpt lat="47.50876" lon="-2.33128">
        <ele>21</ele>
        <time>2021-10-17T07:35:52.000Z</time>
      </trkpt>
      <trkpt lat="47.50875" lon="-2.33112">
        <ele>21</ele>
        <time>2021-10-17T07:35:57.000Z</time>
      </trkpt>
      <trkpt lat="47.50874" lon="-2.33109">
        <ele>21</ele>
        <time>2021-10-17T07:35:58.000Z</time>
      </trkpt>
      <trkpt lat="47.50874" lon="-2.33087">
        <ele>21</ele>
        <time>2021-10-17T07:36:04.000Z</time>
      </trkpt>
      <trkpt lat="47.50871" lon="-2.33053">
        <ele>21</ele>
        <time>2021-10-17T07:36:10.000Z</time>
      </trkpt>
      <trkpt lat="47.50866" lon="-2.33023">
        <ele>21</ele>
        <time>2021-10-17T07:36:16.000Z</time>
      </trkpt>
      <trkpt lat="47.50863" lon="-2.3301">
        <ele>21</ele>
        <time>2021-10-17T07:36:20.000Z</time>
      </trkpt>
      <trkpt lat="47.50864" lon="-2.33006">
        <ele>21</ele>
        <time>2021-10-17T07:36:23.000Z</time>
      </trkpt>
      <trkpt lat="47.50865" lon="-2.33005">
        <ele>21</ele>
        <time>2021-10-17T07:36:54.000Z</time>
      </trkpt>
      <trkpt lat="47.50866" lon="-2.33006">
        <ele>21</ele>
        <time>2021-10-17T07:36:55.000Z</time>
      </trkpt>
      <trkpt lat="47.50876" lon="-2.33018">
        <ele>21</ele>
        <time>2021-10-17T07:37:00.000Z</time>
      </trkpt>
      <trkpt lat="47.50878" lon="-2.33018">
        <ele>21</ele>
        <time>2021-10-17T07:37:01.000Z</time>
      </trkpt>
      <trkpt lat="47.50883" lon="-2.33015">
        <ele>21</ele>
        <time>2021-10-17T07:37:03.000Z</time>
      </trkpt>
      <trkpt lat="47.50888" lon="-2.33011">
        <ele>21</ele>
        <time>2021-10-17T07:37:06.000Z</time>
      </trkpt>
      <trkpt lat="47.50891" lon="-2.33009">
        <ele>20.60000038147</ele>
        <time>2021-10-17T07:37:09.000Z</time>
      </trkpt>
      <trkpt lat="47.50891" lon="-2.33009">
        <ele>20.200000762939</ele>
        <time>2021-10-17T07:37:10.000Z</time>
      </trkpt>
      <trkpt lat="47.50902" lon="-2.32957">
        <ele>14.199999809265</ele>
        <time>2021-10-17T07:40:01.000Z</time>
      </trkpt>
      <trkpt lat="47.50903" lon="-2.32955">
        <ele>13.800000190735</ele>
        <time>2021-10-17T07:40:02.000Z</time>
      </trkpt>
      <trkpt lat="47.50903" lon="-2.32952">
        <ele>13.39999961853</ele>
        <time>2021-10-17T07:40:03.000Z</time>
      </trkpt>
      <trkpt lat="47.50903" lon="-2.3295">
        <ele>13</ele>
        <time>2021-10-17T07:40:04.000Z</time>
      </trkpt>
      <trkpt lat="47.50903" lon="-2.32948">
        <ele>12.60000038147</ele>
        <time>2021-10-17T07:40:05.000Z</time>
      </trkpt>
      <trkpt lat="47.50904" lon="-2.32947">
        <ele>12.60000038147</ele>
        <time>2021-10-17T07:40:06.000Z</time>
      </trkpt>
      <trkpt lat="47.50934" lon="-2.32928">
        <ele>-2.5999999046326</ele>
        <time>2021-10-17T07:42:34.000Z</time>
      </trkpt>
      <trkpt lat="47.50935" lon="-2.32926">
        <ele>-2.5999999046326</ele>
        <time>2021-10-17T07:42:35.000Z</time>
      </trkpt>
      <trkpt lat="47.50937" lon="-2.32921">
        <ele>-3.5999999046326</ele>
        <time>2021-10-17T07:42:37.000Z</time>
      </trkpt>
      <trkpt lat="47.50937" lon="-2.32919">
        <ele>-4</ele>
        <time>2021-10-17T07:42:38.000Z</time>
      </trkpt>
      <trkpt lat="47.50938" lon="-2.32918">
        <ele>-4.5999999046326</ele>
        <time>2021-10-17T07:42:39.000Z</time>
      </trkpt>
      <trkpt lat="47.50936" lon="-2.32902">
        <ele>-5</ele>
        <time>2021-10-17T07:43:13.000Z</time>
      </trkpt>
      <trkpt lat="47.50934" lon="-2.32896">
        <ele>-5</ele>
        <time>2021-10-17T07:43:15.000Z</time>
      </trkpt>
      <trkpt lat="47.50933" lon="-2.32892">
        <ele>-5</ele>
        <time>2021-10-17T07:43:18.000Z</time>
      </trkpt>
      <trkpt lat="47.5092" lon="-2.32854">
        <ele>1.6000000238419</ele>
        <time>2021-10-17T07:44:15.000Z</time>
      </trkpt>
      <trkpt lat="47.5092" lon="-2.3285">
        <ele>1.6000000238419</ele>
        <time>2021-10-17T07:44:16.000Z</time>
      </trkpt>
      <trkpt lat="47.5092" lon="-2.32845">
        <ele>1.2000000476837</ele>
        <time>2021-10-17T07:44:17.000Z</time>
      </trkpt>
      <trkpt lat="47.5092" lon="-2.32839">
        <ele>0.80000001192093</ele>
        <time>2021-10-17T07:44:18.000Z</time>
      </trkpt>
      <trkpt lat="47.5092" lon="-2.32834">
        <ele>0.40000000596046</ele>
        <time>2021-10-17T07:44:19.000Z</time>
      </trkpt>
      <trkpt lat="47.5092" lon="-2.32831">
        <ele>10</ele>
        <time>2021-10-17T07:44:20.000Z</time>
      </trkpt>
      <trkpt lat="47.50921" lon="-2.32829">
        <ele>-0.60000002384186</ele>
        <time>2021-10-17T07:44:21.000Z</time>
      </trkpt>
      <trkpt lat="47.50921" lon="-2.32828">
        <ele>-1.2000000476837</ele>
        <time>2021-10-17T07:44:22.000Z</time>
      </trkpt>
      <trkpt lat="47.50922" lon="-2.32827">
        <ele>-1.7999999523163</ele>
        <time>2021-10-17T07:44:23.000Z</time>
      </trkpt>
      <trkpt lat="47.50923" lon="-2.32825">
        <ele>-2.4000000953674</ele>
        <time>2021-10-17T07:44:24.000Z</time>
      </trkpt>
      <trkpt lat="47.50924" lon="-2.32823">
        <ele>-3</ele>
        <time>2021-10-17T07:44:25.000Z</time>
      </trkpt>
      <trkpt lat="47.50925" lon="-2.32822">
        <ele>-3.4000000953674</ele>
        <time>2021-10-17T07:44:26.000Z</time>
      </trkpt>
      <trkpt lat="47.50925" lon="-2.32822">
        <ele>-4</ele>
        <time>2021-10-17T07:44:27.000Z</time>
      </trkpt>
      <trkpt lat="47.50925" lon="-2.32821">
        <ele>-4.5999999046326</ele>
        <time>2021-10-17T07:44:28.000Z</time>
      </trkpt>
      <trkpt lat="47.50925" lon="-2.32815">
        <ele>-5</ele>
        <time>2021-10-17T07:44:42.000Z</time>
      </trkpt>
      <trkpt lat="47.50926" lon="-2.3281">
        <ele>-5</ele>
        <time>2021-10-17T07:44:44.000Z</time>
      </trkpt>
      <trkpt lat="47.50929" lon="-2.32792">
        <ele>-5</ele>
        <time>2021-10-17T07:44:48.000Z</time>
      </trkpt>
      <trkpt lat="47.5093" lon="-2.32786">
        <ele>-5</ele>
        <time>2021-10-17T07:44:49.000Z</time>
      </trkpt>
      <trkpt lat="47.50928" lon="-2.32759">
        <ele>-5</ele>
        <time>2021-10-17T07:44:54.000Z</time>
      </trkpt>
      <trkpt lat="47.50915" lon="-2.32732">
        <ele>-5</ele>
        <time>2021-10-17T07:45:00.000Z</time>
      </trkpt>
      <trkpt lat="47.509" lon="-2.32709">
        <ele>-5</ele>
        <time>2021-10-17T07:45:05.000Z</time>
      </trkpt>
      <trkpt lat="47.50895" lon="-2.32704">
        <ele>-4.5999999046326</ele>
        <time>2021-10-17T07:45:07.000Z</time>
      </trkpt>
      <trkpt lat="47.50892" lon="-2.32702">
        <ele>-4.1999998092651</ele>
        <time>2021-10-17T07:45:08.000Z</time>
      </trkpt>
      <trkpt lat="47.5089" lon="-2.32701">
        <ele>-3.7999999523163</ele>
        <time>2021-10-17T07:45:09.000Z</time>
      </trkpt>
      <trkpt lat="47.50887" lon="-2.327">
        <ele>-3.4000000953674</ele>
        <time>2021-10-17T07:45:10.000Z</time>
      </trkpt>
      <trkpt lat="47.50885" lon="-2.327">
        <ele>-3</ele>
        <time>2021-10-17T07:45:11.000Z</time>
      </trkpt>
      <trkpt lat="47.50878" lon="-2.32702">
        <ele>-2.5999999046326</ele>
        <time>2021-10-17T07:45:14.000Z</time>
      </trkpt>
      <trkpt lat="47.50875" lon="-2.32703">
        <ele>-2</ele>
        <time>2021-10-17T07:45:15.000Z</time>
      </trkpt>
      <trkpt lat="47.50872" lon="-2.32704">
        <ele>-1.6000000238419</ele>
        <time>2021-10-17T07:45:16.000Z</time>
      </trkpt>
      <trkpt lat="47.5087" lon="-2.32705">
        <ele>-1.2000000476837</ele>
        <time>2021-10-17T07:45:17.000Z</time>
      </trkpt>
      <trkpt lat="47.50868" lon="-2.32707">
        <ele>-0.60000002384186</ele>
        <time>2021-10-17T07:45:18.000Z</time>
      </trkpt>
      <trkpt lat="47.50858" lon="-2.32709">
        <ele>-0.60000002384186</ele>
        <time>2021-10-17T07:45:22.000Z</time>
      </trkpt>
      <trkpt lat="47.50853" lon="-2.32709">
        <ele>-0.20000000298023</ele>
        <time>2021-10-17T07:45:24.000Z</time>
      </trkpt>
      <trkpt lat="47.5085" lon="-2.32708">
        <ele>0.20000000298023</ele>
        <time>2021-10-17T07:45:25.000Z</time>
      </trkpt>
      <trkpt lat="47.50848" lon="-2.32707">
        <ele>0.60000002384186</ele>
        <time>2021-10-17T07:45:26.000Z</time>
      </trkpt>
      <trkpt lat="47.50846" lon="-2.32705">
        <ele>1</ele>
        <time>2021-10-17T07:45:27.000Z</time>
      </trkpt>
      <trkpt lat="47.50845" lon="-2.32701">
        <ele>1.3999999761581</ele>
        <time>2021-10-17T07:45:28.000Z</time>
      </trkpt>
      <trkpt lat="47.50845" lon="-2.32691">
        <ele>1.3999999761581</ele>
        <time>2021-10-17T07:45:31.000Z</time>
      </trkpt>
      <trkpt lat="47.50844" lon="-2.32672">
        <ele>1.3999999761581</ele>
        <time>2021-10-17T07:45:38.000Z</time>
      </trkpt>
      <trkpt lat="47.50846" lon="-2.32662">
        <ele>1.3999999761581</ele>
        <time>2021-10-17T07:46:19.000Z</time>
      </trkpt>
      <trkpt lat="47.50851" lon="-2.32659">
        <ele>1.3999999761581</ele>
        <time>2021-10-17T07:46:22.000Z</time>
      </trkpt>
      <trkpt lat="47.50855" lon="-2.32655">
        <ele>1.3999999761581</ele>
        <time>2021-10-17T07:46:24.000Z</time>
      </trkpt>
      <trkpt lat="47.50868" lon="-2.32644">
        <ele>1.3999999761581</ele>
        <time>2021-10-17T07:46:28.000Z</time>
      </trkpt>
      <trkpt lat="47.50877" lon="-2.32636">
        <ele>1.3999999761581</ele>
        <time>2021-10-17T07:46:30.000Z</time>
      </trkpt>
      <trkpt lat="47.50887" lon="-2.32626">
        <ele>1.3999999761581</ele>
        <time>2021-10-17T07:46:32.000Z</time>
      </trkpt>
      <trkpt lat="47.50895" lon="-2.32616">
        <ele>1.3999999761581</ele>
        <time>2021-10-17T07:46:34.000Z</time>
      </trkpt>
      <trkpt lat="47.509" lon="-2.32608">
        <ele>1.3999999761581</ele>
        <time>2021-10-17T07:46:36.000Z</time>
      </trkpt>
      <trkpt lat="47.50909" lon="-2.32588">
        <ele>1.3999999761581</ele>
        <time>2021-10-17T07:46:41.000Z</time>
      </trkpt>
      <trkpt lat="47.50922" lon="-2.32568">
        <ele>2</ele>
        <time>2021-10-17T07:46:47.000Z</time>
      </trkpt>
      <trkpt lat="47.50924" lon="-2.32565">
        <ele>2.4000000953674</ele>
        <time>2021-10-17T07:46:48.000Z</time>
      </trkpt>
      <trkpt lat="47.50926" lon="-2.32562">
        <ele>2.7999999523163</ele>
        <time>2021-10-17T07:46:49.000Z</time>
      </trkpt>
      <trkpt lat="47.50929" lon="-2.32559">
        <ele>3.2000000476837</ele>
        <time>2021-10-17T07:46:50.000Z</time>
      </trkpt>
      <trkpt lat="47.50932" lon="-2.32557">
        <ele>3.5999999046326</ele>
        <time>2021-10-17T07:46:51.000Z</time>
      </trkpt>
      <trkpt lat="47.50939" lon="-2.32551">
        <ele>3.5999999046326</ele>
        <time>2021-10-17T07:46:53.000Z</time>
      </trkpt>
      <trkpt lat="47.50951" lon="-2.3254">
        <ele>4</ele>
        <time>2021-10-17T07:46:57.000Z</time>
      </trkpt>
      <trkpt lat="47.50954" lon="-2.32537">
        <ele>4.5999999046326</ele>
        <time>2021-10-17T07:46:58.000Z</time>
      </trkpt>
      <trkpt lat="47.50957" lon="-2.32534">
        <ele>5</ele>
        <time>2021-10-17T07:46:59.000Z</time>
      </trkpt>
      <trkpt lat="47.5096" lon="-2.32531">
        <ele>5.4000000953674</ele>
        <time>2021-10-17T07:47:00.000Z</time>
      </trkpt>
      <trkpt lat="47.50962" lon="-2.32528">
        <ele>5.8000001907349</ele>
        <time>2021-10-17T07:47:01.000Z</time>
      </trkpt>
      <trkpt lat="47.50969" lon="-2.3252">
        <ele>5.8000001907349</ele>
        <time>2021-10-17T07:47:03.000Z</time>
      </trkpt>
      <trkpt lat="47.50983" lon="-2.32504">
        <ele>6.1999998092651</ele>
        <time>2021-10-17T07:47:08.000Z</time>
      </trkpt>
      <trkpt lat="47.50986" lon="-2.325">
        <ele>7.1999998092651</ele>
        <time>2021-10-17T07:47:09.000Z</time>
      </trkpt>
      <trkpt lat="47.50989" lon="-2.32497">
        <ele>7.5999999046326</ele>
        <time>2021-10-17T07:47:10.000Z</time>
      </trkpt>
      <trkpt lat="47.50991" lon="-2.32493">
        <ele>8</ele>
        <time>2021-10-17T07:47:11.000Z</time>
      </trkpt>
      <trkpt lat="47.51008" lon="-2.32475">
        <ele>8</ele>
        <time>2021-10-17T07:47:17.000Z</time>
      </trkpt>
      <trkpt lat="47.51027" lon="-2.32456">
        <ele>8</ele>
        <time>2021-10-17T07:47:23.000Z</time>
      </trkpt>
      <trkpt lat="47.5104" lon="-2.3244">
        <ele>8</ele>
        <time>2021-10-17T07:47:27.000Z</time>
      </trkpt>
      <trkpt lat="47.51044" lon="-2.32434">
        <ele>8</ele>
        <time>2021-10-17T07:47:28.000Z</time>
      </trkpt>
      <trkpt lat="47.51052" lon="-2.32415">
        <ele>8</ele>
        <time>2021-10-17T07:47:31.000Z</time>
      </trkpt>
      <trkpt lat="47.51056" lon="-2.32399">
        <ele>8</ele>
        <time>2021-10-17T07:47:33.000Z</time>
      </trkpt>
      <trkpt lat="47.51058" lon="-2.32391">
        <ele>7.5999999046326</ele>
        <time>2021-10-17T07:47:34.000Z</time>
      </trkpt>
      <trkpt lat="47.51061" lon="-2.32384">
        <ele>7.1999998092651</ele>
        <time>2021-10-17T07:47:35.000Z</time>
      </trkpt>
      <trkpt lat="47.51064" lon="-2.32378">
        <ele>6.5999999046326</ele>
        <time>2021-10-17T07:47:36.000Z</time>
      </trkpt>
      <trkpt lat="47.51066" lon="-2.32373">
        <ele>6</ele>
        <time>2021-10-17T07:47:37.000Z</time>
      </trkpt>
      <trkpt lat="47.5107" lon="-2.3237">
        <ele>5.1999998092651</ele>
        <time>2021-10-17T07:47:38.000Z</time>
      </trkpt>
      <trkpt lat="47.51074" lon="-2.32367">
        <ele>4.4000000953674</ele>
        <time>2021-10-17T07:47:39.000Z</time>
      </trkpt>
      <trkpt lat="47.51079" lon="-2.32364">
        <ele>3.5999999046326</ele>
        <time>2021-10-17T07:47:40.000Z</time>
      </trkpt>
      <trkpt lat="47.51082" lon="-2.3236">
        <ele>2.7999999523163</ele>
        <time>2021-10-17T07:47:41.000Z</time>
      </trkpt>
      <trkpt lat="47.51086" lon="-2.32355">
        <ele>1.7999999523163</ele>
        <time>2021-10-17T07:47:42.000Z</time>
      </trkpt>
      <trkpt lat="47.51087" lon="-2.32349">
        <ele>1</ele>
        <time>2021-10-17T07:47:43.000Z</time>
      </trkpt>
      <trkpt lat="47.51087" lon="-2.32343">
        <ele>0.20000000298023</ele>
        <time>2021-10-17T07:47:44.000Z</time>
      </trkpt>
      <trkpt lat="47.51087" lon="-2.32336">
        <ele>-0.60000002384186</ele>
        <time>2021-10-17T07:47:45.000Z</time>
      </trkpt>
      <trkpt lat="47.51086" lon="-2.32329">
        <ele>-1.3999999761581</ele>
        <time>2021-10-17T07:47:46.000Z</time>
      </trkpt>
      <trkpt lat="47.51083" lon="-2.32322">
        <ele>-2.2000000476837</ele>
        <time>2021-10-17T07:47:47.000Z</time>
      </trkpt>
      <trkpt lat="47.5108" lon="-2.32316">
        <ele>-3</ele>
        <time>2021-10-17T07:47:48.000Z</time>
      </trkpt>
      <trkpt lat="47.51076" lon="-2.32309">
        <ele>-3.7999999523163</ele>
        <time>2021-10-17T07:47:49.000Z</time>
      </trkpt>
      <trkpt lat="47.51072" lon="-2.32302">
        <ele>-4.4000000953674</ele>
        <time>2021-10-17T07:47:50.000Z</time>
      </trkpt>
      <trkpt lat="47.51068" lon="-2.32296">
        <ele>-5.1999998092651</ele>
        <time>2021-10-17T07:47:51.000Z</time>
      </trkpt>
      <trkpt lat="47.51063" lon="-2.3229">
        <ele>-5.8000001907349</ele>
        <time>2021-10-17T07:47:52.000Z</time>
      </trkpt>
      <trkpt lat="47.51046" lon="-2.3227">
        <ele>-5.8000001907349</ele>
        <time>2021-10-17T07:47:55.000Z</time>
      </trkpt>
      <trkpt lat="47.5104" lon="-2.32265">
        <ele>-5.8000001907349</ele>
        <time>2021-10-17T07:47:56.000Z</time>
      </trkpt>
      <trkpt lat="47.51022" lon="-2.32258">
        <ele>-5.8000001907349</ele>
        <time>2021-10-17T07:47:59.000Z</time>
      </trkpt>
      <trkpt lat="47.51017" lon="-2.32257">
        <ele>-5.8000001907349</ele>
        <time>2021-10-17T07:48:00.000Z</time>
      </trkpt>
      <trkpt lat="47.50998" lon="-2.32254">
        <ele>-5.8000001907349</ele>
        <time>2021-10-17T07:48:03.000Z</time>
      </trkpt>
      <trkpt lat="47.50992" lon="-2.32254">
        <ele>-5.8000001907349</ele>
        <time>2021-10-17T07:48:04.000Z</time>
      </trkpt>
      <trkpt lat="47.50974" lon="-2.3225">
        <ele>-5.8000001907349</ele>
        <time>2021-10-17T07:48:07.000Z</time>
      </trkpt>
      <trkpt lat="47.50968" lon="-2.32249">
        <ele>-5.8000001907349</ele>
        <time>2021-10-17T07:48:08.000Z</time>
      </trkpt>
      <trkpt lat="47.50963" lon="-2.32247">
        <ele>-6.4000000953674</ele>
        <time>2021-10-17T07:48:09.000Z</time>
      </trkpt>
      <trkpt lat="47.50959" lon="-2.32244">
        <ele>-6.8000001907349</ele>
        <time>2021-10-17T07:48:10.000Z</time>
      </trkpt>
      <trkpt lat="47.50957" lon="-2.32239">
        <ele>-7.1999998092651</ele>
        <time>2021-10-17T07:48:11.000Z</time>
      </trkpt>
      <trkpt lat="47.50955" lon="-2.32233">
        <ele>-7.5999999046326</ele>
        <time>2021-10-17T07:48:12.000Z</time>
      </trkpt>
      <trkpt lat="47.50955" lon="-2.32227">
        <ele>-8</ele>
        <time>2021-10-17T07:48:13.000Z</time>
      </trkpt>
      <trkpt lat="47.50956" lon="-2.32222">
        <ele>-8</ele>
        <time>2021-10-17T07:48:14.000Z</time>
      </trkpt>
      <trkpt lat="47.50957" lon="-2.32217">
        <ele>-8</ele>
        <time>2021-10-17T07:48:15.000Z</time>
      </trkpt>
      <trkpt lat="47.50965" lon="-2.3218">
        <ele>-8</ele>
        <time>2021-10-17T07:48:21.000Z</time>
      </trkpt>
      <trkpt lat="47.50968" lon="-2.32158">
        <ele>-8</ele>
        <time>2021-10-17T07:48:26.000Z</time>
      </trkpt>
      <trkpt lat="47.50961" lon="-2.32154">
        <ele>-8</ele>
        <time>2021-10-17T07:48:29.000Z</time>
      </trkpt>
      <trkpt lat="47.50948" lon="-2.32147">
        <ele>-8</ele>
        <time>2021-10-17T07:48:32.000Z</time>
      </trkpt>
      <trkpt lat="47.50939" lon="-2.32146">
        <ele>-8</ele>
        <time>2021-10-17T07:48:34.000Z</time>
      </trkpt>
      <trkpt lat="47.5093" lon="-2.32145">
        <ele>-8</ele>
        <time>2021-10-17T07:48:36.000Z</time>
      </trkpt>
      <trkpt lat="47.5092" lon="-2.32137">
        <ele>-8</ele>
        <time>2021-10-17T07:48:39.000Z</time>
      </trkpt>
      <trkpt lat="47.50918" lon="-2.3213">
        <ele>-8</ele>
        <time>2021-10-17T07:48:41.000Z</time>
      </trkpt>
      <trkpt lat="47.50919" lon="-2.32125">
        <ele>-8</ele>
        <time>2021-10-17T07:48:43.000Z</time>
      </trkpt>
      <trkpt lat="47.50922" lon="-2.32119">
        <ele>-7.4000000953674</ele>
        <time>2021-10-17T07:48:46.000Z</time>
      </trkpt>
      <trkpt lat="47.50923" lon="-2.32117">
        <ele>-6.5999999046326</ele>
        <time>2021-10-17T07:48:47.000Z</time>
      </trkpt>
      <trkpt lat="47.50923" lon="-2.32115">
        <ele>-6</ele>
        <time>2021-10-17T07:48:48.000Z</time>
      </trkpt>
      <trkpt lat="47.50925" lon="-2.32114">
        <ele>-5.5999999046326</ele>
        <time>2021-10-17T07:48:49.000Z</time>
      </trkpt>
      <trkpt lat="47.50925" lon="-2.32111">
        <ele>-5</ele>
        <time>2021-10-17T07:48:50.000Z</time>
      </trkpt>
      <trkpt lat="47.50926" lon="-2.32109">
        <ele>-4.5999999046326</ele>
        <time>2021-10-17T07:48:51.000Z</time>
      </trkpt>
      <trkpt lat="47.50928" lon="-2.32108">
        <ele>-4.1999998092651</ele>
        <time>2021-10-17T07:48:52.000Z</time>
      </trkpt>
      <trkpt lat="47.50929" lon="-2.32106">
        <ele>-3.7999999523163</ele>
        <time>2021-10-17T07:48:53.000Z</time>
      </trkpt>
      <trkpt lat="47.5093" lon="-2.32105">
        <ele>-3.2000000476837</ele>
        <time>2021-10-17T07:48:54.000Z</time>
      </trkpt>
      <trkpt lat="47.50934" lon="-2.32102">
        <ele>-2.7999999523163</ele>
        <time>2021-10-17T07:48:56.000Z</time>
      </trkpt>
      <trkpt lat="47.50936" lon="-2.32101">
        <ele>-2.4000000953674</ele>
        <time>2021-10-17T07:48:57.000Z</time>
      </trkpt>
      <trkpt lat="47.50938" lon="-2.321">
        <ele>-2</ele>
        <time>2021-10-17T07:48:58.000Z</time>
      </trkpt>
      <trkpt lat="47.5094" lon="-2.32099">
        <ele>-1.6000000238419</ele>
        <time>2021-10-17T07:48:59.000Z</time>
      </trkpt>
      <trkpt lat="47.50942" lon="-2.32097">
        <ele>-1.2000000476837</ele>
        <time>2021-10-17T07:49:00.000Z</time>
      </trkpt>
      <trkpt lat="47.50945" lon="-2.32093">
        <ele>-1.2000000476837</ele>
        <time>2021-10-17T07:49:02.000Z</time>
      </trkpt>
      <trkpt lat="47.50947" lon="-2.32091">
        <ele>-0.80000001192093</ele>
        <time>2021-10-17T07:49:03.000Z</time>
      </trkpt>
      <trkpt lat="47.50949" lon="-2.3209">
        <ele>-0.40000000596046</ele>
        <time>2021-10-17T07:49:04.000Z</time>
      </trkpt>
      <trkpt lat="47.50951" lon="-2.3209">
        <ele>11.9</ele>
        <time>2021-10-17T07:49:05.000Z</time>
      </trkpt>
      <trkpt lat="47.50953" lon="-2.3209">
        <ele>0.40000000596046</ele>
        <time>2021-10-17T07:49:06.000Z</time>
      </trkpt>
      <trkpt lat="47.50956" lon="-2.32091">
        <ele>1</ele>
        <time>2021-10-17T07:49:07.000Z</time>
      </trkpt>
      <trkpt lat="47.50959" lon="-2.32091">
        <ele>1</ele>
        <time>2021-10-17T07:49:08.000Z</time>
      </trkpt>
      <trkpt lat="47.50979" lon="-2.32096">
        <ele>1</ele>
        <time>2021-10-17T07:49:15.000Z</time>
      </trkpt>
      <trkpt lat="47.5099" lon="-2.32098">
        <ele>1.3999999761581</ele>
        <time>2021-10-17T07:49:19.000Z</time>
      </trkpt>
      <trkpt lat="47.50992" lon="-2.32099">
        <ele>1.7999999523163</ele>
        <time>2021-10-17T07:49:20.000Z</time>
      </trkpt>
      <trkpt lat="47.50994" lon="-2.321">
        <ele>2.2000000476837</ele>
        <time>2021-10-17T07:49:21.000Z</time>
      </trkpt>
      <trkpt lat="47.50996" lon="-2.32101">
        <ele>2.5999999046326</ele>
        <time>2021-10-17T07:49:22.000Z</time>
      </trkpt>
      <trkpt lat="47.50999" lon="-2.32102">
        <ele>3</ele>
        <time>2021-10-17T07:49:23.000Z</time>
      </trkpt>
      <trkpt lat="47.51001" lon="-2.32104">
        <ele>3</ele>
        <time>2021-10-17T07:49:24.000Z</time>
      </trkpt>
      <trkpt lat="47.51007" lon="-2.32106">
        <ele>3</ele>
        <time>2021-10-17T07:49:26.000Z</time>
      </trkpt>
      <trkpt lat="47.51024" lon="-2.32113">
        <ele>3</ele>
        <time>2021-10-17T07:49:33.000Z</time>
      </trkpt>
      <trkpt lat="47.5103" lon="-2.32117">
        <ele>3.4000000953674</ele>
        <time>2021-10-17T07:49:36.000Z</time>
      </trkpt>
      <trkpt lat="47.51033" lon="-2.32119">
        <ele>4.1999998092651</ele>
        <time>2021-10-17T07:49:37.000Z</time>
      </trkpt>
      <trkpt lat="47.51035" lon="-2.32121">
        <ele>4.5999999046326</ele>
        <time>2021-10-17T07:49:38.000Z</time>
      </trkpt>
      <trkpt lat="47.51037" lon="-2.32123">
        <ele>5</ele>
        <time>2021-10-17T07:49:39.000Z</time>
      </trkpt>
      <trkpt lat="47.51045" lon="-2.32128">
        <ele>5.4000000953674</ele>
        <time>2021-10-17T07:49:43.000Z</time>
      </trkpt>
      <trkpt lat="47.51048" lon="-2.3213">
        <ele>5.8000001907349</ele>
        <time>2021-10-17T07:49:44.000Z</time>
      </trkpt>
      <trkpt lat="47.5105" lon="-2.32132">
        <ele>6.4000000953674</ele>
        <time>2021-10-17T07:49:45.000Z</time>
      </trkpt>
      <trkpt lat="47.51053" lon="-2.32134">
        <ele>6.8000001907349</ele>
        <time>2021-10-17T07:49:46.000Z</time>
      </trkpt>
      <trkpt lat="47.51056" lon="-2.32135">
        <ele>7.1999998092651</ele>
        <time>2021-10-17T07:49:47.000Z</time>
      </trkpt>
      <trkpt lat="47.51068" lon="-2.32142">
        <ele>7.1999998092651</ele>
        <time>2021-10-17T07:49:52.000Z</time>
      </trkpt>
      <trkpt lat="47.51071" lon="-2.32145">
        <ele>7.1999998092651</ele>
        <time>2021-10-17T07:49:54.000Z</time>
      </trkpt>
      <trkpt lat="47.51076" lon="-2.3215">
        <ele>7.5999999046326</ele>
        <time>2021-10-17T07:49:57.000Z</time>
      </trkpt>
      <trkpt lat="47.51079" lon="-2.32151">
        <ele>8</ele>
        <time>2021-10-17T07:49:58.000Z</time>
      </trkpt>
      <trkpt lat="47.51081" lon="-2.32153">
        <ele>8.3999996185303</ele>
        <time>2021-10-17T07:49:59.000Z</time>
      </trkpt>
      <trkpt lat="47.51083" lon="-2.32155">
        <ele>8.8000001907349</ele>
        <time>2021-10-17T07:50:00.000Z</time>
      </trkpt>
      <trkpt lat="47.51086" lon="-2.32156">
        <ele>9.1999998092651</ele>
        <time>2021-10-17T07:50:01.000Z</time>
      </trkpt>
      <trkpt lat="47.51089" lon="-2.32158">
        <ele>9.1999998092651</ele>
        <time>2021-10-17T07:50:02.000Z</time>
      </trkpt>
      <trkpt lat="47.51092" lon="-2.3216">
        <ele>9.1999998092651</ele>
        <time>2021-10-17T07:50:03.000Z</time>
      </trkpt>
      <trkpt lat="47.51107" lon="-2.32162">
        <ele>9.1999998092651</ele>
        <time>2021-10-17T07:50:09.000Z</time>
      </trkpt>
      <trkpt lat="47.51114" lon="-2.32161">
        <ele>9.6000003814697</ele>
        <time>2021-10-17T07:50:13.000Z</time>
      </trkpt>
      <trkpt lat="47.51116" lon="-2.3216">
        <ele>10.199999809265</ele>
        <time>2021-10-17T07:50:14.000Z</time>
      </trkpt>
      <trkpt lat="47.51118" lon="-2.32159">
        <ele>10.60000038147</ele>
        <time>2021-10-17T07:50:15.000Z</time>
      </trkpt>
      <trkpt lat="47.5112" lon="-2.32158">
        <ele>11</ele>
        <time>2021-10-17T07:50:16.000Z</time>
      </trkpt>
      <trkpt lat="47.51122" lon="-2.32158">
        <ele>11.39999961853</ele>
        <time>2021-10-17T07:50:17.000Z</time>
      </trkpt>
      <trkpt lat="47.51132" lon="-2.32149">
        <ele>11.39999961853</ele>
        <time>2021-10-17T07:50:22.000Z</time>
      </trkpt>
      <trkpt lat="47.5114" lon="-2.32141">
        <ele>12</ele>
        <time>2021-10-17T07:50:26.000Z</time>
      </trkpt>
      <trkpt lat="47.51142" lon="-2.3214">
        <ele>12.39999961853</ele>
        <time>2021-10-17T07:50:27.000Z</time>
      </trkpt>
      <trkpt lat="47.51144" lon="-2.3214">
        <ele>12.800000190735</ele>
        <time>2021-10-17T07:50:28.000Z</time>
      </trkpt>
      <trkpt lat="47.51145" lon="-2.32141">
        <ele>13.199999809265</ele>
        <time>2021-10-17T07:50:29.000Z</time>
      </trkpt>
      <trkpt lat="47.51145" lon="-2.32144">
        <ele>13.60000038147</ele>
        <time>2021-10-17T07:50:30.000Z</time>
      </trkpt>
      <trkpt lat="47.51146" lon="-2.32152">
        <ele>13.60000038147</ele>
        <time>2021-10-17T07:50:32.000Z</time>
      </trkpt>
      <trkpt lat="47.51147" lon="-2.32156">
        <ele>13</ele>
        <time>2021-10-17T07:50:33.000Z</time>
      </trkpt>
      <trkpt lat="47.5115" lon="-2.32161">
        <ele>12.39999961853</ele>
        <time>2021-10-17T07:50:34.000Z</time>
      </trkpt>
      <trkpt lat="47.51152" lon="-2.32167">
        <ele>12</ele>
        <time>2021-10-17T07:50:35.000Z</time>
      </trkpt>
      <trkpt lat="47.51155" lon="-2.32173">
        <ele>11.199999809265</ele>
        <time>2021-10-17T07:50:36.000Z</time>
      </trkpt>
      <trkpt lat="47.51158" lon="-2.32178">
        <ele>10.39999961853</ele>
        <time>2021-10-17T07:50:37.000Z</time>
      </trkpt>
      <trkpt lat="47.51163" lon="-2.32183">
        <ele>9.6000003814697</ele>
        <time>2021-10-17T07:50:38.000Z</time>
      </trkpt>
      <trkpt lat="47.51168" lon="-2.32186">
        <ele>8.8000001907349</ele>
        <time>2021-10-17T07:50:39.000Z</time>
      </trkpt>
      <trkpt lat="47.51173" lon="-2.32188">
        <ele>8</ele>
        <time>2021-10-17T07:50:40.000Z</time>
      </trkpt>
      <trkpt lat="47.51179" lon="-2.32186">
        <ele>7.1999998092651</ele>
        <time>2021-10-17T07:50:41.000Z</time>
      </trkpt>
      <trkpt lat="47.51183" lon="-2.32183">
        <ele>6.4000000953674</ele>
        <time>2021-10-17T07:50:42.000Z</time>
      </trkpt>
      <trkpt lat="47.51188" lon="-2.32179">
        <ele>5.5999999046326</ele>
        <time>2021-10-17T07:50:43.000Z</time>
      </trkpt>
      <trkpt lat="47.51203" lon="-2.32158">
        <ele>5.1999998092651</ele>
        <time>2021-10-17T07:50:47.000Z</time>
      </trkpt>
      <trkpt lat="47.51206" lon="-2.32152">
        <ele>4.8000001907349</ele>
        <time>2021-10-17T07:50:48.000Z</time>
      </trkpt>
      <trkpt lat="47.51209" lon="-2.32146">
        <ele>4.4000000953674</ele>
        <time>2021-10-17T07:50:49.000Z</time>
      </trkpt>
      <trkpt lat="47.51212" lon="-2.32142">
        <ele>3.4000000953674</ele>
        <time>2021-10-17T07:50:50.000Z</time>
      </trkpt>
      <trkpt lat="47.51217" lon="-2.32133">
        <ele>3.4000000953674</ele>
        <time>2021-10-17T07:50:52.000Z</time>
      </trkpt>
      <trkpt lat="47.51231" lon="-2.321">
        <ele>3.4000000953674</ele>
        <time>2021-10-17T07:50:59.000Z</time>
      </trkpt>
      <trkpt lat="47.51236" lon="-2.32083">
        <ele>4</ele>
        <time>2021-10-17T07:51:03.000Z</time>
      </trkpt>
      <trkpt lat="47.51237" lon="-2.3208">
        <ele>4.4000000953674</ele>
        <time>2021-10-17T07:51:04.000Z</time>
      </trkpt>
      <trkpt lat="47.51239" lon="-2.32076">
        <ele>4.8000001907349</ele>
        <time>2021-10-17T07:51:05.000Z</time>
      </trkpt>
      <trkpt lat="47.51241" lon="-2.32072">
        <ele>5.1999998092651</ele>
        <time>2021-10-17T07:51:06.000Z</time>
      </trkpt>
      <trkpt lat="47.51243" lon="-2.32068">
        <ele>5.5999999046326</ele>
        <time>2021-10-17T07:51:07.000Z</time>
      </trkpt>
      <trkpt lat="47.51253" lon="-2.32044">
        <ele>5.5999999046326</ele>
        <time>2021-10-17T07:51:13.000Z</time>
      </trkpt>
      <trkpt lat="47.51255" lon="-2.3204">
        <ele>6</ele>
        <time>2021-10-17T07:51:14.000Z</time>
      </trkpt>
      <trkpt lat="47.51257" lon="-2.32037">
        <ele>6.8000001907349</ele>
        <time>2021-10-17T07:51:15.000Z</time>
      </trkpt>
      <trkpt lat="47.51259" lon="-2.32033">
        <ele>7.1999998092651</ele>
        <time>2021-10-17T07:51:16.000Z</time>
      </trkpt>
      <trkpt lat="47.51261" lon="-2.32029">
        <ele>7.5999999046326</ele>
        <time>2021-10-17T07:51:17.000Z</time>
      </trkpt>
      <trkpt lat="47.51268" lon="-2.3202">
        <ele>7.5999999046326</ele>
        <time>2021-10-17T07:51:19.000Z</time>
      </trkpt>
      <trkpt lat="47.51285" lon="-2.31994">
        <ele>7.5999999046326</ele>
        <time>2021-10-17T07:51:25.000Z</time>
      </trkpt>
      <trkpt lat="47.5129" lon="-2.31986">
        <ele>8</ele>
        <time>2021-10-17T07:51:27.000Z</time>
      </trkpt>
      <trkpt lat="47.51292" lon="-2.31983">
        <ele>8.3999996185303</ele>
        <time>2021-10-17T07:51:28.000Z</time>
      </trkpt>
      <trkpt lat="47.51294" lon="-2.3198">
        <ele>8.8000001907349</ele>
        <time>2021-10-17T07:51:29.000Z</time>
      </trkpt>
      <trkpt lat="47.51295" lon="-2.31977">
        <ele>9.3999996185303</ele>
        <time>2021-10-17T07:51:30.000Z</time>
      </trkpt>
      <trkpt lat="47.51296" lon="-2.31973">
        <ele>9.8000001907349</ele>
        <time>2021-10-17T07:51:31.000Z</time>
      </trkpt>
      <trkpt lat="47.51301" lon="-2.31955">
        <ele>9.8000001907349</ele>
        <time>2021-10-17T07:51:36.000Z</time>
      </trkpt>
      <trkpt lat="47.51302" lon="-2.31952">
        <ele>10.199999809265</ele>
        <time>2021-10-17T07:51:37.000Z</time>
      </trkpt>
      <trkpt lat="47.51302" lon="-2.31949">
        <ele>10.60000038147</ele>
        <time>2021-10-17T07:51:38.000Z</time>
      </trkpt>
      <trkpt lat="47.51303" lon="-2.31945">
        <ele>11.39999961853</ele>
        <time>2021-10-17T07:51:39.000Z</time>
      </trkpt>
      <trkpt lat="47.51304" lon="-2.31942">
        <ele>11.800000190735</ele>
        <time>2021-10-17T07:51:40.000Z</time>
      </trkpt>
      <trkpt lat="47.51308" lon="-2.31926">
        <ele>11.800000190735</ele>
        <time>2021-10-17T07:51:43.000Z</time>
      </trkpt>
      <trkpt lat="47.51317" lon="-2.31884">
        <ele>11.800000190735</ele>
        <time>2021-10-17T07:51:51.000Z</time>
      </trkpt>
      <trkpt lat="47.5132" lon="-2.31871">
        <ele>12.199999809265</ele>
        <time>2021-10-17T07:51:55.000Z</time>
      </trkpt>
      <trkpt lat="47.51321" lon="-2.31868">
        <ele>12.60000038147</ele>
        <time>2021-10-17T07:51:56.000Z</time>
      </trkpt>
      <trkpt lat="47.51323" lon="-2.31865">
        <ele>13</ele>
        <time>2021-10-17T07:51:57.000Z</time>
      </trkpt>
      <trkpt lat="47.51324" lon="-2.31861">
        <ele>13.39999961853</ele>
        <time>2021-10-17T07:51:58.000Z</time>
      </trkpt>
      <trkpt lat="47.51326" lon="-2.31858">
        <ele>13.800000190735</ele>
        <time>2021-10-17T07:51:59.000Z</time>
      </trkpt>
      <trkpt lat="47.51331" lon="-2.31844">
        <ele>13.800000190735</ele>
        <time>2021-10-17T07:52:03.000Z</time>
      </trkpt>
      <trkpt lat="47.51338" lon="-2.31826">
        <ele>13.800000190735</ele>
        <time>2021-10-17T07:52:09.000Z</time>
      </trkpt>
      <trkpt lat="47.51339" lon="-2.31824">
        <ele>13.800000190735</ele>
        <time>2021-10-17T07:52:11.000Z</time>
      </trkpt>
      <trkpt lat="47.51344" lon="-2.31802">
        <ele>13.800000190735</ele>
        <time>2021-10-17T07:53:10.000Z</time>
      </trkpt>
      <trkpt lat="47.51345" lon="-2.31797">
        <ele>13.800000190735</ele>
        <time>2021-10-17T07:53:12.000Z</time>
      </trkpt>
      <trkpt lat="47.51347" lon="-2.31773">
        <ele>13.800000190735</ele>
        <time>2021-10-17T07:53:19.000Z</time>
      </trkpt>
      <trkpt lat="47.51351" lon="-2.31747">
        <ele>13.800000190735</ele>
        <time>2021-10-17T07:53:26.000Z</time>
      </trkpt>
      <trkpt lat="47.51353" lon="-2.31721">
        <ele>13.800000190735</ele>
        <time>2021-10-17T07:53:32.000Z</time>
      </trkpt>
      <trkpt lat="47.51353" lon="-2.31692">
        <ele>13.800000190735</ele>
        <time>2021-10-17T07:53:38.000Z</time>
      </trkpt>
      <trkpt lat="47.51345" lon="-2.31668">
        <ele>13.800000190735</ele>
        <time>2021-10-17T07:53:43.000Z</time>
      </trkpt>
      <trkpt lat="47.51328" lon="-2.31645">
        <ele>13.800000190735</ele>
        <time>2021-10-17T07:53:49.000Z</time>
      </trkpt>
      <trkpt lat="47.5131" lon="-2.31629">
        <ele>13.800000190735</ele>
        <time>2021-10-17T07:53:54.000Z</time>
      </trkpt>
      <trkpt lat="47.51297" lon="-2.31621">
        <ele>13.800000190735</ele>
        <time>2021-10-17T07:53:59.000Z</time>
      </trkpt>
      <trkpt lat="47.51292" lon="-2.31614">
        <ele>13.800000190735</ele>
        <time>2021-10-17T07:54:04.000Z</time>
      </trkpt>
      <trkpt lat="47.51277" lon="-2.31572">
        <ele>9.3999996185303</ele>
        <time>2021-10-17T07:56:01.000Z</time>
      </trkpt>
      <trkpt lat="47.5127" lon="-2.31556">
        <ele>9.3999996185303</ele>
        <time>2021-10-17T07:56:05.000Z</time>
      </trkpt>
      <trkpt lat="47.51261" lon="-2.31539">
        <ele>9.8000001907349</ele>
        <time>2021-10-17T07:56:09.000Z</time>
      </trkpt>
      <trkpt lat="47.51258" lon="-2.31534">
        <ele>10.199999809265</ele>
        <time>2021-10-17T07:56:10.000Z</time>
      </trkpt>
      <trkpt lat="47.51256" lon="-2.31531">
        <ele>11.199999809265</ele>
        <time>2021-10-17T07:56:11.000Z</time>
      </trkpt>
      <trkpt lat="47.51255" lon="-2.31527">
        <ele>11.60000038147</ele>
        <time>2021-10-17T07:56:12.000Z</time>
      </trkpt>
      <trkpt lat="47.51248" lon="-2.31517">
        <ele>12</ele>
        <time>2021-10-17T07:56:15.000Z</time>
      </trkpt>
      <trkpt lat="47.51246" lon="-2.31514">
        <ele>12.39999961853</ele>
        <time>2021-10-17T07:56:16.000Z</time>
      </trkpt>
      <trkpt lat="47.51244" lon="-2.31512">
        <ele>13</ele>
        <time>2021-10-17T07:56:17.000Z</time>
      </trkpt>
      <trkpt lat="47.51242" lon="-2.3151">
        <ele>13.39999961853</ele>
        <time>2021-10-17T07:56:18.000Z</time>
      </trkpt>
      <trkpt lat="47.5124" lon="-2.31507">
        <ele>13.800000190735</ele>
        <time>2021-10-17T07:56:19.000Z</time>
      </trkpt>
      <trkpt lat="47.51236" lon="-2.31501">
        <ele>14.39999961853</ele>
        <time>2021-10-17T07:56:22.000Z</time>
      </trkpt>
      <trkpt lat="47.51235" lon="-2.31498">
        <ele>14.800000190735</ele>
        <time>2021-10-17T07:56:23.000Z</time>
      </trkpt>
      <trkpt lat="47.51234" lon="-2.31495">
        <ele>15.199999809265</ele>
        <time>2021-10-17T07:56:24.000Z</time>
      </trkpt>
      <trkpt lat="47.51233" lon="-2.31492">
        <ele>15.60000038147</ele>
        <time>2021-10-17T07:56:25.000Z</time>
      </trkpt>
      <trkpt lat="47.51232" lon="-2.31489">
        <ele>16</ele>
        <time>2021-10-17T07:56:26.000Z</time>
      </trkpt>
      <trkpt lat="47.51228" lon="-2.31483">
        <ele>16.39999961853</ele>
        <time>2021-10-17T07:56:29.000Z</time>
      </trkpt>
      <trkpt lat="47.51226" lon="-2.31482">
        <ele>17</ele>
        <time>2021-10-17T07:56:30.000Z</time>
      </trkpt>
      <trkpt lat="47.51225" lon="-2.31481">
        <ele>17.39999961853</ele>
        <time>2021-10-17T07:56:31.000Z</time>
      </trkpt>
      <trkpt lat="47.51223" lon="-2.31481">
        <ele>17.799999237061</ele>
        <time>2021-10-17T07:56:32.000Z</time>
      </trkpt>
      <trkpt lat="47.51221" lon="-2.3148">
        <ele>18.200000762939</ele>
        <time>2021-10-17T07:56:33.000Z</time>
      </trkpt>
      <trkpt lat="47.51217" lon="-2.31478">
        <ele>19.200000762939</ele>
        <time>2021-10-17T07:56:36.000Z</time>
      </trkpt>
      <trkpt lat="47.51216" lon="-2.31477">
        <ele>19.60000038147</ele>
        <time>2021-10-17T07:56:37.000Z</time>
      </trkpt>
      <trkpt lat="47.51215" lon="-2.31475">
        <ele>20.200000762939</ele>
        <time>2021-10-17T07:56:38.000Z</time>
      </trkpt>
      <trkpt lat="47.51215" lon="-2.31474">
        <ele>20.60000038147</ele>
        <time>2021-10-17T07:56:39.000Z</time>
      </trkpt>
      <trkpt lat="47.51214" lon="-2.3147">
        <ele>20.60000038147</ele>
        <time>2021-10-17T07:56:41.000Z</time>
      </trkpt>
      <trkpt lat="47.51214" lon="-2.31466">
        <ele>20.60000038147</ele>
        <time>2021-10-17T07:56:42.000Z</time>
      </trkpt>
      <trkpt lat="47.51213" lon="-2.31439">
        <ele>20.60000038147</ele>
        <time>2021-10-17T07:56:47.000Z</time>
      </trkpt>
      <trkpt lat="47.51205" lon="-2.31402">
        <ele>20.60000038147</ele>
        <time>2021-10-17T07:56:53.000Z</time>
      </trkpt>
      <trkpt lat="47.51201" lon="-2.31371">
        <ele>20.60000038147</ele>
        <time>2021-10-17T07:56:59.000Z</time>
      </trkpt>
      <trkpt lat="47.51203" lon="-2.31359">
        <ele>21</ele>
        <time>2021-10-17T07:57:02.000Z</time>
      </trkpt>
      <trkpt lat="47.51204" lon="-2.31355">
        <ele>21.39999961853</ele>
        <time>2021-10-17T07:57:03.000Z</time>
      </trkpt>
      <trkpt lat="47.51206" lon="-2.31351">
        <ele>21.799999237061</ele>
        <time>2021-10-17T07:57:04.000Z</time>
      </trkpt>
      <trkpt lat="47.51207" lon="-2.31347">
        <ele>22.200000762939</ele>
        <time>2021-10-17T07:57:05.000Z</time>
      </trkpt>
      <trkpt lat="47.51209" lon="-2.31342">
        <ele>22.60000038147</ele>
        <time>2021-10-17T07:57:06.000Z</time>
      </trkpt>
      <trkpt lat="47.5121" lon="-2.31338">
        <ele>22.60000038147</ele>
        <time>2021-10-17T07:57:07.000Z</time>
      </trkpt>
      <trkpt lat="47.51212" lon="-2.3132">
        <ele>22.60000038147</ele>
        <time>2021-10-17T07:57:12.000Z</time>
      </trkpt>
      <trkpt lat="47.51217" lon="-2.31296">
        <ele>22.60000038147</ele>
        <time>2021-10-17T07:57:18.000Z</time>
      </trkpt>
      <trkpt lat="47.51219" lon="-2.31289">
        <ele>23</ele>
        <time>2021-10-17T07:57:20.000Z</time>
      </trkpt>
      <trkpt lat="47.51221" lon="-2.31286">
        <ele>23.60000038147</ele>
        <time>2021-10-17T07:57:21.000Z</time>
      </trkpt>
      <trkpt lat="47.51222" lon="-2.31283">
        <ele>24</ele>
        <time>2021-10-17T07:57:22.000Z</time>
      </trkpt>
      <trkpt lat="47.51224" lon="-2.3128">
        <ele>24.39999961853</ele>
        <time>2021-10-17T07:57:23.000Z</time>
      </trkpt>
      <trkpt lat="47.51225" lon="-2.31277">
        <ele>24.799999237061</ele>
        <time>2021-10-17T07:57:24.000Z</time>
      </trkpt>
      <trkpt lat="47.5123" lon="-2.31258">
        <ele>24.799999237061</ele>
        <time>2021-10-17T07:57:31.000Z</time>
      </trkpt>
      <trkpt lat="47.51232" lon="-2.31258">
        <ele>25.200000762939</ele>
        <time>2021-10-17T07:57:32.000Z</time>
      </trkpt>
      <trkpt lat="47.51233" lon="-2.31258">
        <ele>25.60000038147</ele>
        <time>2021-10-17T07:57:33.000Z</time>
      </trkpt>
      <trkpt lat="47.51235" lon="-2.31257">
        <ele>26</ele>
        <time>2021-10-17T07:57:34.000Z</time>
      </trkpt>
      <trkpt lat="47.51237" lon="-2.31257">
        <ele>26.39999961853</ele>
        <time>2021-10-17T07:57:35.000Z</time>
      </trkpt>
      <trkpt lat="47.51239" lon="-2.31258">
        <ele>26.799999237061</ele>
        <time>2021-10-17T07:57:36.000Z</time>
      </trkpt>
      <trkpt lat="47.51243" lon="-2.31258">
        <ele>26.799999237061</ele>
        <time>2021-10-17T07:57:37.000Z</time>
      </trkpt>
      <trkpt lat="47.5126" lon="-2.31261">
        <ele>26.799999237061</ele>
        <time>2021-10-17T07:57:42.000Z</time>
      </trkpt>
      <trkpt lat="47.51279" lon="-2.31269">
        <ele>26.799999237061</ele>
        <time>2021-10-17T07:57:47.000Z</time>
      </trkpt>
      <trkpt lat="47.51312" lon="-2.31276">
        <ele>26.799999237061</ele>
        <time>2021-10-17T07:57:54.000Z</time>
      </trkpt>
      <trkpt lat="47.51316" lon="-2.31276">
        <ele>26.799999237061</ele>
        <time>2021-10-17T07:57:55.000Z</time>
      </trkpt>
      <trkpt lat="47.51331" lon="-2.31276">
        <ele>26.799999237061</ele>
        <time>2021-10-17T07:57:58.000Z</time>
      </trkpt>
      <trkpt lat="47.5134" lon="-2.31273">
        <ele>26.799999237061</ele>
        <time>2021-10-17T07:58:00.000Z</time>
      </trkpt>
      <trkpt lat="47.51354" lon="-2.31258">
        <ele>26.799999237061</ele>
        <time>2021-10-17T07:58:05.000Z</time>
      </trkpt>
      <trkpt lat="47.51358" lon="-2.3124">
        <ele>27.200000762939</ele>
        <time>2021-10-17T07:58:09.000Z</time>
      </trkpt>
      <trkpt lat="47.51358" lon="-2.31234">
        <ele>27.60000038147</ele>
        <time>2021-10-17T07:58:10.000Z</time>
      </trkpt>
      <trkpt lat="47.51358" lon="-2.31228">
        <ele>28</ele>
        <time>2021-10-17T07:58:11.000Z</time>
      </trkpt>
      <trkpt lat="47.51359" lon="-2.31222">
        <ele>28.39999961853</ele>
        <time>2021-10-17T07:58:12.000Z</time>
      </trkpt>
      <trkpt lat="47.5136" lon="-2.31216">
        <ele>28.799999237061</ele>
        <time>2021-10-17T07:58:13.000Z</time>
      </trkpt>
      <trkpt lat="47.51364" lon="-2.31199">
        <ele>28.799999237061</ele>
        <time>2021-10-17T07:58:16.000Z</time>
      </trkpt>
      <trkpt lat="47.51366" lon="-2.31194">
        <ele>28.799999237061</ele>
        <time>2021-10-17T07:58:17.000Z</time>
      </trkpt>
      <trkpt lat="47.51371" lon="-2.3118">
        <ele>28.39999961853</ele>
        <time>2021-10-17T07:58:19.000Z</time>
      </trkpt>
      <trkpt lat="47.51372" lon="-2.31173">
        <ele>28</ele>
        <time>2021-10-17T07:58:20.000Z</time>
      </trkpt>
      <trkpt lat="47.51375" lon="-2.31165">
        <ele>27.60000038147</ele>
        <time>2021-10-17T07:58:21.000Z</time>
      </trkpt>
      <trkpt lat="47.51377" lon="-2.31157">
        <ele>27.200000762939</ele>
        <time>2021-10-17T07:58:22.000Z</time>
      </trkpt>
      <trkpt lat="47.51379" lon="-2.31148">
        <ele>26.799999237061</ele>
        <time>2021-10-17T07:58:23.000Z</time>
      </trkpt>
      <trkpt lat="47.51381" lon="-2.31139">
        <ele>26.39999961853</ele>
        <time>2021-10-17T07:58:24.000Z</time>
      </trkpt>
      <trkpt lat="47.51383" lon="-2.31129">
        <ele>26</ele>
        <time>2021-10-17T07:58:25.000Z</time>
      </trkpt>
      <trkpt lat="47.51385" lon="-2.31118">
        <ele>25.60000038147</ele>
        <time>2021-10-17T07:58:26.000Z</time>
      </trkpt>
      <trkpt lat="47.51388" lon="-2.31107">
        <ele>25.200000762939</ele>
        <time>2021-10-17T07:58:27.000Z</time>
      </trkpt>
      <trkpt lat="47.5139" lon="-2.31097">
        <ele>24.60000038147</ele>
        <time>2021-10-17T07:58:28.000Z</time>
      </trkpt>
      <trkpt lat="47.51392" lon="-2.31088">
        <ele>24</ele>
        <time>2021-10-17T07:58:29.000Z</time>
      </trkpt>
      <trkpt lat="47.51395" lon="-2.31079">
        <ele>23.60000038147</ele>
        <time>2021-10-17T07:58:30.000Z</time>
      </trkpt>
      <trkpt lat="47.51398" lon="-2.31076">
        <ele>23</ele>
        <time>2021-10-17T07:58:31.000Z</time>
      </trkpt>
      <trkpt lat="47.51403" lon="-2.31075">
        <ele>22.39999961853</ele>
        <time>2021-10-17T07:58:32.000Z</time>
      </trkpt>
      <trkpt lat="47.5142" lon="-2.3108">
        <ele>22.39999961853</ele>
        <time>2021-10-17T07:58:35.000Z</time>
      </trkpt>
      <trkpt lat="47.51449" lon="-2.31089">
        <ele>22</ele>
        <time>2021-10-17T07:58:39.000Z</time>
      </trkpt>
      <trkpt lat="47.51455" lon="-2.31091">
        <ele>21.200000762939</ele>
        <time>2021-10-17T07:58:40.000Z</time>
      </trkpt>
      <trkpt lat="47.51462" lon="-2.31092">
        <ele>20.60000038147</ele>
        <time>2021-10-17T07:58:41.000Z</time>
      </trkpt>
      <trkpt lat="47.51467" lon="-2.3109">
        <ele>20.200000762939</ele>
        <time>2021-10-17T07:58:42.000Z</time>
      </trkpt>
      <trkpt lat="47.51476" lon="-2.31078">
        <ele>19.799999237061</ele>
        <time>2021-10-17T07:58:44.000Z</time>
      </trkpt>
      <trkpt lat="47.51478" lon="-2.31069">
        <ele>19.39999961853</ele>
        <time>2021-10-17T07:58:45.000Z</time>
      </trkpt>
      <trkpt lat="47.51479" lon="-2.3106">
        <ele>19</ele>
        <time>2021-10-17T07:58:46.000Z</time>
      </trkpt>
      <trkpt lat="47.5148" lon="-2.31051">
        <ele>18.60000038147</ele>
        <time>2021-10-17T07:58:47.000Z</time>
      </trkpt>
      <trkpt lat="47.51481" lon="-2.31043">
        <ele>18.200000762939</ele>
        <time>2021-10-17T07:58:48.000Z</time>
      </trkpt>
      <trkpt lat="47.51483" lon="-2.3101">
        <ele>18.200000762939</ele>
        <time>2021-10-17T07:58:52.000Z</time>
      </trkpt>
      <trkpt lat="47.51482" lon="-2.30995">
        <ele>18.200000762939</ele>
        <time>2021-10-17T07:58:54.000Z</time>
      </trkpt>
      <trkpt lat="47.51486" lon="-2.30977">
        <ele>18.200000762939</ele>
        <time>2021-10-17T07:58:57.000Z</time>
      </trkpt>
      <trkpt lat="47.51487" lon="-2.3097">
        <ele>18.200000762939</ele>
        <time>2021-10-17T07:58:58.000Z</time>
      </trkpt>
      <trkpt lat="47.51494" lon="-2.30923">
        <ele>18.200000762939</ele>
        <time>2021-10-17T07:59:04.000Z</time>
      </trkpt>
      <trkpt lat="47.51494" lon="-2.30914">
        <ele>18.200000762939</ele>
        <time>2021-10-17T07:59:05.000Z</time>
      </trkpt>
      <trkpt lat="47.51491" lon="-2.30886">
        <ele>18.200000762939</ele>
        <time>2021-10-17T07:59:08.000Z</time>
      </trkpt>
      <trkpt lat="47.51489" lon="-2.30876">
        <ele>17.799999237061</ele>
        <time>2021-10-17T07:59:09.000Z</time>
      </trkpt>
      <trkpt lat="47.51487" lon="-2.30867">
        <ele>17.39999961853</ele>
        <time>2021-10-17T07:59:10.000Z</time>
      </trkpt>
      <trkpt lat="47.51486" lon="-2.30859">
        <ele>17</ele>
        <time>2021-10-17T07:59:11.000Z</time>
      </trkpt>
      <trkpt lat="47.51488" lon="-2.30853">
        <ele>16.39999961853</ele>
        <time>2021-10-17T07:59:12.000Z</time>
      </trkpt>
      <trkpt lat="47.51491" lon="-2.3085">
        <ele>16</ele>
        <time>2021-10-17T07:59:13.000Z</time>
      </trkpt>
      <trkpt lat="47.51494" lon="-2.30849">
        <ele>15.60000038147</ele>
        <time>2021-10-17T07:59:14.000Z</time>
      </trkpt>
      <trkpt lat="47.51497" lon="-2.30849">
        <ele>15.199999809265</ele>
        <time>2021-10-17T07:59:15.000Z</time>
      </trkpt>
      <trkpt lat="47.515" lon="-2.3085">
        <ele>14.800000190735</ele>
        <time>2021-10-17T07:59:16.000Z</time>
      </trkpt>
      <trkpt lat="47.51503" lon="-2.30852">
        <ele>14.39999961853</ele>
        <time>2021-10-17T07:59:17.000Z</time>
      </trkpt>
      <trkpt lat="47.51506" lon="-2.30853">
        <ele>13.800000190735</ele>
        <time>2021-10-17T07:59:18.000Z</time>
      </trkpt>
      <trkpt lat="47.51509" lon="-2.30853">
        <ele>13.800000190735</ele>
        <time>2021-10-17T07:59:19.000Z</time>
      </trkpt>
      <trkpt lat="47.5151" lon="-2.30852">
        <ele>13.800000190735</ele>
        <time>2021-10-17T07:59:20.000Z</time>
      </trkpt>
      <trkpt lat="47.51514" lon="-2.30851">
        <ele>13.39999961853</ele>
        <time>2021-10-17T07:59:22.000Z</time>
      </trkpt>
      <trkpt lat="47.51516" lon="-2.3085">
        <ele>12.800000190735</ele>
        <time>2021-10-17T07:59:23.000Z</time>
      </trkpt>
      <trkpt lat="47.51519" lon="-2.30849">
        <ele>12.39999961853</ele>
        <time>2021-10-17T07:59:24.000Z</time>
      </trkpt>
      <trkpt lat="47.51521" lon="-2.30849">
        <ele>12</ele>
        <time>2021-10-17T07:59:25.000Z</time>
      </trkpt>
      <trkpt lat="47.51525" lon="-2.30847">
        <ele>11.39999961853</ele>
        <time>2021-10-17T07:59:26.000Z</time>
      </trkpt>
      <trkpt lat="47.5153" lon="-2.30845">
        <ele>10.800000190735</ele>
        <time>2021-10-17T07:59:27.000Z</time>
      </trkpt>
      <trkpt lat="47.51536" lon="-2.30843">
        <ele>10.199999809265</ele>
        <time>2021-10-17T07:59:28.000Z</time>
      </trkpt>
      <trkpt lat="47.51542" lon="-2.30842">
        <ele>8.6000003814697</ele>
        <time>2021-10-17T07:59:29.000Z</time>
      </trkpt>
      <trkpt lat="47.51547" lon="-2.30841">
        <ele>7.8000001907349</ele>
        <time>2021-10-17T07:59:30.000Z</time>
      </trkpt>
      <trkpt lat="47.51552" lon="-2.3084">
        <ele>7.1999998092651</ele>
        <time>2021-10-17T07:59:31.000Z</time>
      </trkpt>
      <trkpt lat="47.51556" lon="-2.30839">
        <ele>6.4000000953674</ele>
        <time>2021-10-17T07:59:32.000Z</time>
      </trkpt>
      <trkpt lat="47.51561" lon="-2.30839">
        <ele>5.5999999046326</ele>
        <time>2021-10-17T07:59:33.000Z</time>
      </trkpt>
      <trkpt lat="47.51566" lon="-2.30838">
        <ele>5</ele>
        <time>2021-10-17T07:59:34.000Z</time>
      </trkpt>
      <trkpt lat="47.51571" lon="-2.30838">
        <ele>4.4000000953674</ele>
        <time>2021-10-17T07:59:35.000Z</time>
      </trkpt>
      <trkpt lat="47.51576" lon="-2.30837">
        <ele>3.7999999523163</ele>
        <time>2021-10-17T07:59:36.000Z</time>
      </trkpt>
      <trkpt lat="47.51581" lon="-2.30835">
        <ele>3.2000000476837</ele>
        <time>2021-10-17T07:59:37.000Z</time>
      </trkpt>
      <trkpt lat="47.51586" lon="-2.30834">
        <ele>2.4000000953674</ele>
        <time>2021-10-17T07:59:38.000Z</time>
      </trkpt>
      <trkpt lat="47.5159" lon="-2.30833">
        <ele>1.6000000238419</ele>
        <time>2021-10-17T07:59:39.000Z</time>
      </trkpt>
      <trkpt lat="47.51594" lon="-2.30832">
        <ele>0.80000001192093</ele>
        <time>2021-10-17T07:59:40.000Z</time>
      </trkpt>
      <trkpt lat="47.51598" lon="-2.30832">
        <ele>10.2</ele>
        <time>2021-10-17T07:59:41.000Z</time>
      </trkpt>
      <trkpt lat="47.51603" lon="-2.30831">
        <ele>-0.80000001192093</ele>
        <time>2021-10-17T07:59:42.000Z</time>
      </trkpt>
      <trkpt lat="47.51609" lon="-2.30829">
        <ele>-1.6000000238419</ele>
        <time>2021-10-17T07:59:43.000Z</time>
      </trkpt>
      <trkpt lat="47.51614" lon="-2.30827">
        <ele>-2.5999999046326</ele>
        <time>2021-10-17T07:59:44.000Z</time>
      </trkpt>
      <trkpt lat="47.5162" lon="-2.30826">
        <ele>-3.4000000953674</ele>
        <time>2021-10-17T07:59:45.000Z</time>
      </trkpt>
      <trkpt lat="47.51626" lon="-2.30825">
        <ele>-4.1999998092651</ele>
        <time>2021-10-17T07:59:46.000Z</time>
      </trkpt>
      <trkpt lat="47.51633" lon="-2.30827">
        <ele>-5</ele>
        <time>2021-10-17T07:59:47.000Z</time>
      </trkpt>
      <trkpt lat="47.51639" lon="-2.30829">
        <ele>-5.8000001907349</ele>
        <time>2021-10-17T07:59:48.000Z</time>
      </trkpt>
      <trkpt lat="47.51658" lon="-2.3083">
        <ele>-5.8000001907349</ele>
        <time>2021-10-17T07:59:51.000Z</time>
      </trkpt>
      <trkpt lat="47.51691" lon="-2.30828">
        <ele>-5.8000001907349</ele>
        <time>2021-10-17T07:59:57.000Z</time>
      </trkpt>
      <trkpt lat="47.51695" lon="-2.30826">
        <ele>-6.1999998092651</ele>
        <time>2021-10-17T07:59:58.000Z</time>
      </trkpt>
      <trkpt lat="47.51699" lon="-2.30823">
        <ele>-6.5999999046326</ele>
        <time>2021-10-17T07:59:59.000Z</time>
      </trkpt>
      <trkpt lat="47.51702" lon="-2.30819">
        <ele>-7</ele>
        <time>2021-10-17T08:00:00.000Z</time>
      </trkpt>
      <trkpt lat="47.51706" lon="-2.30816">
        <ele>-7.4000000953674</ele>
        <time>2021-10-17T08:00:01.000Z</time>
      </trkpt>
      <trkpt lat="47.5171" lon="-2.30813">
        <ele>-8</ele>
        <time>2021-10-17T08:00:02.000Z</time>
      </trkpt>
      <trkpt lat="47.51729" lon="-2.30797">
        <ele>-8</ele>
        <time>2021-10-17T08:00:07.000Z</time>
      </trkpt>
      <trkpt lat="47.51757" lon="-2.30767">
        <ele>-8</ele>
        <time>2021-10-17T08:00:14.000Z</time>
      </trkpt>
      <trkpt lat="47.51766" lon="-2.30759">
        <ele>-8</ele>
        <time>2021-10-17T08:00:16.000Z</time>
      </trkpt>
      <trkpt lat="47.51781" lon="-2.30746">
        <ele>-8</ele>
        <time>2021-10-17T08:00:20.000Z</time>
      </trkpt>
      <trkpt lat="47.51788" lon="-2.30729">
        <ele>-8</ele>
        <time>2021-10-17T08:00:24.000Z</time>
      </trkpt>
      <trkpt lat="47.5178" lon="-2.3072">
        <ele>-8</ele>
        <time>2021-10-17T08:00:27.000Z</time>
      </trkpt>
      <trkpt lat="47.5177" lon="-2.30703">
        <ele>-8</ele>
        <time>2021-10-17T08:00:32.000Z</time>
      </trkpt>
      <trkpt lat="47.51767" lon="-2.30694">
        <ele>-8</ele>
        <time>2021-10-17T08:00:37.000Z</time>
      </trkpt>
      <trkpt lat="47.51767" lon="-2.30692">
        <ele>-8</ele>
        <time>2021-10-17T08:00:38.000Z</time>
      </trkpt>
      <trkpt lat="47.51766" lon="-2.30683">
        <ele>-8</ele>
        <time>2021-10-17T08:00:42.000Z</time>
      </trkpt>
      <trkpt lat="47.51766" lon="-2.30682">
        <ele>-8</ele>
        <time>2021-10-17T08:00:43.000Z</time>
      </trkpt>
      <trkpt lat="47.51763" lon="-2.3067">
        <ele>-8</ele>
        <time>2021-10-17T08:07:01.000Z</time>
      </trkpt>
      <trkpt lat="47.51763" lon="-2.30665">
        <ele>-8</ele>
        <time>2021-10-17T08:07:03.000Z</time>
      </trkpt>
      <trkpt lat="47.51763" lon="-2.30663">
        <ele>-8</ele>
        <time>2021-10-17T08:07:04.000Z</time>
      </trkpt>
      <trkpt lat="47.5176" lon="-2.30655">
        <ele>-8</ele>
        <time>2021-10-17T08:07:40.000Z</time>
      </trkpt>
      <trkpt lat="47.5176" lon="-2.30649">
        <ele>-8</ele>
        <time>2021-10-17T08:07:42.000Z</time>
      </trkpt>
      <trkpt lat="47.51757" lon="-2.30636">
        <ele>-8</ele>
        <time>2021-10-17T08:07:46.000Z</time>
      </trkpt>
      <trkpt lat="47.51757" lon="-2.30633">
        <ele>-8</ele>
        <time>2021-10-17T08:07:47.000Z</time>
      </trkpt>
      <trkpt lat="47.51757" lon="-2.30625">
        <ele>-8</ele>
        <time>2021-10-17T08:07:50.000Z</time>
      </trkpt>
      <trkpt lat="47.51756" lon="-2.30622">
        <ele>-8</ele>
        <time>2021-10-17T08:07:52.000Z</time>
      </trkpt>
      <trkpt lat="47.51755" lon="-2.30621">
        <ele>-8</ele>
        <time>2021-10-17T08:07:53.000Z</time>
      </trkpt>
      <trkpt lat="47.51755" lon="-2.30615">
        <ele>-8</ele>
        <time>2021-10-17T08:08:04.000Z</time>
      </trkpt>
      <trkpt lat="47.51756" lon="-2.30612">
        <ele>-8</ele>
        <time>2021-10-17T08:08:05.000Z</time>
      </trkpt>
      <trkpt lat="47.51752" lon="-2.30597">
        <ele>-8</ele>
        <time>2021-10-17T08:08:10.000Z</time>
      </trkpt>
      <trkpt lat="47.51751" lon="-2.30584">
        <ele>-8</ele>
        <time>2021-10-17T08:08:14.000Z</time>
      </trkpt>
      <trkpt lat="47.51751" lon="-2.30576">
        <ele>-8</ele>
        <time>2021-10-17T08:08:16.000Z</time>
      </trkpt>
      <trkpt lat="47.51751" lon="-2.30568">
        <ele>-8</ele>
        <time>2021-10-17T08:08:18.000Z</time>
      </trkpt>
      <trkpt lat="47.51751" lon="-2.30561">
        <ele>-8</ele>
        <time>2021-10-17T08:08:22.000Z</time>
      </trkpt>
      <trkpt lat="47.51751" lon="-2.3056">
        <ele>-8</ele>
        <time>2021-10-17T08:08:23.000Z</time>
      </trkpt>
      <trkpt lat="47.51747" lon="-2.30534">
        <ele>-7</ele>
        <time>2021-10-17T08:08:59.000Z</time>
      </trkpt>
      <trkpt lat="47.51747" lon="-2.30531">
        <ele>-6.5999999046326</ele>
        <time>2021-10-17T08:09:00.000Z</time>
      </trkpt>
      <trkpt lat="47.51747" lon="-2.3053">
        <ele>-6.1999998092651</ele>
        <time>2021-10-17T08:09:01.000Z</time>
      </trkpt>
      <trkpt lat="47.51747" lon="-2.30529">
        <ele>-5.8000001907349</ele>
        <time>2021-10-17T08:09:02.000Z</time>
      </trkpt>
      <trkpt lat="47.51748" lon="-2.30522">
        <ele>-5.8000001907349</ele>
        <time>2021-10-17T08:09:08.000Z</time>
      </trkpt>
      <trkpt lat="47.51748" lon="-2.30519">
        <ele>-5.8000001907349</ele>
        <time>2021-10-17T08:09:12.000Z</time>
      </trkpt>
      <trkpt lat="47.51746" lon="-2.30499">
        <ele>-5.8000001907349</ele>
        <time>2021-10-17T08:09:17.000Z</time>
      </trkpt>
      <trkpt lat="47.51744" lon="-2.30478">
        <ele>-5.8000001907349</ele>
        <time>2021-10-17T08:09:22.000Z</time>
      </trkpt>
      <trkpt lat="47.51744" lon="-2.30469">
        <ele>-6.1999998092651</ele>
        <time>2021-10-17T08:09:24.000Z</time>
      </trkpt>
      <trkpt lat="47.51743" lon="-2.30465">
        <ele>-6.5999999046326</ele>
        <time>2021-10-17T08:09:25.000Z</time>
      </trkpt>
      <trkpt lat="47.51742" lon="-2.3046">
        <ele>-7</ele>
        <time>2021-10-17T08:09:26.000Z</time>
      </trkpt>
      <trkpt lat="47.51741" lon="-2.30458">
        <ele>-7.4000000953674</ele>
        <time>2021-10-17T08:09:27.000Z</time>
      </trkpt>
      <trkpt lat="47.51741" lon="-2.30456">
        <ele>-7.8000001907349</ele>
        <time>2021-10-17T08:09:28.000Z</time>
      </trkpt>
      <trkpt lat="47.51741" lon="-2.30453">
        <ele>-7.8000001907349</ele>
        <time>2021-10-17T08:09:30.000Z</time>
      </trkpt>
      <trkpt lat="47.51744" lon="-2.30444">
        <ele>-7.8000001907349</ele>
        <time>2021-10-17T08:09:32.000Z</time>
      </trkpt>
      <trkpt lat="47.51746" lon="-2.30433">
        <ele>-7.8000001907349</ele>
        <time>2021-10-17T08:09:35.000Z</time>
      </trkpt>
      <trkpt lat="47.51745" lon="-2.30415">
        <ele>-7.8000001907349</ele>
        <time>2021-10-17T08:09:56.000Z</time>
      </trkpt>
      <trkpt lat="47.51749" lon="-2.30389">
        <ele>-7.8000001907349</ele>
        <time>2021-10-17T08:10:02.000Z</time>
      </trkpt>
      <trkpt lat="47.51753" lon="-2.30374">
        <ele>-7.8000001907349</ele>
        <time>2021-10-17T08:10:07.000Z</time>
      </trkpt>
      <trkpt lat="47.51755" lon="-2.30361">
        <ele>-7.8000001907349</ele>
        <time>2021-10-17T08:10:12.000Z</time>
      </trkpt>
      <trkpt lat="47.51756" lon="-2.3036">
        <ele>-7.8000001907349</ele>
        <time>2021-10-17T08:10:13.000Z</time>
      </trkpt>
      <trkpt lat="47.51758" lon="-2.30356">
        <ele>-7.8000001907349</ele>
        <time>2021-10-17T08:10:16.000Z</time>
      </trkpt>
      <trkpt lat="47.5176" lon="-2.30355">
        <ele>-7.8000001907349</ele>
        <time>2021-10-17T08:11:32.000Z</time>
      </trkpt>
      <trkpt lat="47.51767" lon="-2.30359">
        <ele>-7.8000001907349</ele>
        <time>2021-10-17T08:11:36.000Z</time>
      </trkpt>
      <trkpt lat="47.5177" lon="-2.30371">
        <ele>-7.8000001907349</ele>
        <time>2021-10-17T08:11:40.000Z</time>
      </trkpt>
      <trkpt lat="47.51772" lon="-2.30382">
        <ele>-7.8000001907349</ele>
        <time>2021-10-17T08:11:43.000Z</time>
      </trkpt>
      <trkpt lat="47.51775" lon="-2.304">
        <ele>-7.8000001907349</ele>
        <time>2021-10-17T08:11:47.000Z</time>
      </trkpt>
      <trkpt lat="47.51779" lon="-2.30432">
        <ele>-7.8000001907349</ele>
        <time>2021-10-17T08:11:53.000Z</time>
      </trkpt>
      <trkpt lat="47.51784" lon="-2.30466">
        <ele>-7.8000001907349</ele>
        <time>2021-10-17T08:11:58.000Z</time>
      </trkpt>
      <trkpt lat="47.51786" lon="-2.3048">
        <ele>-7.8000001907349</ele>
        <time>2021-10-17T08:12:00.000Z</time>
      </trkpt>
      <trkpt lat="47.51795" lon="-2.3052">
        <ele>-7.8000001907349</ele>
        <time>2021-10-17T08:12:07.000Z</time>
      </trkpt>
      <trkpt lat="47.51803" lon="-2.30548">
        <ele>-7.8000001907349</ele>
        <time>2021-10-17T08:12:12.000Z</time>
      </trkpt>
      <trkpt lat="47.5181" lon="-2.30597">
        <ele>-7.8000001907349</ele>
        <time>2021-10-17T08:12:20.000Z</time>
      </trkpt>
      <trkpt lat="47.51812" lon="-2.30631">
        <ele>-7.8000001907349</ele>
        <time>2021-10-17T08:12:26.000Z</time>
      </trkpt>
      <trkpt lat="47.51815" lon="-2.30639">
        <ele>-7.8000001907349</ele>
        <time>2021-10-17T08:12:29.000Z</time>
      </trkpt>
      <trkpt lat="47.51817" lon="-2.30641">
        <ele>-7.8000001907349</ele>
        <time>2021-10-17T08:12:30.000Z</time>
      </trkpt>
      <trkpt lat="47.51822" lon="-2.30635">
        <ele>-7.8000001907349</ele>
        <time>2021-10-17T08:12:34.000Z</time>
      </trkpt>
      <trkpt lat="47.51822" lon="-2.30629">
        <ele>-7.4000000953674</ele>
        <time>2021-10-17T08:12:36.000Z</time>
      </trkpt>
      <trkpt lat="47.51822" lon="-2.30625">
        <ele>-7</ele>
        <time>2021-10-17T08:12:37.000Z</time>
      </trkpt>
      <trkpt lat="47.51823" lon="-2.30621">
        <ele>-6.5999999046326</ele>
        <time>2021-10-17T08:12:38.000Z</time>
      </trkpt>
      <trkpt lat="47.51823" lon="-2.30617">
        <ele>-6.1999998092651</ele>
        <time>2021-10-17T08:12:39.000Z</time>
      </trkpt>
      <trkpt lat="47.51823" lon="-2.30613">
        <ele>-5.8000001907349</ele>
        <time>2021-10-17T08:12:40.000Z</time>
      </trkpt>
      <trkpt lat="47.51823" lon="-2.30609">
        <ele>-5.4000000953674</ele>
        <time>2021-10-17T08:12:41.000Z</time>
      </trkpt>
      <trkpt lat="47.51823" lon="-2.30606">
        <ele>-5</ele>
        <time>2021-10-17T08:12:42.000Z</time>
      </trkpt>
      <trkpt lat="47.51823" lon="-2.30603">
        <ele>-4.4000000953674</ele>
        <time>2021-10-17T08:12:43.000Z</time>
      </trkpt>
      <trkpt lat="47.51823" lon="-2.30599">
        <ele>-4</ele>
        <time>2021-10-17T08:12:44.000Z</time>
      </trkpt>
      <trkpt lat="47.51823" lon="-2.30596">
        <ele>-3.5999999046326</ele>
        <time>2021-10-17T08:12:45.000Z</time>
      </trkpt>
      <trkpt lat="47.51823" lon="-2.30585">
        <ele>-3.5999999046326</ele>
        <time>2021-10-17T08:12:48.000Z</time>
      </trkpt>
      <trkpt lat="47.51823" lon="-2.30582">
        <ele>-3.2000000476837</ele>
        <time>2021-10-17T08:12:49.000Z</time>
      </trkpt>
      <trkpt lat="47.51823" lon="-2.30579">
        <ele>-2.5999999046326</ele>
        <time>2021-10-17T08:12:50.000Z</time>
      </trkpt>
      <trkpt lat="47.51823" lon="-2.30575">
        <ele>-2.2000000476837</ele>
        <time>2021-10-17T08:12:51.000Z</time>
      </trkpt>
      <trkpt lat="47.51823" lon="-2.30572">
        <ele>-1.7999999523163</ele>
        <time>2021-10-17T08:12:52.000Z</time>
      </trkpt>
      <trkpt lat="47.51823" lon="-2.30569">
        <ele>-1.2000000476837</ele>
        <time>2021-10-17T08:12:53.000Z</time>
      </trkpt>
      <trkpt lat="47.51822" lon="-2.30563">
        <ele>-1.2000000476837</ele>
        <time>2021-10-17T08:12:55.000Z</time>
      </trkpt>
      <trkpt lat="47.51822" lon="-2.30561">
        <ele>-0.80000001192093</ele>
        <time>2021-10-17T08:12:56.000Z</time>
      </trkpt>
      <trkpt lat="47.51821" lon="-2.30558">
        <ele>-0.40000000596046</ele>
        <time>2021-10-17T08:12:57.000Z</time>
      </trkpt>
      <trkpt lat="47.51822" lon="-2.30555">
        <ele>11.6</ele>
        <time>2021-10-17T08:12:58.000Z</time>
      </trkpt>
      <trkpt lat="47.51823" lon="-2.30553">
        <ele>0.60000002384186</ele>
        <time>2021-10-17T08:12:59.000Z</time>
      </trkpt>
      <trkpt lat="47.51825" lon="-2.30554">
        <ele>1</ele>
        <time>2021-10-17T08:13:00.000Z</time>
      </trkpt>
      <trkpt lat="47.51827" lon="-2.30559">
        <ele>1</ele>
        <time>2021-10-17T08:13:02.000Z</time>
      </trkpt>
      <trkpt lat="47.51828" lon="-2.30568">
        <ele>1.7999999523163</ele>
        <time>2021-10-17T08:13:05.000Z</time>
      </trkpt>
      <trkpt lat="47.51829" lon="-2.3057">
        <ele>2.2000000476837</ele>
        <time>2021-10-17T08:13:06.000Z</time>
      </trkpt>
      <trkpt lat="47.51829" lon="-2.30573">
        <ele>2.5999999046326</ele>
        <time>2021-10-17T08:13:07.000Z</time>
      </trkpt>
      <trkpt lat="47.5183" lon="-2.30576">
        <ele>3</ele>
        <time>2021-10-17T08:13:08.000Z</time>
      </trkpt>
      <trkpt lat="47.5183" lon="-2.30578">
        <ele>3</ele>
        <time>2021-10-17T08:13:09.000Z</time>
      </trkpt>
      <trkpt lat="47.51834" lon="-2.30577">
        <ele>3</ele>
        <time>2021-10-17T08:13:12.000Z</time>
      </trkpt>
      <trkpt lat="47.51834" lon="-2.30574">
        <ele>3.5999999046326</ele>
        <time>2021-10-17T08:13:13.000Z</time>
      </trkpt>
      <trkpt lat="47.51834" lon="-2.30571">
        <ele>4</ele>
        <time>2021-10-17T08:13:14.000Z</time>
      </trkpt>
      <trkpt lat="47.51834" lon="-2.30568">
        <ele>4.4000000953674</ele>
        <time>2021-10-17T08:13:15.000Z</time>
      </trkpt>
      <trkpt lat="47.51834" lon="-2.30565">
        <ele>4.8000001907349</ele>
        <time>2021-10-17T08:13:16.000Z</time>
      </trkpt>
      <trkpt lat="47.51833" lon="-2.30562">
        <ele>5.4000000953674</ele>
        <time>2021-10-17T08:13:17.000Z</time>
      </trkpt>
      <trkpt lat="47.51834" lon="-2.30549">
        <ele>5.4000000953674</ele>
        <time>2021-10-17T08:13:22.000Z</time>
      </trkpt>
      <trkpt lat="47.51834" lon="-2.30547">
        <ele>5.4000000953674</ele>
        <time>2021-10-17T08:13:23.000Z</time>
      </trkpt>
      <trkpt lat="47.51835" lon="-2.30545">
        <ele>5.8000001907349</ele>
        <time>2021-10-17T08:13:24.000Z</time>
      </trkpt>
      <trkpt lat="47.51835" lon="-2.30544">
        <ele>6.1999998092651</ele>
        <time>2021-10-17T08:13:25.000Z</time>
      </trkpt>
      <trkpt lat="47.51836" lon="-2.30541">
        <ele>7.4000000953674</ele>
        <time>2021-10-17T08:13:28.000Z</time>
      </trkpt>
      <trkpt lat="47.51837" lon="-2.30538">
        <ele>7.4000000953674</ele>
        <time>2021-10-17T08:13:29.000Z</time>
      </trkpt>
      <trkpt lat="47.51841" lon="-2.30519">
        <ele>7.4000000953674</ele>
        <time>2021-10-17T08:13:34.000Z</time>
      </trkpt>
      <trkpt lat="47.51844" lon="-2.30484">
        <ele>7.4000000953674</ele>
        <time>2021-10-17T08:13:42.000Z</time>
      </trkpt>
      <trkpt lat="47.51845" lon="-2.30467">
        <ele>7.8000001907349</ele>
        <time>2021-10-17T08:13:46.000Z</time>
      </trkpt>
      <trkpt lat="47.51845" lon="-2.30464">
        <ele>8.1999998092651</ele>
        <time>2021-10-17T08:13:47.000Z</time>
      </trkpt>
      <trkpt lat="47.51846" lon="-2.3046">
        <ele>8.6000003814697</ele>
        <time>2021-10-17T08:13:48.000Z</time>
      </trkpt>
      <trkpt lat="47.51847" lon="-2.30456">
        <ele>9</ele>
        <time>2021-10-17T08:13:49.000Z</time>
      </trkpt>
      <trkpt lat="47.51848" lon="-2.30453">
        <ele>9.3999996185303</ele>
        <time>2021-10-17T08:13:50.000Z</time>
      </trkpt>
      <trkpt lat="47.51849" lon="-2.30441">
        <ele>9.3999996185303</ele>
        <time>2021-10-17T08:13:54.000Z</time>
      </trkpt>
      <trkpt lat="47.51849" lon="-2.30436">
        <ele>9.3999996185303</ele>
        <time>2021-10-17T08:13:57.000Z</time>
      </trkpt>
      <trkpt lat="47.51849" lon="-2.30436">
        <ele>9.3999996185303</ele>
        <time>2021-10-17T08:13:59.000Z</time>
      </trkpt>
      <trkpt lat="47.51852" lon="-2.30462">
        <ele>9.3999996185303</ele>
        <time>2021-10-17T08:14:02.000Z</time>
      </trkpt>
      <trkpt lat="47.51854" lon="-2.30496">
        <ele>9</ele>
        <time>2021-10-17T08:14:05.000Z</time>
      </trkpt>
      <trkpt lat="47.51854" lon="-2.30507">
        <ele>8.6000003814697</ele>
        <time>2021-10-17T08:14:06.000Z</time>
      </trkpt>
      <trkpt lat="47.51855" lon="-2.30519">
        <ele>8</ele>
        <time>2021-10-17T08:14:07.000Z</time>
      </trkpt>
      <trkpt lat="47.51856" lon="-2.30529">
        <ele>7.1999998092651</ele>
        <time>2021-10-17T08:14:08.000Z</time>
      </trkpt>
      <trkpt lat="47.51859" lon="-2.30539">
        <ele>6.4000000953674</ele>
        <time>2021-10-17T08:14:09.000Z</time>
      </trkpt>
      <trkpt lat="47.51863" lon="-2.30548">
        <ele>5.5999999046326</ele>
        <time>2021-10-17T08:14:10.000Z</time>
      </trkpt>
      <trkpt lat="47.51867" lon="-2.30557">
        <ele>4.5999999046326</ele>
        <time>2021-10-17T08:14:11.000Z</time>
      </trkpt>
      <trkpt lat="47.51871" lon="-2.30564">
        <ele>3.5999999046326</ele>
        <time>2021-10-17T08:14:12.000Z</time>
      </trkpt>
      <trkpt lat="47.51874" lon="-2.30572">
        <ele>2.5999999046326</ele>
        <time>2021-10-17T08:14:13.000Z</time>
      </trkpt>
      <trkpt lat="47.51877" lon="-2.3058">
        <ele>1.6000000238419</ele>
        <time>2021-10-17T08:14:14.000Z</time>
      </trkpt>
      <trkpt lat="47.51879" lon="-2.30589">
        <ele>0.60000002384186</ele>
        <time>2021-10-17T08:14:15.000Z</time>
      </trkpt>
      <trkpt lat="47.51881" lon="-2.30599">
        <ele>-0.20000000298023</ele>
        <time>2021-10-17T08:14:16.000Z</time>
      </trkpt>
      <trkpt lat="47.51882" lon="-2.30609">
        <ele>-1</ele>
        <time>2021-10-17T08:14:17.000Z</time>
      </trkpt>
      <trkpt lat="47.51884" lon="-2.3062">
        <ele>-1.7999999523163</ele>
        <time>2021-10-17T08:14:18.000Z</time>
      </trkpt>
      <trkpt lat="47.51885" lon="-2.3063">
        <ele>-3.4000000953674</ele>
        <time>2021-10-17T08:14:19.000Z</time>
      </trkpt>
      <trkpt lat="47.51885" lon="-2.30639">
        <ele>-4</ele>
        <time>2021-10-17T08:14:20.000Z</time>
      </trkpt>
      <trkpt lat="47.51886" lon="-2.30645">
        <ele>-4.5999999046326</ele>
        <time>2021-10-17T08:14:21.000Z</time>
      </trkpt>
      <trkpt lat="47.51887" lon="-2.30651">
        <ele>-5.1999998092651</ele>
        <time>2021-10-17T08:14:22.000Z</time>
      </trkpt>
      <trkpt lat="47.51889" lon="-2.30656">
        <ele>-5.8000001907349</ele>
        <time>2021-10-17T08:14:23.000Z</time>
      </trkpt>
      <trkpt lat="47.51895" lon="-2.3066">
        <ele>-5.8000001907349</ele>
        <time>2021-10-17T08:14:25.000Z</time>
      </trkpt>
      <trkpt lat="47.51903" lon="-2.30659">
        <ele>-5.8000001907349</ele>
        <time>2021-10-17T08:14:27.000Z</time>
      </trkpt>
      <trkpt lat="47.51911" lon="-2.30657">
        <ele>-5.8000001907349</ele>
        <time>2021-10-17T08:14:29.000Z</time>
      </trkpt>
      <trkpt lat="47.51915" lon="-2.30655">
        <ele>-5.8000001907349</ele>
        <time>2021-10-17T08:14:30.000Z</time>
      </trkpt>
      <trkpt lat="47.5194" lon="-2.3064">
        <ele>-5.8000001907349</ele>
        <time>2021-10-17T08:14:36.000Z</time>
      </trkpt>
      <trkpt lat="47.51971" lon="-2.30624">
        <ele>-5.8000001907349</ele>
        <time>2021-10-17T08:14:43.000Z</time>
      </trkpt>
      <trkpt lat="47.51996" lon="-2.30612">
        <ele>-5.8000001907349</ele>
        <time>2021-10-17T08:14:49.000Z</time>
      </trkpt>
      <trkpt lat="47.52012" lon="-2.30604">
        <ele>-5.8000001907349</ele>
        <time>2021-10-17T08:14:53.000Z</time>
      </trkpt>
      <trkpt lat="47.52015" lon="-2.30601">
        <ele>-5.8000001907349</ele>
        <time>2021-10-17T08:14:54.000Z</time>
      </trkpt>
      <trkpt lat="47.5202" lon="-2.30587">
        <ele>-5.8000001907349</ele>
        <time>2021-10-17T08:14:58.000Z</time>
      </trkpt>
      <trkpt lat="47.52026" lon="-2.30587">
        <ele>-5.8000001907349</ele>
        <time>2021-10-17T08:15:01.000Z</time>
      </trkpt>
      <trkpt lat="47.5204" lon="-2.30577">
        <ele>-5.8000001907349</ele>
        <time>2021-10-17T08:15:05.000Z</time>
      </trkpt>
      <trkpt lat="47.52057" lon="-2.30581">
        <ele>-5.8000001907349</ele>
        <time>2021-10-17T08:15:09.000Z</time>
      </trkpt>
      <trkpt lat="47.52073" lon="-2.30576">
        <ele>-5.8000001907349</ele>
        <time>2021-10-17T08:15:13.000Z</time>
      </trkpt>
      <trkpt lat="47.52106" lon="-2.30552">
        <ele>-5.8000001907349</ele>
        <time>2021-10-17T08:15:21.000Z</time>
      </trkpt>
      <trkpt lat="47.52143" lon="-2.3054">
        <ele>-5.8000001907349</ele>
        <time>2021-10-17T08:15:29.000Z</time>
      </trkpt>
      <trkpt lat="47.52151" lon="-2.30537">
        <ele>-5.8000001907349</ele>
        <time>2021-10-17T08:15:31.000Z</time>
      </trkpt>
      <trkpt lat="47.52158" lon="-2.30528">
        <ele>-5.8000001907349</ele>
        <time>2021-10-17T08:15:34.000Z</time>
      </trkpt>
      <trkpt lat="47.52153" lon="-2.30512">
        <ele>-5.8000001907349</ele>
        <time>2021-10-17T08:15:38.000Z</time>
      </trkpt>
      <trkpt lat="47.52144" lon="-2.30494">
        <ele>-5.8000001907349</ele>
        <time>2021-10-17T08:15:43.000Z</time>
      </trkpt>
      <trkpt lat="47.52123" lon="-2.30472">
        <ele>-5.8000001907349</ele>
        <time>2021-10-17T08:15:50.000Z</time>
      </trkpt>
      <trkpt lat="47.52112" lon="-2.30464">
        <ele>-5.8000001907349</ele>
        <time>2021-10-17T08:15:53.000Z</time>
      </trkpt>
      <trkpt lat="47.52099" lon="-2.3045">
        <ele>-5.8000001907349</ele>
        <time>2021-10-17T08:15:57.000Z</time>
      </trkpt>
      <trkpt lat="47.5209" lon="-2.30429">
        <ele>-5.8000001907349</ele>
        <time>2021-10-17T08:16:02.000Z</time>
      </trkpt>
      <trkpt lat="47.52089" lon="-2.30425">
        <ele>-5.4000000953674</ele>
        <time>2021-10-17T08:16:03.000Z</time>
      </trkpt>
      <trkpt lat="47.52088" lon="-2.30422">
        <ele>-4.8000001907349</ele>
        <time>2021-10-17T08:16:04.000Z</time>
      </trkpt>
      <trkpt lat="47.52088" lon="-2.30418">
        <ele>-4.4000000953674</ele>
        <time>2021-10-17T08:16:05.000Z</time>
      </trkpt>
      <trkpt lat="47.52087" lon="-2.30415">
        <ele>-4</ele>
        <time>2021-10-17T08:16:06.000Z</time>
      </trkpt>
      <trkpt lat="47.52085" lon="-2.30412">
        <ele>-3.5999999046326</ele>
        <time>2021-10-17T08:16:07.000Z</time>
      </trkpt>
      <trkpt lat="47.52084" lon="-2.30409">
        <ele>-3</ele>
        <time>2021-10-17T08:16:08.000Z</time>
      </trkpt>
      <trkpt lat="47.52083" lon="-2.30405">
        <ele>-2.4000000953674</ele>
        <time>2021-10-17T08:16:09.000Z</time>
      </trkpt>
      <trkpt lat="47.52082" lon="-2.30402">
        <ele>-2</ele>
        <time>2021-10-17T08:16:10.000Z</time>
      </trkpt>
      <trkpt lat="47.52081" lon="-2.30399">
        <ele>-1.3999999761581</ele>
        <time>2021-10-17T08:16:11.000Z</time>
      </trkpt>
      <trkpt lat="47.5208" lon="-2.30395">
        <ele>-1</ele>
        <time>2021-10-17T08:16:13.000Z</time>
      </trkpt>
      <trkpt lat="47.5208" lon="-2.30392">
        <ele>-0.60000002384186</ele>
        <time>2021-10-17T08:16:14.000Z</time>
      </trkpt>
      <trkpt lat="47.52079" lon="-2.3039">
        <ele>-0.20000000298023</ele>
        <time>2021-10-17T08:16:15.000Z</time>
      </trkpt>
      <trkpt lat="47.52079" lon="-2.30387">
        <ele>0.20000000298023</ele>
        <time>2021-10-17T08:16:16.000Z</time>
      </trkpt>
      <trkpt lat="47.52078" lon="-2.30384">
        <ele>0.60000002384186</ele>
        <time>2021-10-17T08:16:17.000Z</time>
      </trkpt>
      <trkpt lat="47.52076" lon="-2.30377">
        <ele>0.60000002384186</ele>
        <time>2021-10-17T08:16:19.000Z</time>
      </trkpt>
      <trkpt lat="47.52069" lon="-2.30356">
        <ele>1</ele>
        <time>2021-10-17T08:16:24.000Z</time>
      </trkpt>
      <trkpt lat="47.52068" lon="-2.30352">
        <ele>1.3999999761581</ele>
        <time>2021-10-17T08:16:25.000Z</time>
      </trkpt>
      <trkpt lat="47.52067" lon="-2.30348">
        <ele>1.7999999523163</ele>
        <time>2021-10-17T08:16:26.000Z</time>
      </trkpt>
      <trkpt lat="47.52065" lon="-2.30343">
        <ele>2.2000000476837</ele>
        <time>2021-10-17T08:16:27.000Z</time>
      </trkpt>
      <trkpt lat="47.52064" lon="-2.30338">
        <ele>2.5999999046326</ele>
        <time>2021-10-17T08:16:28.000Z</time>
      </trkpt>
      <trkpt lat="47.52057" lon="-2.30322">
        <ele>2.5999999046326</ele>
        <time>2021-10-17T08:16:32.000Z</time>
      </trkpt>
      <trkpt lat="47.52048" lon="-2.30298">
        <ele>2.5999999046326</ele>
        <time>2021-10-17T08:16:38.000Z</time>
      </trkpt>
      <trkpt lat="47.5204" lon="-2.30272">
        <ele>2.5999999046326</ele>
        <time>2021-10-17T08:16:44.000Z</time>
      </trkpt>
      <trkpt lat="47.52038" lon="-2.30255">
        <ele>2.5999999046326</ele>
        <time>2021-10-17T08:16:49.000Z</time>
      </trkpt>
      <trkpt lat="47.52038" lon="-2.30252">
        <ele>3</ele>
        <time>2021-10-17T08:16:50.000Z</time>
      </trkpt>
      <trkpt lat="47.52038" lon="-2.3025">
        <ele>3.4000000953674</ele>
        <time>2021-10-17T08:16:51.000Z</time>
      </trkpt>
      <trkpt lat="47.52039" lon="-2.30249">
        <ele>3.7999999523163</ele>
        <time>2021-10-17T08:16:52.000Z</time>
      </trkpt>
      <trkpt lat="47.52039" lon="-2.30249">
        <ele>4.1999998092651</ele>
        <time>2021-10-17T08:16:53.000Z</time>
      </trkpt>
      <trkpt lat="47.5204" lon="-2.30249">
        <ele>4.5999999046326</ele>
        <time>2021-10-17T08:16:54.000Z</time>
      </trkpt>
      <trkpt lat="47.5204" lon="-2.30249">
        <ele>4.5999999046326</ele>
        <time>2021-10-17T08:16:55.000Z</time>
      </trkpt>
      <trkpt lat="47.52045" lon="-2.30261">
        <ele>4.5999999046326</ele>
        <time>2021-10-17T08:17:00.000Z</time>
      </trkpt>
      <trkpt lat="47.52049" lon="-2.30274">
        <ele>4.5999999046326</ele>
        <time>2021-10-17T08:17:06.000Z</time>
      </trkpt>
      <trkpt lat="47.52051" lon="-2.30284">
        <ele>4.5999999046326</ele>
        <time>2021-10-17T08:21:26.000Z</time>
      </trkpt>
      <trkpt lat="47.52053" lon="-2.30294">
        <ele>4.5999999046326</ele>
        <time>2021-10-17T08:21:29.000Z</time>
      </trkpt>
      <trkpt lat="47.52061" lon="-2.3032">
        <ele>4.5999999046326</ele>
        <time>2021-10-17T08:21:35.000Z</time>
      </trkpt>
      <trkpt lat="47.52069" lon="-2.3035">
        <ele>4.5999999046326</ele>
        <time>2021-10-17T08:21:41.000Z</time>
      </trkpt>
      <trkpt lat="47.52078" lon="-2.30381">
        <ele>4.5999999046326</ele>
        <time>2021-10-17T08:21:47.000Z</time>
      </trkpt>
      <trkpt lat="47.52079" lon="-2.30384">
        <ele>4.1999998092651</ele>
        <time>2021-10-17T08:21:48.000Z</time>
      </trkpt>
      <trkpt lat="47.52079" lon="-2.30387">
        <ele>3.7999999523163</ele>
        <time>2021-10-17T08:21:49.000Z</time>
      </trkpt>
      <trkpt lat="47.5208" lon="-2.30389">
        <ele>3.2000000476837</ele>
        <time>2021-10-17T08:21:50.000Z</time>
      </trkpt>
      <trkpt lat="47.52081" lon="-2.30391">
        <ele>2.7999999523163</ele>
        <time>2021-10-17T08:21:51.000Z</time>
      </trkpt>
      <trkpt lat="47.52081" lon="-2.30395">
        <ele>2.4000000953674</ele>
        <time>2021-10-17T08:21:52.000Z</time>
      </trkpt>
      <trkpt lat="47.52087" lon="-2.30414">
        <ele>2</ele>
        <time>2021-10-17T08:21:58.000Z</time>
      </trkpt>
      <trkpt lat="47.52088" lon="-2.30417">
        <ele>1.3999999761581</ele>
        <time>2021-10-17T08:21:59.000Z</time>
      </trkpt>
      <trkpt lat="47.52088" lon="-2.3042">
        <ele>1</ele>
        <time>2021-10-17T08:22:00.000Z</time>
      </trkpt>
      <trkpt lat="47.52089" lon="-2.30422">
        <ele>0.60000002384186</ele>
        <time>2021-10-17T08:22:01.000Z</time>
      </trkpt>
      <trkpt lat="47.5209" lon="-2.30425">
        <ele>0.20000000298023</ele>
        <time>2021-10-17T08:22:02.000Z</time>
      </trkpt>
      <trkpt lat="47.52091" lon="-2.30427">
        <ele>0.20000000298023</ele>
        <time>2021-10-17T08:22:04.000Z</time>
      </trkpt>
      <trkpt lat="47.52094" lon="-2.30428">
        <ele>0.20000000298023</ele>
        <time>2021-10-17T08:22:38.000Z</time>
      </trkpt>
      <trkpt lat="47.52094" lon="-2.30424">
        <ele>0.20000000298023</ele>
        <time>2021-10-17T08:22:40.000Z</time>
      </trkpt>
      <trkpt lat="47.52094" lon="-2.30414">
        <ele>0.20000000298023</ele>
        <time>2021-10-17T08:22:45.000Z</time>
      </trkpt>
      <trkpt lat="47.52092" lon="-2.30403">
        <ele>0.20000000298023</ele>
        <time>2021-10-17T08:22:50.000Z</time>
      </trkpt>
      <trkpt lat="47.5209" lon="-2.30399">
        <ele>0.20000000298023</ele>
        <time>2021-10-17T08:22:56.000Z</time>
      </trkpt>
      <trkpt lat="47.52088" lon="-2.30396">
        <ele>0.60000002384186</ele>
        <time>2021-10-17T08:23:01.000Z</time>
      </trkpt>
      <trkpt lat="47.52088" lon="-2.30393">
        <ele>1</ele>
        <time>2021-10-17T08:23:02.000Z</time>
      </trkpt>
      <trkpt lat="47.52088" lon="-2.30392">
        <ele>1.3999999761581</ele>
        <time>2021-10-17T08:23:03.000Z</time>
      </trkpt>
      <trkpt lat="47.52088" lon="-2.3039">
        <ele>2</ele>
        <time>2021-10-17T08:23:04.000Z</time>
      </trkpt>
      <trkpt lat="47.52088" lon="-2.3039">
        <ele>2.4000000953674</ele>
        <time>2021-10-17T08:23:05.000Z</time>
      </trkpt>
      <trkpt lat="47.52089" lon="-2.3039">
        <ele>2.7999999523163</ele>
        <time>2021-10-17T08:23:06.000Z</time>
      </trkpt>
      <trkpt lat="47.5209" lon="-2.30391">
        <ele>3.2000000476837</ele>
        <time>2021-10-17T08:23:07.000Z</time>
      </trkpt>
      <trkpt lat="47.52091" lon="-2.30393">
        <ele>3.5999999046326</ele>
        <time>2021-10-17T08:23:08.000Z</time>
      </trkpt>
      <trkpt lat="47.52092" lon="-2.30394">
        <ele>4</ele>
        <time>2021-10-17T08:23:09.000Z</time>
      </trkpt>
      <trkpt lat="47.52093" lon="-2.30396">
        <ele>4.4000000953674</ele>
        <time>2021-10-17T08:23:10.000Z</time>
      </trkpt>
      <trkpt lat="47.52096" lon="-2.304">
        <ele>4.4000000953674</ele>
        <time>2021-10-17T08:23:12.000Z</time>
      </trkpt>
      <trkpt lat="47.52107" lon="-2.30413">
        <ele>4.4000000953674</ele>
        <time>2021-10-17T08:23:18.000Z</time>
      </trkpt>
      <trkpt lat="47.5212" lon="-2.30433">
        <ele>4.8000001907349</ele>
        <time>2021-10-17T08:23:25.000Z</time>
      </trkpt>
      <trkpt lat="47.52123" lon="-2.30435">
        <ele>5.1999998092651</ele>
        <time>2021-10-17T08:23:26.000Z</time>
      </trkpt>
      <trkpt lat="47.52125" lon="-2.30436">
        <ele>5.5999999046326</ele>
        <time>2021-10-17T08:23:27.000Z</time>
      </trkpt>
      <trkpt lat="47.52128" lon="-2.30438">
        <ele>6</ele>
        <time>2021-10-17T08:23:28.000Z</time>
      </trkpt>
      <trkpt lat="47.52131" lon="-2.30439">
        <ele>6.4000000953674</ele>
        <time>2021-10-17T08:23:29.000Z</time>
      </trkpt>
      <trkpt lat="47.52137" lon="-2.30441">
        <ele>6.4000000953674</ele>
        <time>2021-10-17T08:23:32.000Z</time>
      </trkpt>
      <trkpt lat="47.52155" lon="-2.3044">
        <ele>6.4000000953674</ele>
        <time>2021-10-17T08:23:39.000Z</time>
      </trkpt>
      <trkpt lat="47.52157" lon="-2.3044">
        <ele>6.8000001907349</ele>
        <time>2021-10-17T08:23:40.000Z</time>
      </trkpt>
      <trkpt lat="47.52159" lon="-2.3044">
        <ele>7.1999998092651</ele>
        <time>2021-10-17T08:23:41.000Z</time>
      </trkpt>
      <trkpt lat="47.52161" lon="-2.30441">
        <ele>7.5999999046326</ele>
        <time>2021-10-17T08:23:42.000Z</time>
      </trkpt>
      <trkpt lat="47.52164" lon="-2.30441">
        <ele>8</ele>
        <time>2021-10-17T08:23:43.000Z</time>
      </trkpt>
      <trkpt lat="47.52166" lon="-2.30441">
        <ele>8.3999996185303</ele>
        <time>2021-10-17T08:23:44.000Z</time>
      </trkpt>
      <trkpt lat="47.52175" lon="-2.30442">
        <ele>8.3999996185303</ele>
        <time>2021-10-17T08:23:48.000Z</time>
      </trkpt>
      <trkpt lat="47.52185" lon="-2.30443">
        <ele>8.3999996185303</ele>
        <time>2021-10-17T08:23:54.000Z</time>
      </trkpt>
      <trkpt lat="47.52192" lon="-2.30444">
        <ele>8.8000001907349</ele>
        <time>2021-10-17T08:23:58.000Z</time>
      </trkpt>
      <trkpt lat="47.52194" lon="-2.30445">
        <ele>9.3999996185303</ele>
        <time>2021-10-17T08:23:59.000Z</time>
      </trkpt>
      <trkpt lat="47.52196" lon="-2.30445">
        <ele>9.8000001907349</ele>
        <time>2021-10-17T08:24:00.000Z</time>
      </trkpt>
      <trkpt lat="47.52198" lon="-2.30445">
        <ele>10.199999809265</ele>
        <time>2021-10-17T08:24:01.000Z</time>
      </trkpt>
      <trkpt lat="47.522" lon="-2.30445">
        <ele>10.60000038147</ele>
        <time>2021-10-17T08:24:02.000Z</time>
      </trkpt>
      <trkpt lat="47.52208" lon="-2.30446">
        <ele>10.60000038147</ele>
        <time>2021-10-17T08:24:07.000Z</time>
      </trkpt>
      <trkpt lat="47.5221" lon="-2.30445">
        <ele>10.60000038147</ele>
        <time>2021-10-17T08:24:08.000Z</time>
      </trkpt>
      <trkpt lat="47.52217" lon="-2.30443">
        <ele>11.39999961853</ele>
        <time>2021-10-17T08:24:12.000Z</time>
      </trkpt>
      <trkpt lat="47.52219" lon="-2.30443">
        <ele>11.800000190735</ele>
        <time>2021-10-17T08:24:13.000Z</time>
      </trkpt>
      <trkpt lat="47.5222" lon="-2.30442">
        <ele>12.39999961853</ele>
        <time>2021-10-17T08:24:14.000Z</time>
      </trkpt>
      <trkpt lat="47.52221" lon="-2.30441">
        <ele>12.800000190735</ele>
        <time>2021-10-17T08:24:15.000Z</time>
      </trkpt>
      <trkpt lat="47.52226" lon="-2.3044">
        <ele>12.800000190735</ele>
        <time>2021-10-17T08:24:18.000Z</time>
      </trkpt>
      <trkpt lat="47.52234" lon="-2.30436">
        <ele>12.800000190735</ele>
        <time>2021-10-17T08:24:23.000Z</time>
      </trkpt>
      <trkpt lat="47.52236" lon="-2.30434">
        <ele>12.800000190735</ele>
        <time>2021-10-17T08:24:25.000Z</time>
      </trkpt>
      <trkpt lat="47.52239" lon="-2.30431">
        <ele>13.199999809265</ele>
        <time>2021-10-17T08:24:27.000Z</time>
      </trkpt>
      <trkpt lat="47.52241" lon="-2.3043">
        <ele>13.60000038147</ele>
        <time>2021-10-17T08:24:28.000Z</time>
      </trkpt>
      <trkpt lat="47.52242" lon="-2.30429">
        <ele>14.199999809265</ele>
        <time>2021-10-17T08:24:29.000Z</time>
      </trkpt>
      <trkpt lat="47.52244" lon="-2.30427">
        <ele>14.60000038147</ele>
        <time>2021-10-17T08:24:30.000Z</time>
      </trkpt>
      <trkpt lat="47.52245" lon="-2.30426">
        <ele>15</ele>
        <time>2021-10-17T08:24:31.000Z</time>
      </trkpt>
      <trkpt lat="47.52248" lon="-2.30423">
        <ele>15.39999961853</ele>
        <time>2021-10-17T08:24:34.000Z</time>
      </trkpt>
      <trkpt lat="47.52249" lon="-2.30422">
        <ele>16</ele>
        <time>2021-10-17T08:24:35.000Z</time>
      </trkpt>
      <trkpt lat="47.5225" lon="-2.30421">
        <ele>16.799999237061</ele>
        <time>2021-10-17T08:24:36.000Z</time>
      </trkpt>
      <trkpt lat="47.52252" lon="-2.3042">
        <ele>17.39999961853</ele>
        <time>2021-10-17T08:24:37.000Z</time>
      </trkpt>
      <trkpt lat="47.52253" lon="-2.30418">
        <ele>17.39999961853</ele>
        <time>2021-10-17T08:24:39.000Z</time>
      </trkpt>
      <trkpt lat="47.52255" lon="-2.30416">
        <ele>17.799999237061</ele>
        <time>2021-10-17T08:24:41.000Z</time>
      </trkpt>
      <trkpt lat="47.52256" lon="-2.30416">
        <ele>18.200000762939</ele>
        <time>2021-10-17T08:24:42.000Z</time>
      </trkpt>
      <trkpt lat="47.52257" lon="-2.30414">
        <ele>18.60000038147</ele>
        <time>2021-10-17T08:24:43.000Z</time>
      </trkpt>
      <trkpt lat="47.52258" lon="-2.30413">
        <ele>19</ele>
        <time>2021-10-17T08:24:44.000Z</time>
      </trkpt>
      <trkpt lat="47.5226" lon="-2.30412">
        <ele>19.39999961853</ele>
        <time>2021-10-17T08:24:45.000Z</time>
      </trkpt>
      <trkpt lat="47.52264" lon="-2.3041">
        <ele>19.39999961853</ele>
        <time>2021-10-17T08:24:47.000Z</time>
      </trkpt>
      <trkpt lat="47.52266" lon="-2.30408">
        <ele>19.799999237061</ele>
        <time>2021-10-17T08:24:50.000Z</time>
      </trkpt>
      <trkpt lat="47.52267" lon="-2.30406">
        <ele>20.200000762939</ele>
        <time>2021-10-17T08:24:51.000Z</time>
      </trkpt>
      <trkpt lat="47.52268" lon="-2.30405">
        <ele>20.60000038147</ele>
        <time>2021-10-17T08:24:52.000Z</time>
      </trkpt>
      <trkpt lat="47.52269" lon="-2.30404">
        <ele>21</ele>
        <time>2021-10-17T08:24:53.000Z</time>
      </trkpt>
      <trkpt lat="47.5227" lon="-2.30403">
        <ele>21.39999961853</ele>
        <time>2021-10-17T08:24:54.000Z</time>
      </trkpt>
      <trkpt lat="47.52271" lon="-2.30403">
        <ele>21.39999961853</ele>
        <time>2021-10-17T08:24:55.000Z</time>
      </trkpt>
      <trkpt lat="47.5228" lon="-2.30399">
        <ele>21.39999961853</ele>
        <time>2021-10-17T08:25:01.000Z</time>
      </trkpt>
      <trkpt lat="47.52282" lon="-2.30398">
        <ele>21.799999237061</ele>
        <time>2021-10-17T08:25:02.000Z</time>
      </trkpt>
      <trkpt lat="47.52284" lon="-2.30397">
        <ele>22.200000762939</ele>
        <time>2021-10-17T08:25:03.000Z</time>
      </trkpt>
      <trkpt lat="47.52286" lon="-2.30397">
        <ele>22.60000038147</ele>
        <time>2021-10-17T08:25:04.000Z</time>
      </trkpt>
      <trkpt lat="47.52288" lon="-2.30396">
        <ele>23</ele>
        <time>2021-10-17T08:25:05.000Z</time>
      </trkpt>
      <trkpt lat="47.5229" lon="-2.30395">
        <ele>23.39999961853</ele>
        <time>2021-10-17T08:25:06.000Z</time>
      </trkpt>
      <trkpt lat="47.52292" lon="-2.30394">
        <ele>23.39999961853</ele>
        <time>2021-10-17T08:25:07.000Z</time>
      </trkpt>
      <trkpt lat="47.52304" lon="-2.30384">
        <ele>23.39999961853</ele>
        <time>2021-10-17T08:25:12.000Z</time>
      </trkpt>
      <trkpt lat="47.5232" lon="-2.30369">
        <ele>23.39999961853</ele>
        <time>2021-10-17T08:25:19.000Z</time>
      </trkpt>
      <trkpt lat="47.52322" lon="-2.30367">
        <ele>24</ele>
        <time>2021-10-17T08:25:20.000Z</time>
      </trkpt>
      <trkpt lat="47.52324" lon="-2.30366">
        <ele>24.39999961853</ele>
        <time>2021-10-17T08:25:21.000Z</time>
      </trkpt>
      <trkpt lat="47.52326" lon="-2.30364">
        <ele>24.799999237061</ele>
        <time>2021-10-17T08:25:22.000Z</time>
      </trkpt>
      <trkpt lat="47.52327" lon="-2.30363">
        <ele>25.200000762939</ele>
        <time>2021-10-17T08:25:23.000Z</time>
      </trkpt>
      <trkpt lat="47.52329" lon="-2.3036">
        <ele>25.60000038147</ele>
        <time>2021-10-17T08:25:24.000Z</time>
      </trkpt>
      <trkpt lat="47.52331" lon="-2.30358">
        <ele>25.60000038147</ele>
        <time>2021-10-17T08:25:25.000Z</time>
      </trkpt>
      <trkpt lat="47.52348" lon="-2.30343">
        <ele>26</ele>
        <time>2021-10-17T08:25:32.000Z</time>
      </trkpt>
      <trkpt lat="47.52351" lon="-2.30341">
        <ele>26.39999961853</ele>
        <time>2021-10-17T08:25:33.000Z</time>
      </trkpt>
      <trkpt lat="47.52353" lon="-2.30338">
        <ele>27</ele>
        <time>2021-10-17T08:25:34.000Z</time>
      </trkpt>
      <trkpt lat="47.52356" lon="-2.30336">
        <ele>27.39999961853</ele>
        <time>2021-10-17T08:25:35.000Z</time>
      </trkpt>
      <trkpt lat="47.52358" lon="-2.30334">
        <ele>27.799999237061</ele>
        <time>2021-10-17T08:25:36.000Z</time>
      </trkpt>
      <trkpt lat="47.52364" lon="-2.30328">
        <ele>27.799999237061</ele>
        <time>2021-10-17T08:25:39.000Z</time>
      </trkpt>
      <trkpt lat="47.52377" lon="-2.30316">
        <ele>28.200000762939</ele>
        <time>2021-10-17T08:25:45.000Z</time>
      </trkpt>
      <trkpt lat="47.52379" lon="-2.30313">
        <ele>28.60000038147</ele>
        <time>2021-10-17T08:25:46.000Z</time>
      </trkpt>
      <trkpt lat="47.52381" lon="-2.30311">
        <ele>29</ele>
        <time>2021-10-17T08:25:47.000Z</time>
      </trkpt>
      <trkpt lat="47.52383" lon="-2.30309">
        <ele>29.39999961853</ele>
        <time>2021-10-17T08:25:48.000Z</time>
      </trkpt>
      <trkpt lat="47.52385" lon="-2.30307">
        <ele>29.799999237061</ele>
        <time>2021-10-17T08:25:49.000Z</time>
      </trkpt>
      <trkpt lat="47.5239" lon="-2.30301">
        <ele>29.799999237061</ele>
        <time>2021-10-17T08:25:52.000Z</time>
      </trkpt>
      <trkpt lat="47.52403" lon="-2.30288">
        <ele>30.200000762939</ele>
        <time>2021-10-17T08:25:58.000Z</time>
      </trkpt>
      <trkpt lat="47.52405" lon="-2.30285">
        <ele>30.799999237061</ele>
        <time>2021-10-17T08:25:59.000Z</time>
      </trkpt>
      <trkpt lat="47.52408" lon="-2.30282">
        <ele>31.200000762939</ele>
        <time>2021-10-17T08:26:00.000Z</time>
      </trkpt>
      <trkpt lat="47.52411" lon="-2.3028">
        <ele>31.60000038147</ele>
        <time>2021-10-17T08:26:01.000Z</time>
      </trkpt>
      <trkpt lat="47.52413" lon="-2.30277">
        <ele>32</ele>
        <time>2021-10-17T08:26:02.000Z</time>
      </trkpt>
      <trkpt lat="47.52427" lon="-2.30259">
        <ele>32</ele>
        <time>2021-10-17T08:26:08.000Z</time>
      </trkpt>
      <trkpt lat="47.52431" lon="-2.30252">
        <ele>32.400001525879</ele>
        <time>2021-10-17T08:26:10.000Z</time>
      </trkpt>
      <trkpt lat="47.52432" lon="-2.30248">
        <ele>32.799999237061</ele>
        <time>2021-10-17T08:26:11.000Z</time>
      </trkpt>
      <trkpt lat="47.52434" lon="-2.30245">
        <ele>33.200000762939</ele>
        <time>2021-10-17T08:26:12.000Z</time>
      </trkpt>
      <trkpt lat="47.52435" lon="-2.30242">
        <ele>33.599998474121</ele>
        <time>2021-10-17T08:26:13.000Z</time>
      </trkpt>
      <trkpt lat="47.52437" lon="-2.30238">
        <ele>34</ele>
        <time>2021-10-17T08:26:14.000Z</time>
      </trkpt>
      <trkpt lat="47.5245" lon="-2.3021">
        <ele>34</ele>
        <time>2021-10-17T08:26:22.000Z</time>
      </trkpt>
      <trkpt lat="47.52451" lon="-2.30207">
        <ele>34.400001525879</ele>
        <time>2021-10-17T08:26:23.000Z</time>
      </trkpt>
      <trkpt lat="47.52452" lon="-2.30203">
        <ele>34.799999237061</ele>
        <time>2021-10-17T08:26:24.000Z</time>
      </trkpt>
      <trkpt lat="47.52453" lon="-2.302">
        <ele>35.200000762939</ele>
        <time>2021-10-17T08:26:25.000Z</time>
      </trkpt>
      <trkpt lat="47.52455" lon="-2.30197">
        <ele>35.599998474121</ele>
        <time>2021-10-17T08:26:26.000Z</time>
      </trkpt>
      <trkpt lat="47.52457" lon="-2.30195">
        <ele>36</ele>
        <time>2021-10-17T08:26:27.000Z</time>
      </trkpt>
      <trkpt lat="47.52472" lon="-2.30186">
        <ele>35.599998474121</ele>
        <time>2021-10-17T08:26:31.000Z</time>
      </trkpt>
      <trkpt lat="47.52479" lon="-2.30184">
        <ele>35.200000762939</ele>
        <time>2021-10-17T08:26:32.000Z</time>
      </trkpt>
      <trkpt lat="47.52485" lon="-2.30181">
        <ele>34.599998474121</ele>
        <time>2021-10-17T08:26:33.000Z</time>
      </trkpt>
      <trkpt lat="47.52492" lon="-2.30178">
        <ele>34</ele>
        <time>2021-10-17T08:26:34.000Z</time>
      </trkpt>
      <trkpt lat="47.52499" lon="-2.30173">
        <ele>33.400001525879</ele>
        <time>2021-10-17T08:26:35.000Z</time>
      </trkpt>
      <trkpt lat="47.52506" lon="-2.30169">
        <ele>32.599998474121</ele>
        <time>2021-10-17T08:26:36.000Z</time>
      </trkpt>
      <trkpt lat="47.52513" lon="-2.30164">
        <ele>32</ele>
        <time>2021-10-17T08:26:37.000Z</time>
      </trkpt>
      <trkpt lat="47.52519" lon="-2.30159">
        <ele>31.39999961853</ele>
        <time>2021-10-17T08:26:38.000Z</time>
      </trkpt>
      <trkpt lat="47.52525" lon="-2.30154">
        <ele>31</ele>
        <time>2021-10-17T08:26:39.000Z</time>
      </trkpt>
      <trkpt lat="47.52531" lon="-2.30147">
        <ele>30.60000038147</ele>
        <time>2021-10-17T08:26:40.000Z</time>
      </trkpt>
      <trkpt lat="47.52534" lon="-2.30141">
        <ele>30</ele>
        <time>2021-10-17T08:26:41.000Z</time>
      </trkpt>
      <trkpt lat="47.52536" lon="-2.30135">
        <ele>29.60000038147</ele>
        <time>2021-10-17T08:26:42.000Z</time>
      </trkpt>
      <trkpt lat="47.52537" lon="-2.30127">
        <ele>29.200000762939</ele>
        <time>2021-10-17T08:26:43.000Z</time>
      </trkpt>
      <trkpt lat="47.52537" lon="-2.30111">
        <ele>29.200000762939</ele>
        <time>2021-10-17T08:26:45.000Z</time>
      </trkpt>
      <trkpt lat="47.52537" lon="-2.30104">
        <ele>29.200000762939</ele>
        <time>2021-10-17T08:26:46.000Z</time>
      </trkpt>
      <trkpt lat="47.52535" lon="-2.30089">
        <ele>29.200000762939</ele>
        <time>2021-10-17T08:26:49.000Z</time>
      </trkpt>
      <trkpt lat="47.52532" lon="-2.3007">
        <ele>29.60000038147</ele>
        <time>2021-10-17T08:26:54.000Z</time>
      </trkpt>
      <trkpt lat="47.52531" lon="-2.30067">
        <ele>30</ele>
        <time>2021-10-17T08:26:55.000Z</time>
      </trkpt>
      <trkpt lat="47.52531" lon="-2.30063">
        <ele>30.39999961853</ele>
        <time>2021-10-17T08:26:56.000Z</time>
      </trkpt>
      <trkpt lat="47.52532" lon="-2.3006">
        <ele>30.799999237061</ele>
        <time>2021-10-17T08:26:57.000Z</time>
      </trkpt>
      <trkpt lat="47.52533" lon="-2.30058">
        <ele>31.200000762939</ele>
        <time>2021-10-17T08:26:58.000Z</time>
      </trkpt>
      <trkpt lat="47.52536" lon="-2.30055">
        <ele>31.200000762939</ele>
        <time>2021-10-17T08:26:59.000Z</time>
      </trkpt>
      <trkpt lat="47.52546" lon="-2.30049">
        <ele>31.200000762939</ele>
        <time>2021-10-17T08:27:02.000Z</time>
      </trkpt>
      <trkpt lat="47.52553" lon="-2.30046">
        <ele>31.60000038147</ele>
        <time>2021-10-17T08:27:04.000Z</time>
      </trkpt>
      <trkpt lat="47.52557" lon="-2.30044">
        <ele>32.200000762939</ele>
        <time>2021-10-17T08:27:05.000Z</time>
      </trkpt>
      <trkpt lat="47.5256" lon="-2.30042">
        <ele>32.599998474121</ele>
        <time>2021-10-17T08:27:06.000Z</time>
      </trkpt>
      <trkpt lat="47.52564" lon="-2.3004">
        <ele>33</ele>
        <time>2021-10-17T08:27:07.000Z</time>
      </trkpt>
      <trkpt lat="47.52568" lon="-2.30038">
        <ele>33.400001525879</ele>
        <time>2021-10-17T08:27:08.000Z</time>
      </trkpt>
      <trkpt lat="47.52579" lon="-2.3003">
        <ele>33.400001525879</ele>
        <time>2021-10-17T08:27:11.000Z</time>
      </trkpt>
      <trkpt lat="47.52604" lon="-2.30012">
        <ele>33.400001525879</ele>
        <time>2021-10-17T08:27:18.000Z</time>
      </trkpt>
      <trkpt lat="47.52624" lon="-2.29997">
        <ele>33.400001525879</ele>
        <time>2021-10-17T08:27:24.000Z</time>
      </trkpt>
      <trkpt lat="47.52628" lon="-2.29994">
        <ele>33.799999237061</ele>
        <time>2021-10-17T08:27:25.000Z</time>
      </trkpt>
      <trkpt lat="47.52632" lon="-2.29991">
        <ele>34.200000762939</ele>
        <time>2021-10-17T08:27:26.000Z</time>
      </trkpt>
      <trkpt lat="47.52636" lon="-2.29989">
        <ele>34.599998474121</ele>
        <time>2021-10-17T08:27:27.000Z</time>
      </trkpt>
      <trkpt lat="47.5264" lon="-2.29986">
        <ele>35</ele>
        <time>2021-10-17T08:27:28.000Z</time>
      </trkpt>
      <trkpt lat="47.52643" lon="-2.29983">
        <ele>35.400001525879</ele>
        <time>2021-10-17T08:27:29.000Z</time>
      </trkpt>
      <trkpt lat="47.52652" lon="-2.29977">
        <ele>35.400001525879</ele>
        <time>2021-10-17T08:27:31.000Z</time>
      </trkpt>
      <trkpt lat="47.52682" lon="-2.29954">
        <ele>35.400001525879</ele>
        <time>2021-10-17T08:27:38.000Z</time>
      </trkpt>
      <trkpt lat="47.52702" lon="-2.29949">
        <ele>35.400001525879</ele>
        <time>2021-10-17T08:27:43.000Z</time>
      </trkpt>
      <trkpt lat="47.52727" lon="-2.29946">
        <ele>35.400001525879</ele>
        <time>2021-10-17T08:27:49.000Z</time>
      </trkpt>
      <trkpt lat="47.52753" lon="-2.29938">
        <ele>35.400001525879</ele>
        <time>2021-10-17T08:27:54.000Z</time>
      </trkpt>
      <trkpt lat="47.52765" lon="-2.29935">
        <ele>35</ele>
        <time>2021-10-17T08:27:56.000Z</time>
      </trkpt>
      <trkpt lat="47.52772" lon="-2.29934">
        <ele>34.599998474121</ele>
        <time>2021-10-17T08:27:57.000Z</time>
      </trkpt>
      <trkpt lat="47.52778" lon="-2.29933">
        <ele>34</ele>
        <time>2021-10-17T08:27:58.000Z</time>
      </trkpt>
      <trkpt lat="47.52785" lon="-2.29932">
        <ele>33.599998474121</ele>
        <time>2021-10-17T08:27:59.000Z</time>
      </trkpt>
      <trkpt lat="47.52791" lon="-2.2993">
        <ele>33.200000762939</ele>
        <time>2021-10-17T08:28:00.000Z</time>
      </trkpt>
      <trkpt lat="47.52803" lon="-2.29925">
        <ele>33.200000762939</ele>
        <time>2021-10-17T08:28:02.000Z</time>
      </trkpt>
      <trkpt lat="47.52813" lon="-2.29918">
        <ele>33.200000762939</ele>
        <time>2021-10-17T08:28:04.000Z</time>
      </trkpt>
      <trkpt lat="47.52844" lon="-2.299">
        <ele>33.200000762939</ele>
        <time>2021-10-17T08:28:10.000Z</time>
      </trkpt>
      <trkpt lat="47.52853" lon="-2.29893">
        <ele>33.200000762939</ele>
        <time>2021-10-17T08:28:12.000Z</time>
      </trkpt>
      <trkpt lat="47.52857" lon="-2.29884">
        <ele>33.200000762939</ele>
        <time>2021-10-17T08:28:14.000Z</time>
      </trkpt>
      <trkpt lat="47.52857" lon="-2.2987">
        <ele>33.200000762939</ele>
        <time>2021-10-17T08:28:17.000Z</time>
      </trkpt>
      <trkpt lat="47.52855" lon="-2.29865">
        <ele>33.599998474121</ele>
        <time>2021-10-17T08:28:18.000Z</time>
      </trkpt>
      <trkpt lat="47.52854" lon="-2.2986">
        <ele>34</ele>
        <time>2021-10-17T08:28:19.000Z</time>
      </trkpt>
      <trkpt lat="47.52854" lon="-2.29856">
        <ele>34.400001525879</ele>
        <time>2021-10-17T08:28:20.000Z</time>
      </trkpt>
      <trkpt lat="47.52853" lon="-2.29851">
        <ele>35</ele>
        <time>2021-10-17T08:28:21.000Z</time>
      </trkpt>
      <trkpt lat="47.52852" lon="-2.29847">
        <ele>35.400001525879</ele>
        <time>2021-10-17T08:28:22.000Z</time>
      </trkpt>
      <trkpt lat="47.52849" lon="-2.29838">
        <ele>35.400001525879</ele>
        <time>2021-10-17T08:28:24.000Z</time>
      </trkpt>
      <trkpt lat="47.52846" lon="-2.29824">
        <ele>35.799999237061</ele>
        <time>2021-10-17T08:28:27.000Z</time>
      </trkpt>
      <trkpt lat="47.52845" lon="-2.2982">
        <ele>36.200000762939</ele>
        <time>2021-10-17T08:28:28.000Z</time>
      </trkpt>
      <trkpt lat="47.52844" lon="-2.29816">
        <ele>36.599998474121</ele>
        <time>2021-10-17T08:28:29.000Z</time>
      </trkpt>
      <trkpt lat="47.52843" lon="-2.29813">
        <ele>37</ele>
        <time>2021-10-17T08:28:30.000Z</time>
      </trkpt>
      <trkpt lat="47.52842" lon="-2.29808">
        <ele>37.400001525879</ele>
        <time>2021-10-17T08:28:31.000Z</time>
      </trkpt>
      <trkpt lat="47.52838" lon="-2.29787">
        <ele>37.400001525879</ele>
        <time>2021-10-17T08:28:37.000Z</time>
      </trkpt>
      <trkpt lat="47.52833" lon="-2.29769">
        <ele>37.799999237061</ele>
        <time>2021-10-17T08:28:42.000Z</time>
      </trkpt>
      <trkpt lat="47.52833" lon="-2.29765">
        <ele>38.200000762939</ele>
        <time>2021-10-17T08:28:43.000Z</time>
      </trkpt>
      <trkpt lat="47.52833" lon="-2.2976">
        <ele>38.599998474121</ele>
        <time>2021-10-17T08:28:44.000Z</time>
      </trkpt>
      <trkpt lat="47.52832" lon="-2.29756">
        <ele>39</ele>
        <time>2021-10-17T08:28:45.000Z</time>
      </trkpt>
      <trkpt lat="47.52831" lon="-2.29753">
        <ele>39.400001525879</ele>
        <time>2021-10-17T08:28:46.000Z</time>
      </trkpt>
      <trkpt lat="47.52831" lon="-2.29745">
        <ele>39.400001525879</ele>
        <time>2021-10-17T08:28:48.000Z</time>
      </trkpt>
      <trkpt lat="47.52826" lon="-2.29715">
        <ele>39.400001525879</ele>
        <time>2021-10-17T08:28:54.000Z</time>
      </trkpt>
      <trkpt lat="47.52821" lon="-2.2969">
        <ele>39.400001525879</ele>
        <time>2021-10-17T08:29:00.000Z</time>
      </trkpt>
      <trkpt lat="47.52817" lon="-2.29679">
        <ele>39.799999237061</ele>
        <time>2021-10-17T08:29:04.000Z</time>
      </trkpt>
      <trkpt lat="47.52816" lon="-2.29675">
        <ele>40.200000762939</ele>
        <time>2021-10-17T08:29:05.000Z</time>
      </trkpt>
      <trkpt lat="47.52816" lon="-2.29672">
        <ele>40.599998474121</ele>
        <time>2021-10-17T08:29:06.000Z</time>
      </trkpt>
      <trkpt lat="47.52815" lon="-2.29669">
        <ele>41.400001525879</ele>
        <time>2021-10-17T08:29:07.000Z</time>
      </trkpt>
      <trkpt lat="47.52815" lon="-2.29656">
        <ele>41.400001525879</ele>
        <time>2021-10-17T08:29:11.000Z</time>
      </trkpt>
      <trkpt lat="47.52816" lon="-2.29654">
        <ele>41.400001525879</ele>
        <time>2021-10-17T08:29:12.000Z</time>
      </trkpt>
      <trkpt lat="47.52819" lon="-2.29651">
        <ele>41.400001525879</ele>
        <time>2021-10-17T08:29:14.000Z</time>
      </trkpt>
      <trkpt lat="47.52828" lon="-2.29648">
        <ele>41.400001525879</ele>
        <time>2021-10-17T08:29:17.000Z</time>
      </trkpt>
      <trkpt lat="47.52833" lon="-2.29645">
        <ele>41.400001525879</ele>
        <time>2021-10-17T08:29:19.000Z</time>
      </trkpt>
      <trkpt lat="47.52836" lon="-2.29644">
        <ele>41</ele>
        <time>2021-10-17T08:29:20.000Z</time>
      </trkpt>
      <trkpt lat="47.52838" lon="-2.29643">
        <ele>40.599998474121</ele>
        <time>2021-10-17T08:29:21.000Z</time>
      </trkpt>
      <trkpt lat="47.5284" lon="-2.29642">
        <ele>40.200000762939</ele>
        <time>2021-10-17T08:29:22.000Z</time>
      </trkpt>
      <trkpt lat="47.52843" lon="-2.29641">
        <ele>39.799999237061</ele>
        <time>2021-10-17T08:29:23.000Z</time>
      </trkpt>
      <trkpt lat="47.52846" lon="-2.29639">
        <ele>39.400001525879</ele>
        <time>2021-10-17T08:29:24.000Z</time>
      </trkpt>
      <trkpt lat="47.52852" lon="-2.29636">
        <ele>39.400001525879</ele>
        <time>2021-10-17T08:29:26.000Z</time>
      </trkpt>
      <trkpt lat="47.52858" lon="-2.29633">
        <ele>39</ele>
        <time>2021-10-17T08:29:28.000Z</time>
      </trkpt>
      <trkpt lat="47.52861" lon="-2.29631">
        <ele>38.400001525879</ele>
        <time>2021-10-17T08:29:29.000Z</time>
      </trkpt>
      <trkpt lat="47.52866" lon="-2.29628">
        <ele>38</ele>
        <time>2021-10-17T08:29:30.000Z</time>
      </trkpt>
      <trkpt lat="47.5287" lon="-2.29626">
        <ele>37.599998474121</ele>
        <time>2021-10-17T08:29:31.000Z</time>
      </trkpt>
      <trkpt lat="47.52876" lon="-2.29625">
        <ele>36.400001525879</ele>
        <time>2021-10-17T08:29:32.000Z</time>
      </trkpt>
      <trkpt lat="47.52881" lon="-2.29623">
        <ele>36</ele>
        <time>2021-10-17T08:29:33.000Z</time>
      </trkpt>
      <trkpt lat="47.52886" lon="-2.29621">
        <ele>35.400001525879</ele>
        <time>2021-10-17T08:29:34.000Z</time>
      </trkpt>
      <trkpt lat="47.52891" lon="-2.29618">
        <ele>34.599998474121</ele>
        <time>2021-10-17T08:29:35.000Z</time>
      </trkpt>
      <trkpt lat="47.52897" lon="-2.29615">
        <ele>34</ele>
        <time>2021-10-17T08:29:36.000Z</time>
      </trkpt>
      <trkpt lat="47.52902" lon="-2.29613">
        <ele>33.200000762939</ele>
        <time>2021-10-17T08:29:37.000Z</time>
      </trkpt>
      <trkpt lat="47.52907" lon="-2.29612">
        <ele>32.400001525879</ele>
        <time>2021-10-17T08:29:38.000Z</time>
      </trkpt>
      <trkpt lat="47.52913" lon="-2.29611">
        <ele>31.60000038147</ele>
        <time>2021-10-17T08:29:39.000Z</time>
      </trkpt>
      <trkpt lat="47.52918" lon="-2.29608">
        <ele>30.799999237061</ele>
        <time>2021-10-17T08:29:40.000Z</time>
      </trkpt>
      <trkpt lat="47.52923" lon="-2.29606">
        <ele>29.799999237061</ele>
        <time>2021-10-17T08:29:41.000Z</time>
      </trkpt>
      <trkpt lat="47.52928" lon="-2.29603">
        <ele>29</ele>
        <time>2021-10-17T08:29:42.000Z</time>
      </trkpt>
      <trkpt lat="47.52932" lon="-2.29601">
        <ele>28.200000762939</ele>
        <time>2021-10-17T08:29:43.000Z</time>
      </trkpt>
      <trkpt lat="47.52936" lon="-2.29599">
        <ele>27.39999961853</ele>
        <time>2021-10-17T08:29:44.000Z</time>
      </trkpt>
      <trkpt lat="47.5294" lon="-2.29597">
        <ele>26.60000038147</ele>
        <time>2021-10-17T08:29:45.000Z</time>
      </trkpt>
      <trkpt lat="47.52945" lon="-2.29595">
        <ele>25.799999237061</ele>
        <time>2021-10-17T08:29:46.000Z</time>
      </trkpt>
      <trkpt lat="47.52949" lon="-2.29593">
        <ele>24.799999237061</ele>
        <time>2021-10-17T08:29:47.000Z</time>
      </trkpt>
      <trkpt lat="47.52953" lon="-2.29591">
        <ele>24</ele>
        <time>2021-10-17T08:29:48.000Z</time>
      </trkpt>
      <trkpt lat="47.52955" lon="-2.2959">
        <ele>23</ele>
        <time>2021-10-17T08:29:49.000Z</time>
      </trkpt>
      <trkpt lat="47.52956" lon="-2.29589">
        <ele>22.200000762939</ele>
        <time>2021-10-17T08:29:50.000Z</time>
      </trkpt>
      <trkpt lat="47.52958" lon="-2.29588">
        <ele>21.39999961853</ele>
        <time>2021-10-17T08:29:51.000Z</time>
      </trkpt>
      <trkpt lat="47.52959" lon="-2.29588">
        <ele>20.60000038147</ele>
        <time>2021-10-17T08:29:52.000Z</time>
      </trkpt>
      <trkpt lat="47.5296" lon="-2.29587">
        <ele>19.799999237061</ele>
        <time>2021-10-17T08:29:53.000Z</time>
      </trkpt>
      <trkpt lat="47.52962" lon="-2.29586">
        <ele>19</ele>
        <time>2021-10-17T08:29:54.000Z</time>
      </trkpt>
      <trkpt lat="47.52964" lon="-2.29585">
        <ele>18.200000762939</ele>
        <time>2021-10-17T08:29:55.000Z</time>
      </trkpt>
      <trkpt lat="47.52968" lon="-2.29581">
        <ele>18.200000762939</ele>
        <time>2021-10-17T08:29:58.000Z</time>
      </trkpt>
      <trkpt lat="47.52975" lon="-2.29577">
        <ele>18.200000762939</ele>
        <time>2021-10-17T08:30:06.000Z</time>
      </trkpt>
      <trkpt lat="47.52976" lon="-2.29577">
        <ele>18.200000762939</ele>
        <time>2021-10-17T08:30:07.000Z</time>
      </trkpt>
      <trkpt lat="47.53009" lon="-2.29579">
        <ele>29.39999961853</ele>
        <time>2021-10-17T08:31:16.000Z</time>
      </trkpt>
      <trkpt lat="47.5301" lon="-2.2958">
        <ele>29.799999237061</ele>
        <time>2021-10-17T08:31:17.000Z</time>
      </trkpt>
      <trkpt lat="47.53012" lon="-2.29579">
        <ele>30.200000762939</ele>
        <time>2021-10-17T08:31:18.000Z</time>
      </trkpt>
      <trkpt lat="47.53014" lon="-2.29578">
        <ele>30.60000038147</ele>
        <time>2021-10-17T08:31:19.000Z</time>
      </trkpt>
      <trkpt lat="47.53019" lon="-2.29573">
        <ele>30.60000038147</ele>
        <time>2021-10-17T08:31:21.000Z</time>
      </trkpt>
      <trkpt lat="47.53025" lon="-2.29564">
        <ele>31</ele>
        <time>2021-10-17T08:31:25.000Z</time>
      </trkpt>
      <trkpt lat="47.53026" lon="-2.29561">
        <ele>31.39999961853</ele>
        <time>2021-10-17T08:31:26.000Z</time>
      </trkpt>
      <trkpt lat="47.53028" lon="-2.29559">
        <ele>31.799999237061</ele>
        <time>2021-10-17T08:31:27.000Z</time>
      </trkpt>
      <trkpt lat="47.5303" lon="-2.29557">
        <ele>32.200000762939</ele>
        <time>2021-10-17T08:31:28.000Z</time>
      </trkpt>
      <trkpt lat="47.53032" lon="-2.29555">
        <ele>32.799999237061</ele>
        <time>2021-10-17T08:31:29.000Z</time>
      </trkpt>
      <trkpt lat="47.53039" lon="-2.29548">
        <ele>32.799999237061</ele>
        <time>2021-10-17T08:31:33.000Z</time>
      </trkpt>
      <trkpt lat="47.53047" lon="-2.29542">
        <ele>33.200000762939</ele>
        <time>2021-10-17T08:31:37.000Z</time>
      </trkpt>
      <trkpt lat="47.53049" lon="-2.29543">
        <ele>33.599998474121</ele>
        <time>2021-10-17T08:31:38.000Z</time>
      </trkpt>
      <trkpt lat="47.53051" lon="-2.29543">
        <ele>34</ele>
        <time>2021-10-17T08:31:39.000Z</time>
      </trkpt>
      <trkpt lat="47.53053" lon="-2.29543">
        <ele>34.400001525879</ele>
        <time>2021-10-17T08:31:40.000Z</time>
      </trkpt>
      <trkpt lat="47.53054" lon="-2.29542">
        <ele>34.799999237061</ele>
        <time>2021-10-17T08:31:41.000Z</time>
      </trkpt>
      <trkpt lat="47.53058" lon="-2.29536">
        <ele>34.799999237061</ele>
        <time>2021-10-17T08:31:44.000Z</time>
      </trkpt>
      <trkpt lat="47.53067" lon="-2.29535">
        <ele>34.799999237061</ele>
        <time>2021-10-17T08:31:49.000Z</time>
      </trkpt>
      <trkpt lat="47.53077" lon="-2.29547">
        <ele>34.799999237061</ele>
        <time>2021-10-17T08:31:55.000Z</time>
      </trkpt>
      <trkpt lat="47.5309" lon="-2.29556">
        <ele>34.799999237061</ele>
        <time>2021-10-17T08:32:01.000Z</time>
      </trkpt>
      <trkpt lat="47.53097" lon="-2.29551">
        <ele>34.799999237061</ele>
        <time>2021-10-17T08:32:04.000Z</time>
      </trkpt>
      <trkpt lat="47.53098" lon="-2.29547">
        <ele>34.799999237061</ele>
        <time>2021-10-17T08:32:05.000Z</time>
      </trkpt>
      <trkpt lat="47.531" lon="-2.29528">
        <ele>34.799999237061</ele>
        <time>2021-10-17T08:32:08.000Z</time>
      </trkpt>
      <trkpt lat="47.53098" lon="-2.29503">
        <ele>34.799999237061</ele>
        <time>2021-10-17T08:32:11.000Z</time>
      </trkpt>
      <trkpt lat="47.53097" lon="-2.2949">
        <ele>34.799999237061</ele>
        <time>2021-10-17T08:32:13.000Z</time>
      </trkpt>
      <trkpt lat="47.53107" lon="-2.29478">
        <ele>34.799999237061</ele>
        <time>2021-10-17T08:32:16.000Z</time>
      </trkpt>
      <trkpt lat="47.53114" lon="-2.29474">
        <ele>34.400001525879</ele>
        <time>2021-10-17T08:32:18.000Z</time>
      </trkpt>
      <trkpt lat="47.53116" lon="-2.29472">
        <ele>34</ele>
        <time>2021-10-17T08:32:19.000Z</time>
      </trkpt>
      <trkpt lat="47.53118" lon="-2.29471">
        <ele>33.599998474121</ele>
        <time>2021-10-17T08:32:20.000Z</time>
      </trkpt>
      <trkpt lat="47.53119" lon="-2.29469">
        <ele>33.200000762939</ele>
        <time>2021-10-17T08:32:21.000Z</time>
      </trkpt>
      <trkpt lat="47.53119" lon="-2.29467">
        <ele>32.799999237061</ele>
        <time>2021-10-17T08:32:22.000Z</time>
      </trkpt>
      <trkpt lat="47.53119" lon="-2.29465">
        <ele>32.799999237061</ele>
        <time>2021-10-17T08:32:23.000Z</time>
      </trkpt>
      <trkpt lat="47.53117" lon="-2.29457">
        <ele>32.799999237061</ele>
        <time>2021-10-17T08:32:26.000Z</time>
      </trkpt>
      <trkpt lat="47.53114" lon="-2.29451">
        <ele>32.799999237061</ele>
        <time>2021-10-17T08:32:29.000Z</time>
      </trkpt>
      <trkpt lat="47.5311" lon="-2.29444">
        <ele>32.799999237061</ele>
        <time>2021-10-17T08:32:32.000Z</time>
      </trkpt>
      <trkpt lat="47.53109" lon="-2.2944">
        <ele>32.200000762939</ele>
        <time>2021-10-17T08:32:33.000Z</time>
      </trkpt>
      <trkpt lat="47.53109" lon="-2.29437">
        <ele>31.799999237061</ele>
        <time>2021-10-17T08:32:34.000Z</time>
      </trkpt>
      <trkpt lat="47.53108" lon="-2.29434">
        <ele>31.39999961853</ele>
        <time>2021-10-17T08:32:35.000Z</time>
      </trkpt>
      <trkpt lat="47.53107" lon="-2.2943">
        <ele>31</ele>
        <time>2021-10-17T08:32:36.000Z</time>
      </trkpt>
      <trkpt lat="47.53106" lon="-2.29427">
        <ele>30.60000038147</ele>
        <time>2021-10-17T08:32:37.000Z</time>
      </trkpt>
      <trkpt lat="47.53103" lon="-2.29416">
        <ele>30.60000038147</ele>
        <time>2021-10-17T08:32:40.000Z</time>
      </trkpt>
      <trkpt lat="47.53102" lon="-2.29414">
        <ele>30.60000038147</ele>
        <time>2021-10-17T08:32:41.000Z</time>
      </trkpt>
      <trkpt lat="47.531" lon="-2.29409">
        <ele>30.60000038147</ele>
        <time>2021-10-17T08:32:44.000Z</time>
      </trkpt>
      <trkpt lat="47.53101" lon="-2.29403">
        <ele>30.200000762939</ele>
        <time>2021-10-17T08:32:46.000Z</time>
      </trkpt>
      <trkpt lat="47.53103" lon="-2.29398">
        <ele>29.60000038147</ele>
        <time>2021-10-17T08:32:47.000Z</time>
      </trkpt>
      <trkpt lat="47.53104" lon="-2.29394">
        <ele>28.799999237061</ele>
        <time>2021-10-17T08:32:48.000Z</time>
      </trkpt>
      <trkpt lat="47.53104" lon="-2.2939">
        <ele>28.39999961853</ele>
        <time>2021-10-17T08:32:49.000Z</time>
      </trkpt>
      <trkpt lat="47.53103" lon="-2.29386">
        <ele>27.799999237061</ele>
        <time>2021-10-17T08:32:50.000Z</time>
      </trkpt>
      <trkpt lat="47.53103" lon="-2.29384">
        <ele>27.200000762939</ele>
        <time>2021-10-17T08:32:51.000Z</time>
      </trkpt>
      <trkpt lat="47.53103" lon="-2.29384">
        <ele>26.799999237061</ele>
        <time>2021-10-17T08:32:52.000Z</time>
      </trkpt>
      <trkpt lat="47.53103" lon="-2.29382">
        <ele>26.200000762939</ele>
        <time>2021-10-17T08:32:53.000Z</time>
      </trkpt>
      <trkpt lat="47.53104" lon="-2.29375">
        <ele>25.60000038147</ele>
        <time>2021-10-17T08:33:01.000Z</time>
      </trkpt>
      <trkpt lat="47.53103" lon="-2.29372">
        <ele>25.60000038147</ele>
        <time>2021-10-17T08:33:02.000Z</time>
      </trkpt>
      <trkpt lat="47.53104" lon="-2.29352">
        <ele>25.60000038147</ele>
        <time>2021-10-17T08:33:08.000Z</time>
      </trkpt>
      <trkpt lat="47.53107" lon="-2.29347">
        <ele>25.60000038147</ele>
        <time>2021-10-17T08:33:11.000Z</time>
      </trkpt>
      <trkpt lat="47.53108" lon="-2.29345">
        <ele>24.799999237061</ele>
        <time>2021-10-17T08:33:12.000Z</time>
      </trkpt>
      <trkpt lat="47.53109" lon="-2.29344">
        <ele>24.200000762939</ele>
        <time>2021-10-17T08:33:13.000Z</time>
      </trkpt>
      <trkpt lat="47.5311" lon="-2.29342">
        <ele>23.799999237061</ele>
        <time>2021-10-17T08:33:14.000Z</time>
      </trkpt>
      <trkpt lat="47.53111" lon="-2.2934">
        <ele>23.39999961853</ele>
        <time>2021-10-17T08:33:15.000Z</time>
      </trkpt>
      <trkpt lat="47.53112" lon="-2.29338">
        <ele>23</ele>
        <time>2021-10-17T08:33:16.000Z</time>
      </trkpt>
      <trkpt lat="47.53114" lon="-2.29336">
        <ele>22.60000038147</ele>
        <time>2021-10-17T08:33:17.000Z</time>
      </trkpt>
      <trkpt lat="47.53116" lon="-2.29333">
        <ele>22</ele>
        <time>2021-10-17T08:33:18.000Z</time>
      </trkpt>
      <trkpt lat="47.53117" lon="-2.29329">
        <ele>21.60000038147</ele>
        <time>2021-10-17T08:33:19.000Z</time>
      </trkpt>
      <trkpt lat="47.53118" lon="-2.29325">
        <ele>21.200000762939</ele>
        <time>2021-10-17T08:33:20.000Z</time>
      </trkpt>
      <trkpt lat="47.53119" lon="-2.29322">
        <ele>20.799999237061</ele>
        <time>2021-10-17T08:33:21.000Z</time>
      </trkpt>
      <trkpt lat="47.53119" lon="-2.29319">
        <ele>20.200000762939</ele>
        <time>2021-10-17T08:33:22.000Z</time>
      </trkpt>
      <trkpt lat="47.53119" lon="-2.29318">
        <ele>19.799999237061</ele>
        <time>2021-10-17T08:33:23.000Z</time>
      </trkpt>
      <trkpt lat="47.53119" lon="-2.29317">
        <ele>19.39999961853</ele>
        <time>2021-10-17T08:33:24.000Z</time>
      </trkpt>
      <trkpt lat="47.53121" lon="-2.29305">
        <ele>19</ele>
        <time>2021-10-17T08:33:42.000Z</time>
      </trkpt>
      <trkpt lat="47.5312" lon="-2.29302">
        <ele>19</ele>
        <time>2021-10-17T08:33:43.000Z</time>
      </trkpt>
      <trkpt lat="47.53118" lon="-2.29292">
        <ele>19</ele>
        <time>2021-10-17T08:33:47.000Z</time>
      </trkpt>
      <trkpt lat="47.53115" lon="-2.29275">
        <ele>19</ele>
        <time>2021-10-17T08:33:53.000Z</time>
      </trkpt>
      <trkpt lat="47.53113" lon="-2.29273">
        <ele>19</ele>
        <time>2021-10-17T08:33:54.000Z</time>
      </trkpt>
      <trkpt lat="47.53102" lon="-2.29263">
        <ele>19</ele>
        <time>2021-10-17T08:34:00.000Z</time>
      </trkpt>
      <trkpt lat="47.53096" lon="-2.29257">
        <ele>19</ele>
        <time>2021-10-17T08:34:05.000Z</time>
      </trkpt>
      <trkpt lat="47.53095" lon="-2.29257">
        <ele>19</ele>
        <time>2021-10-17T08:34:06.000Z</time>
      </trkpt>
      <trkpt lat="47.53094" lon="-2.29259">
        <ele>19.39999961853</ele>
        <time>2021-10-17T08:34:07.000Z</time>
      </trkpt>
      <trkpt lat="47.53092" lon="-2.2926">
        <ele>19.799999237061</ele>
        <time>2021-10-17T08:34:08.000Z</time>
      </trkpt>
      <trkpt lat="47.53091" lon="-2.29262">
        <ele>20.200000762939</ele>
        <time>2021-10-17T08:34:09.000Z</time>
      </trkpt>
      <trkpt lat="47.53091" lon="-2.29263">
        <ele>20.60000038147</ele>
        <time>2021-10-17T08:34:10.000Z</time>
      </trkpt>
      <trkpt lat="47.5309" lon="-2.29263">
        <ele>21</ele>
        <time>2021-10-17T08:34:11.000Z</time>
      </trkpt>
      <trkpt lat="47.53086" lon="-2.2926">
        <ele>21</ele>
        <time>2021-10-17T08:34:14.000Z</time>
      </trkpt>
      <trkpt lat="47.53083" lon="-2.29258">
        <ele>21.39999961853</ele>
        <time>2021-10-17T08:34:15.000Z</time>
      </trkpt>
      <trkpt lat="47.53082" lon="-2.29256">
        <ele>22</ele>
        <time>2021-10-17T08:34:16.000Z</time>
      </trkpt>
      <trkpt lat="47.5308" lon="-2.29254">
        <ele>22.39999961853</ele>
        <time>2021-10-17T08:34:17.000Z</time>
      </trkpt>
      <trkpt lat="47.53078" lon="-2.29251">
        <ele>22.799999237061</ele>
        <time>2021-10-17T08:34:18.000Z</time>
      </trkpt>
      <trkpt lat="47.53076" lon="-2.29249">
        <ele>23.200000762939</ele>
        <time>2021-10-17T08:34:19.000Z</time>
      </trkpt>
      <trkpt lat="47.53074" lon="-2.29248">
        <ele>23.200000762939</ele>
        <time>2021-10-17T08:34:20.000Z</time>
      </trkpt>
      <trkpt lat="47.53067" lon="-2.29242">
        <ele>23.200000762939</ele>
        <time>2021-10-17T08:34:26.000Z</time>
      </trkpt>
      <trkpt lat="47.53067" lon="-2.29236">
        <ele>23.200000762939</ele>
        <time>2021-10-17T08:34:28.000Z</time>
      </trkpt>
      <trkpt lat="47.53069" lon="-2.29225">
        <ele>22.60000038147</ele>
        <time>2021-10-17T08:34:31.000Z</time>
      </trkpt>
      <trkpt lat="47.5307" lon="-2.29222">
        <ele>22.200000762939</ele>
        <time>2021-10-17T08:34:32.000Z</time>
      </trkpt>
      <trkpt lat="47.53071" lon="-2.2922">
        <ele>21.60000038147</ele>
        <time>2021-10-17T08:34:33.000Z</time>
      </trkpt>
      <trkpt lat="47.53074" lon="-2.29217">
        <ele>21.200000762939</ele>
        <time>2021-10-17T08:34:34.000Z</time>
      </trkpt>
      <trkpt lat="47.53077" lon="-2.29216">
        <ele>20.60000038147</ele>
        <time>2021-10-17T08:34:35.000Z</time>
      </trkpt>
      <trkpt lat="47.53078" lon="-2.29215">
        <ele>20.200000762939</ele>
        <time>2021-10-17T08:34:36.000Z</time>
      </trkpt>
      <trkpt lat="47.53081" lon="-2.29213">
        <ele>19.799999237061</ele>
        <time>2021-10-17T08:34:37.000Z</time>
      </trkpt>
      <trkpt lat="47.53082" lon="-2.29213">
        <ele>19.200000762939</ele>
        <time>2021-10-17T08:34:38.000Z</time>
      </trkpt>
      <trkpt lat="47.53085" lon="-2.29214">
        <ele>18.799999237061</ele>
        <time>2021-10-17T08:34:39.000Z</time>
      </trkpt>
      <trkpt lat="47.53086" lon="-2.29216">
        <ele>18.200000762939</ele>
        <time>2021-10-17T08:34:40.000Z</time>
      </trkpt>
      <trkpt lat="47.53088" lon="-2.29217">
        <ele>17.799999237061</ele>
        <time>2021-10-17T08:34:41.000Z</time>
      </trkpt>
      <trkpt lat="47.5309" lon="-2.29217">
        <ele>17.200000762939</ele>
        <time>2021-10-17T08:34:42.000Z</time>
      </trkpt>
      <trkpt lat="47.53091" lon="-2.29217">
        <ele>16.799999237061</ele>
        <time>2021-10-17T08:34:43.000Z</time>
      </trkpt>
      <trkpt lat="47.53092" lon="-2.29215">
        <ele>16.200000762939</ele>
        <time>2021-10-17T08:34:44.000Z</time>
      </trkpt>
      <trkpt lat="47.53093" lon="-2.29212">
        <ele>15.800000190735</ele>
        <time>2021-10-17T08:34:48.000Z</time>
      </trkpt>
      <trkpt lat="47.53095" lon="-2.29214">
        <ele>15.39999961853</ele>
        <time>2021-10-17T08:34:49.000Z</time>
      </trkpt>
      <trkpt lat="47.53098" lon="-2.29216">
        <ele>14.60000038147</ele>
        <time>2021-10-17T08:34:50.000Z</time>
      </trkpt>
      <trkpt lat="47.531" lon="-2.29217">
        <ele>14.199999809265</ele>
        <time>2021-10-17T08:34:51.000Z</time>
      </trkpt>
      <trkpt lat="47.53103" lon="-2.29222">
        <ele>14.199999809265</ele>
        <time>2021-10-17T08:34:54.000Z</time>
      </trkpt>
      <trkpt lat="47.53109" lon="-2.29227">
        <ele>13.800000190735</ele>
        <time>2021-10-17T08:34:58.000Z</time>
      </trkpt>
      <trkpt lat="47.53112" lon="-2.29229">
        <ele>13.199999809265</ele>
        <time>2021-10-17T08:34:59.000Z</time>
      </trkpt>
      <trkpt lat="47.53113" lon="-2.29229">
        <ele>12.800000190735</ele>
        <time>2021-10-17T08:35:00.000Z</time>
      </trkpt>
      <trkpt lat="47.53115" lon="-2.29229">
        <ele>12.39999961853</ele>
        <time>2021-10-17T08:35:01.000Z</time>
      </trkpt>
      <trkpt lat="47.53117" lon="-2.29227">
        <ele>12</ele>
        <time>2021-10-17T08:35:02.000Z</time>
      </trkpt>
      <trkpt lat="47.5312" lon="-2.29222">
        <ele>12</ele>
        <time>2021-10-17T08:35:04.000Z</time>
      </trkpt>
      <trkpt lat="47.53122" lon="-2.29219">
        <ele>11.60000038147</ele>
        <time>2021-10-17T08:35:05.000Z</time>
      </trkpt>
      <trkpt lat="47.53124" lon="-2.29217">
        <ele>11</ele>
        <time>2021-10-17T08:35:06.000Z</time>
      </trkpt>
      <trkpt lat="47.53126" lon="-2.29215">
        <ele>10.60000038147</ele>
        <time>2021-10-17T08:35:07.000Z</time>
      </trkpt>
      <trkpt lat="47.53128" lon="-2.29214">
        <ele>10</ele>
        <time>2021-10-17T08:35:08.000Z</time>
      </trkpt>
      <trkpt lat="47.5313" lon="-2.29214">
        <ele>9.6000003814697</ele>
        <time>2021-10-17T08:35:09.000Z</time>
      </trkpt>
      <trkpt lat="47.53132" lon="-2.29214">
        <ele>9.1999998092651</ele>
        <time>2021-10-17T08:35:10.000Z</time>
      </trkpt>
      <trkpt lat="47.53133" lon="-2.29216">
        <ele>8.8000001907349</ele>
        <time>2021-10-17T08:35:11.000Z</time>
      </trkpt>
      <trkpt lat="47.53134" lon="-2.29219">
        <ele>8.1999998092651</ele>
        <time>2021-10-17T08:35:12.000Z</time>
      </trkpt>
      <trkpt lat="47.53135" lon="-2.29221">
        <ele>7.8000001907349</ele>
        <time>2021-10-17T08:35:13.000Z</time>
      </trkpt>
      <trkpt lat="47.53135" lon="-2.29221">
        <ele>7.4000000953674</ele>
        <time>2021-10-17T08:35:14.000Z</time>
      </trkpt>
      <trkpt lat="47.53137" lon="-2.29238">
        <ele>7.4000000953674</ele>
        <time>2021-10-17T08:35:20.000Z</time>
      </trkpt>
      <trkpt lat="47.53147" lon="-2.29253">
        <ele>7.4000000953674</ele>
        <time>2021-10-17T08:35:27.000Z</time>
      </trkpt>
      <trkpt lat="47.53152" lon="-2.29267">
        <ele>7.4000000953674</ele>
        <time>2021-10-17T08:35:33.000Z</time>
      </trkpt>
      <trkpt lat="47.53151" lon="-2.29271">
        <ele>7.4000000953674</ele>
        <time>2021-10-17T08:35:34.000Z</time>
      </trkpt>
      <trkpt lat="47.5315" lon="-2.29283">
        <ele>7.4000000953674</ele>
        <time>2021-10-17T08:35:38.000Z</time>
      </trkpt>
      <trkpt lat="47.53149" lon="-2.2929">
        <ele>7.4000000953674</ele>
        <time>2021-10-17T08:35:41.000Z</time>
      </trkpt>
      <trkpt lat="47.53147" lon="-2.29299">
        <ele>7.4000000953674</ele>
        <time>2021-10-17T08:35:43.000Z</time>
      </trkpt>
      <trkpt lat="47.53143" lon="-2.29313">
        <ele>7.8000001907349</ele>
        <time>2021-10-17T08:35:48.000Z</time>
      </trkpt>
      <trkpt lat="47.53142" lon="-2.29316">
        <ele>8.1999998092651</ele>
        <time>2021-10-17T08:35:49.000Z</time>
      </trkpt>
      <trkpt lat="47.53141" lon="-2.29318">
        <ele>8.6000003814697</ele>
        <time>2021-10-17T08:35:50.000Z</time>
      </trkpt>
      <trkpt lat="47.5314" lon="-2.29321">
        <ele>9.1999998092651</ele>
        <time>2021-10-17T08:35:51.000Z</time>
      </trkpt>
      <trkpt lat="47.53138" lon="-2.29325">
        <ele>9.6000003814697</ele>
        <time>2021-10-17T08:35:52.000Z</time>
      </trkpt>
      <trkpt lat="47.53137" lon="-2.29328">
        <ele>9.6000003814697</ele>
        <time>2021-10-17T08:35:53.000Z</time>
      </trkpt>
      <trkpt lat="47.5313" lon="-2.29338">
        <ele>10</ele>
        <time>2021-10-17T08:35:58.000Z</time>
      </trkpt>
      <trkpt lat="47.5313" lon="-2.2934">
        <ele>10.39999961853</ele>
        <time>2021-10-17T08:35:59.000Z</time>
      </trkpt>
      <trkpt lat="47.53128" lon="-2.29342">
        <ele>10.800000190735</ele>
        <time>2021-10-17T08:36:00.000Z</time>
      </trkpt>
      <trkpt lat="47.53127" lon="-2.29343">
        <ele>11.199999809265</ele>
        <time>2021-10-17T08:36:01.000Z</time>
      </trkpt>
      <trkpt lat="47.53126" lon="-2.29345">
        <ele>11.60000038147</ele>
        <time>2021-10-17T08:36:02.000Z</time>
      </trkpt>
      <trkpt lat="47.53126" lon="-2.29347">
        <ele>11.60000038147</ele>
        <time>2021-10-17T08:36:03.000Z</time>
      </trkpt>
      <trkpt lat="47.53125" lon="-2.29349">
        <ele>12</ele>
        <time>2021-10-17T08:36:04.000Z</time>
      </trkpt>
      <trkpt lat="47.53125" lon="-2.29351">
        <ele>13</ele>
        <time>2021-10-17T08:36:05.000Z</time>
      </trkpt>
      <trkpt lat="47.53124" lon="-2.29353">
        <ele>13.39999961853</ele>
        <time>2021-10-17T08:36:06.000Z</time>
      </trkpt>
      <trkpt lat="47.53123" lon="-2.29355">
        <ele>13.800000190735</ele>
        <time>2021-10-17T08:36:07.000Z</time>
      </trkpt>
      <trkpt lat="47.53123" lon="-2.29359">
        <ele>14.199999809265</ele>
        <time>2021-10-17T08:36:09.000Z</time>
      </trkpt>
      <trkpt lat="47.53122" lon="-2.29361">
        <ele>14.60000038147</ele>
        <time>2021-10-17T08:36:10.000Z</time>
      </trkpt>
      <trkpt lat="47.53122" lon="-2.29364">
        <ele>15</ele>
        <time>2021-10-17T08:36:11.000Z</time>
      </trkpt>
      <trkpt lat="47.53123" lon="-2.29367">
        <ele>15.39999961853</ele>
        <time>2021-10-17T08:36:12.000Z</time>
      </trkpt>
      <trkpt lat="47.53123" lon="-2.29371">
        <ele>15.800000190735</ele>
        <time>2021-10-17T08:36:13.000Z</time>
      </trkpt>
      <trkpt lat="47.53123" lon="-2.29378">
        <ele>16.200000762939</ele>
        <time>2021-10-17T08:36:16.000Z</time>
      </trkpt>
      <trkpt lat="47.53123" lon="-2.2938">
        <ele>16.799999237061</ele>
        <time>2021-10-17T08:36:17.000Z</time>
      </trkpt>
      <trkpt lat="47.53123" lon="-2.29382">
        <ele>17.200000762939</ele>
        <time>2021-10-17T08:36:18.000Z</time>
      </trkpt>
      <trkpt lat="47.53123" lon="-2.29384">
        <ele>17.60000038147</ele>
        <time>2021-10-17T08:36:19.000Z</time>
      </trkpt>
      <trkpt lat="47.53124" lon="-2.29387">
        <ele>18</ele>
        <time>2021-10-17T08:36:20.000Z</time>
      </trkpt>
      <trkpt lat="47.53128" lon="-2.29391">
        <ele>18.39999961853</ele>
        <time>2021-10-17T08:36:24.000Z</time>
      </trkpt>
      <trkpt lat="47.53128" lon="-2.29392">
        <ele>19</ele>
        <time>2021-10-17T08:36:25.000Z</time>
      </trkpt>
      <trkpt lat="47.5313" lon="-2.29394">
        <ele>19.39999961853</ele>
        <time>2021-10-17T08:36:26.000Z</time>
      </trkpt>
      <trkpt lat="47.53132" lon="-2.29396">
        <ele>19.799999237061</ele>
        <time>2021-10-17T08:36:27.000Z</time>
      </trkpt>
      <trkpt lat="47.53134" lon="-2.29398">
        <ele>20.200000762939</ele>
        <time>2021-10-17T08:36:28.000Z</time>
      </trkpt>
      <trkpt lat="47.53138" lon="-2.29404">
        <ele>20.200000762939</ele>
        <time>2021-10-17T08:36:31.000Z</time>
      </trkpt>
      <trkpt lat="47.53142" lon="-2.29414">
        <ele>20.60000038147</ele>
        <time>2021-10-17T08:36:36.000Z</time>
      </trkpt>
      <trkpt lat="47.53143" lon="-2.29414">
        <ele>21</ele>
        <time>2021-10-17T08:36:37.000Z</time>
      </trkpt>
      <trkpt lat="47.53154" lon="-2.29439">
        <ele>22.200000762939</ele>
        <time>2021-10-17T08:37:10.000Z</time>
      </trkpt>
      <trkpt lat="47.53162" lon="-2.29443">
        <ele>22.200000762939</ele>
        <time>2021-10-17T08:37:13.000Z</time>
      </trkpt>
      <trkpt lat="47.53167" lon="-2.29446">
        <ele>21.60000038147</ele>
        <time>2021-10-17T08:37:17.000Z</time>
      </trkpt>
      <trkpt lat="47.53168" lon="-2.29446">
        <ele>20.39999961853</ele>
        <time>2021-10-17T08:37:18.000Z</time>
      </trkpt>
      <trkpt lat="47.53169" lon="-2.29446">
        <ele>21</ele>
        <time>2021-10-17T08:37:19.000Z</time>
      </trkpt>
      <trkpt lat="47.53172" lon="-2.29461">
        <ele>20.799999237061</ele>
        <time>2021-10-17T08:37:32.000Z</time>
      </trkpt>
      <trkpt lat="47.53173" lon="-2.29467">
        <ele>20.799999237061</ele>
        <time>2021-10-17T08:37:34.000Z</time>
      </trkpt>
      <trkpt lat="47.53171" lon="-2.29474">
        <ele>21.200000762939</ele>
        <time>2021-10-17T08:37:38.000Z</time>
      </trkpt>
      <trkpt lat="47.53171" lon="-2.29477">
        <ele>21.60000038147</ele>
        <time>2021-10-17T08:37:39.000Z</time>
      </trkpt>
      <trkpt lat="47.5317" lon="-2.29479">
        <ele>22.200000762939</ele>
        <time>2021-10-17T08:37:40.000Z</time>
      </trkpt>
      <trkpt lat="47.53171" lon="-2.29481">
        <ele>22.60000038147</ele>
        <time>2021-10-17T08:37:41.000Z</time>
      </trkpt>
      <trkpt lat="47.53171" lon="-2.29482">
        <ele>23</ele>
        <time>2021-10-17T08:37:42.000Z</time>
      </trkpt>
      <trkpt lat="47.53172" lon="-2.29488">
        <ele>23</ele>
        <time>2021-10-17T08:37:45.000Z</time>
      </trkpt>
      <trkpt lat="47.53175" lon="-2.29503">
        <ele>23.39999961853</ele>
        <time>2021-10-17T08:37:51.000Z</time>
      </trkpt>
      <trkpt lat="47.53175" lon="-2.29506">
        <ele>23.799999237061</ele>
        <time>2021-10-17T08:37:52.000Z</time>
      </trkpt>
      <trkpt lat="47.53176" lon="-2.29509">
        <ele>24.200000762939</ele>
        <time>2021-10-17T08:37:53.000Z</time>
      </trkpt>
      <trkpt lat="47.53176" lon="-2.29511">
        <ele>24.60000038147</ele>
        <time>2021-10-17T08:37:54.000Z</time>
      </trkpt>
      <trkpt lat="47.53175" lon="-2.29515">
        <ele>25</ele>
        <time>2021-10-17T08:37:55.000Z</time>
      </trkpt>
      <trkpt lat="47.53173" lon="-2.2952">
        <ele>25</ele>
        <time>2021-10-17T08:37:57.000Z</time>
      </trkpt>
      <trkpt lat="47.53172" lon="-2.29527">
        <ele>25.39999961853</ele>
        <time>2021-10-17T08:38:00.000Z</time>
      </trkpt>
      <trkpt lat="47.53172" lon="-2.2953">
        <ele>25.799999237061</ele>
        <time>2021-10-17T08:38:01.000Z</time>
      </trkpt>
      <trkpt lat="47.53171" lon="-2.29533">
        <ele>26.200000762939</ele>
        <time>2021-10-17T08:38:02.000Z</time>
      </trkpt>
      <trkpt lat="47.53171" lon="-2.29536">
        <ele>26.60000038147</ele>
        <time>2021-10-17T08:38:03.000Z</time>
      </trkpt>
      <trkpt lat="47.53171" lon="-2.29538">
        <ele>27</ele>
        <time>2021-10-17T08:38:04.000Z</time>
      </trkpt>
      <trkpt lat="47.5317" lon="-2.29549">
        <ele>27</ele>
        <time>2021-10-17T08:38:09.000Z</time>
      </trkpt>
      <trkpt lat="47.53169" lon="-2.29551">
        <ele>27.39999961853</ele>
        <time>2021-10-17T08:38:10.000Z</time>
      </trkpt>
      <trkpt lat="47.53167" lon="-2.29553">
        <ele>27.799999237061</ele>
        <time>2021-10-17T08:38:11.000Z</time>
      </trkpt>
      <trkpt lat="47.53166" lon="-2.29555">
        <ele>28.200000762939</ele>
        <time>2021-10-17T08:38:12.000Z</time>
      </trkpt>
      <trkpt lat="47.53166" lon="-2.29556">
        <ele>28.60000038147</ele>
        <time>2021-10-17T08:38:13.000Z</time>
      </trkpt>
      <trkpt lat="47.53165" lon="-2.29557">
        <ele>29</ele>
        <time>2021-10-17T08:38:14.000Z</time>
      </trkpt>
      <trkpt lat="47.53164" lon="-2.29558">
        <ele>29</ele>
        <time>2021-10-17T08:38:15.000Z</time>
      </trkpt>
      <trkpt lat="47.5316" lon="-2.2956">
        <ele>29.39999961853</ele>
        <time>2021-10-17T08:38:18.000Z</time>
      </trkpt>
      <trkpt lat="47.53158" lon="-2.29561">
        <ele>29.799999237061</ele>
        <time>2021-10-17T08:38:19.000Z</time>
      </trkpt>
      <trkpt lat="47.53157" lon="-2.29562">
        <ele>30.200000762939</ele>
        <time>2021-10-17T08:38:20.000Z</time>
      </trkpt>
      <trkpt lat="47.53156" lon="-2.29563">
        <ele>30.60000038147</ele>
        <time>2021-10-17T08:38:21.000Z</time>
      </trkpt>
      <trkpt lat="47.53156" lon="-2.29565">
        <ele>31</ele>
        <time>2021-10-17T08:38:22.000Z</time>
      </trkpt>
      <trkpt lat="47.53156" lon="-2.29568">
        <ele>31</ele>
        <time>2021-10-17T08:38:23.000Z</time>
      </trkpt>
      <trkpt lat="47.53154" lon="-2.29582">
        <ele>31</ele>
        <time>2021-10-17T08:38:27.000Z</time>
      </trkpt>
      <trkpt lat="47.5315" lon="-2.296">
        <ele>31</ele>
        <time>2021-10-17T08:38:33.000Z</time>
      </trkpt>
      <trkpt lat="47.53151" lon="-2.29612">
        <ele>31</ele>
        <time>2021-10-17T08:38:37.000Z</time>
      </trkpt>
      <trkpt lat="47.53154" lon="-2.29617">
        <ele>31</ele>
        <time>2021-10-17T08:38:39.000Z</time>
      </trkpt>
      <trkpt lat="47.53158" lon="-2.29645">
        <ele>31</ele>
        <time>2021-10-17T08:38:46.000Z</time>
      </trkpt>
      <trkpt lat="47.53159" lon="-2.29669">
        <ele>31</ele>
        <time>2021-10-17T08:38:52.000Z</time>
      </trkpt>
      <trkpt lat="47.53162" lon="-2.29696">
        <ele>31</ele>
        <time>2021-10-17T08:38:58.000Z</time>
      </trkpt>
      <trkpt lat="47.53167" lon="-2.29724">
        <ele>31</ele>
        <time>2021-10-17T08:39:05.000Z</time>
      </trkpt>
      <trkpt lat="47.53156" lon="-2.29752">
        <ele>31</ele>
        <time>2021-10-17T08:39:11.000Z</time>
      </trkpt>
      <trkpt lat="47.53153" lon="-2.29764">
        <ele>31</ele>
        <time>2021-10-17T08:39:13.000Z</time>
      </trkpt>
      <trkpt lat="47.53152" lon="-2.29777">
        <ele>30.60000038147</ele>
        <time>2021-10-17T08:39:15.000Z</time>
      </trkpt>
      <trkpt lat="47.53153" lon="-2.29782">
        <ele>30.200000762939</ele>
        <time>2021-10-17T08:39:16.000Z</time>
      </trkpt>
      <trkpt lat="47.53153" lon="-2.29786">
        <ele>29.799999237061</ele>
        <time>2021-10-17T08:39:17.000Z</time>
      </trkpt>
      <trkpt lat="47.53154" lon="-2.29789">
        <ele>29.39999961853</ele>
        <time>2021-10-17T08:39:18.000Z</time>
      </trkpt>
      <trkpt lat="47.53154" lon="-2.29788">
        <ele>29</ele>
        <time>2021-10-17T08:39:19.000Z</time>
      </trkpt>
      <trkpt lat="47.53153" lon="-2.29789">
        <ele>29</ele>
        <time>2021-10-17T08:39:20.000Z</time>
      </trkpt>
      <trkpt lat="47.53154" lon="-2.29791">
        <ele>29</ele>
        <time>2021-10-17T08:40:20.000Z</time>
      </trkpt>
      <trkpt lat="47.53154" lon="-2.29798">
        <ele>29</ele>
        <time>2021-10-17T08:40:23.000Z</time>
      </trkpt>
      <trkpt lat="47.53155" lon="-2.2981">
        <ele>29</ele>
        <time>2021-10-17T08:40:29.000Z</time>
      </trkpt>
      <trkpt lat="47.53155" lon="-2.29813">
        <ele>29</ele>
        <time>2021-10-17T08:40:30.000Z</time>
      </trkpt>
      <trkpt lat="47.53155" lon="-2.29823">
        <ele>29</ele>
        <time>2021-10-17T08:40:35.000Z</time>
      </trkpt>
      <trkpt lat="47.53163" lon="-2.29856">
        <ele>22.60000038147</ele>
        <time>2021-10-17T08:41:15.000Z</time>
      </trkpt>
      <trkpt lat="47.53165" lon="-2.29858">
        <ele>22.60000038147</ele>
        <time>2021-10-17T08:41:16.000Z</time>
      </trkpt>
      <trkpt lat="47.53167" lon="-2.29861">
        <ele>22.200000762939</ele>
        <time>2021-10-17T08:41:18.000Z</time>
      </trkpt>
      <trkpt lat="47.53169" lon="-2.29863">
        <ele>21.60000038147</ele>
        <time>2021-10-17T08:41:19.000Z</time>
      </trkpt>
      <trkpt lat="47.53171" lon="-2.29863">
        <ele>21.200000762939</ele>
        <time>2021-10-17T08:41:20.000Z</time>
      </trkpt>
      <trkpt lat="47.53173" lon="-2.29864">
        <ele>20.60000038147</ele>
        <time>2021-10-17T08:41:21.000Z</time>
      </trkpt>
      <trkpt lat="47.53179" lon="-2.29866">
        <ele>20.200000762939</ele>
        <time>2021-10-17T08:41:22.000Z</time>
      </trkpt>
      <trkpt lat="47.53184" lon="-2.29868">
        <ele>19.799999237061</ele>
        <time>2021-10-17T08:41:23.000Z</time>
      </trkpt>
      <trkpt lat="47.53189" lon="-2.29868">
        <ele>19.39999961853</ele>
        <time>2021-10-17T08:41:24.000Z</time>
      </trkpt>
      <trkpt lat="47.53194" lon="-2.29866">
        <ele>18.39999961853</ele>
        <time>2021-10-17T08:41:25.000Z</time>
      </trkpt>
      <trkpt lat="47.53199" lon="-2.29863">
        <ele>18</ele>
        <time>2021-10-17T08:41:26.000Z</time>
      </trkpt>
      <trkpt lat="47.53213" lon="-2.29849">
        <ele>18</ele>
        <time>2021-10-17T08:41:31.000Z</time>
      </trkpt>
      <trkpt lat="47.53215" lon="-2.29847">
        <ele>18</ele>
        <time>2021-10-17T08:41:32.000Z</time>
      </trkpt>
      <trkpt lat="47.53219" lon="-2.29841">
        <ele>18</ele>
        <time>2021-10-17T08:41:34.000Z</time>
      </trkpt>
      <trkpt lat="47.5322" lon="-2.29839">
        <ele>18</ele>
        <time>2021-10-17T08:41:35.000Z</time>
      </trkpt>
      <trkpt lat="47.53221" lon="-2.29836">
        <ele>18.60000038147</ele>
        <time>2021-10-17T08:41:36.000Z</time>
      </trkpt>
      <trkpt lat="47.53222" lon="-2.29833">
        <ele>19</ele>
        <time>2021-10-17T08:41:37.000Z</time>
      </trkpt>
      <trkpt lat="47.53222" lon="-2.2983">
        <ele>19.39999961853</ele>
        <time>2021-10-17T08:41:38.000Z</time>
      </trkpt>
      <trkpt lat="47.53222" lon="-2.29827">
        <ele>19.799999237061</ele>
        <time>2021-10-17T08:41:39.000Z</time>
      </trkpt>
      <trkpt lat="47.53222" lon="-2.29825">
        <ele>20.200000762939</ele>
        <time>2021-10-17T08:41:40.000Z</time>
      </trkpt>
      <trkpt lat="47.53222" lon="-2.2982">
        <ele>20.60000038147</ele>
        <time>2021-10-17T08:41:42.000Z</time>
      </trkpt>
      <trkpt lat="47.53221" lon="-2.29817">
        <ele>21</ele>
        <time>2021-10-17T08:41:43.000Z</time>
      </trkpt>
      <trkpt lat="47.53221" lon="-2.29814">
        <ele>21.39999961853</ele>
        <time>2021-10-17T08:41:44.000Z</time>
      </trkpt>
      <trkpt lat="47.53221" lon="-2.2981">
        <ele>21.799999237061</ele>
        <time>2021-10-17T08:41:45.000Z</time>
      </trkpt>
      <trkpt lat="47.53221" lon="-2.29806">
        <ele>22.200000762939</ele>
        <time>2021-10-17T08:41:46.000Z</time>
      </trkpt>
      <trkpt lat="47.53221" lon="-2.29797">
        <ele>22.200000762939</ele>
        <time>2021-10-17T08:41:48.000Z</time>
      </trkpt>
      <trkpt lat="47.53221" lon="-2.29767">
        <ele>22.200000762939</ele>
        <time>2021-10-17T08:41:54.000Z</time>
      </trkpt>
      <trkpt lat="47.53219" lon="-2.29738">
        <ele>22.200000762939</ele>
        <time>2021-10-17T08:42:00.000Z</time>
      </trkpt>
      <trkpt lat="47.53225" lon="-2.29722">
        <ele>22.200000762939</ele>
        <time>2021-10-17T08:42:04.000Z</time>
      </trkpt>
      <trkpt lat="47.53227" lon="-2.29714">
        <ele>22.799999237061</ele>
        <time>2021-10-17T08:42:06.000Z</time>
      </trkpt>
      <trkpt lat="47.53227" lon="-2.2971">
        <ele>23.200000762939</ele>
        <time>2021-10-17T08:42:07.000Z</time>
      </trkpt>
      <trkpt lat="47.53227" lon="-2.29705">
        <ele>23.60000038147</ele>
        <time>2021-10-17T08:42:08.000Z</time>
      </trkpt>
      <trkpt lat="47.53227" lon="-2.297">
        <ele>24.200000762939</ele>
        <time>2021-10-17T08:42:09.000Z</time>
      </trkpt>
      <trkpt lat="47.53227" lon="-2.29694">
        <ele>24.60000038147</ele>
        <time>2021-10-17T08:42:10.000Z</time>
      </trkpt>
      <trkpt lat="47.53228" lon="-2.29685">
        <ele>24.60000038147</ele>
        <time>2021-10-17T08:42:12.000Z</time>
      </trkpt>
      <trkpt lat="47.53234" lon="-2.29685">
        <ele>24.60000038147</ele>
        <time>2021-10-17T08:42:15.000Z</time>
      </trkpt>
      <trkpt lat="47.53238" lon="-2.29693">
        <ele>24.200000762939</ele>
        <time>2021-10-17T08:42:17.000Z</time>
      </trkpt>
      <trkpt lat="47.53239" lon="-2.29696">
        <ele>23.799999237061</ele>
        <time>2021-10-17T08:42:18.000Z</time>
      </trkpt>
      <trkpt lat="47.5324" lon="-2.29698">
        <ele>23.200000762939</ele>
        <time>2021-10-17T08:42:19.000Z</time>
      </trkpt>
      <trkpt lat="47.53242" lon="-2.29699">
        <ele>22.799999237061</ele>
        <time>2021-10-17T08:42:20.000Z</time>
      </trkpt>
      <trkpt lat="47.53244" lon="-2.29701">
        <ele>22.39999961853</ele>
        <time>2021-10-17T08:42:21.000Z</time>
      </trkpt>
      <trkpt lat="47.53248" lon="-2.29702">
        <ele>22.39999961853</ele>
        <time>2021-10-17T08:42:22.000Z</time>
      </trkpt>
      <trkpt lat="47.53251" lon="-2.29703">
        <ele>22.39999961853</ele>
        <time>2021-10-17T08:42:23.000Z</time>
      </trkpt>
      <trkpt lat="47.53255" lon="-2.29703">
        <ele>22</ele>
        <time>2021-10-17T08:42:24.000Z</time>
      </trkpt>
      <trkpt lat="47.5326" lon="-2.29703">
        <ele>21.60000038147</ele>
        <time>2021-10-17T08:42:25.000Z</time>
      </trkpt>
      <trkpt lat="47.53264" lon="-2.29704">
        <ele>21.200000762939</ele>
        <time>2021-10-17T08:42:26.000Z</time>
      </trkpt>
      <trkpt lat="47.53269" lon="-2.29704">
        <ele>20.799999237061</ele>
        <time>2021-10-17T08:42:27.000Z</time>
      </trkpt>
      <trkpt lat="47.53273" lon="-2.29704">
        <ele>20.200000762939</ele>
        <time>2021-10-17T08:42:28.000Z</time>
      </trkpt>
      <trkpt lat="47.53278" lon="-2.29704">
        <ele>19.39999961853</ele>
        <time>2021-10-17T08:42:29.000Z</time>
      </trkpt>
      <trkpt lat="47.53282" lon="-2.29703">
        <ele>18.799999237061</ele>
        <time>2021-10-17T08:42:30.000Z</time>
      </trkpt>
      <trkpt lat="47.53286" lon="-2.29703">
        <ele>18</ele>
        <time>2021-10-17T08:42:31.000Z</time>
      </trkpt>
      <trkpt lat="47.53289" lon="-2.29704">
        <ele>17.39999961853</ele>
        <time>2021-10-17T08:42:32.000Z</time>
      </trkpt>
      <trkpt lat="47.53293" lon="-2.29705">
        <ele>16.60000038147</ele>
        <time>2021-10-17T08:42:33.000Z</time>
      </trkpt>
      <trkpt lat="47.53297" lon="-2.29705">
        <ele>16</ele>
        <time>2021-10-17T08:42:34.000Z</time>
      </trkpt>
      <trkpt lat="47.53301" lon="-2.29706">
        <ele>15.199999809265</ele>
        <time>2021-10-17T08:42:35.000Z</time>
      </trkpt>
      <trkpt lat="47.53305" lon="-2.29707">
        <ele>14.39999961853</ele>
        <time>2021-10-17T08:42:36.000Z</time>
      </trkpt>
      <trkpt lat="47.53308" lon="-2.29708">
        <ele>13.800000190735</ele>
        <time>2021-10-17T08:42:37.000Z</time>
      </trkpt>
      <trkpt lat="47.53311" lon="-2.2971">
        <ele>13</ele>
        <time>2021-10-17T08:42:38.000Z</time>
      </trkpt>
      <trkpt lat="47.53314" lon="-2.29712">
        <ele>12.199999809265</ele>
        <time>2021-10-17T08:42:39.000Z</time>
      </trkpt>
      <trkpt lat="47.53316" lon="-2.29713">
        <ele>10.800000190735</ele>
        <time>2021-10-17T08:42:40.000Z</time>
      </trkpt>
      <trkpt lat="47.53318" lon="-2.29715">
        <ele>10.199999809265</ele>
        <time>2021-10-17T08:42:41.000Z</time>
      </trkpt>
      <trkpt lat="47.5332" lon="-2.29716">
        <ele>9.6000003814697</ele>
        <time>2021-10-17T08:42:42.000Z</time>
      </trkpt>
      <trkpt lat="47.53323" lon="-2.29717">
        <ele>9</ele>
        <time>2021-10-17T08:42:43.000Z</time>
      </trkpt>
      <trkpt lat="47.53326" lon="-2.29719">
        <ele>8.3999996185303</ele>
        <time>2021-10-17T08:42:44.000Z</time>
      </trkpt>
      <trkpt lat="47.53329" lon="-2.2972">
        <ele>7.8000001907349</ele>
        <time>2021-10-17T08:42:45.000Z</time>
      </trkpt>
      <trkpt lat="47.53333" lon="-2.29722">
        <ele>7</ele>
        <time>2021-10-17T08:42:46.000Z</time>
      </trkpt>
      <trkpt lat="47.53336" lon="-2.29724">
        <ele>6.4000000953674</ele>
        <time>2021-10-17T08:42:47.000Z</time>
      </trkpt>
      <trkpt lat="47.5334" lon="-2.29726">
        <ele>5.8000001907349</ele>
        <time>2021-10-17T08:42:48.000Z</time>
      </trkpt>
      <trkpt lat="47.53344" lon="-2.29728">
        <ele>5</ele>
        <time>2021-10-17T08:42:49.000Z</time>
      </trkpt>
      <trkpt lat="47.53348" lon="-2.2973">
        <ele>4.4000000953674</ele>
        <time>2021-10-17T08:42:50.000Z</time>
      </trkpt>
      <trkpt lat="47.53352" lon="-2.29731">
        <ele>3.7999999523163</ele>
        <time>2021-10-17T08:42:51.000Z</time>
      </trkpt>
      <trkpt lat="47.53355" lon="-2.29733">
        <ele>3</ele>
        <time>2021-10-17T08:42:52.000Z</time>
      </trkpt>
      <trkpt lat="47.53358" lon="-2.29735">
        <ele>2.2000000476837</ele>
        <time>2021-10-17T08:42:53.000Z</time>
      </trkpt>
      <trkpt lat="47.53361" lon="-2.29737">
        <ele>1.3999999761581</ele>
        <time>2021-10-17T08:42:54.000Z</time>
      </trkpt>
      <trkpt lat="47.53364" lon="-2.29738">
        <ele>0.80000001192093</ele>
        <time>2021-10-17T08:42:55.000Z</time>
      </trkpt>
      <trkpt lat="47.53366" lon="-2.29738">
        <ele>7.8</ele>
        <time>2021-10-17T08:42:56.000Z</time>
      </trkpt>
      <trkpt lat="47.53369" lon="-2.29736">
        <ele>-0.60000002384186</ele>
        <time>2021-10-17T08:42:57.000Z</time>
      </trkpt>
      <trkpt lat="47.53372" lon="-2.29735">
        <ele>-1.3999999761581</ele>
        <time>2021-10-17T08:42:58.000Z</time>
      </trkpt>
      <trkpt lat="47.53374" lon="-2.29734">
        <ele>-2</ele>
        <time>2021-10-17T08:42:59.000Z</time>
      </trkpt>
      <trkpt lat="47.53375" lon="-2.29733">
        <ele>-2.5999999046326</ele>
        <time>2021-10-17T08:43:00.000Z</time>
      </trkpt>
      <trkpt lat="47.53375" lon="-2.29732">
        <ele>-3.2000000476837</ele>
        <time>2021-10-17T08:43:01.000Z</time>
      </trkpt>
      <trkpt lat="47.53375" lon="-2.29731">
        <ele>-3.7999999523163</ele>
        <time>2021-10-17T08:43:02.000Z</time>
      </trkpt>
      <trkpt lat="47.53374" lon="-2.29731">
        <ele>-4.4000000953674</ele>
        <time>2021-10-17T08:43:03.000Z</time>
      </trkpt>
      <trkpt lat="47.53373" lon="-2.2973">
        <ele>-4.4000000953674</ele>
        <time>2021-10-17T08:43:05.000Z</time>
      </trkpt>
      <trkpt lat="47.5337" lon="-2.29727">
        <ele>-4.4000000953674</ele>
        <time>2021-10-17T08:43:20.000Z</time>
      </trkpt>
      <trkpt lat="47.53369" lon="-2.29726">
        <ele>-4.4000000953674</ele>
        <time>2021-10-17T08:43:21.000Z</time>
      </trkpt>
      <trkpt lat="47.53361" lon="-2.29711">
        <ele>-4.4000000953674</ele>
        <time>2021-10-17T08:43:26.000Z</time>
      </trkpt>
      <trkpt lat="47.53351" lon="-2.29689">
        <ele>-4.4000000953674</ele>
        <time>2021-10-17T08:43:31.000Z</time>
      </trkpt>
      <trkpt lat="47.53345" lon="-2.29649">
        <ele>-4.4000000953674</ele>
        <time>2021-10-17T08:43:38.000Z</time>
      </trkpt>
      <trkpt lat="47.53329" lon="-2.29633">
        <ele>-4.4000000953674</ele>
        <time>2021-10-17T08:43:43.000Z</time>
      </trkpt>
      <trkpt lat="47.53326" lon="-2.29632">
        <ele>-4</ele>
        <time>2021-10-17T08:43:44.000Z</time>
      </trkpt>
      <trkpt lat="47.53322" lon="-2.2963">
        <ele>-3.4000000953674</ele>
        <time>2021-10-17T08:43:45.000Z</time>
      </trkpt>
      <trkpt lat="47.53319" lon="-2.29629">
        <ele>-3</ele>
        <time>2021-10-17T08:43:46.000Z</time>
      </trkpt>
      <trkpt lat="47.53315" lon="-2.29628">
        <ele>-2.5999999046326</ele>
        <time>2021-10-17T08:43:47.000Z</time>
      </trkpt>
      <trkpt lat="47.53311" lon="-2.29627">
        <ele>-2.2000000476837</ele>
        <time>2021-10-17T08:43:48.000Z</time>
      </trkpt>
      <trkpt lat="47.53308" lon="-2.29625">
        <ele>-2.2000000476837</ele>
        <time>2021-10-17T08:43:49.000Z</time>
      </trkpt>
      <trkpt lat="47.53286" lon="-2.29615">
        <ele>-1.7999999523163</ele>
        <time>2021-10-17T08:43:55.000Z</time>
      </trkpt>
      <trkpt lat="47.53284" lon="-2.29612">
        <ele>-1.3999999761581</ele>
        <time>2021-10-17T08:43:56.000Z</time>
      </trkpt>
      <trkpt lat="47.53281" lon="-2.29609">
        <ele>-1</ele>
        <time>2021-10-17T08:43:57.000Z</time>
      </trkpt>
      <trkpt lat="47.5328" lon="-2.29606">
        <ele>-0.60000002384186</ele>
        <time>2021-10-17T08:43:58.000Z</time>
      </trkpt>
      <trkpt lat="47.53279" lon="-2.29602">
        <ele>-0.20000000298023</ele>
        <time>2021-10-17T08:43:59.000Z</time>
      </trkpt>
      <trkpt lat="47.53279" lon="-2.29579">
        <ele>-0.20000000298023</ele>
        <time>2021-10-17T08:44:03.000Z</time>
      </trkpt>
      <trkpt lat="47.53281" lon="-2.29528">
        <ele>-0.20000000298023</ele>
        <time>2021-10-17T08:44:09.000Z</time>
      </trkpt>
      <trkpt lat="47.53282" lon="-2.29509">
        <ele>-0.60000002384186</ele>
        <time>2021-10-17T08:44:11.000Z</time>
      </trkpt>
      <trkpt lat="47.53283" lon="-2.29502">
        <ele>-1</ele>
        <time>2021-10-17T08:44:12.000Z</time>
      </trkpt>
      <trkpt lat="47.53286" lon="-2.29496">
        <ele>-1.3999999761581</ele>
        <time>2021-10-17T08:44:13.000Z</time>
      </trkpt>
      <trkpt lat="47.53289" lon="-2.29492">
        <ele>-1.7999999523163</ele>
        <time>2021-10-17T08:44:14.000Z</time>
      </trkpt>
      <trkpt lat="47.53294" lon="-2.29489">
        <ele>-2.4000000953674</ele>
        <time>2021-10-17T08:44:15.000Z</time>
      </trkpt>
      <trkpt lat="47.53299" lon="-2.29486">
        <ele>-2.4000000953674</ele>
        <time>2021-10-17T08:44:16.000Z</time>
      </trkpt>
      <trkpt lat="47.5332" lon="-2.29472">
        <ele>-2.4000000953674</ele>
        <time>2021-10-17T08:44:20.000Z</time>
      </trkpt>
      <trkpt lat="47.53337" lon="-2.29457">
        <ele>-2.4000000953674</ele>
        <time>2021-10-17T08:44:24.000Z</time>
      </trkpt>
      <trkpt lat="47.53344" lon="-2.29447">
        <ele>-2.4000000953674</ele>
        <time>2021-10-17T08:44:26.000Z</time>
      </trkpt>
      <trkpt lat="47.53355" lon="-2.29422">
        <ele>-1.7999999523163</ele>
        <time>2021-10-17T08:44:31.000Z</time>
      </trkpt>
      <trkpt lat="47.53356" lon="-2.29417">
        <ele>-1.3999999761581</ele>
        <time>2021-10-17T08:44:32.000Z</time>
      </trkpt>
      <trkpt lat="47.53358" lon="-2.29412">
        <ele>-1</ele>
        <time>2021-10-17T08:44:33.000Z</time>
      </trkpt>
      <trkpt lat="47.53359" lon="-2.29407">
        <ele>-0.40000000596046</ele>
        <time>2021-10-17T08:44:34.000Z</time>
      </trkpt>
      <trkpt lat="47.5336" lon="-2.29402">
        <ele>11</ele>
        <time>2021-10-17T08:44:35.000Z</time>
      </trkpt>
      <trkpt lat="47.53362" lon="-2.29386">
        <ele>11.3</ele>
        <time>2021-10-17T08:44:38.000Z</time>
      </trkpt>
      <trkpt lat="47.53364" lon="-2.29381">
        <ele>0.40000000596046</ele>
        <time>2021-10-17T08:44:39.000Z</time>
      </trkpt>
      <trkpt lat="47.53365" lon="-2.29376">
        <ele>0.80000001192093</ele>
        <time>2021-10-17T08:44:40.000Z</time>
      </trkpt>
      <trkpt lat="47.53367" lon="-2.29371">
        <ele>1.2000000476837</ele>
        <time>2021-10-17T08:44:41.000Z</time>
      </trkpt>
      <trkpt lat="47.5337" lon="-2.29366">
        <ele>1.7999999523163</ele>
        <time>2021-10-17T08:44:42.000Z</time>
      </trkpt>
      <trkpt lat="47.53372" lon="-2.29362">
        <ele>2.2000000476837</ele>
        <time>2021-10-17T08:44:43.000Z</time>
      </trkpt>
      <trkpt lat="47.53375" lon="-2.29357">
        <ele>2.2000000476837</ele>
        <time>2021-10-17T08:44:44.000Z</time>
      </trkpt>
      <trkpt lat="47.53383" lon="-2.29345">
        <ele>2.2000000476837</ele>
        <time>2021-10-17T08:44:47.000Z</time>
      </trkpt>
      <trkpt lat="47.53394" lon="-2.29335">
        <ele>2.2000000476837</ele>
        <time>2021-10-17T08:44:50.000Z</time>
      </trkpt>
      <trkpt lat="47.53416" lon="-2.29313">
        <ele>2.2000000476837</ele>
        <time>2021-10-17T08:44:57.000Z</time>
      </trkpt>
      <trkpt lat="47.53416" lon="-2.29309">
        <ele>2.2000000476837</ele>
        <time>2021-10-17T08:44:58.000Z</time>
      </trkpt>
      <trkpt lat="47.53415" lon="-2.29299">
        <ele>2.2000000476837</ele>
        <time>2021-10-17T08:45:00.000Z</time>
      </trkpt>
      <trkpt lat="47.53414" lon="-2.29283">
        <ele>2.2000000476837</ele>
        <time>2021-10-17T08:45:03.000Z</time>
      </trkpt>
      <trkpt lat="47.53412" lon="-2.29271">
        <ele>2.2000000476837</ele>
        <time>2021-10-17T08:45:05.000Z</time>
      </trkpt>
      <trkpt lat="47.53401" lon="-2.29224">
        <ele>2.2000000476837</ele>
        <time>2021-10-17T08:45:12.000Z</time>
      </trkpt>
      <trkpt lat="47.53391" lon="-2.2917">
        <ele>2.2000000476837</ele>
        <time>2021-10-17T08:45:19.000Z</time>
      </trkpt>
      <trkpt lat="47.5338" lon="-2.29118">
        <ele>1.7999999523163</ele>
        <time>2021-10-17T08:45:25.000Z</time>
      </trkpt>
      <trkpt lat="47.53379" lon="-2.29109">
        <ele>1.3999999761581</ele>
        <time>2021-10-17T08:45:26.000Z</time>
      </trkpt>
      <trkpt lat="47.53376" lon="-2.29101">
        <ele>1</ele>
        <time>2021-10-17T08:45:27.000Z</time>
      </trkpt>
      <trkpt lat="47.53374" lon="-2.29092">
        <ele>0.60000002384186</ele>
        <time>2021-10-17T08:45:28.000Z</time>
      </trkpt>
      <trkpt lat="47.53371" lon="-2.29085">
        <ele>0.20000000298023</ele>
        <time>2021-10-17T08:45:29.000Z</time>
      </trkpt>
      <trkpt lat="47.53368" lon="-2.29078">
        <ele>0.20000000298023</ele>
        <time>2021-10-17T08:45:30.000Z</time>
      </trkpt>
      <trkpt lat="47.53364" lon="-2.29072">
        <ele>0.20000000298023</ele>
        <time>2021-10-17T08:45:31.000Z</time>
      </trkpt>
      <trkpt lat="47.53361" lon="-2.29066">
        <ele>0.20000000298023</ele>
        <time>2021-10-17T08:45:32.000Z</time>
      </trkpt>
      <trkpt lat="47.53344" lon="-2.29046">
        <ele>0.20000000298023</ele>
        <time>2021-10-17T08:45:36.000Z</time>
      </trkpt>
      <trkpt lat="47.53332" lon="-2.29033">
        <ele>-0.40000000596046</ele>
        <time>2021-10-17T08:45:39.000Z</time>
      </trkpt>
      <trkpt lat="47.53327" lon="-2.29032">
        <ele>-0.80000001192093</ele>
        <time>2021-10-17T08:45:40.000Z</time>
      </trkpt>
      <trkpt lat="47.53322" lon="-2.29035">
        <ele>-1.2000000476837</ele>
        <time>2021-10-17T08:45:41.000Z</time>
      </trkpt>
      <trkpt lat="47.53317" lon="-2.29038">
        <ele>-1.6000000238419</ele>
        <time>2021-10-17T08:45:42.000Z</time>
      </trkpt>
      <trkpt lat="47.53312" lon="-2.29042">
        <ele>-2</ele>
        <time>2021-10-17T08:45:43.000Z</time>
      </trkpt>
      <trkpt lat="47.53307" lon="-2.29046">
        <ele>-2</ele>
        <time>2021-10-17T08:45:44.000Z</time>
      </trkpt>
      <trkpt lat="47.53291" lon="-2.29055">
        <ele>-2</ele>
        <time>2021-10-17T08:45:47.000Z</time>
      </trkpt>
      <trkpt lat="47.53279" lon="-2.29058">
        <ele>-2</ele>
        <time>2021-10-17T08:45:49.000Z</time>
      </trkpt>
      <trkpt lat="47.53258" lon="-2.29062">
        <ele>-2</ele>
        <time>2021-10-17T08:45:53.000Z</time>
      </trkpt>
      <trkpt lat="47.53254" lon="-2.29066">
        <ele>-2</ele>
        <time>2021-10-17T08:45:54.000Z</time>
      </trkpt>
      <trkpt lat="47.53247" lon="-2.29082">
        <ele>-2.4000000953674</ele>
        <time>2021-10-17T08:45:57.000Z</time>
      </trkpt>
      <trkpt lat="47.53245" lon="-2.29087">
        <ele>-2.7999999523163</ele>
        <time>2021-10-17T08:45:58.000Z</time>
      </trkpt>
      <trkpt lat="47.53244" lon="-2.29091">
        <ele>-3.2000000476837</ele>
        <time>2021-10-17T08:45:59.000Z</time>
      </trkpt>
      <trkpt lat="47.53243" lon="-2.29095">
        <ele>-3.5999999046326</ele>
        <time>2021-10-17T08:46:00.000Z</time>
      </trkpt>
      <trkpt lat="47.53242" lon="-2.29098">
        <ele>-4</ele>
        <time>2021-10-17T08:46:01.000Z</time>
      </trkpt>
      <trkpt lat="47.53241" lon="-2.29103">
        <ele>-4</ele>
        <time>2021-10-17T08:46:03.000Z</time>
      </trkpt>
      <trkpt lat="47.53236" lon="-2.29115">
        <ele>-4</ele>
        <time>2021-10-17T08:46:08.000Z</time>
      </trkpt>
      <trkpt lat="47.53236" lon="-2.29128">
        <ele>-4</ele>
        <time>2021-10-17T08:46:13.000Z</time>
      </trkpt>
      <trkpt lat="47.53236" lon="-2.2913">
        <ele>-4</ele>
        <time>2021-10-17T08:46:14.000Z</time>
      </trkpt>
      <trkpt lat="47.53234" lon="-2.29135">
        <ele>-4</ele>
        <time>2021-10-17T08:46:17.000Z</time>
      </trkpt>
      <trkpt lat="47.53231" lon="-2.2914">
        <ele>-4</ele>
        <time>2021-10-17T08:46:21.000Z</time>
      </trkpt>
      <trkpt lat="47.5323" lon="-2.29142">
        <ele>-4</ele>
        <time>2021-10-17T08:46:22.000Z</time>
      </trkpt>
      <trkpt lat="47.53224" lon="-2.29159">
        <ele>-4</ele>
        <time>2021-10-17T08:46:27.000Z</time>
      </trkpt>
      <trkpt lat="47.5321" lon="-2.29173">
        <ele>-4</ele>
        <time>2021-10-17T08:46:33.000Z</time>
      </trkpt>
      <trkpt lat="47.53199" lon="-2.29165">
        <ele>-4</ele>
        <time>2021-10-17T08:46:37.000Z</time>
      </trkpt>
      <trkpt lat="47.53197" lon="-2.29162">
        <ele>-4</ele>
        <time>2021-10-17T08:46:38.000Z</time>
      </trkpt>
      <trkpt lat="47.53193" lon="-2.29155">
        <ele>-3.5999999046326</ele>
        <time>2021-10-17T08:46:40.000Z</time>
      </trkpt>
      <trkpt lat="47.53192" lon="-2.29152">
        <ele>-3.2000000476837</ele>
        <time>2021-10-17T08:46:41.000Z</time>
      </trkpt>
      <trkpt lat="47.5319" lon="-2.29149">
        <ele>-2.5999999046326</ele>
        <time>2021-10-17T08:46:42.000Z</time>
      </trkpt>
      <trkpt lat="47.53189" lon="-2.29146">
        <ele>-2.2000000476837</ele>
        <time>2021-10-17T08:46:43.000Z</time>
      </trkpt>
      <trkpt lat="47.53188" lon="-2.29143">
        <ele>-1.7999999523163</ele>
        <time>2021-10-17T08:46:44.000Z</time>
      </trkpt>
      <trkpt lat="47.53185" lon="-2.29137">
        <ele>-1.3999999761581</ele>
        <time>2021-10-17T08:46:46.000Z</time>
      </trkpt>
      <trkpt lat="47.53184" lon="-2.29134">
        <ele>-0.60000002384186</ele>
        <time>2021-10-17T08:46:47.000Z</time>
      </trkpt>
      <trkpt lat="47.53183" lon="-2.29131">
        <ele>11.7</ele>
        <time>2021-10-17T08:46:48.000Z</time>
      </trkpt>
      <trkpt lat="47.53182" lon="-2.29127">
        <ele>0.40000000596046</ele>
        <time>2021-10-17T08:46:49.000Z</time>
      </trkpt>
      <trkpt lat="47.53175" lon="-2.29102">
        <ele>0.40000000596046</ele>
        <time>2021-10-17T08:46:55.000Z</time>
      </trkpt>
      <trkpt lat="47.53165" lon="-2.29064">
        <ele>0.40000000596046</ele>
        <time>2021-10-17T08:47:02.000Z</time>
      </trkpt>
      <trkpt lat="47.53152" lon="-2.29018">
        <ele>0.40000000596046</ele>
        <time>2021-10-17T08:47:09.000Z</time>
      </trkpt>
      <trkpt lat="47.5315" lon="-2.29012">
        <ele>0.40000000596046</ele>
        <time>2021-10-17T08:47:10.000Z</time>
      </trkpt>
      <trkpt lat="47.53143" lon="-2.28989">
        <ele>0.40000000596046</ele>
        <time>2021-10-17T08:47:14.000Z</time>
      </trkpt>
      <trkpt lat="47.53132" lon="-2.28961">
        <ele>0.40000000596046</ele>
        <time>2021-10-17T08:47:19.000Z</time>
      </trkpt>
      <trkpt lat="47.53129" lon="-2.28955">
        <ele>0.40000000596046</ele>
        <time>2021-10-17T08:47:20.000Z</time>
      </trkpt>
      <trkpt lat="47.53117" lon="-2.28931">
        <ele>0.40000000596046</ele>
        <time>2021-10-17T08:47:24.000Z</time>
      </trkpt>
      <trkpt lat="47.53112" lon="-2.28919">
        <ele>0.40000000596046</ele>
        <time>2021-10-17T08:47:26.000Z</time>
      </trkpt>
      <trkpt lat="47.5311" lon="-2.28898">
        <ele>0.40000000596046</ele>
        <time>2021-10-17T08:47:29.000Z</time>
      </trkpt>
      <trkpt lat="47.53111" lon="-2.28891">
        <ele>0.40000000596046</ele>
        <time>2021-10-17T08:47:30.000Z</time>
      </trkpt>
      <trkpt lat="47.53112" lon="-2.28885">
        <ele>0.40000000596046</ele>
        <time>2021-10-17T08:47:31.000Z</time>
      </trkpt>
      <trkpt lat="47.53108" lon="-2.28875">
        <ele>0.40000000596046</ele>
        <time>2021-10-17T08:47:33.000Z</time>
      </trkpt>
      <trkpt lat="47.53099" lon="-2.28864">
        <ele>0.40000000596046</ele>
        <time>2021-10-17T08:47:36.000Z</time>
      </trkpt>
      <trkpt lat="47.53096" lon="-2.28859">
        <ele>0.40000000596046</ele>
        <time>2021-10-17T08:47:37.000Z</time>
      </trkpt>
      <trkpt lat="47.53093" lon="-2.28854">
        <ele>0.40000000596046</ele>
        <time>2021-10-17T08:47:38.000Z</time>
      </trkpt>
      <trkpt lat="47.53071" lon="-2.28821">
        <ele>0.40000000596046</ele>
        <time>2021-10-17T08:47:45.000Z</time>
      </trkpt>
      <trkpt lat="47.53062" lon="-2.28807">
        <ele>0.40000000596046</ele>
        <time>2021-10-17T08:47:48.000Z</time>
      </trkpt>
      <trkpt lat="47.53053" lon="-2.28793">
        <ele>0.40000000596046</ele>
        <time>2021-10-17T08:47:51.000Z</time>
      </trkpt>
      <trkpt lat="47.53035" lon="-2.28756">
        <ele>0.40000000596046</ele>
        <time>2021-10-17T08:47:58.000Z</time>
      </trkpt>
      <trkpt lat="47.53026" lon="-2.28735">
        <ele>0.80000001192093</ele>
        <time>2021-10-17T08:48:02.000Z</time>
      </trkpt>
      <trkpt lat="47.53024" lon="-2.2873">
        <ele>1.2000000476837</ele>
        <time>2021-10-17T08:48:03.000Z</time>
      </trkpt>
      <trkpt lat="47.53022" lon="-2.28725">
        <ele>1.6000000238419</ele>
        <time>2021-10-17T08:48:04.000Z</time>
      </trkpt>
      <trkpt lat="47.5302" lon="-2.28719">
        <ele>2</ele>
        <time>2021-10-17T08:48:05.000Z</time>
      </trkpt>
      <trkpt lat="47.53018" lon="-2.28714">
        <ele>2.4000000953674</ele>
        <time>2021-10-17T08:48:06.000Z</time>
      </trkpt>
      <trkpt lat="47.53008" lon="-2.28689">
        <ele>2.4000000953674</ele>
        <time>2021-10-17T08:48:11.000Z</time>
      </trkpt>
      <trkpt lat="47.52995" lon="-2.28667">
        <ele>2.4000000953674</ele>
        <time>2021-10-17T08:48:16.000Z</time>
      </trkpt>
      <trkpt lat="47.52988" lon="-2.28653">
        <ele>2.7999999523163</ele>
        <time>2021-10-17T08:48:19.000Z</time>
      </trkpt>
      <trkpt lat="47.52986" lon="-2.28649">
        <ele>3.2000000476837</ele>
        <time>2021-10-17T08:48:20.000Z</time>
      </trkpt>
      <trkpt lat="47.52984" lon="-2.28644">
        <ele>3.5999999046326</ele>
        <time>2021-10-17T08:48:21.000Z</time>
      </trkpt>
      <trkpt lat="47.52982" lon="-2.2864">
        <ele>4</ele>
        <time>2021-10-17T08:48:22.000Z</time>
      </trkpt>
      <trkpt lat="47.52981" lon="-2.28636">
        <ele>4.4000000953674</ele>
        <time>2021-10-17T08:48:23.000Z</time>
      </trkpt>
      <trkpt lat="47.52971" lon="-2.28609">
        <ele>4.4000000953674</ele>
        <time>2021-10-17T08:48:29.000Z</time>
      </trkpt>
      <trkpt lat="47.52968" lon="-2.28601">
        <ele>5</ele>
        <time>2021-10-17T08:48:31.000Z</time>
      </trkpt>
      <trkpt lat="47.52966" lon="-2.28597">
        <ele>5.4000000953674</ele>
        <time>2021-10-17T08:48:32.000Z</time>
      </trkpt>
      <trkpt lat="47.52965" lon="-2.28594">
        <ele>5.8000001907349</ele>
        <time>2021-10-17T08:48:33.000Z</time>
      </trkpt>
      <trkpt lat="47.52963" lon="-2.28591">
        <ele>6.4000000953674</ele>
        <time>2021-10-17T08:48:34.000Z</time>
      </trkpt>
      <trkpt lat="47.52961" lon="-2.28589">
        <ele>6.8000001907349</ele>
        <time>2021-10-17T08:48:35.000Z</time>
      </trkpt>
      <trkpt lat="47.52958" lon="-2.28588">
        <ele>6.8000001907349</ele>
        <time>2021-10-17T08:48:36.000Z</time>
      </trkpt>
      <trkpt lat="47.5295" lon="-2.28589">
        <ele>6.8000001907349</ele>
        <time>2021-10-17T08:48:39.000Z</time>
      </trkpt>
      <trkpt lat="47.52948" lon="-2.28592">
        <ele>7.1999998092651</ele>
        <time>2021-10-17T08:48:40.000Z</time>
      </trkpt>
      <trkpt lat="47.52946" lon="-2.28594">
        <ele>7.5999999046326</ele>
        <time>2021-10-17T08:48:41.000Z</time>
      </trkpt>
      <trkpt lat="47.52944" lon="-2.28597">
        <ele>8</ele>
        <time>2021-10-17T08:48:42.000Z</time>
      </trkpt>
      <trkpt lat="47.52942" lon="-2.286">
        <ele>8.3999996185303</ele>
        <time>2021-10-17T08:48:43.000Z</time>
      </trkpt>
      <trkpt lat="47.5294" lon="-2.28603">
        <ele>8.8000001907349</ele>
        <time>2021-10-17T08:48:44.000Z</time>
      </trkpt>
      <trkpt lat="47.52929" lon="-2.28621">
        <ele>9.6000003814697</ele>
        <time>2021-10-17T08:48:50.000Z</time>
      </trkpt>
      <trkpt lat="47.52927" lon="-2.28624">
        <ele>10</ele>
        <time>2021-10-17T08:48:51.000Z</time>
      </trkpt>
      <trkpt lat="47.52925" lon="-2.28627">
        <ele>10.39999961853</ele>
        <time>2021-10-17T08:48:52.000Z</time>
      </trkpt>
      <trkpt lat="47.52923" lon="-2.2863">
        <ele>11</ele>
        <time>2021-10-17T08:48:53.000Z</time>
      </trkpt>
      <trkpt lat="47.52909" lon="-2.2865">
        <ele>11.39999961853</ele>
        <time>2021-10-17T08:49:00.000Z</time>
      </trkpt>
      <trkpt lat="47.52908" lon="-2.28653">
        <ele>11.800000190735</ele>
        <time>2021-10-17T08:49:01.000Z</time>
      </trkpt>
      <trkpt lat="47.52906" lon="-2.28656">
        <ele>12.199999809265</ele>
        <time>2021-10-17T08:49:02.000Z</time>
      </trkpt>
      <trkpt lat="47.52904" lon="-2.28658">
        <ele>12.60000038147</ele>
        <time>2021-10-17T08:49:03.000Z</time>
      </trkpt>
      <trkpt lat="47.52902" lon="-2.28661">
        <ele>13</ele>
        <time>2021-10-17T08:49:04.000Z</time>
      </trkpt>
      <trkpt lat="47.52892" lon="-2.28676">
        <ele>13</ele>
        <time>2021-10-17T08:49:09.000Z</time>
      </trkpt>
      <trkpt lat="47.52886" lon="-2.28685">
        <ele>13.39999961853</ele>
        <time>2021-10-17T08:49:12.000Z</time>
      </trkpt>
      <trkpt lat="47.52884" lon="-2.28688">
        <ele>13.800000190735</ele>
        <time>2021-10-17T08:49:13.000Z</time>
      </trkpt>
      <trkpt lat="47.52881" lon="-2.28691">
        <ele>14.199999809265</ele>
        <time>2021-10-17T08:49:14.000Z</time>
      </trkpt>
      <trkpt lat="47.52879" lon="-2.28695">
        <ele>15.199999809265</ele>
        <time>2021-10-17T08:49:15.000Z</time>
      </trkpt>
      <trkpt lat="47.52875" lon="-2.28702">
        <ele>15.199999809265</ele>
        <time>2021-10-17T08:49:17.000Z</time>
      </trkpt>
      <trkpt lat="47.52867" lon="-2.28716">
        <ele>15.60000038147</ele>
        <time>2021-10-17T08:49:21.000Z</time>
      </trkpt>
      <trkpt lat="47.52865" lon="-2.28719">
        <ele>16</ele>
        <time>2021-10-17T08:49:22.000Z</time>
      </trkpt>
      <trkpt lat="47.52862" lon="-2.28722">
        <ele>16.39999961853</ele>
        <time>2021-10-17T08:49:23.000Z</time>
      </trkpt>
      <trkpt lat="47.5286" lon="-2.28725">
        <ele>16.799999237061</ele>
        <time>2021-10-17T08:49:24.000Z</time>
      </trkpt>
      <trkpt lat="47.52858" lon="-2.28728">
        <ele>17.39999961853</ele>
        <time>2021-10-17T08:49:25.000Z</time>
      </trkpt>
      <trkpt lat="47.52856" lon="-2.28732">
        <ele>17.39999961853</ele>
        <time>2021-10-17T08:49:26.000Z</time>
      </trkpt>
      <trkpt lat="47.52849" lon="-2.28742">
        <ele>17.39999961853</ele>
        <time>2021-10-17T08:49:30.000Z</time>
      </trkpt>
      <trkpt lat="47.52848" lon="-2.28745">
        <ele>17.799999237061</ele>
        <time>2021-10-17T08:49:31.000Z</time>
      </trkpt>
      <trkpt lat="47.52846" lon="-2.28748">
        <ele>18.200000762939</ele>
        <time>2021-10-17T08:49:32.000Z</time>
      </trkpt>
      <trkpt lat="47.52844" lon="-2.2875">
        <ele>18.60000038147</ele>
        <time>2021-10-17T08:49:33.000Z</time>
      </trkpt>
      <trkpt lat="47.52842" lon="-2.28753">
        <ele>19</ele>
        <time>2021-10-17T08:49:34.000Z</time>
      </trkpt>
      <trkpt lat="47.52839" lon="-2.28756">
        <ele>19.39999961853</ele>
        <time>2021-10-17T08:49:35.000Z</time>
      </trkpt>
      <trkpt lat="47.52837" lon="-2.28759">
        <ele>19.39999961853</ele>
        <time>2021-10-17T08:49:36.000Z</time>
      </trkpt>
      <trkpt lat="47.5283" lon="-2.28771">
        <ele>19.799999237061</ele>
        <time>2021-10-17T08:49:40.000Z</time>
      </trkpt>
      <trkpt lat="47.52828" lon="-2.28773">
        <ele>20.200000762939</ele>
        <time>2021-10-17T08:49:41.000Z</time>
      </trkpt>
      <trkpt lat="47.52826" lon="-2.28774">
        <ele>20.60000038147</ele>
        <time>2021-10-17T08:49:42.000Z</time>
      </trkpt>
      <trkpt lat="47.52825" lon="-2.28777">
        <ele>21</ele>
        <time>2021-10-17T08:49:43.000Z</time>
      </trkpt>
      <trkpt lat="47.52823" lon="-2.28779">
        <ele>21.39999961853</ele>
        <time>2021-10-17T08:49:44.000Z</time>
      </trkpt>
      <trkpt lat="47.52818" lon="-2.28789">
        <ele>21.39999961853</ele>
        <time>2021-10-17T08:49:47.000Z</time>
      </trkpt>
      <trkpt lat="47.52809" lon="-2.28802">
        <ele>22</ele>
        <time>2021-10-17T08:49:51.000Z</time>
      </trkpt>
      <trkpt lat="47.52807" lon="-2.28805">
        <ele>22.39999961853</ele>
        <time>2021-10-17T08:49:52.000Z</time>
      </trkpt>
      <trkpt lat="47.52804" lon="-2.28807">
        <ele>22.799999237061</ele>
        <time>2021-10-17T08:49:53.000Z</time>
      </trkpt>
      <trkpt lat="47.52802" lon="-2.2881">
        <ele>23.200000762939</ele>
        <time>2021-10-17T08:49:54.000Z</time>
      </trkpt>
      <trkpt lat="47.528" lon="-2.28813">
        <ele>23.60000038147</ele>
        <time>2021-10-17T08:49:55.000Z</time>
      </trkpt>
      <trkpt lat="47.52789" lon="-2.28827">
        <ele>24</ele>
        <time>2021-10-17T08:50:00.000Z</time>
      </trkpt>
      <trkpt lat="47.52787" lon="-2.2883">
        <ele>24.39999961853</ele>
        <time>2021-10-17T08:50:01.000Z</time>
      </trkpt>
      <trkpt lat="47.52785" lon="-2.28833">
        <ele>24.799999237061</ele>
        <time>2021-10-17T08:50:02.000Z</time>
      </trkpt>
      <trkpt lat="47.52782" lon="-2.28836">
        <ele>25.200000762939</ele>
        <time>2021-10-17T08:50:03.000Z</time>
      </trkpt>
      <trkpt lat="47.5278" lon="-2.28838">
        <ele>25.60000038147</ele>
        <time>2021-10-17T08:50:04.000Z</time>
      </trkpt>
      <trkpt lat="47.52771" lon="-2.28851">
        <ele>26</ele>
        <time>2021-10-17T08:50:08.000Z</time>
      </trkpt>
      <trkpt lat="47.52769" lon="-2.28854">
        <ele>26.60000038147</ele>
        <time>2021-10-17T08:50:09.000Z</time>
      </trkpt>
      <trkpt lat="47.52766" lon="-2.28857">
        <ele>27</ele>
        <time>2021-10-17T08:50:10.000Z</time>
      </trkpt>
      <trkpt lat="47.52764" lon="-2.2886">
        <ele>27.39999961853</ele>
        <time>2021-10-17T08:50:11.000Z</time>
      </trkpt>
      <trkpt lat="47.52762" lon="-2.28862">
        <ele>27.799999237061</ele>
        <time>2021-10-17T08:50:12.000Z</time>
      </trkpt>
      <trkpt lat="47.52748" lon="-2.28878">
        <ele>27.799999237061</ele>
        <time>2021-10-17T08:50:18.000Z</time>
      </trkpt>
      <trkpt lat="47.52732" lon="-2.28899">
        <ele>28.200000762939</ele>
        <time>2021-10-17T08:50:25.000Z</time>
      </trkpt>
      <trkpt lat="47.52729" lon="-2.28902">
        <ele>28.799999237061</ele>
        <time>2021-10-17T08:50:26.000Z</time>
      </trkpt>
      <trkpt lat="47.52727" lon="-2.28904">
        <ele>29.200000762939</ele>
        <time>2021-10-17T08:50:27.000Z</time>
      </trkpt>
      <trkpt lat="47.52724" lon="-2.28906">
        <ele>29.60000038147</ele>
        <time>2021-10-17T08:50:28.000Z</time>
      </trkpt>
      <trkpt lat="47.52722" lon="-2.28909">
        <ele>30</ele>
        <time>2021-10-17T08:50:29.000Z</time>
      </trkpt>
      <trkpt lat="47.52713" lon="-2.2892">
        <ele>30</ele>
        <time>2021-10-17T08:50:33.000Z</time>
      </trkpt>
      <trkpt lat="47.52704" lon="-2.28931">
        <ele>30.39999961853</ele>
        <time>2021-10-17T08:50:38.000Z</time>
      </trkpt>
      <trkpt lat="47.52703" lon="-2.28932">
        <ele>30.799999237061</ele>
        <time>2021-10-17T08:50:39.000Z</time>
      </trkpt>
      <trkpt lat="47.52702" lon="-2.28935">
        <ele>31.200000762939</ele>
        <time>2021-10-17T08:50:40.000Z</time>
      </trkpt>
      <trkpt lat="47.52702" lon="-2.28938">
        <ele>31.60000038147</ele>
        <time>2021-10-17T08:50:41.000Z</time>
      </trkpt>
      <trkpt lat="47.52703" lon="-2.28942">
        <ele>32</ele>
        <time>2021-10-17T08:50:42.000Z</time>
      </trkpt>
      <trkpt lat="47.52704" lon="-2.28945">
        <ele>32</ele>
        <time>2021-10-17T08:50:43.000Z</time>
      </trkpt>
      <trkpt lat="47.52704" lon="-2.28949">
        <ele>32</ele>
        <time>2021-10-17T08:50:44.000Z</time>
      </trkpt>
      <trkpt lat="47.52711" lon="-2.28974">
        <ele>32</ele>
        <time>2021-10-17T08:50:51.000Z</time>
      </trkpt>
      <trkpt lat="47.52716" lon="-2.29009">
        <ele>32</ele>
        <time>2021-10-17T08:50:59.000Z</time>
      </trkpt>
      <trkpt lat="47.5272" lon="-2.29046">
        <ele>32</ele>
        <time>2021-10-17T08:51:05.000Z</time>
      </trkpt>
      <trkpt lat="47.52727" lon="-2.29105">
        <ele>32</ele>
        <time>2021-10-17T08:51:13.000Z</time>
      </trkpt>
      <trkpt lat="47.52731" lon="-2.29153">
        <ele>32</ele>
        <time>2021-10-17T08:51:19.000Z</time>
      </trkpt>
      <trkpt lat="47.52735" lon="-2.292">
        <ele>32</ele>
        <time>2021-10-17T08:51:25.000Z</time>
      </trkpt>
      <trkpt lat="47.52747" lon="-2.2921">
        <ele>31.60000038147</ele>
        <time>2021-10-17T08:51:28.000Z</time>
      </trkpt>
      <trkpt lat="47.52753" lon="-2.29208">
        <ele>31.200000762939</ele>
        <time>2021-10-17T08:51:29.000Z</time>
      </trkpt>
      <trkpt lat="47.52758" lon="-2.29205">
        <ele>30.799999237061</ele>
        <time>2021-10-17T08:51:30.000Z</time>
      </trkpt>
      <trkpt lat="47.52764" lon="-2.29203">
        <ele>30.39999961853</ele>
        <time>2021-10-17T08:51:31.000Z</time>
      </trkpt>
      <trkpt lat="47.5277" lon="-2.292">
        <ele>30</ele>
        <time>2021-10-17T08:51:32.000Z</time>
      </trkpt>
      <trkpt lat="47.52817" lon="-2.2918">
        <ele>30</ele>
        <time>2021-10-17T08:51:40.000Z</time>
      </trkpt>
      <trkpt lat="47.52867" lon="-2.29159">
        <ele>30</ele>
        <time>2021-10-17T08:51:49.000Z</time>
      </trkpt>
      <trkpt lat="47.52889" lon="-2.2915">
        <ele>30</ele>
        <time>2021-10-17T08:51:55.000Z</time>
      </trkpt>
      <trkpt lat="47.52901" lon="-2.29146">
        <ele>30</ele>
        <time>2021-10-17T08:52:00.000Z</time>
      </trkpt>
      <trkpt lat="47.52908" lon="-2.29143">
        <ele>30</ele>
        <time>2021-10-17T08:52:06.000Z</time>
      </trkpt>
      <trkpt lat="47.52917" lon="-2.2914">
        <ele>30</ele>
        <time>2021-10-17T08:52:11.000Z</time>
      </trkpt>
      <trkpt lat="47.52923" lon="-2.29137">
        <ele>29.60000038147</ele>
        <time>2021-10-17T08:52:14.000Z</time>
      </trkpt>
      <trkpt lat="47.52925" lon="-2.29136">
        <ele>29</ele>
        <time>2021-10-17T08:52:15.000Z</time>
      </trkpt>
      <trkpt lat="47.52928" lon="-2.29135">
        <ele>28.60000038147</ele>
        <time>2021-10-17T08:52:16.000Z</time>
      </trkpt>
      <trkpt lat="47.52931" lon="-2.29133">
        <ele>28.200000762939</ele>
        <time>2021-10-17T08:52:17.000Z</time>
      </trkpt>
      <trkpt lat="47.52934" lon="-2.29132">
        <ele>27.799999237061</ele>
        <time>2021-10-17T08:52:18.000Z</time>
      </trkpt>
      <trkpt lat="47.52945" lon="-2.29129">
        <ele>27.799999237061</ele>
        <time>2021-10-17T08:52:21.000Z</time>
      </trkpt>
      <trkpt lat="47.52963" lon="-2.29122">
        <ele>27.39999961853</ele>
        <time>2021-10-17T08:52:25.000Z</time>
      </trkpt>
      <trkpt lat="47.52968" lon="-2.29119">
        <ele>27</ele>
        <time>2021-10-17T08:52:26.000Z</time>
      </trkpt>
      <trkpt lat="47.52973" lon="-2.29117">
        <ele>26.39999961853</ele>
        <time>2021-10-17T08:52:27.000Z</time>
      </trkpt>
      <trkpt lat="47.52978" lon="-2.29115">
        <ele>26</ele>
        <time>2021-10-17T08:52:28.000Z</time>
      </trkpt>
      <trkpt lat="47.52983" lon="-2.29113">
        <ele>25.39999961853</ele>
        <time>2021-10-17T08:52:29.000Z</time>
      </trkpt>
      <trkpt lat="47.52988" lon="-2.29112">
        <ele>24.60000038147</ele>
        <time>2021-10-17T08:52:30.000Z</time>
      </trkpt>
      <trkpt lat="47.52992" lon="-2.2911">
        <ele>24</ele>
        <time>2021-10-17T08:52:31.000Z</time>
      </trkpt>
      <trkpt lat="47.52997" lon="-2.29108">
        <ele>22.60000038147</ele>
        <time>2021-10-17T08:52:32.000Z</time>
      </trkpt>
      <trkpt lat="47.53002" lon="-2.29105">
        <ele>21.799999237061</ele>
        <time>2021-10-17T08:52:33.000Z</time>
      </trkpt>
      <trkpt lat="47.53006" lon="-2.29103">
        <ele>21</ele>
        <time>2021-10-17T08:52:34.000Z</time>
      </trkpt>
      <trkpt lat="47.53012" lon="-2.29104">
        <ele>20.200000762939</ele>
        <time>2021-10-17T08:52:35.000Z</time>
      </trkpt>
      <trkpt lat="47.53017" lon="-2.29106">
        <ele>19.39999961853</ele>
        <time>2021-10-17T08:52:36.000Z</time>
      </trkpt>
      <trkpt lat="47.53021" lon="-2.29111">
        <ele>18.60000038147</ele>
        <time>2021-10-17T08:52:37.000Z</time>
      </trkpt>
      <trkpt lat="47.53024" lon="-2.29117">
        <ele>18</ele>
        <time>2021-10-17T08:52:38.000Z</time>
      </trkpt>
      <trkpt lat="47.53027" lon="-2.29124">
        <ele>17.39999961853</ele>
        <time>2021-10-17T08:52:39.000Z</time>
      </trkpt>
      <trkpt lat="47.53029" lon="-2.29131">
        <ele>16.799999237061</ele>
        <time>2021-10-17T08:52:40.000Z</time>
      </trkpt>
      <trkpt lat="47.53031" lon="-2.29139">
        <ele>16.200000762939</ele>
        <time>2021-10-17T08:52:41.000Z</time>
      </trkpt>
      <trkpt lat="47.53033" lon="-2.29146">
        <ele>15.60000038147</ele>
        <time>2021-10-17T08:52:42.000Z</time>
      </trkpt>
      <trkpt lat="47.53035" lon="-2.29159">
        <ele>15.60000038147</ele>
        <time>2021-10-17T08:52:44.000Z</time>
      </trkpt>
      <trkpt lat="47.53038" lon="-2.2917">
        <ele>15.60000038147</ele>
        <time>2021-10-17T08:52:46.000Z</time>
      </trkpt>
      <trkpt lat="47.5304" lon="-2.29179">
        <ele>16.200000762939</ele>
        <time>2021-10-17T08:52:48.000Z</time>
      </trkpt>
      <trkpt lat="47.53041" lon="-2.29183">
        <ele>16.60000038147</ele>
        <time>2021-10-17T08:52:49.000Z</time>
      </trkpt>
      <trkpt lat="47.53042" lon="-2.29186">
        <ele>17</ele>
        <time>2021-10-17T08:52:50.000Z</time>
      </trkpt>
      <trkpt lat="47.53042" lon="-2.29189">
        <ele>17.60000038147</ele>
        <time>2021-10-17T08:52:51.000Z</time>
      </trkpt>
      <trkpt lat="47.53043" lon="-2.29192">
        <ele>18</ele>
        <time>2021-10-17T08:52:52.000Z</time>
      </trkpt>
      <trkpt lat="47.53045" lon="-2.292">
        <ele>18</ele>
        <time>2021-10-17T08:52:57.000Z</time>
      </trkpt>
      <trkpt lat="47.53045" lon="-2.29202">
        <ele>18.39999961853</ele>
        <time>2021-10-17T08:52:58.000Z</time>
      </trkpt>
      <trkpt lat="47.53045" lon="-2.29203">
        <ele>18.799999237061</ele>
        <time>2021-10-17T08:52:59.000Z</time>
      </trkpt>
      <trkpt lat="47.53044" lon="-2.29204">
        <ele>19.200000762939</ele>
        <time>2021-10-17T08:53:00.000Z</time>
      </trkpt>
      <trkpt lat="47.53044" lon="-2.29206">
        <ele>19.60000038147</ele>
        <time>2021-10-17T08:53:01.000Z</time>
      </trkpt>
      <trkpt lat="47.53043" lon="-2.29207">
        <ele>20</ele>
        <time>2021-10-17T08:53:02.000Z</time>
      </trkpt>
      <trkpt lat="47.53042" lon="-2.29209">
        <ele>20</ele>
        <time>2021-10-17T08:53:04.000Z</time>
      </trkpt>
      <trkpt lat="47.53038" lon="-2.29218">
        <ele>20</ele>
        <time>2021-10-17T08:53:09.000Z</time>
      </trkpt>
      <trkpt lat="47.53037" lon="-2.2922">
        <ele>20.39999961853</ele>
        <time>2021-10-17T08:53:10.000Z</time>
      </trkpt>
      <trkpt lat="47.53037" lon="-2.29222">
        <ele>20.799999237061</ele>
        <time>2021-10-17T08:53:11.000Z</time>
      </trkpt>
      <trkpt lat="47.53038" lon="-2.29224">
        <ele>21.200000762939</ele>
        <time>2021-10-17T08:53:12.000Z</time>
      </trkpt>
      <trkpt lat="47.53038" lon="-2.29227">
        <ele>21.799999237061</ele>
        <time>2021-10-17T08:53:13.000Z</time>
      </trkpt>
      <trkpt lat="47.53039" lon="-2.29229">
        <ele>22.200000762939</ele>
        <time>2021-10-17T08:53:14.000Z</time>
      </trkpt>
      <trkpt lat="47.53039" lon="-2.29232">
        <ele>22.200000762939</ele>
        <time>2021-10-17T08:53:15.000Z</time>
      </trkpt>
      <trkpt lat="47.53041" lon="-2.29239">
        <ele>22.60000038147</ele>
        <time>2021-10-17T08:53:19.000Z</time>
      </trkpt>
      <trkpt lat="47.53041" lon="-2.29241">
        <ele>23</ele>
        <time>2021-10-17T08:53:20.000Z</time>
      </trkpt>
      <trkpt lat="47.53041" lon="-2.29243">
        <ele>23.39999961853</ele>
        <time>2021-10-17T08:53:21.000Z</time>
      </trkpt>
      <trkpt lat="47.53041" lon="-2.29244">
        <ele>24.200000762939</ele>
        <time>2021-10-17T08:53:22.000Z</time>
      </trkpt>
      <trkpt lat="47.5304" lon="-2.29246">
        <ele>24.200000762939</ele>
        <time>2021-10-17T08:53:23.000Z</time>
      </trkpt>
      <trkpt lat="47.53038" lon="-2.29247">
        <ele>24.200000762939</ele>
        <time>2021-10-17T08:53:25.000Z</time>
      </trkpt>
      <trkpt lat="47.53035" lon="-2.29247">
        <ele>24.200000762939</ele>
        <time>2021-10-17T08:53:27.000Z</time>
      </trkpt>
      <trkpt lat="47.53031" lon="-2.29247">
        <ele>24.60000038147</ele>
        <time>2021-10-17T08:53:30.000Z</time>
      </trkpt>
      <trkpt lat="47.53029" lon="-2.29249">
        <ele>25</ele>
        <time>2021-10-17T08:53:31.000Z</time>
      </trkpt>
      <trkpt lat="47.53027" lon="-2.2925">
        <ele>25.60000038147</ele>
        <time>2021-10-17T08:53:32.000Z</time>
      </trkpt>
      <trkpt lat="47.53025" lon="-2.29251">
        <ele>26</ele>
        <time>2021-10-17T08:53:33.000Z</time>
      </trkpt>
      <trkpt lat="47.53022" lon="-2.29251">
        <ele>26.39999961853</ele>
        <time>2021-10-17T08:53:34.000Z</time>
      </trkpt>
      <trkpt lat="47.53012" lon="-2.29256">
        <ele>26.39999961853</ele>
        <time>2021-10-17T08:53:40.000Z</time>
      </trkpt>
      <trkpt lat="47.53002" lon="-2.29252">
        <ele>26.39999961853</ele>
        <time>2021-10-17T08:53:45.000Z</time>
      </trkpt>
      <trkpt lat="47.52998" lon="-2.29252">
        <ele>26.799999237061</ele>
        <time>2021-10-17T08:53:47.000Z</time>
      </trkpt>
      <trkpt lat="47.52996" lon="-2.29251">
        <ele>27.200000762939</ele>
        <time>2021-10-17T08:53:48.000Z</time>
      </trkpt>
      <trkpt lat="47.52994" lon="-2.2925">
        <ele>27.60000038147</ele>
        <time>2021-10-17T08:53:49.000Z</time>
      </trkpt>
      <trkpt lat="47.52992" lon="-2.29248">
        <ele>28</ele>
        <time>2021-10-17T08:53:50.000Z</time>
      </trkpt>
      <trkpt lat="47.5299" lon="-2.29247">
        <ele>28.39999961853</ele>
        <time>2021-10-17T08:53:51.000Z</time>
      </trkpt>
      <trkpt lat="47.52988" lon="-2.29245">
        <ele>28.39999961853</ele>
        <time>2021-10-17T08:53:52.000Z</time>
      </trkpt>
      <trkpt lat="47.52984" lon="-2.29235">
        <ele>28.39999961853</ele>
        <time>2021-10-17T08:53:55.000Z</time>
      </trkpt>
      <trkpt lat="47.52976" lon="-2.2922">
        <ele>28.39999961853</ele>
        <time>2021-10-17T08:53:59.000Z</time>
      </trkpt>
      <trkpt lat="47.52976" lon="-2.29215">
        <ele>28.39999961853</ele>
        <time>2021-10-17T08:54:00.000Z</time>
      </trkpt>
      <trkpt lat="47.52973" lon="-2.2919">
        <ele>28.39999961853</ele>
        <time>2021-10-17T08:54:05.000Z</time>
      </trkpt>
      <trkpt lat="47.52972" lon="-2.29178">
        <ele>28.39999961853</ele>
        <time>2021-10-17T08:54:08.000Z</time>
      </trkpt>
      <trkpt lat="47.5297" lon="-2.29175">
        <ele>28.39999961853</ele>
        <time>2021-10-17T08:54:09.000Z</time>
      </trkpt>
      <trkpt lat="47.52966" lon="-2.29162">
        <ele>28.39999961853</ele>
        <time>2021-10-17T08:54:12.000Z</time>
      </trkpt>
      <trkpt lat="47.52964" lon="-2.29157">
        <ele>28.39999961853</ele>
        <time>2021-10-17T08:54:13.000Z</time>
      </trkpt>
      <trkpt lat="47.52963" lon="-2.29156">
        <ele>28</ele>
        <time>2021-10-17T08:54:14.000Z</time>
      </trkpt>
      <trkpt lat="47.52962" lon="-2.29156">
        <ele>27.60000038147</ele>
        <time>2021-10-17T08:54:15.000Z</time>
      </trkpt>
      <trkpt lat="47.5296" lon="-2.29158">
        <ele>27.200000762939</ele>
        <time>2021-10-17T08:54:16.000Z</time>
      </trkpt>
      <trkpt lat="47.52959" lon="-2.2916">
        <ele>26.799999237061</ele>
        <time>2021-10-17T08:54:17.000Z</time>
      </trkpt>
      <trkpt lat="47.52957" lon="-2.29163">
        <ele>26.39999961853</ele>
        <time>2021-10-17T08:54:18.000Z</time>
      </trkpt>
      <trkpt lat="47.52953" lon="-2.29165">
        <ele>26.39999961853</ele>
        <time>2021-10-17T08:54:20.000Z</time>
      </trkpt>
      <trkpt lat="47.52951" lon="-2.29166">
        <ele>26.39999961853</ele>
        <time>2021-10-17T08:54:21.000Z</time>
      </trkpt>
      <trkpt lat="47.52943" lon="-2.29167">
        <ele>26.39999961853</ele>
        <time>2021-10-17T08:54:24.000Z</time>
      </trkpt>
      <trkpt lat="47.52938" lon="-2.29169">
        <ele>26.39999961853</ele>
        <time>2021-10-17T08:54:26.000Z</time>
      </trkpt>
      <trkpt lat="47.52934" lon="-2.29175">
        <ele>26.799999237061</ele>
        <time>2021-10-17T08:54:28.000Z</time>
      </trkpt>
      <trkpt lat="47.52933" lon="-2.29178">
        <ele>27.200000762939</ele>
        <time>2021-10-17T08:54:29.000Z</time>
      </trkpt>
      <trkpt lat="47.52932" lon="-2.29182">
        <ele>27.60000038147</ele>
        <time>2021-10-17T08:54:30.000Z</time>
      </trkpt>
      <trkpt lat="47.52931" lon="-2.29186">
        <ele>28</ele>
        <time>2021-10-17T08:54:31.000Z</time>
      </trkpt>
      <trkpt lat="47.52932" lon="-2.29188">
        <ele>28.39999961853</ele>
        <time>2021-10-17T08:54:32.000Z</time>
      </trkpt>
      <trkpt lat="47.52936" lon="-2.29191">
        <ele>28.39999961853</ele>
        <time>2021-10-17T08:54:34.000Z</time>
      </trkpt>
      <trkpt lat="47.52938" lon="-2.29194">
        <ele>28.39999961853</ele>
        <time>2021-10-17T08:54:35.000Z</time>
      </trkpt>
      <trkpt lat="47.5294" lon="-2.29204">
        <ele>28.39999961853</ele>
        <time>2021-10-17T08:54:38.000Z</time>
      </trkpt>
      <trkpt lat="47.52941" lon="-2.29208">
        <ele>28.39999961853</ele>
        <time>2021-10-17T08:54:39.000Z</time>
      </trkpt>
      <trkpt lat="47.52948" lon="-2.29223">
        <ele>28.39999961853</ele>
        <time>2021-10-17T08:54:43.000Z</time>
      </trkpt>
      <trkpt lat="47.5296" lon="-2.29238">
        <ele>28.39999961853</ele>
        <time>2021-10-17T08:54:48.000Z</time>
      </trkpt>
      <trkpt lat="47.52967" lon="-2.29254">
        <ele>28.39999961853</ele>
        <time>2021-10-17T08:54:53.000Z</time>
      </trkpt>
      <trkpt lat="47.52964" lon="-2.29259">
        <ele>28.39999961853</ele>
        <time>2021-10-17T08:54:57.000Z</time>
      </trkpt>
      <trkpt lat="47.5296" lon="-2.29259">
        <ele>28.39999961853</ele>
        <time>2021-10-17T08:54:58.000Z</time>
      </trkpt>
      <trkpt lat="47.5294" lon="-2.29255">
        <ele>28.39999961853</ele>
        <time>2021-10-17T08:55:03.000Z</time>
      </trkpt>
      <trkpt lat="47.52932" lon="-2.29259">
        <ele>28.39999961853</ele>
        <time>2021-10-17T08:55:06.000Z</time>
      </trkpt>
      <trkpt lat="47.52931" lon="-2.29261">
        <ele>28.39999961853</ele>
        <time>2021-10-17T08:55:07.000Z</time>
      </trkpt>
      <trkpt lat="47.52929" lon="-2.29263">
        <ele>28.39999961853</ele>
        <time>2021-10-17T08:55:08.000Z</time>
      </trkpt>
      <trkpt lat="47.5293" lon="-2.29275">
        <ele>28.39999961853</ele>
        <time>2021-10-17T08:55:11.000Z</time>
      </trkpt>
      <trkpt lat="47.52932" lon="-2.29285">
        <ele>28.39999961853</ele>
        <time>2021-10-17T08:55:13.000Z</time>
      </trkpt>
      <trkpt lat="47.52935" lon="-2.29297">
        <ele>28.39999961853</ele>
        <time>2021-10-17T08:55:15.000Z</time>
      </trkpt>
      <trkpt lat="47.52938" lon="-2.29304">
        <ele>28.39999961853</ele>
        <time>2021-10-17T08:55:16.000Z</time>
      </trkpt>
      <trkpt lat="47.52954" lon="-2.2934">
        <ele>28.39999961853</ele>
        <time>2021-10-17T08:55:23.000Z</time>
      </trkpt>
      <trkpt lat="47.52959" lon="-2.29348">
        <ele>28.799999237061</ele>
        <time>2021-10-17T08:55:25.000Z</time>
      </trkpt>
      <trkpt lat="47.52961" lon="-2.29352">
        <ele>29.200000762939</ele>
        <time>2021-10-17T08:55:26.000Z</time>
      </trkpt>
      <trkpt lat="47.52963" lon="-2.29356">
        <ele>29.60000038147</ele>
        <time>2021-10-17T08:55:27.000Z</time>
      </trkpt>
      <trkpt lat="47.52964" lon="-2.2936">
        <ele>30.200000762939</ele>
        <time>2021-10-17T08:55:28.000Z</time>
      </trkpt>
      <trkpt lat="47.52963" lon="-2.29364">
        <ele>30.60000038147</ele>
        <time>2021-10-17T08:55:29.000Z</time>
      </trkpt>
      <trkpt lat="47.52956" lon="-2.29375">
        <ele>30.60000038147</ele>
        <time>2021-10-17T08:55:32.000Z</time>
      </trkpt>
      <trkpt lat="47.52947" lon="-2.29383">
        <ele>30.60000038147</ele>
        <time>2021-10-17T08:55:34.000Z</time>
      </trkpt>
      <trkpt lat="47.52944" lon="-2.29386">
        <ele>30</ele>
        <time>2021-10-17T08:55:35.000Z</time>
      </trkpt>
      <trkpt lat="47.52941" lon="-2.29389">
        <ele>29.60000038147</ele>
        <time>2021-10-17T08:55:36.000Z</time>
      </trkpt>
      <trkpt lat="47.52939" lon="-2.29393">
        <ele>29</ele>
        <time>2021-10-17T08:55:37.000Z</time>
      </trkpt>
      <trkpt lat="47.52936" lon="-2.29398">
        <ele>28.60000038147</ele>
        <time>2021-10-17T08:55:38.000Z</time>
      </trkpt>
      <trkpt lat="47.52934" lon="-2.29403">
        <ele>28</ele>
        <time>2021-10-17T08:55:39.000Z</time>
      </trkpt>
      <trkpt lat="47.52932" lon="-2.29407">
        <ele>27.39999961853</ele>
        <time>2021-10-17T08:55:40.000Z</time>
      </trkpt>
      <trkpt lat="47.52929" lon="-2.29412">
        <ele>26.799999237061</ele>
        <time>2021-10-17T08:55:41.000Z</time>
      </trkpt>
      <trkpt lat="47.52927" lon="-2.29416">
        <ele>26.200000762939</ele>
        <time>2021-10-17T08:55:42.000Z</time>
      </trkpt>
      <trkpt lat="47.52921" lon="-2.29428">
        <ele>26.200000762939</ele>
        <time>2021-10-17T08:55:45.000Z</time>
      </trkpt>
      <trkpt lat="47.52913" lon="-2.29456">
        <ele>26.200000762939</ele>
        <time>2021-10-17T08:55:51.000Z</time>
      </trkpt>
      <trkpt lat="47.52898" lon="-2.29477">
        <ele>26.200000762939</ele>
        <time>2021-10-17T08:55:57.000Z</time>
      </trkpt>
      <trkpt lat="47.52884" lon="-2.2949">
        <ele>26.60000038147</ele>
        <time>2021-10-17T08:56:03.000Z</time>
      </trkpt>
      <trkpt lat="47.52881" lon="-2.29493">
        <ele>27</ele>
        <time>2021-10-17T08:56:04.000Z</time>
      </trkpt>
      <trkpt lat="47.52878" lon="-2.29495">
        <ele>27.39999961853</ele>
        <time>2021-10-17T08:56:05.000Z</time>
      </trkpt>
      <trkpt lat="47.52876" lon="-2.29497">
        <ele>27.799999237061</ele>
        <time>2021-10-17T08:56:06.000Z</time>
      </trkpt>
      <trkpt lat="47.52873" lon="-2.29499">
        <ele>28.200000762939</ele>
        <time>2021-10-17T08:56:07.000Z</time>
      </trkpt>
      <trkpt lat="47.52859" lon="-2.29508">
        <ele>28.200000762939</ele>
        <time>2021-10-17T08:56:12.000Z</time>
      </trkpt>
      <trkpt lat="47.52855" lon="-2.2951">
        <ele>28.60000038147</ele>
        <time>2021-10-17T08:56:13.000Z</time>
      </trkpt>
      <trkpt lat="47.52852" lon="-2.29512">
        <ele>29.60000038147</ele>
        <time>2021-10-17T08:56:14.000Z</time>
      </trkpt>
      <trkpt lat="47.52848" lon="-2.29514">
        <ele>30</ele>
        <time>2021-10-17T08:56:15.000Z</time>
      </trkpt>
      <trkpt lat="47.52846" lon="-2.29515">
        <ele>30.39999961853</ele>
        <time>2021-10-17T08:56:16.000Z</time>
      </trkpt>
      <trkpt lat="47.52841" lon="-2.29517">
        <ele>30.39999961853</ele>
        <time>2021-10-17T08:56:18.000Z</time>
      </trkpt>
      <trkpt lat="47.52838" lon="-2.29519">
        <ele>30.799999237061</ele>
        <time>2021-10-17T08:56:20.000Z</time>
      </trkpt>
      <trkpt lat="47.52836" lon="-2.29519">
        <ele>31.200000762939</ele>
        <time>2021-10-17T08:56:21.000Z</time>
      </trkpt>
      <trkpt lat="47.52834" lon="-2.29521">
        <ele>31.60000038147</ele>
        <time>2021-10-17T08:56:22.000Z</time>
      </trkpt>
      <trkpt lat="47.52833" lon="-2.29522">
        <ele>32</ele>
        <time>2021-10-17T08:56:23.000Z</time>
      </trkpt>
      <trkpt lat="47.52831" lon="-2.29523">
        <ele>32.599998474121</ele>
        <time>2021-10-17T08:56:24.000Z</time>
      </trkpt>
      <trkpt lat="47.52815" lon="-2.29537">
        <ele>32.599998474121</ele>
        <time>2021-10-17T08:56:31.000Z</time>
      </trkpt>
      <trkpt lat="47.52813" lon="-2.29539">
        <ele>33</ele>
        <time>2021-10-17T08:56:32.000Z</time>
      </trkpt>
      <trkpt lat="47.52811" lon="-2.29541">
        <ele>33.400001525879</ele>
        <time>2021-10-17T08:56:33.000Z</time>
      </trkpt>
      <trkpt lat="47.52809" lon="-2.29543">
        <ele>33.799999237061</ele>
        <time>2021-10-17T08:56:35.000Z</time>
      </trkpt>
      <trkpt lat="47.52807" lon="-2.29546">
        <ele>34.200000762939</ele>
        <time>2021-10-17T08:56:36.000Z</time>
      </trkpt>
      <trkpt lat="47.52805" lon="-2.29549">
        <ele>34.599998474121</ele>
        <time>2021-10-17T08:56:37.000Z</time>
      </trkpt>
      <trkpt lat="47.52791" lon="-2.29565">
        <ele>35</ele>
        <time>2021-10-17T08:56:44.000Z</time>
      </trkpt>
      <trkpt lat="47.52789" lon="-2.29567">
        <ele>35.400001525879</ele>
        <time>2021-10-17T08:56:45.000Z</time>
      </trkpt>
      <trkpt lat="47.52787" lon="-2.29569">
        <ele>35.799999237061</ele>
        <time>2021-10-17T08:56:46.000Z</time>
      </trkpt>
      <trkpt lat="47.52785" lon="-2.29571">
        <ele>36.400001525879</ele>
        <time>2021-10-17T08:56:47.000Z</time>
      </trkpt>
      <trkpt lat="47.52783" lon="-2.29574">
        <ele>36.799999237061</ele>
        <time>2021-10-17T08:56:48.000Z</time>
      </trkpt>
      <trkpt lat="47.52776" lon="-2.29583">
        <ele>36.799999237061</ele>
        <time>2021-10-17T08:56:51.000Z</time>
      </trkpt>
      <trkpt lat="47.52764" lon="-2.29597">
        <ele>36.799999237061</ele>
        <time>2021-10-17T08:56:56.000Z</time>
      </trkpt>
      <trkpt lat="47.5275" lon="-2.29618">
        <ele>36.799999237061</ele>
        <time>2021-10-17T08:57:03.000Z</time>
      </trkpt>
      <trkpt lat="47.52748" lon="-2.29624">
        <ele>37.200000762939</ele>
        <time>2021-10-17T08:57:05.000Z</time>
      </trkpt>
      <trkpt lat="47.52747" lon="-2.29628">
        <ele>37.599998474121</ele>
        <time>2021-10-17T08:57:06.000Z</time>
      </trkpt>
      <trkpt lat="47.52745" lon="-2.29631">
        <ele>38.200000762939</ele>
        <time>2021-10-17T08:57:07.000Z</time>
      </trkpt>
      <trkpt lat="47.52744" lon="-2.29634">
        <ele>38.599998474121</ele>
        <time>2021-10-17T08:57:08.000Z</time>
      </trkpt>
      <trkpt lat="47.52741" lon="-2.29636">
        <ele>39</ele>
        <time>2021-10-17T08:57:09.000Z</time>
      </trkpt>
      <trkpt lat="47.52739" lon="-2.29638">
        <ele>39</ele>
        <time>2021-10-17T08:57:10.000Z</time>
      </trkpt>
      <trkpt lat="47.52722" lon="-2.29649">
        <ele>39</ele>
        <time>2021-10-17T08:57:16.000Z</time>
      </trkpt>
      <trkpt lat="47.52699" lon="-2.29655">
        <ele>39</ele>
        <time>2021-10-17T08:57:22.000Z</time>
      </trkpt>
      <trkpt lat="47.52695" lon="-2.29657">
        <ele>39</ele>
        <time>2021-10-17T08:57:23.000Z</time>
      </trkpt>
      <trkpt lat="47.52657" lon="-2.29669">
        <ele>39</ele>
        <time>2021-10-17T08:57:32.000Z</time>
      </trkpt>
      <trkpt lat="47.52644" lon="-2.29674">
        <ele>39</ele>
        <time>2021-10-17T08:57:35.000Z</time>
      </trkpt>
      <trkpt lat="47.52636" lon="-2.29677">
        <ele>39.400001525879</ele>
        <time>2021-10-17T08:57:37.000Z</time>
      </trkpt>
      <trkpt lat="47.52633" lon="-2.29679">
        <ele>39.799999237061</ele>
        <time>2021-10-17T08:57:38.000Z</time>
      </trkpt>
      <trkpt lat="47.52629" lon="-2.29682">
        <ele>40.200000762939</ele>
        <time>2021-10-17T08:57:39.000Z</time>
      </trkpt>
      <trkpt lat="47.52626" lon="-2.29684">
        <ele>40.599998474121</ele>
        <time>2021-10-17T08:57:40.000Z</time>
      </trkpt>
      <trkpt lat="47.52622" lon="-2.29686">
        <ele>41</ele>
        <time>2021-10-17T08:57:41.000Z</time>
      </trkpt>
      <trkpt lat="47.52603" lon="-2.29697">
        <ele>41</ele>
        <time>2021-10-17T08:57:46.000Z</time>
      </trkpt>
      <trkpt lat="47.52578" lon="-2.2972">
        <ele>41</ele>
        <time>2021-10-17T08:57:52.000Z</time>
      </trkpt>
      <trkpt lat="47.52548" lon="-2.29754">
        <ele>41</ele>
        <time>2021-10-17T08:57:58.000Z</time>
      </trkpt>
      <trkpt lat="47.52543" lon="-2.29759">
        <ele>41</ele>
        <time>2021-10-17T08:57:59.000Z</time>
      </trkpt>
      <trkpt lat="47.52526" lon="-2.29767">
        <ele>41</ele>
        <time>2021-10-17T08:58:02.000Z</time>
      </trkpt>
      <trkpt lat="47.52492" lon="-2.29786">
        <ele>41</ele>
        <time>2021-10-17T08:58:08.000Z</time>
      </trkpt>
      <trkpt lat="47.52481" lon="-2.29793">
        <ele>40.599998474121</ele>
        <time>2021-10-17T08:58:10.000Z</time>
      </trkpt>
      <trkpt lat="47.52475" lon="-2.29797">
        <ele>40.200000762939</ele>
        <time>2021-10-17T08:58:11.000Z</time>
      </trkpt>
      <trkpt lat="47.5247" lon="-2.298">
        <ele>39.799999237061</ele>
        <time>2021-10-17T08:58:12.000Z</time>
      </trkpt>
      <trkpt lat="47.52464" lon="-2.29804">
        <ele>39.400001525879</ele>
        <time>2021-10-17T08:58:13.000Z</time>
      </trkpt>
      <trkpt lat="47.52459" lon="-2.29807">
        <ele>39</ele>
        <time>2021-10-17T08:58:14.000Z</time>
      </trkpt>
      <trkpt lat="47.52448" lon="-2.29814">
        <ele>39</ele>
        <time>2021-10-17T08:58:16.000Z</time>
      </trkpt>
      <trkpt lat="47.5241" lon="-2.29834">
        <ele>39</ele>
        <time>2021-10-17T08:58:23.000Z</time>
      </trkpt>
      <trkpt lat="47.52406" lon="-2.29837">
        <ele>39</ele>
        <time>2021-10-17T08:58:24.000Z</time>
      </trkpt>
      <trkpt lat="47.52401" lon="-2.2985">
        <ele>39</ele>
        <time>2021-10-17T08:58:27.000Z</time>
      </trkpt>
      <trkpt lat="47.52407" lon="-2.2987">
        <ele>39</ele>
        <time>2021-10-17T08:58:31.000Z</time>
      </trkpt>
      <trkpt lat="47.52409" lon="-2.29875">
        <ele>39</ele>
        <time>2021-10-17T08:58:32.000Z</time>
      </trkpt>
      <trkpt lat="47.52413" lon="-2.29885">
        <ele>39</ele>
        <time>2021-10-17T08:58:34.000Z</time>
      </trkpt>
      <trkpt lat="47.52417" lon="-2.29896">
        <ele>39</ele>
        <time>2021-10-17T08:58:36.000Z</time>
      </trkpt>
      <trkpt lat="47.52431" lon="-2.29948">
        <ele>39</ele>
        <time>2021-10-17T08:58:44.000Z</time>
      </trkpt>
      <trkpt lat="47.52433" lon="-2.29955">
        <ele>39</ele>
        <time>2021-10-17T08:58:45.000Z</time>
      </trkpt>
      <trkpt lat="47.52433" lon="-2.29977">
        <ele>39</ele>
        <time>2021-10-17T08:58:48.000Z</time>
      </trkpt>
      <trkpt lat="47.52432" lon="-2.29983">
        <ele>39</ele>
        <time>2021-10-17T08:58:49.000Z</time>
      </trkpt>
      <trkpt lat="47.52429" lon="-2.30004">
        <ele>39</ele>
        <time>2021-10-17T08:58:52.000Z</time>
      </trkpt>
      <trkpt lat="47.5243" lon="-2.30017">
        <ele>39</ele>
        <time>2021-10-17T08:58:54.000Z</time>
      </trkpt>
      <trkpt lat="47.52434" lon="-2.30036">
        <ele>39</ele>
        <time>2021-10-17T08:58:57.000Z</time>
      </trkpt>
      <trkpt lat="47.52435" lon="-2.30042">
        <ele>39</ele>
        <time>2021-10-17T08:58:58.000Z</time>
      </trkpt>
      <trkpt lat="47.52435" lon="-2.30047">
        <ele>39</ele>
        <time>2021-10-17T08:58:59.000Z</time>
      </trkpt>
      <trkpt lat="47.52438" lon="-2.30062">
        <ele>39</ele>
        <time>2021-10-17T08:59:03.000Z</time>
      </trkpt>
      <trkpt lat="47.52442" lon="-2.30081">
        <ele>39</ele>
        <time>2021-10-17T08:59:08.000Z</time>
      </trkpt>
      <trkpt lat="47.52442" lon="-2.30095">
        <ele>39</ele>
        <time>2021-10-17T08:59:13.000Z</time>
      </trkpt>
      <trkpt lat="47.52438" lon="-2.30111">
        <ele>39</ele>
        <time>2021-10-17T08:59:18.000Z</time>
      </trkpt>
      <trkpt lat="47.52431" lon="-2.30123">
        <ele>39</ele>
        <time>2021-10-17T08:59:23.000Z</time>
      </trkpt>
      <trkpt lat="47.52425" lon="-2.30122">
        <ele>39</ele>
        <time>2021-10-17T08:59:25.000Z</time>
      </trkpt>
      <trkpt lat="47.52419" lon="-2.30119">
        <ele>39.400001525879</ele>
        <time>2021-10-17T08:59:27.000Z</time>
      </trkpt>
      <trkpt lat="47.52416" lon="-2.30116">
        <ele>39.799999237061</ele>
        <time>2021-10-17T08:59:28.000Z</time>
      </trkpt>
      <trkpt lat="47.52413" lon="-2.30114">
        <ele>40.200000762939</ele>
        <time>2021-10-17T08:59:29.000Z</time>
      </trkpt>
      <trkpt lat="47.5241" lon="-2.3011">
        <ele>40.599998474121</ele>
        <time>2021-10-17T08:59:30.000Z</time>
      </trkpt>
      <trkpt lat="47.52408" lon="-2.30108">
        <ele>41</ele>
        <time>2021-10-17T08:59:31.000Z</time>
      </trkpt>
      <trkpt lat="47.52405" lon="-2.30106">
        <ele>41</ele>
        <time>2021-10-17T08:59:32.000Z</time>
      </trkpt>
      <trkpt lat="47.52402" lon="-2.30103">
        <ele>41</ele>
        <time>2021-10-17T08:59:33.000Z</time>
      </trkpt>
      <trkpt lat="47.52395" lon="-2.301">
        <ele>41.400001525879</ele>
        <time>2021-10-17T08:59:35.000Z</time>
      </trkpt>
      <trkpt lat="47.52391" lon="-2.30099">
        <ele>41.799999237061</ele>
        <time>2021-10-17T08:59:36.000Z</time>
      </trkpt>
      <trkpt lat="47.52387" lon="-2.30098">
        <ele>42.200000762939</ele>
        <time>2021-10-17T08:59:37.000Z</time>
      </trkpt>
      <trkpt lat="47.52383" lon="-2.30098">
        <ele>42.599998474121</ele>
        <time>2021-10-17T08:59:38.000Z</time>
      </trkpt>
      <trkpt lat="47.52379" lon="-2.30097">
        <ele>43</ele>
        <time>2021-10-17T08:59:39.000Z</time>
      </trkpt>
      <trkpt lat="47.52355" lon="-2.30094">
        <ele>43</ele>
        <time>2021-10-17T08:59:45.000Z</time>
      </trkpt>
      <trkpt lat="47.52318" lon="-2.30091">
        <ele>43</ele>
        <time>2021-10-17T08:59:53.000Z</time>
      </trkpt>
      <trkpt lat="47.52293" lon="-2.3009">
        <ele>43</ele>
        <time>2021-10-17T08:59:58.000Z</time>
      </trkpt>
      <trkpt lat="47.52283" lon="-2.30092">
        <ele>43</ele>
        <time>2021-10-17T09:00:00.000Z</time>
      </trkpt>
      <trkpt lat="47.52273" lon="-2.30096">
        <ele>43</ele>
        <time>2021-10-17T09:00:02.000Z</time>
      </trkpt>
      <trkpt lat="47.52264" lon="-2.30105">
        <ele>43</ele>
        <time>2021-10-17T09:00:04.000Z</time>
      </trkpt>
      <trkpt lat="47.52257" lon="-2.30118">
        <ele>43</ele>
        <time>2021-10-17T09:00:06.000Z</time>
      </trkpt>
      <trkpt lat="47.52253" lon="-2.30124">
        <ele>43</ele>
        <time>2021-10-17T09:00:07.000Z</time>
      </trkpt>
      <trkpt lat="47.52248" lon="-2.30126">
        <ele>43</ele>
        <time>2021-10-17T09:00:08.000Z</time>
      </trkpt>
      <trkpt lat="47.52236" lon="-2.30122">
        <ele>43</ele>
        <time>2021-10-17T09:00:11.000Z</time>
      </trkpt>
      <trkpt lat="47.52229" lon="-2.30115">
        <ele>42.599998474121</ele>
        <time>2021-10-17T09:00:13.000Z</time>
      </trkpt>
      <trkpt lat="47.52225" lon="-2.30111">
        <ele>42.200000762939</ele>
        <time>2021-10-17T09:00:14.000Z</time>
      </trkpt>
      <trkpt lat="47.52221" lon="-2.30106">
        <ele>41.799999237061</ele>
        <time>2021-10-17T09:00:15.000Z</time>
      </trkpt>
      <trkpt lat="47.52217" lon="-2.30102">
        <ele>41.400001525879</ele>
        <time>2021-10-17T09:00:16.000Z</time>
      </trkpt>
      <trkpt lat="47.52212" lon="-2.30097">
        <ele>41</ele>
        <time>2021-10-17T09:00:17.000Z</time>
      </trkpt>
      <trkpt lat="47.52187" lon="-2.30073">
        <ele>40.599998474121</ele>
        <time>2021-10-17T09:00:22.000Z</time>
      </trkpt>
      <trkpt lat="47.52181" lon="-2.30067">
        <ele>40.200000762939</ele>
        <time>2021-10-17T09:00:23.000Z</time>
      </trkpt>
      <trkpt lat="47.52176" lon="-2.30062">
        <ele>39.599998474121</ele>
        <time>2021-10-17T09:00:24.000Z</time>
      </trkpt>
      <trkpt lat="47.5217" lon="-2.30056">
        <ele>39.200000762939</ele>
        <time>2021-10-17T09:00:25.000Z</time>
      </trkpt>
      <trkpt lat="47.52165" lon="-2.3005">
        <ele>38.799999237061</ele>
        <time>2021-10-17T09:00:26.000Z</time>
      </trkpt>
      <trkpt lat="47.52152" lon="-2.30036">
        <ele>38.200000762939</ele>
        <time>2021-10-17T09:00:29.000Z</time>
      </trkpt>
      <trkpt lat="47.52148" lon="-2.30035">
        <ele>37.799999237061</ele>
        <time>2021-10-17T09:00:30.000Z</time>
      </trkpt>
      <trkpt lat="47.52146" lon="-2.30036">
        <ele>37.400001525879</ele>
        <time>2021-10-17T09:00:31.000Z</time>
      </trkpt>
      <trkpt lat="47.52146" lon="-2.30041">
        <ele>37</ele>
        <time>2021-10-17T09:00:32.000Z</time>
      </trkpt>
      <trkpt lat="47.52145" lon="-2.30045">
        <ele>36.400001525879</ele>
        <time>2021-10-17T09:00:33.000Z</time>
      </trkpt>
      <trkpt lat="47.52145" lon="-2.30051">
        <ele>36.400001525879</ele>
        <time>2021-10-17T09:00:34.000Z</time>
      </trkpt>
      <trkpt lat="47.52146" lon="-2.30063">
        <ele>36.400001525879</ele>
        <time>2021-10-17T09:00:36.000Z</time>
      </trkpt>
      <trkpt lat="47.52153" lon="-2.30106">
        <ele>36.400001525879</ele>
        <time>2021-10-17T09:00:43.000Z</time>
      </trkpt>
      <trkpt lat="47.52161" lon="-2.30158">
        <ele>36.400001525879</ele>
        <time>2021-10-17T09:00:51.000Z</time>
      </trkpt>
      <trkpt lat="47.5216" lon="-2.30175">
        <ele>36.400001525879</ele>
        <time>2021-10-17T09:00:54.000Z</time>
      </trkpt>
      <trkpt lat="47.52156" lon="-2.30178">
        <ele>36.400001525879</ele>
        <time>2021-10-17T09:00:55.000Z</time>
      </trkpt>
      <trkpt lat="47.52136" lon="-2.3018">
        <ele>36</ele>
        <time>2021-10-17T09:00:58.000Z</time>
      </trkpt>
      <trkpt lat="47.52129" lon="-2.3018">
        <ele>35.599998474121</ele>
        <time>2021-10-17T09:00:59.000Z</time>
      </trkpt>
      <trkpt lat="47.52122" lon="-2.30181">
        <ele>34.799999237061</ele>
        <time>2021-10-17T09:01:00.000Z</time>
      </trkpt>
      <trkpt lat="47.52117" lon="-2.30181">
        <ele>34.200000762939</ele>
        <time>2021-10-17T09:01:01.000Z</time>
      </trkpt>
      <trkpt lat="47.52114" lon="-2.30184">
        <ele>33.200000762939</ele>
        <time>2021-10-17T09:01:02.000Z</time>
      </trkpt>
      <trkpt lat="47.52112" lon="-2.3019">
        <ele>32.400001525879</ele>
        <time>2021-10-17T09:01:03.000Z</time>
      </trkpt>
      <trkpt lat="47.52112" lon="-2.30197">
        <ele>31.60000038147</ele>
        <time>2021-10-17T09:01:04.000Z</time>
      </trkpt>
      <trkpt lat="47.52113" lon="-2.30203">
        <ele>30.60000038147</ele>
        <time>2021-10-17T09:01:05.000Z</time>
      </trkpt>
      <trkpt lat="47.52115" lon="-2.3021">
        <ele>30</ele>
        <time>2021-10-17T09:01:06.000Z</time>
      </trkpt>
      <trkpt lat="47.52116" lon="-2.30217">
        <ele>29.39999961853</ele>
        <time>2021-10-17T09:01:07.000Z</time>
      </trkpt>
      <trkpt lat="47.52117" lon="-2.30224">
        <ele>28.799999237061</ele>
        <time>2021-10-17T09:01:08.000Z</time>
      </trkpt>
      <trkpt lat="47.52119" lon="-2.30232">
        <ele>28.39999961853</ele>
        <time>2021-10-17T09:01:09.000Z</time>
      </trkpt>
      <trkpt lat="47.5212" lon="-2.30239">
        <ele>27.799999237061</ele>
        <time>2021-10-17T09:01:10.000Z</time>
      </trkpt>
      <trkpt lat="47.52127" lon="-2.3027">
        <ele>27.799999237061</ele>
        <time>2021-10-17T09:01:14.000Z</time>
      </trkpt>
      <trkpt lat="47.52136" lon="-2.30321">
        <ele>27.799999237061</ele>
        <time>2021-10-17T09:01:20.000Z</time>
      </trkpt>
      <trkpt lat="47.52142" lon="-2.30338">
        <ele>27.799999237061</ele>
        <time>2021-10-17T09:01:22.000Z</time>
      </trkpt>
      <trkpt lat="47.52154" lon="-2.3036">
        <ele>27.799999237061</ele>
        <time>2021-10-17T09:01:25.000Z</time>
      </trkpt>
      <trkpt lat="47.52158" lon="-2.30367">
        <ele>27.200000762939</ele>
        <time>2021-10-17T09:01:26.000Z</time>
      </trkpt>
      <trkpt lat="47.52163" lon="-2.30374">
        <ele>26.799999237061</ele>
        <time>2021-10-17T09:01:27.000Z</time>
      </trkpt>
      <trkpt lat="47.52168" lon="-2.30381">
        <ele>26.39999961853</ele>
        <time>2021-10-17T09:01:28.000Z</time>
      </trkpt>
      <trkpt lat="47.52172" lon="-2.30387">
        <ele>26</ele>
        <time>2021-10-17T09:01:29.000Z</time>
      </trkpt>
      <trkpt lat="47.52176" lon="-2.30392">
        <ele>25.39999961853</ele>
        <time>2021-10-17T09:01:30.000Z</time>
      </trkpt>
      <trkpt lat="47.5218" lon="-2.30402">
        <ele>25</ele>
        <time>2021-10-17T09:01:32.000Z</time>
      </trkpt>
      <trkpt lat="47.52179" lon="-2.30407">
        <ele>24.60000038147</ele>
        <time>2021-10-17T09:01:33.000Z</time>
      </trkpt>
      <trkpt lat="47.52178" lon="-2.3041">
        <ele>24.200000762939</ele>
        <time>2021-10-17T09:01:34.000Z</time>
      </trkpt>
      <trkpt lat="47.52176" lon="-2.30411">
        <ele>23.799999237061</ele>
        <time>2021-10-17T09:01:35.000Z</time>
      </trkpt>
      <trkpt lat="47.52172" lon="-2.30411">
        <ele>23.39999961853</ele>
        <time>2021-10-17T09:01:36.000Z</time>
      </trkpt>
      <trkpt lat="47.52167" lon="-2.30411">
        <ele>23.39999961853</ele>
        <time>2021-10-17T09:01:37.000Z</time>
      </trkpt>
      <trkpt lat="47.52162" lon="-2.30411">
        <ele>23.39999961853</ele>
        <time>2021-10-17T09:01:38.000Z</time>
      </trkpt>
      <trkpt lat="47.52157" lon="-2.3041">
        <ele>23.39999961853</ele>
        <time>2021-10-17T09:01:39.000Z</time>
      </trkpt>
      <trkpt lat="47.52142" lon="-2.30402">
        <ele>23.39999961853</ele>
        <time>2021-10-17T09:01:42.000Z</time>
      </trkpt>
      <trkpt lat="47.52136" lon="-2.30398">
        <ele>23</ele>
        <time>2021-10-17T09:01:43.000Z</time>
      </trkpt>
      <trkpt lat="47.52131" lon="-2.30394">
        <ele>22.60000038147</ele>
        <time>2021-10-17T09:01:44.000Z</time>
      </trkpt>
      <trkpt lat="47.52127" lon="-2.30389">
        <ele>22.200000762939</ele>
        <time>2021-10-17T09:01:45.000Z</time>
      </trkpt>
      <trkpt lat="47.52122" lon="-2.30383">
        <ele>21.799999237061</ele>
        <time>2021-10-17T09:01:46.000Z</time>
      </trkpt>
      <trkpt lat="47.52118" lon="-2.30376">
        <ele>21.39999961853</ele>
        <time>2021-10-17T09:01:47.000Z</time>
      </trkpt>
      <trkpt lat="47.52093" lon="-2.30337">
        <ele>21.39999961853</ele>
        <time>2021-10-17T09:01:53.000Z</time>
      </trkpt>
      <trkpt lat="47.52086" lon="-2.30323">
        <ele>21.39999961853</ele>
        <time>2021-10-17T09:01:55.000Z</time>
      </trkpt>
      <trkpt lat="47.52072" lon="-2.30304">
        <ele>20.799999237061</ele>
        <time>2021-10-17T09:01:58.000Z</time>
      </trkpt>
      <trkpt lat="47.52069" lon="-2.30297">
        <ele>20.39999961853</ele>
        <time>2021-10-17T09:01:59.000Z</time>
      </trkpt>
      <trkpt lat="47.52065" lon="-2.3029">
        <ele>19.60000038147</ele>
        <time>2021-10-17T09:02:00.000Z</time>
      </trkpt>
      <trkpt lat="47.52062" lon="-2.30281">
        <ele>19.200000762939</ele>
        <time>2021-10-17T09:02:01.000Z</time>
      </trkpt>
      <trkpt lat="47.52054" lon="-2.30258">
        <ele>19.200000762939</ele>
        <time>2021-10-17T09:02:04.000Z</time>
      </trkpt>
      <trkpt lat="47.5204" lon="-2.30216">
        <ele>18.60000038147</ele>
        <time>2021-10-17T09:02:09.000Z</time>
      </trkpt>
      <trkpt lat="47.52037" lon="-2.30208">
        <ele>18.200000762939</ele>
        <time>2021-10-17T09:02:10.000Z</time>
      </trkpt>
      <trkpt lat="47.52035" lon="-2.302">
        <ele>17.799999237061</ele>
        <time>2021-10-17T09:02:11.000Z</time>
      </trkpt>
      <trkpt lat="47.52033" lon="-2.30191">
        <ele>17.39999961853</ele>
        <time>2021-10-17T09:02:12.000Z</time>
      </trkpt>
      <trkpt lat="47.52031" lon="-2.30182">
        <ele>17</ele>
        <time>2021-10-17T09:02:13.000Z</time>
      </trkpt>
      <trkpt lat="47.52021" lon="-2.30156">
        <ele>17</ele>
        <time>2021-10-17T09:02:16.000Z</time>
      </trkpt>
      <trkpt lat="47.52014" lon="-2.30139">
        <ele>17</ele>
        <time>2021-10-17T09:02:18.000Z</time>
      </trkpt>
      <trkpt lat="47.51999" lon="-2.30122">
        <ele>17</ele>
        <time>2021-10-17T09:02:21.000Z</time>
      </trkpt>
      <trkpt lat="47.51993" lon="-2.30119">
        <ele>17</ele>
        <time>2021-10-17T09:02:22.000Z</time>
      </trkpt>
      <trkpt lat="47.51976" lon="-2.30105">
        <ele>17</ele>
        <time>2021-10-17T09:02:26.000Z</time>
      </trkpt>
      <trkpt lat="47.51966" lon="-2.30103">
        <ele>17</ele>
        <time>2021-10-17T09:02:30.000Z</time>
      </trkpt>
      <trkpt lat="47.51967" lon="-2.30113">
        <ele>17</ele>
        <time>2021-10-17T09:02:33.000Z</time>
      </trkpt>
      <trkpt lat="47.51979" lon="-2.30124">
        <ele>16.39999961853</ele>
        <time>2021-10-17T09:02:36.000Z</time>
      </trkpt>
      <trkpt lat="47.51984" lon="-2.30129">
        <ele>16</ele>
        <time>2021-10-17T09:02:37.000Z</time>
      </trkpt>
      <trkpt lat="47.5199" lon="-2.30135">
        <ele>15.39999961853</ele>
        <time>2021-10-17T09:02:38.000Z</time>
      </trkpt>
      <trkpt lat="47.51997" lon="-2.30141">
        <ele>15</ele>
        <time>2021-10-17T09:02:39.000Z</time>
      </trkpt>
      <trkpt lat="47.52003" lon="-2.30148">
        <ele>14.39999961853</ele>
        <time>2021-10-17T09:02:40.000Z</time>
      </trkpt>
      <trkpt lat="47.52007" lon="-2.30154">
        <ele>13.800000190735</ele>
        <time>2021-10-17T09:02:41.000Z</time>
      </trkpt>
      <trkpt lat="47.5201" lon="-2.30159">
        <ele>13.199999809265</ele>
        <time>2021-10-17T09:02:42.000Z</time>
      </trkpt>
      <trkpt lat="47.52012" lon="-2.30163">
        <ele>12.39999961853</ele>
        <time>2021-10-17T09:02:43.000Z</time>
      </trkpt>
      <trkpt lat="47.52013" lon="-2.30169">
        <ele>11.800000190735</ele>
        <time>2021-10-17T09:02:44.000Z</time>
      </trkpt>
      <trkpt lat="47.52014" lon="-2.30173">
        <ele>11.199999809265</ele>
        <time>2021-10-17T09:02:45.000Z</time>
      </trkpt>
      <trkpt lat="47.52013" lon="-2.30177">
        <ele>10.60000038147</ele>
        <time>2021-10-17T09:02:46.000Z</time>
      </trkpt>
      <trkpt lat="47.52013" lon="-2.30183">
        <ele>9.8000001907349</ele>
        <time>2021-10-17T09:02:47.000Z</time>
      </trkpt>
      <trkpt lat="47.52011" lon="-2.30189">
        <ele>9.1999998092651</ele>
        <time>2021-10-17T09:02:48.000Z</time>
      </trkpt>
      <trkpt lat="47.52008" lon="-2.30196">
        <ele>8.6000003814697</ele>
        <time>2021-10-17T09:02:49.000Z</time>
      </trkpt>
      <trkpt lat="47.52005" lon="-2.30203">
        <ele>7</ele>
        <time>2021-10-17T09:02:50.000Z</time>
      </trkpt>
      <trkpt lat="47.52" lon="-2.30212">
        <ele>6.1999998092651</ele>
        <time>2021-10-17T09:02:51.000Z</time>
      </trkpt>
      <trkpt lat="47.51996" lon="-2.3022">
        <ele>5.4000000953674</ele>
        <time>2021-10-17T09:02:52.000Z</time>
      </trkpt>
      <trkpt lat="47.51993" lon="-2.30228">
        <ele>4.5999999046326</ele>
        <time>2021-10-17T09:02:53.000Z</time>
      </trkpt>
      <trkpt lat="47.51991" lon="-2.30234">
        <ele>3.5999999046326</ele>
        <time>2021-10-17T09:02:54.000Z</time>
      </trkpt>
      <trkpt lat="47.5199" lon="-2.3024">
        <ele>2.7999999523163</ele>
        <time>2021-10-17T09:02:55.000Z</time>
      </trkpt>
      <trkpt lat="47.51988" lon="-2.30245">
        <ele>2</ele>
        <time>2021-10-17T09:02:56.000Z</time>
      </trkpt>
      <trkpt lat="47.51986" lon="-2.30259">
        <ele>2</ele>
        <time>2021-10-17T09:02:58.000Z</time>
      </trkpt>
      <trkpt lat="47.51985" lon="-2.30267">
        <ele>1.6000000238419</ele>
        <time>2021-10-17T09:02:59.000Z</time>
      </trkpt>
      <trkpt lat="47.51984" lon="-2.30276">
        <ele>1.2000000476837</ele>
        <time>2021-10-17T09:03:00.000Z</time>
      </trkpt>
      <trkpt lat="47.51982" lon="-2.30284">
        <ele>0.60000002384186</ele>
        <time>2021-10-17T09:03:01.000Z</time>
      </trkpt>
      <trkpt lat="47.5198" lon="-2.30292">
        <ele>0.20000000298023</ele>
        <time>2021-10-17T09:03:02.000Z</time>
      </trkpt>
      <trkpt lat="47.51978" lon="-2.303">
        <ele>-0.20000000298023</ele>
        <time>2021-10-17T09:03:03.000Z</time>
      </trkpt>
      <trkpt lat="47.51976" lon="-2.30308">
        <ele>-0.20000000298023</ele>
        <time>2021-10-17T09:03:04.000Z</time>
      </trkpt>
      <trkpt lat="47.51974" lon="-2.30325">
        <ele>-0.20000000298023</ele>
        <time>2021-10-17T09:03:06.000Z</time>
      </trkpt>
      <trkpt lat="47.51975" lon="-2.30349">
        <ele>-0.20000000298023</ele>
        <time>2021-10-17T09:03:09.000Z</time>
      </trkpt>
      <trkpt lat="47.51975" lon="-2.30355">
        <ele>-0.20000000298023</ele>
        <time>2021-10-17T09:03:10.000Z</time>
      </trkpt>
      <trkpt lat="47.51973" lon="-2.30361">
        <ele>-0.20000000298023</ele>
        <time>2021-10-17T09:03:11.000Z</time>
      </trkpt>
      <trkpt lat="47.5197" lon="-2.30374">
        <ele>-0.20000000298023</ele>
        <time>2021-10-17T09:03:13.000Z</time>
      </trkpt>
      <trkpt lat="47.51958" lon="-2.30417">
        <ele>-0.20000000298023</ele>
        <time>2021-10-17T09:03:20.000Z</time>
      </trkpt>
      <trkpt lat="47.51956" lon="-2.30442">
        <ele>-0.20000000298023</ele>
        <time>2021-10-17T09:03:25.000Z</time>
      </trkpt>
      <trkpt lat="47.51953" lon="-2.30443">
        <ele>-0.20000000298023</ele>
        <time>2021-10-17T09:03:26.000Z</time>
      </trkpt>
      <trkpt lat="47.51951" lon="-2.3044">
        <ele>-0.20000000298023</ele>
        <time>2021-10-17T09:03:28.000Z</time>
      </trkpt>
      <trkpt lat="47.51949" lon="-2.30429">
        <ele>-0.20000000298023</ele>
        <time>2021-10-17T09:03:31.000Z</time>
      </trkpt>
      <trkpt lat="47.51948" lon="-2.30423">
        <ele>-0.20000000298023</ele>
        <time>2021-10-17T09:03:33.000Z</time>
      </trkpt>
      <trkpt lat="47.51946" lon="-2.3042">
        <ele>0.20000000298023</ele>
        <time>2021-10-17T09:03:34.000Z</time>
      </trkpt>
      <trkpt lat="47.51945" lon="-2.30418">
        <ele>0.60000002384186</ele>
        <time>2021-10-17T09:03:35.000Z</time>
      </trkpt>
      <trkpt lat="47.51943" lon="-2.30417">
        <ele>1</ele>
        <time>2021-10-17T09:03:36.000Z</time>
      </trkpt>
      <trkpt lat="47.51942" lon="-2.30417">
        <ele>1.3999999761581</ele>
        <time>2021-10-17T09:03:37.000Z</time>
      </trkpt>
      <trkpt lat="47.5194" lon="-2.30418">
        <ele>2</ele>
        <time>2021-10-17T09:03:38.000Z</time>
      </trkpt>
      <trkpt lat="47.51938" lon="-2.30418">
        <ele>3</ele>
        <time>2021-10-17T09:03:39.000Z</time>
      </trkpt>
      <trkpt lat="47.51937" lon="-2.30418">
        <ele>3.4000000953674</ele>
        <time>2021-10-17T09:03:40.000Z</time>
      </trkpt>
      <trkpt lat="47.51935" lon="-2.30419">
        <ele>4</ele>
        <time>2021-10-17T09:03:41.000Z</time>
      </trkpt>
      <trkpt lat="47.51933" lon="-2.30419">
        <ele>4.4000000953674</ele>
        <time>2021-10-17T09:03:42.000Z</time>
      </trkpt>
      <trkpt lat="47.51931" lon="-2.30419">
        <ele>5</ele>
        <time>2021-10-17T09:03:43.000Z</time>
      </trkpt>
      <trkpt lat="47.5193" lon="-2.30419">
        <ele>5.4000000953674</ele>
        <time>2021-10-17T09:03:44.000Z</time>
      </trkpt>
      <trkpt lat="47.51928" lon="-2.30419">
        <ele>5.8000001907349</ele>
        <time>2021-10-17T09:03:45.000Z</time>
      </trkpt>
      <trkpt lat="47.51926" lon="-2.30419">
        <ele>6.4000000953674</ele>
        <time>2021-10-17T09:03:46.000Z</time>
      </trkpt>
      <trkpt lat="47.51924" lon="-2.3042">
        <ele>6.8000001907349</ele>
        <time>2021-10-17T09:03:47.000Z</time>
      </trkpt>
      <trkpt lat="47.51922" lon="-2.3042">
        <ele>7.4000000953674</ele>
        <time>2021-10-17T09:03:48.000Z</time>
      </trkpt>
      <trkpt lat="47.51921" lon="-2.3042">
        <ele>7.8000001907349</ele>
        <time>2021-10-17T09:03:49.000Z</time>
      </trkpt>
      <trkpt lat="47.51919" lon="-2.3042">
        <ele>8.1999998092651</ele>
        <time>2021-10-17T09:03:50.000Z</time>
      </trkpt>
      <trkpt lat="47.51917" lon="-2.3042">
        <ele>8.8000001907349</ele>
        <time>2021-10-17T09:03:51.000Z</time>
      </trkpt>
      <trkpt lat="47.51915" lon="-2.30415">
        <ele>9.1999998092651</ele>
        <time>2021-10-17T09:03:53.000Z</time>
      </trkpt>
      <trkpt lat="47.51914" lon="-2.30413">
        <ele>9.6000003814697</ele>
        <time>2021-10-17T09:03:54.000Z</time>
      </trkpt>
      <trkpt lat="47.51914" lon="-2.3041">
        <ele>10</ele>
        <time>2021-10-17T09:03:55.000Z</time>
      </trkpt>
      <trkpt lat="47.51913" lon="-2.30406">
        <ele>10.39999961853</ele>
        <time>2021-10-17T09:03:56.000Z</time>
      </trkpt>
      <trkpt lat="47.51912" lon="-2.30404">
        <ele>11</ele>
        <time>2021-10-17T09:03:57.000Z</time>
      </trkpt>
      <trkpt lat="47.5191" lon="-2.30396">
        <ele>11.39999961853</ele>
        <time>2021-10-17T09:04:00.000Z</time>
      </trkpt>
      <trkpt lat="47.51909" lon="-2.30393">
        <ele>11.800000190735</ele>
        <time>2021-10-17T09:04:01.000Z</time>
      </trkpt>
      <trkpt lat="47.51907" lon="-2.30392">
        <ele>12.199999809265</ele>
        <time>2021-10-17T09:04:02.000Z</time>
      </trkpt>
      <trkpt lat="47.51906" lon="-2.30392">
        <ele>12.60000038147</ele>
        <time>2021-10-17T09:04:03.000Z</time>
      </trkpt>
      <trkpt lat="47.51904" lon="-2.30392">
        <ele>13</ele>
        <time>2021-10-17T09:04:04.000Z</time>
      </trkpt>
      <trkpt lat="47.51902" lon="-2.30392">
        <ele>13</ele>
        <time>2021-10-17T09:04:05.000Z</time>
      </trkpt>
      <trkpt lat="47.51901" lon="-2.30384">
        <ele>13</ele>
        <time>2021-10-17T09:04:08.000Z</time>
      </trkpt>
      <trkpt lat="47.519" lon="-2.3038">
        <ele>13</ele>
        <time>2021-10-17T09:04:09.000Z</time>
      </trkpt>
      <trkpt lat="47.51897" lon="-2.30368">
        <ele>13</ele>
        <time>2021-10-17T09:04:13.000Z</time>
      </trkpt>
      <trkpt lat="47.51896" lon="-2.30368">
        <ele>13</ele>
        <time>2021-10-17T09:04:14.000Z</time>
      </trkpt>
      <trkpt lat="47.51891" lon="-2.3037">
        <ele>13.39999961853</ele>
        <time>2021-10-17T09:04:16.000Z</time>
      </trkpt>
      <trkpt lat="47.51888" lon="-2.30371">
        <ele>13.800000190735</ele>
        <time>2021-10-17T09:04:17.000Z</time>
      </trkpt>
      <trkpt lat="47.51886" lon="-2.30372">
        <ele>14.199999809265</ele>
        <time>2021-10-17T09:04:18.000Z</time>
      </trkpt>
      <trkpt lat="47.51883" lon="-2.30373">
        <ele>14.60000038147</ele>
        <time>2021-10-17T09:04:19.000Z</time>
      </trkpt>
      <trkpt lat="47.5188" lon="-2.30375">
        <ele>15.199999809265</ele>
        <time>2021-10-17T09:04:20.000Z</time>
      </trkpt>
      <trkpt lat="47.51869" lon="-2.30377">
        <ele>15.199999809265</ele>
        <time>2021-10-17T09:04:24.000Z</time>
      </trkpt>
      <trkpt lat="47.51851" lon="-2.30377">
        <ele>15.199999809265</ele>
        <time>2021-10-17T09:04:31.000Z</time>
      </trkpt>
      <trkpt lat="47.51838" lon="-2.30376">
        <ele>15.60000038147</ele>
        <time>2021-10-17T09:04:37.000Z</time>
      </trkpt>
      <trkpt lat="47.51836" lon="-2.30376">
        <ele>16</ele>
        <time>2021-10-17T09:04:38.000Z</time>
      </trkpt>
      <trkpt lat="47.51835" lon="-2.30376">
        <ele>16.39999961853</ele>
        <time>2021-10-17T09:04:39.000Z</time>
      </trkpt>
      <trkpt lat="47.51834" lon="-2.30377">
        <ele>16.799999237061</ele>
        <time>2021-10-17T09:04:40.000Z</time>
      </trkpt>
      <trkpt lat="47.51834" lon="-2.30379">
        <ele>17.200000762939</ele>
        <time>2021-10-17T09:04:41.000Z</time>
      </trkpt>
      <trkpt lat="47.51834" lon="-2.30382">
        <ele>17.200000762939</ele>
        <time>2021-10-17T09:04:42.000Z</time>
      </trkpt>
      <trkpt lat="47.51834" lon="-2.30402">
        <ele>17.200000762939</ele>
        <time>2021-10-17T09:04:48.000Z</time>
      </trkpt>
      <trkpt lat="47.51834" lon="-2.3042">
        <ele>17.200000762939</ele>
        <time>2021-10-17T09:04:55.000Z</time>
      </trkpt>
      <trkpt lat="47.51829" lon="-2.30423">
        <ele>17.200000762939</ele>
        <time>2021-10-17T09:05:01.000Z</time>
      </trkpt>
      <trkpt lat="47.51826" lon="-2.30422">
        <ele>17.200000762939</ele>
        <time>2021-10-17T09:05:02.000Z</time>
      </trkpt>
      <trkpt lat="47.51822" lon="-2.30406">
        <ele>17.200000762939</ele>
        <time>2021-10-17T09:05:06.000Z</time>
      </trkpt>
      <trkpt lat="47.51821" lon="-2.30401">
        <ele>17.200000762939</ele>
        <time>2021-10-17T09:05:07.000Z</time>
      </trkpt>
      <trkpt lat="47.51817" lon="-2.30378">
        <ele>17.200000762939</ele>
        <time>2021-10-17T09:05:11.000Z</time>
      </trkpt>
      <trkpt lat="47.51813" lon="-2.30333">
        <ele>17.200000762939</ele>
        <time>2021-10-17T09:05:19.000Z</time>
      </trkpt>
      <trkpt lat="47.51816" lon="-2.3033">
        <ele>17.200000762939</ele>
        <time>2021-10-17T09:05:20.000Z</time>
      </trkpt>
      <trkpt lat="47.51822" lon="-2.30327">
        <ele>17.200000762939</ele>
        <time>2021-10-17T09:05:22.000Z</time>
      </trkpt>
      <trkpt lat="47.5183" lon="-2.30317">
        <ele>17.200000762939</ele>
        <time>2021-10-17T09:05:26.000Z</time>
      </trkpt>
      <trkpt lat="47.51833" lon="-2.30296">
        <ele>17.200000762939</ele>
        <time>2021-10-17T09:05:31.000Z</time>
      </trkpt>
      <trkpt lat="47.51833" lon="-2.30292">
        <ele>17.200000762939</ele>
        <time>2021-10-17T09:05:32.000Z</time>
      </trkpt>
      <trkpt lat="47.51831" lon="-2.30275">
        <ele>17.200000762939</ele>
        <time>2021-10-17T09:05:36.000Z</time>
      </trkpt>
      <trkpt lat="47.51825" lon="-2.30254">
        <ele>17.200000762939</ele>
        <time>2021-10-17T09:05:41.000Z</time>
      </trkpt>
      <trkpt lat="47.5182" lon="-2.30248">
        <ele>16.799999237061</ele>
        <time>2021-10-17T09:05:44.000Z</time>
      </trkpt>
      <trkpt lat="47.51818" lon="-2.30247">
        <ele>16.39999961853</ele>
        <time>2021-10-17T09:05:45.000Z</time>
      </trkpt>
      <trkpt lat="47.51816" lon="-2.30245">
        <ele>15.800000190735</ele>
        <time>2021-10-17T09:05:46.000Z</time>
      </trkpt>
      <trkpt lat="47.51813" lon="-2.30244">
        <ele>15.39999961853</ele>
        <time>2021-10-17T09:05:47.000Z</time>
      </trkpt>
      <trkpt lat="47.5181" lon="-2.30242">
        <ele>15</ele>
        <time>2021-10-17T09:05:48.000Z</time>
      </trkpt>
      <trkpt lat="47.51803" lon="-2.3024">
        <ele>14.60000038147</ele>
        <time>2021-10-17T09:05:50.000Z</time>
      </trkpt>
      <trkpt lat="47.51801" lon="-2.30239">
        <ele>14</ele>
        <time>2021-10-17T09:05:51.000Z</time>
      </trkpt>
      <trkpt lat="47.51798" lon="-2.30241">
        <ele>13.60000038147</ele>
        <time>2021-10-17T09:05:52.000Z</time>
      </trkpt>
      <trkpt lat="47.51796" lon="-2.30244">
        <ele>13</ele>
        <time>2021-10-17T09:05:53.000Z</time>
      </trkpt>
      <trkpt lat="47.51795" lon="-2.30248">
        <ele>12.60000038147</ele>
        <time>2021-10-17T09:05:54.000Z</time>
      </trkpt>
      <trkpt lat="47.51793" lon="-2.30251">
        <ele>12</ele>
        <time>2021-10-17T09:05:55.000Z</time>
      </trkpt>
      <trkpt lat="47.51792" lon="-2.30254">
        <ele>11.39999961853</ele>
        <time>2021-10-17T09:05:56.000Z</time>
      </trkpt>
      <trkpt lat="47.5179" lon="-2.30257">
        <ele>11</ele>
        <time>2021-10-17T09:05:57.000Z</time>
      </trkpt>
      <trkpt lat="47.51789" lon="-2.30259">
        <ele>10.39999961853</ele>
        <time>2021-10-17T09:05:58.000Z</time>
      </trkpt>
      <trkpt lat="47.51787" lon="-2.30261">
        <ele>9.8000001907349</ele>
        <time>2021-10-17T09:05:59.000Z</time>
      </trkpt>
      <trkpt lat="47.51785" lon="-2.30263">
        <ele>9.1999998092651</ele>
        <time>2021-10-17T09:06:00.000Z</time>
      </trkpt>
      <trkpt lat="47.51783" lon="-2.30266">
        <ele>8.6000003814697</ele>
        <time>2021-10-17T09:06:01.000Z</time>
      </trkpt>
      <trkpt lat="47.51781" lon="-2.30268">
        <ele>8</ele>
        <time>2021-10-17T09:06:02.000Z</time>
      </trkpt>
      <trkpt lat="47.5178" lon="-2.3027">
        <ele>7.5999999046326</ele>
        <time>2021-10-17T09:06:03.000Z</time>
      </trkpt>
      <trkpt lat="47.51778" lon="-2.30272">
        <ele>7</ele>
        <time>2021-10-17T09:06:04.000Z</time>
      </trkpt>
      <trkpt lat="47.51775" lon="-2.30275">
        <ele>6.4000000953674</ele>
        <time>2021-10-17T09:06:05.000Z</time>
      </trkpt>
      <trkpt lat="47.51773" lon="-2.30273">
        <ele>5.5999999046326</ele>
        <time>2021-10-17T09:06:06.000Z</time>
      </trkpt>
      <trkpt lat="47.51772" lon="-2.3027">
        <ele>5</ele>
        <time>2021-10-17T09:06:07.000Z</time>
      </trkpt>
      <trkpt lat="47.51771" lon="-2.30266">
        <ele>3.7999999523163</ele>
        <time>2021-10-17T09:06:08.000Z</time>
      </trkpt>
      <trkpt lat="47.5177" lon="-2.3026">
        <ele>3.7999999523163</ele>
        <time>2021-10-17T09:06:09.000Z</time>
      </trkpt>
      <trkpt lat="47.51769" lon="-2.30246">
        <ele>3.7999999523163</ele>
        <time>2021-10-17T09:06:11.000Z</time>
      </trkpt>
      <trkpt lat="47.51768" lon="-2.30229">
        <ele>3.7999999523163</ele>
        <time>2021-10-17T09:06:13.000Z</time>
      </trkpt>
      <trkpt lat="47.5176" lon="-2.30207">
        <ele>3.2000000476837</ele>
        <time>2021-10-17T09:06:16.000Z</time>
      </trkpt>
      <trkpt lat="47.51757" lon="-2.30204">
        <ele>2.7999999523163</ele>
        <time>2021-10-17T09:06:17.000Z</time>
      </trkpt>
      <trkpt lat="47.51755" lon="-2.30207">
        <ele>2.4000000953674</ele>
        <time>2021-10-17T09:06:18.000Z</time>
      </trkpt>
      <trkpt lat="47.51754" lon="-2.30207">
        <ele>2</ele>
        <time>2021-10-17T09:06:19.000Z</time>
      </trkpt>
      <trkpt lat="47.51752" lon="-2.3021">
        <ele>1.3999999761581</ele>
        <time>2021-10-17T09:06:20.000Z</time>
      </trkpt>
      <trkpt lat="47.51754" lon="-2.30218">
        <ele>1.3999999761581</ele>
        <time>2021-10-17T09:06:22.000Z</time>
      </trkpt>
      <trkpt lat="47.51755" lon="-2.30223">
        <ele>1</ele>
        <time>2021-10-17T09:06:23.000Z</time>
      </trkpt>
      <trkpt lat="47.51756" lon="-2.30229">
        <ele>0.60000002384186</ele>
        <time>2021-10-17T09:06:24.000Z</time>
      </trkpt>
      <trkpt lat="47.51756" lon="-2.30236">
        <ele>0.20000000298023</ele>
        <time>2021-10-17T09:06:25.000Z</time>
      </trkpt>
      <trkpt lat="47.51756" lon="-2.30243">
        <ele>-0.40000000596046</ele>
        <time>2021-10-17T09:06:26.000Z</time>
      </trkpt>
      <trkpt lat="47.51756" lon="-2.3025">
        <ele>-0.80000001192093</ele>
        <time>2021-10-17T09:06:27.000Z</time>
      </trkpt>
      <trkpt lat="47.51755" lon="-2.30289">
        <ele>-1.6000000238419</ele>
        <time>2021-10-17T09:06:32.000Z</time>
      </trkpt>
      <trkpt lat="47.51755" lon="-2.30298">
        <ele>-2</ele>
        <time>2021-10-17T09:06:33.000Z</time>
      </trkpt>
      <trkpt lat="47.51755" lon="-2.30306">
        <ele>-2.4000000953674</ele>
        <time>2021-10-17T09:06:34.000Z</time>
      </trkpt>
      <trkpt lat="47.51755" lon="-2.30313">
        <ele>-2.7999999523163</ele>
        <time>2021-10-17T09:06:35.000Z</time>
      </trkpt>
      <trkpt lat="47.51753" lon="-2.3032">
        <ele>-2.7999999523163</ele>
        <time>2021-10-17T09:06:36.000Z</time>
      </trkpt>
      <trkpt lat="47.5175" lon="-2.30336">
        <ele>-2.7999999523163</ele>
        <time>2021-10-17T09:06:38.000Z</time>
      </trkpt>
      <trkpt lat="47.51744" lon="-2.30353">
        <ele>-2.7999999523163</ele>
        <time>2021-10-17T09:06:40.000Z</time>
      </trkpt>
      <trkpt lat="47.51735" lon="-2.30378">
        <ele>-2.7999999523163</ele>
        <time>2021-10-17T09:06:43.000Z</time>
      </trkpt>
      <trkpt lat="47.5173" lon="-2.30414">
        <ele>-2.7999999523163</ele>
        <time>2021-10-17T09:06:47.000Z</time>
      </trkpt>
      <trkpt lat="47.5173" lon="-2.30422">
        <ele>-2.7999999523163</ele>
        <time>2021-10-17T09:06:48.000Z</time>
      </trkpt>
      <trkpt lat="47.51729" lon="-2.30461">
        <ele>-2.7999999523163</ele>
        <time>2021-10-17T09:06:54.000Z</time>
      </trkpt>
      <trkpt lat="47.5173" lon="-2.30472">
        <ele>-2.4000000953674</ele>
        <time>2021-10-17T09:06:56.000Z</time>
      </trkpt>
      <trkpt lat="47.5173" lon="-2.30478">
        <ele>-1.6000000238419</ele>
        <time>2021-10-17T09:06:57.000Z</time>
      </trkpt>
      <trkpt lat="47.5173" lon="-2.30484">
        <ele>-1.2000000476837</ele>
        <time>2021-10-17T09:06:58.000Z</time>
      </trkpt>
      <trkpt lat="47.51731" lon="-2.3049">
        <ele>-0.80000001192093</ele>
        <time>2021-10-17T09:06:59.000Z</time>
      </trkpt>
      <trkpt lat="47.51731" lon="-2.30496">
        <ele>-0.80000001192093</ele>
        <time>2021-10-17T09:07:00.000Z</time>
      </trkpt>
      <trkpt lat="47.51732" lon="-2.30517">
        <ele>-0.40000000596046</ele>
        <time>2021-10-17T09:07:04.000Z</time>
      </trkpt>
      <trkpt lat="47.51732" lon="-2.30523">
        <ele>0.20000000298023</ele>
        <time>2021-10-17T09:07:05.000Z</time>
      </trkpt>
      <trkpt lat="47.51733" lon="-2.30528">
        <ele>0.60000002384186</ele>
        <time>2021-10-17T09:07:06.000Z</time>
      </trkpt>
      <trkpt lat="47.51733" lon="-2.30533">
        <ele>1</ele>
        <time>2021-10-17T09:07:07.000Z</time>
      </trkpt>
      <trkpt lat="47.51734" lon="-2.30539">
        <ele>1.3999999761581</ele>
        <time>2021-10-17T09:07:08.000Z</time>
      </trkpt>
      <trkpt lat="47.51734" lon="-2.30555">
        <ele>1.7999999523163</ele>
        <time>2021-10-17T09:07:11.000Z</time>
      </trkpt>
      <trkpt lat="47.51733" lon="-2.3056">
        <ele>2.2000000476837</ele>
        <time>2021-10-17T09:07:12.000Z</time>
      </trkpt>
      <trkpt lat="47.51733" lon="-2.30566">
        <ele>2.7999999523163</ele>
        <time>2021-10-17T09:07:13.000Z</time>
      </trkpt>
      <trkpt lat="47.51733" lon="-2.30571">
        <ele>3.2000000476837</ele>
        <time>2021-10-17T09:07:14.000Z</time>
      </trkpt>
      <trkpt lat="47.51732" lon="-2.30576">
        <ele>3.5999999046326</ele>
        <time>2021-10-17T09:07:15.000Z</time>
      </trkpt>
      <trkpt lat="47.5173" lon="-2.30583">
        <ele>4</ele>
        <time>2021-10-17T09:07:17.000Z</time>
      </trkpt>
      <trkpt lat="47.51727" lon="-2.30587">
        <ele>4.5999999046326</ele>
        <time>2021-10-17T09:07:18.000Z</time>
      </trkpt>
      <trkpt lat="47.51725" lon="-2.3059">
        <ele>5</ele>
        <time>2021-10-17T09:07:19.000Z</time>
      </trkpt>
      <trkpt lat="47.51721" lon="-2.30592">
        <ele>5.4000000953674</ele>
        <time>2021-10-17T09:07:20.000Z</time>
      </trkpt>
      <trkpt lat="47.51718" lon="-2.30593">
        <ele>5.8000001907349</ele>
        <time>2021-10-17T09:07:21.000Z</time>
      </trkpt>
      <trkpt lat="47.51715" lon="-2.30593">
        <ele>6.4000000953674</ele>
        <time>2021-10-17T09:07:22.000Z</time>
      </trkpt>
      <trkpt lat="47.51711" lon="-2.30591">
        <ele>6.8000001907349</ele>
        <time>2021-10-17T09:07:23.000Z</time>
      </trkpt>
      <trkpt lat="47.51708" lon="-2.3059">
        <ele>7.1999998092651</ele>
        <time>2021-10-17T09:07:24.000Z</time>
      </trkpt>
      <trkpt lat="47.51704" lon="-2.30588">
        <ele>7.5999999046326</ele>
        <time>2021-10-17T09:07:25.000Z</time>
      </trkpt>
      <trkpt lat="47.51701" lon="-2.30585">
        <ele>8.1999998092651</ele>
        <time>2021-10-17T09:07:26.000Z</time>
      </trkpt>
      <trkpt lat="47.51698" lon="-2.30583">
        <ele>8.1999998092651</ele>
        <time>2021-10-17T09:07:27.000Z</time>
      </trkpt>
      <trkpt lat="47.51683" lon="-2.30573">
        <ele>8.6000003814697</ele>
        <time>2021-10-17T09:07:32.000Z</time>
      </trkpt>
      <trkpt lat="47.5168" lon="-2.30571">
        <ele>9</ele>
        <time>2021-10-17T09:07:33.000Z</time>
      </trkpt>
      <trkpt lat="47.51677" lon="-2.3057">
        <ele>9.3999996185303</ele>
        <time>2021-10-17T09:07:34.000Z</time>
      </trkpt>
      <trkpt lat="47.51674" lon="-2.30568">
        <ele>9.8000001907349</ele>
        <time>2021-10-17T09:07:35.000Z</time>
      </trkpt>
      <trkpt lat="47.51671" lon="-2.30566">
        <ele>10.199999809265</ele>
        <time>2021-10-17T09:07:36.000Z</time>
      </trkpt>
      <trkpt lat="47.5167" lon="-2.30561">
        <ele>10.199999809265</ele>
        <time>2021-10-17T09:07:37.000Z</time>
      </trkpt>
      <trkpt lat="47.5167" lon="-2.30556">
        <ele>10.199999809265</ele>
        <time>2021-10-17T09:07:38.000Z</time>
      </trkpt>
      <trkpt lat="47.51676" lon="-2.3054">
        <ele>10.199999809265</ele>
        <time>2021-10-17T09:07:42.000Z</time>
      </trkpt>
      <trkpt lat="47.51678" lon="-2.30534">
        <ele>10.60000038147</ele>
        <time>2021-10-17T09:07:44.000Z</time>
      </trkpt>
      <trkpt lat="47.51678" lon="-2.30531">
        <ele>11</ele>
        <time>2021-10-17T09:07:45.000Z</time>
      </trkpt>
      <trkpt lat="47.51679" lon="-2.30527">
        <ele>12</ele>
        <time>2021-10-17T09:07:46.000Z</time>
      </trkpt>
      <trkpt lat="47.5168" lon="-2.30524">
        <ele>12.39999961853</ele>
        <time>2021-10-17T09:07:47.000Z</time>
      </trkpt>
      <trkpt lat="47.51682" lon="-2.30518">
        <ele>12.39999961853</ele>
        <time>2021-10-17T09:07:49.000Z</time>
      </trkpt>
      <trkpt lat="47.51688" lon="-2.30497">
        <ele>12.39999961853</ele>
        <time>2021-10-17T09:07:57.000Z</time>
      </trkpt>
      <trkpt lat="47.51687" lon="-2.3049">
        <ele>12.39999961853</ele>
        <time>2021-10-17T09:08:01.000Z</time>
      </trkpt>
      <trkpt lat="47.51688" lon="-2.30489">
        <ele>12.39999961853</ele>
        <time>2021-10-17T09:08:03.000Z</time>
      </trkpt>
      <trkpt lat="47.51686" lon="-2.30483">
        <ele>14</ele>
        <time>2021-10-17T09:18:37.000Z</time>
      </trkpt>
      <trkpt lat="47.51684" lon="-2.30482">
        <ele>14.39999961853</ele>
        <time>2021-10-17T09:18:38.000Z</time>
      </trkpt>
      <trkpt lat="47.51682" lon="-2.30482">
        <ele>14.39999961853</ele>
        <time>2021-10-17T09:18:40.000Z</time>
      </trkpt>
      <trkpt lat="47.51678" lon="-2.30481">
        <ele>14.39999961853</ele>
        <time>2021-10-17T09:18:42.000Z</time>
      </trkpt>
      <trkpt lat="47.5167" lon="-2.30478">
        <ele>14.39999961853</ele>
        <time>2021-10-17T09:18:45.000Z</time>
      </trkpt>
      <trkpt lat="47.51651" lon="-2.30474">
        <ele>14.39999961853</ele>
        <time>2021-10-17T09:18:51.000Z</time>
      </trkpt>
      <trkpt lat="47.51626" lon="-2.30468">
        <ele>14.39999961853</ele>
        <time>2021-10-17T09:18:59.000Z</time>
      </trkpt>
      <trkpt lat="47.51624" lon="-2.30467">
        <ele>14.39999961853</ele>
        <time>2021-10-17T09:19:01.000Z</time>
      </trkpt>
      <trkpt lat="47.51621" lon="-2.30466">
        <ele>14.39999961853</ele>
        <time>2021-10-17T09:19:18.000Z</time>
      </trkpt>
      <trkpt lat="47.51612" lon="-2.30459">
        <ele>14.39999961853</ele>
        <time>2021-10-17T09:19:22.000Z</time>
      </trkpt>
      <trkpt lat="47.51594" lon="-2.30445">
        <ele>14.39999961853</ele>
        <time>2021-10-17T09:19:28.000Z</time>
      </trkpt>
      <trkpt lat="47.51588" lon="-2.3044">
        <ele>14.800000190735</ele>
        <time>2021-10-17T09:19:30.000Z</time>
      </trkpt>
      <trkpt lat="47.51585" lon="-2.30437">
        <ele>15.199999809265</ele>
        <time>2021-10-17T09:19:31.000Z</time>
      </trkpt>
      <trkpt lat="47.51582" lon="-2.30435">
        <ele>15.60000038147</ele>
        <time>2021-10-17T09:19:32.000Z</time>
      </trkpt>
      <trkpt lat="47.51579" lon="-2.30434">
        <ele>16</ele>
        <time>2021-10-17T09:19:33.000Z</time>
      </trkpt>
      <trkpt lat="47.51576" lon="-2.30431">
        <ele>16.39999961853</ele>
        <time>2021-10-17T09:19:34.000Z</time>
      </trkpt>
      <trkpt lat="47.51567" lon="-2.30426">
        <ele>16.39999961853</ele>
        <time>2021-10-17T09:19:37.000Z</time>
      </trkpt>
      <trkpt lat="47.51546" lon="-2.30418">
        <ele>16.39999961853</ele>
        <time>2021-10-17T09:19:44.000Z</time>
      </trkpt>
      <trkpt lat="47.51533" lon="-2.30414">
        <ele>17</ele>
        <time>2021-10-17T09:19:48.000Z</time>
      </trkpt>
      <trkpt lat="47.5153" lon="-2.30413">
        <ele>17.39999961853</ele>
        <time>2021-10-17T09:19:49.000Z</time>
      </trkpt>
      <trkpt lat="47.51527" lon="-2.30412">
        <ele>17.799999237061</ele>
        <time>2021-10-17T09:19:50.000Z</time>
      </trkpt>
      <trkpt lat="47.51524" lon="-2.30411">
        <ele>18.200000762939</ele>
        <time>2021-10-17T09:19:51.000Z</time>
      </trkpt>
      <trkpt lat="47.51521" lon="-2.3041">
        <ele>18.60000038147</ele>
        <time>2021-10-17T09:19:52.000Z</time>
      </trkpt>
      <trkpt lat="47.51511" lon="-2.30408">
        <ele>18.60000038147</ele>
        <time>2021-10-17T09:19:55.000Z</time>
      </trkpt>
      <trkpt lat="47.51501" lon="-2.30404">
        <ele>19</ele>
        <time>2021-10-17T09:19:59.000Z</time>
      </trkpt>
      <trkpt lat="47.51498" lon="-2.30403">
        <ele>19.39999961853</ele>
        <time>2021-10-17T09:20:00.000Z</time>
      </trkpt>
      <trkpt lat="47.51495" lon="-2.30403">
        <ele>20</ele>
        <time>2021-10-17T09:20:01.000Z</time>
      </trkpt>
      <trkpt lat="47.51493" lon="-2.30402">
        <ele>20.39999961853</ele>
        <time>2021-10-17T09:20:02.000Z</time>
      </trkpt>
      <trkpt lat="47.5149" lon="-2.30402">
        <ele>20.799999237061</ele>
        <time>2021-10-17T09:20:03.000Z</time>
      </trkpt>
      <trkpt lat="47.51479" lon="-2.30391">
        <ele>21.200000762939</ele>
        <time>2021-10-17T09:20:08.000Z</time>
      </trkpt>
      <trkpt lat="47.51477" lon="-2.30389">
        <ele>21.60000038147</ele>
        <time>2021-10-17T09:20:09.000Z</time>
      </trkpt>
      <trkpt lat="47.51476" lon="-2.30386">
        <ele>22</ele>
        <time>2021-10-17T09:20:10.000Z</time>
      </trkpt>
      <trkpt lat="47.51474" lon="-2.30382">
        <ele>22.39999961853</ele>
        <time>2021-10-17T09:20:11.000Z</time>
      </trkpt>
      <trkpt lat="47.51472" lon="-2.30378">
        <ele>22.799999237061</ele>
        <time>2021-10-17T09:20:12.000Z</time>
      </trkpt>
      <trkpt lat="47.51467" lon="-2.30366">
        <ele>22.799999237061</ele>
        <time>2021-10-17T09:20:15.000Z</time>
      </trkpt>
      <trkpt lat="47.51453" lon="-2.30346">
        <ele>22.799999237061</ele>
        <time>2021-10-17T09:20:21.000Z</time>
      </trkpt>
      <trkpt lat="47.51443" lon="-2.30333">
        <ele>23.200000762939</ele>
        <time>2021-10-17T09:20:26.000Z</time>
      </trkpt>
      <trkpt lat="47.51441" lon="-2.30332">
        <ele>23.60000038147</ele>
        <time>2021-10-17T09:20:27.000Z</time>
      </trkpt>
      <trkpt lat="47.51439" lon="-2.30332">
        <ele>24</ele>
        <time>2021-10-17T09:20:28.000Z</time>
      </trkpt>
      <trkpt lat="47.51438" lon="-2.30334">
        <ele>24.60000038147</ele>
        <time>2021-10-17T09:20:29.000Z</time>
      </trkpt>
      <trkpt lat="47.51437" lon="-2.30336">
        <ele>25</ele>
        <time>2021-10-17T09:20:30.000Z</time>
      </trkpt>
      <trkpt lat="47.51437" lon="-2.30344">
        <ele>25</ele>
        <time>2021-10-17T09:20:32.000Z</time>
      </trkpt>
      <trkpt lat="47.51436" lon="-2.30348">
        <ele>25</ele>
        <time>2021-10-17T09:20:33.000Z</time>
      </trkpt>
      <trkpt lat="47.51434" lon="-2.30375">
        <ele>25</ele>
        <time>2021-10-17T09:20:39.000Z</time>
      </trkpt>
      <trkpt lat="47.5143" lon="-2.30411">
        <ele>25</ele>
        <time>2021-10-17T09:20:47.000Z</time>
      </trkpt>
      <trkpt lat="47.5143" lon="-2.30416">
        <ele>25.39999961853</ele>
        <time>2021-10-17T09:20:48.000Z</time>
      </trkpt>
      <trkpt lat="47.51429" lon="-2.30421">
        <ele>25.799999237061</ele>
        <time>2021-10-17T09:20:49.000Z</time>
      </trkpt>
      <trkpt lat="47.51429" lon="-2.30426">
        <ele>26.200000762939</ele>
        <time>2021-10-17T09:20:50.000Z</time>
      </trkpt>
      <trkpt lat="47.51428" lon="-2.30432">
        <ele>26.60000038147</ele>
        <time>2021-10-17T09:20:51.000Z</time>
      </trkpt>
      <trkpt lat="47.51428" lon="-2.30437">
        <ele>27</ele>
        <time>2021-10-17T09:20:52.000Z</time>
      </trkpt>
      <trkpt lat="47.51426" lon="-2.30454">
        <ele>27</ele>
        <time>2021-10-17T09:20:55.000Z</time>
      </trkpt>
      <trkpt lat="47.51423" lon="-2.30495">
        <ele>27</ele>
        <time>2021-10-17T09:21:02.000Z</time>
      </trkpt>
      <trkpt lat="47.51417" lon="-2.30548">
        <ele>27</ele>
        <time>2021-10-17T09:21:10.000Z</time>
      </trkpt>
      <trkpt lat="47.51417" lon="-2.30558">
        <ele>27</ele>
        <time>2021-10-17T09:21:13.000Z</time>
      </trkpt>
      <trkpt lat="47.51416" lon="-2.30563">
        <ele>27</ele>
        <time>2021-10-17T09:21:15.000Z</time>
      </trkpt>
      <trkpt lat="47.51411" lon="-2.30566">
        <ele>27</ele>
        <time>2021-10-17T09:21:17.000Z</time>
      </trkpt>
      <trkpt lat="47.51397" lon="-2.30567">
        <ele>27</ele>
        <time>2021-10-17T09:21:23.000Z</time>
      </trkpt>
      <trkpt lat="47.51385" lon="-2.30564">
        <ele>27</ele>
        <time>2021-10-17T09:21:28.000Z</time>
      </trkpt>
      <trkpt lat="47.51373" lon="-2.30561">
        <ele>27.39999961853</ele>
        <time>2021-10-17T09:21:32.000Z</time>
      </trkpt>
      <trkpt lat="47.51369" lon="-2.3056">
        <ele>27.799999237061</ele>
        <time>2021-10-17T09:21:33.000Z</time>
      </trkpt>
      <trkpt lat="47.51365" lon="-2.30559">
        <ele>28.200000762939</ele>
        <time>2021-10-17T09:21:34.000Z</time>
      </trkpt>
      <trkpt lat="47.51362" lon="-2.30558">
        <ele>28.799999237061</ele>
        <time>2021-10-17T09:21:35.000Z</time>
      </trkpt>
      <trkpt lat="47.51359" lon="-2.30557">
        <ele>29.200000762939</ele>
        <time>2021-10-17T09:21:36.000Z</time>
      </trkpt>
      <trkpt lat="47.51342" lon="-2.30558">
        <ele>29.200000762939</ele>
        <time>2021-10-17T09:21:41.000Z</time>
      </trkpt>
      <trkpt lat="47.51321" lon="-2.30559">
        <ele>29.60000038147</ele>
        <time>2021-10-17T09:21:49.000Z</time>
      </trkpt>
      <trkpt lat="47.51319" lon="-2.3056">
        <ele>30</ele>
        <time>2021-10-17T09:21:50.000Z</time>
      </trkpt>
      <trkpt lat="47.51317" lon="-2.30561">
        <ele>30.39999961853</ele>
        <time>2021-10-17T09:21:51.000Z</time>
      </trkpt>
      <trkpt lat="47.51314" lon="-2.30562">
        <ele>30.799999237061</ele>
        <time>2021-10-17T09:21:52.000Z</time>
      </trkpt>
      <trkpt lat="47.51311" lon="-2.30563">
        <ele>31.39999961853</ele>
        <time>2021-10-17T09:21:53.000Z</time>
      </trkpt>
      <trkpt lat="47.51305" lon="-2.30564">
        <ele>31.39999961853</ele>
        <time>2021-10-17T09:21:55.000Z</time>
      </trkpt>
      <trkpt lat="47.51286" lon="-2.30567">
        <ele>31.799999237061</ele>
        <time>2021-10-17T09:22:02.000Z</time>
      </trkpt>
      <trkpt lat="47.51283" lon="-2.30568">
        <ele>32.200000762939</ele>
        <time>2021-10-17T09:22:03.000Z</time>
      </trkpt>
      <trkpt lat="47.5128" lon="-2.30569">
        <ele>32.599998474121</ele>
        <time>2021-10-17T09:22:04.000Z</time>
      </trkpt>
      <trkpt lat="47.51277" lon="-2.30569">
        <ele>33</ele>
        <time>2021-10-17T09:22:05.000Z</time>
      </trkpt>
      <trkpt lat="47.51275" lon="-2.3057">
        <ele>33.400001525879</ele>
        <time>2021-10-17T09:22:06.000Z</time>
      </trkpt>
      <trkpt lat="47.51263" lon="-2.3057">
        <ele>33.400001525879</ele>
        <time>2021-10-17T09:22:10.000Z</time>
      </trkpt>
      <trkpt lat="47.51259" lon="-2.3057">
        <ele>33.400001525879</ele>
        <time>2021-10-17T09:22:11.000Z</time>
      </trkpt>
      <trkpt lat="47.51244" lon="-2.30565">
        <ele>33.400001525879</ele>
        <time>2021-10-17T09:22:14.000Z</time>
      </trkpt>
      <trkpt lat="47.51239" lon="-2.30563">
        <ele>33.400001525879</ele>
        <time>2021-10-17T09:22:15.000Z</time>
      </trkpt>
      <trkpt lat="47.51218" lon="-2.30565">
        <ele>33.400001525879</ele>
        <time>2021-10-17T09:22:19.000Z</time>
      </trkpt>
      <trkpt lat="47.51182" lon="-2.30563">
        <ele>33.400001525879</ele>
        <time>2021-10-17T09:22:26.000Z</time>
      </trkpt>
      <trkpt lat="47.51161" lon="-2.30548">
        <ele>33.400001525879</ele>
        <time>2021-10-17T09:22:31.000Z</time>
      </trkpt>
      <trkpt lat="47.51162" lon="-2.30526">
        <ele>33.400001525879</ele>
        <time>2021-10-17T09:22:34.000Z</time>
      </trkpt>
      <trkpt lat="47.51162" lon="-2.30517">
        <ele>33.400001525879</ele>
        <time>2021-10-17T09:22:35.000Z</time>
      </trkpt>
      <trkpt lat="47.51166" lon="-2.3048">
        <ele>33</ele>
        <time>2021-10-17T09:22:39.000Z</time>
      </trkpt>
      <trkpt lat="47.51167" lon="-2.30471">
        <ele>32.599998474121</ele>
        <time>2021-10-17T09:22:40.000Z</time>
      </trkpt>
      <trkpt lat="47.51168" lon="-2.30461">
        <ele>32.200000762939</ele>
        <time>2021-10-17T09:22:41.000Z</time>
      </trkpt>
      <trkpt lat="47.51169" lon="-2.30452">
        <ele>31.799999237061</ele>
        <time>2021-10-17T09:22:42.000Z</time>
      </trkpt>
      <trkpt lat="47.5117" lon="-2.30444">
        <ele>31.200000762939</ele>
        <time>2021-10-17T09:22:43.000Z</time>
      </trkpt>
      <trkpt lat="47.51174" lon="-2.30408">
        <ele>31.200000762939</ele>
        <time>2021-10-17T09:22:47.000Z</time>
      </trkpt>
      <trkpt lat="47.5118" lon="-2.30359">
        <ele>30.799999237061</ele>
        <time>2021-10-17T09:22:52.000Z</time>
      </trkpt>
      <trkpt lat="47.5118" lon="-2.30348">
        <ele>30.39999961853</ele>
        <time>2021-10-17T09:22:53.000Z</time>
      </trkpt>
      <trkpt lat="47.51181" lon="-2.30336">
        <ele>29.799999237061</ele>
        <time>2021-10-17T09:22:54.000Z</time>
      </trkpt>
      <trkpt lat="47.51182" lon="-2.30326">
        <ele>29.39999961853</ele>
        <time>2021-10-17T09:22:55.000Z</time>
      </trkpt>
      <trkpt lat="47.51184" lon="-2.30317">
        <ele>28.799999237061</ele>
        <time>2021-10-17T09:22:56.000Z</time>
      </trkpt>
      <trkpt lat="47.51186" lon="-2.30307">
        <ele>28.39999961853</ele>
        <time>2021-10-17T09:22:57.000Z</time>
      </trkpt>
      <trkpt lat="47.51188" lon="-2.30299">
        <ele>27.799999237061</ele>
        <time>2021-10-17T09:22:58.000Z</time>
      </trkpt>
      <trkpt lat="47.51192" lon="-2.30291">
        <ele>27.200000762939</ele>
        <time>2021-10-17T09:22:59.000Z</time>
      </trkpt>
      <trkpt lat="47.51196" lon="-2.30283">
        <ele>26</ele>
        <time>2021-10-17T09:23:00.000Z</time>
      </trkpt>
      <trkpt lat="47.51201" lon="-2.30276">
        <ele>25.39999961853</ele>
        <time>2021-10-17T09:23:01.000Z</time>
      </trkpt>
      <trkpt lat="47.51206" lon="-2.30268">
        <ele>24.799999237061</ele>
        <time>2021-10-17T09:23:02.000Z</time>
      </trkpt>
      <trkpt lat="47.51209" lon="-2.30259">
        <ele>24.200000762939</ele>
        <time>2021-10-17T09:23:03.000Z</time>
      </trkpt>
      <trkpt lat="47.51212" lon="-2.30249">
        <ele>24.200000762939</ele>
        <time>2021-10-17T09:23:04.000Z</time>
      </trkpt>
      <trkpt lat="47.5121" lon="-2.30218">
        <ele>24.200000762939</ele>
        <time>2021-10-17T09:23:07.000Z</time>
      </trkpt>
      <trkpt lat="47.51208" lon="-2.30207">
        <ele>24.200000762939</ele>
        <time>2021-10-17T09:23:08.000Z</time>
      </trkpt>
      <trkpt lat="47.51199" lon="-2.30164">
        <ele>24.200000762939</ele>
        <time>2021-10-17T09:23:13.000Z</time>
      </trkpt>
      <trkpt lat="47.51195" lon="-2.30135">
        <ele>24.200000762939</ele>
        <time>2021-10-17T09:23:17.000Z</time>
      </trkpt>
      <trkpt lat="47.51196" lon="-2.30129">
        <ele>24.200000762939</ele>
        <time>2021-10-17T09:23:18.000Z</time>
      </trkpt>
      <trkpt lat="47.51203" lon="-2.30125">
        <ele>24.200000762939</ele>
        <time>2021-10-17T09:23:20.000Z</time>
      </trkpt>
      <trkpt lat="47.51214" lon="-2.3013">
        <ele>24.200000762939</ele>
        <time>2021-10-17T09:23:23.000Z</time>
      </trkpt>
      <trkpt lat="47.51221" lon="-2.30135">
        <ele>24.200000762939</ele>
        <time>2021-10-17T09:23:25.000Z</time>
      </trkpt>
      <trkpt lat="47.51228" lon="-2.30139">
        <ele>24.60000038147</ele>
        <time>2021-10-17T09:23:27.000Z</time>
      </trkpt>
      <trkpt lat="47.51232" lon="-2.30142">
        <ele>25</ele>
        <time>2021-10-17T09:23:28.000Z</time>
      </trkpt>
      <trkpt lat="47.51236" lon="-2.30145">
        <ele>25.39999961853</ele>
        <time>2021-10-17T09:23:29.000Z</time>
      </trkpt>
      <trkpt lat="47.5124" lon="-2.30148">
        <ele>25.799999237061</ele>
        <time>2021-10-17T09:23:30.000Z</time>
      </trkpt>
      <trkpt lat="47.51244" lon="-2.30151">
        <ele>26.200000762939</ele>
        <time>2021-10-17T09:23:31.000Z</time>
      </trkpt>
      <trkpt lat="47.51248" lon="-2.30154">
        <ele>26.200000762939</ele>
        <time>2021-10-17T09:23:32.000Z</time>
      </trkpt>
      <trkpt lat="47.51265" lon="-2.30163">
        <ele>26.200000762939</ele>
        <time>2021-10-17T09:23:36.000Z</time>
      </trkpt>
      <trkpt lat="47.51276" lon="-2.30161">
        <ele>26.200000762939</ele>
        <time>2021-10-17T09:23:38.000Z</time>
      </trkpt>
      <trkpt lat="47.51293" lon="-2.30153">
        <ele>26.200000762939</ele>
        <time>2021-10-17T09:23:41.000Z</time>
      </trkpt>
      <trkpt lat="47.51312" lon="-2.3015">
        <ele>26.200000762939</ele>
        <time>2021-10-17T09:23:44.000Z</time>
      </trkpt>
      <trkpt lat="47.5135" lon="-2.30144">
        <ele>26.200000762939</ele>
        <time>2021-10-17T09:23:50.000Z</time>
      </trkpt>
      <trkpt lat="47.51385" lon="-2.30144">
        <ele>26.200000762939</ele>
        <time>2021-10-17T09:23:56.000Z</time>
      </trkpt>
      <trkpt lat="47.51397" lon="-2.30145">
        <ele>25.799999237061</ele>
        <time>2021-10-17T09:23:58.000Z</time>
      </trkpt>
      <trkpt lat="47.51403" lon="-2.30145">
        <ele>25.39999961853</ele>
        <time>2021-10-17T09:23:59.000Z</time>
      </trkpt>
      <trkpt lat="47.5141" lon="-2.30146">
        <ele>25</ele>
        <time>2021-10-17T09:24:00.000Z</time>
      </trkpt>
      <trkpt lat="47.51416" lon="-2.30146">
        <ele>24.60000038147</ele>
        <time>2021-10-17T09:24:01.000Z</time>
      </trkpt>
      <trkpt lat="47.51422" lon="-2.30146">
        <ele>24.200000762939</ele>
        <time>2021-10-17T09:24:02.000Z</time>
      </trkpt>
      <trkpt lat="47.51449" lon="-2.30144">
        <ele>24.200000762939</ele>
        <time>2021-10-17T09:24:07.000Z</time>
      </trkpt>
      <trkpt lat="47.51459" lon="-2.30142">
        <ele>24.200000762939</ele>
        <time>2021-10-17T09:24:09.000Z</time>
      </trkpt>
      <trkpt lat="47.51465" lon="-2.30132">
        <ele>24.200000762939</ele>
        <time>2021-10-17T09:24:11.000Z</time>
      </trkpt>
      <trkpt lat="47.51468" lon="-2.30121">
        <ele>24.200000762939</ele>
        <time>2021-10-17T09:24:13.000Z</time>
      </trkpt>
      <trkpt lat="47.51473" lon="-2.30104">
        <ele>24.200000762939</ele>
        <time>2021-10-17T09:24:16.000Z</time>
      </trkpt>
      <trkpt lat="47.51482" lon="-2.30065">
        <ele>24.200000762939</ele>
        <time>2021-10-17T09:24:23.000Z</time>
      </trkpt>
      <trkpt lat="47.51487" lon="-2.30031">
        <ele>24.60000038147</ele>
        <time>2021-10-17T09:24:29.000Z</time>
      </trkpt>
      <trkpt lat="47.51487" lon="-2.30025">
        <ele>25</ele>
        <time>2021-10-17T09:24:30.000Z</time>
      </trkpt>
      <trkpt lat="47.51486" lon="-2.3002">
        <ele>25.39999961853</ele>
        <time>2021-10-17T09:24:31.000Z</time>
      </trkpt>
      <trkpt lat="47.51483" lon="-2.30015">
        <ele>25.799999237061</ele>
        <time>2021-10-17T09:24:32.000Z</time>
      </trkpt>
      <trkpt lat="47.5148" lon="-2.30012">
        <ele>26.39999961853</ele>
        <time>2021-10-17T09:24:33.000Z</time>
      </trkpt>
      <trkpt lat="47.51466" lon="-2.30009">
        <ele>26.39999961853</ele>
        <time>2021-10-17T09:24:37.000Z</time>
      </trkpt>
      <trkpt lat="47.51462" lon="-2.30009">
        <ele>26.799999237061</ele>
        <time>2021-10-17T09:24:38.000Z</time>
      </trkpt>
      <trkpt lat="47.51459" lon="-2.30009">
        <ele>27.60000038147</ele>
        <time>2021-10-17T09:24:39.000Z</time>
      </trkpt>
      <trkpt lat="47.51455" lon="-2.30009">
        <ele>28</ele>
        <time>2021-10-17T09:24:40.000Z</time>
      </trkpt>
      <trkpt lat="47.51451" lon="-2.30009">
        <ele>28.39999961853</ele>
        <time>2021-10-17T09:24:41.000Z</time>
      </trkpt>
      <trkpt lat="47.51445" lon="-2.30005">
        <ele>28.39999961853</ele>
        <time>2021-10-17T09:24:43.000Z</time>
      </trkpt>
      <trkpt lat="47.51443" lon="-2.30002">
        <ele>28.39999961853</ele>
        <time>2021-10-17T09:24:44.000Z</time>
      </trkpt>
      <trkpt lat="47.51441" lon="-2.29994">
        <ele>28.39999961853</ele>
        <time>2021-10-17T09:24:46.000Z</time>
      </trkpt>
      <trkpt lat="47.51435" lon="-2.29978">
        <ele>28.39999961853</ele>
        <time>2021-10-17T09:24:50.000Z</time>
      </trkpt>
      <trkpt lat="47.51432" lon="-2.29974">
        <ele>28.39999961853</ele>
        <time>2021-10-17T09:24:51.000Z</time>
      </trkpt>
      <trkpt lat="47.5143" lon="-2.2997">
        <ele>28.39999961853</ele>
        <time>2021-10-17T09:24:52.000Z</time>
      </trkpt>
      <trkpt lat="47.51428" lon="-2.29965">
        <ele>28.799999237061</ele>
        <time>2021-10-17T09:24:53.000Z</time>
      </trkpt>
      <trkpt lat="47.51427" lon="-2.2996">
        <ele>29.200000762939</ele>
        <time>2021-10-17T09:24:54.000Z</time>
      </trkpt>
      <trkpt lat="47.51427" lon="-2.29954">
        <ele>29.799999237061</ele>
        <time>2021-10-17T09:24:55.000Z</time>
      </trkpt>
      <trkpt lat="47.51427" lon="-2.29948">
        <ele>30.200000762939</ele>
        <time>2021-10-17T09:24:56.000Z</time>
      </trkpt>
      <trkpt lat="47.51427" lon="-2.29942">
        <ele>30.60000038147</ele>
        <time>2021-10-17T09:24:57.000Z</time>
      </trkpt>
      <trkpt lat="47.51428" lon="-2.29929">
        <ele>30.60000038147</ele>
        <time>2021-10-17T09:24:59.000Z</time>
      </trkpt>
      <trkpt lat="47.51427" lon="-2.29915">
        <ele>30.60000038147</ele>
        <time>2021-10-17T09:25:01.000Z</time>
      </trkpt>
      <trkpt lat="47.51423" lon="-2.29904">
        <ele>30.60000038147</ele>
        <time>2021-10-17T09:25:03.000Z</time>
      </trkpt>
      <trkpt lat="47.51412" lon="-2.29896">
        <ele>30.60000038147</ele>
        <time>2021-10-17T09:25:06.000Z</time>
      </trkpt>
      <trkpt lat="47.51398" lon="-2.29894">
        <ele>30.60000038147</ele>
        <time>2021-10-17T09:25:09.000Z</time>
      </trkpt>
      <trkpt lat="47.51388" lon="-2.29892">
        <ele>30.60000038147</ele>
        <time>2021-10-17T09:25:11.000Z</time>
      </trkpt>
      <trkpt lat="47.51383" lon="-2.29892">
        <ele>30.60000038147</ele>
        <time>2021-10-17T09:25:12.000Z</time>
      </trkpt>
      <trkpt lat="47.51356" lon="-2.2989">
        <ele>31</ele>
        <time>2021-10-17T09:25:18.000Z</time>
      </trkpt>
      <trkpt lat="47.51352" lon="-2.2989">
        <ele>31.39999961853</ele>
        <time>2021-10-17T09:25:19.000Z</time>
      </trkpt>
      <trkpt lat="47.51348" lon="-2.2989">
        <ele>31.799999237061</ele>
        <time>2021-10-17T09:25:20.000Z</time>
      </trkpt>
      <trkpt lat="47.51344" lon="-2.29889">
        <ele>32.200000762939</ele>
        <time>2021-10-17T09:25:21.000Z</time>
      </trkpt>
      <trkpt lat="47.5134" lon="-2.29889">
        <ele>32.599998474121</ele>
        <time>2021-10-17T09:25:22.000Z</time>
      </trkpt>
      <trkpt lat="47.51316" lon="-2.29887">
        <ele>32.599998474121</ele>
        <time>2021-10-17T09:25:28.000Z</time>
      </trkpt>
      <trkpt lat="47.51289" lon="-2.29886">
        <ele>32.599998474121</ele>
        <time>2021-10-17T09:25:34.000Z</time>
      </trkpt>
      <trkpt lat="47.51253" lon="-2.29883">
        <ele>32.599998474121</ele>
        <time>2021-10-17T09:25:41.000Z</time>
      </trkpt>
      <trkpt lat="47.51227" lon="-2.29881">
        <ele>32.599998474121</ele>
        <time>2021-10-17T09:25:46.000Z</time>
      </trkpt>
      <trkpt lat="47.51222" lon="-2.29881">
        <ele>32.599998474121</ele>
        <time>2021-10-17T09:25:47.000Z</time>
      </trkpt>
      <trkpt lat="47.51196" lon="-2.29878">
        <ele>32.599998474121</ele>
        <time>2021-10-17T09:25:53.000Z</time>
      </trkpt>
      <trkpt lat="47.51175" lon="-2.2988">
        <ele>32.599998474121</ele>
        <time>2021-10-17T09:25:59.000Z</time>
      </trkpt>
      <trkpt lat="47.51146" lon="-2.29886">
        <ele>32.599998474121</ele>
        <time>2021-10-17T09:26:07.000Z</time>
      </trkpt>
      <trkpt lat="47.5113" lon="-2.29898">
        <ele>32.599998474121</ele>
        <time>2021-10-17T09:26:12.000Z</time>
      </trkpt>
      <trkpt lat="47.51125" lon="-2.299">
        <ele>32.200000762939</ele>
        <time>2021-10-17T09:26:13.000Z</time>
      </trkpt>
      <trkpt lat="47.5112" lon="-2.29901">
        <ele>31.799999237061</ele>
        <time>2021-10-17T09:26:14.000Z</time>
      </trkpt>
      <trkpt lat="47.51116" lon="-2.29902">
        <ele>31.39999961853</ele>
        <time>2021-10-17T09:26:15.000Z</time>
      </trkpt>
      <trkpt lat="47.51111" lon="-2.29903">
        <ele>31</ele>
        <time>2021-10-17T09:26:16.000Z</time>
      </trkpt>
      <trkpt lat="47.51105" lon="-2.29904">
        <ele>30.39999961853</ele>
        <time>2021-10-17T09:26:17.000Z</time>
      </trkpt>
      <trkpt lat="47.51066" lon="-2.29912">
        <ele>30.39999961853</ele>
        <time>2021-10-17T09:26:24.000Z</time>
      </trkpt>
      <trkpt lat="47.5106" lon="-2.29911">
        <ele>30.39999961853</ele>
        <time>2021-10-17T09:26:25.000Z</time>
      </trkpt>
      <trkpt lat="47.51039" lon="-2.29908">
        <ele>30.39999961853</ele>
        <time>2021-10-17T09:26:29.000Z</time>
      </trkpt>
      <trkpt lat="47.51006" lon="-2.29903">
        <ele>30.39999961853</ele>
        <time>2021-10-17T09:26:36.000Z</time>
      </trkpt>
      <trkpt lat="47.50973" lon="-2.299">
        <ele>30.39999961853</ele>
        <time>2021-10-17T09:26:44.000Z</time>
      </trkpt>
      <trkpt lat="47.50968" lon="-2.29901">
        <ele>30.799999237061</ele>
        <time>2021-10-17T09:26:45.000Z</time>
      </trkpt>
      <trkpt lat="47.50964" lon="-2.29901">
        <ele>31.200000762939</ele>
        <time>2021-10-17T09:26:46.000Z</time>
      </trkpt>
      <trkpt lat="47.5096" lon="-2.29902">
        <ele>31.60000038147</ele>
        <time>2021-10-17T09:26:47.000Z</time>
      </trkpt>
      <trkpt lat="47.50955" lon="-2.29902">
        <ele>32</ele>
        <time>2021-10-17T09:26:48.000Z</time>
      </trkpt>
      <trkpt lat="47.50951" lon="-2.29903">
        <ele>32.400001525879</ele>
        <time>2021-10-17T09:26:49.000Z</time>
      </trkpt>
      <trkpt lat="47.50938" lon="-2.29905">
        <ele>32.400001525879</ele>
        <time>2021-10-17T09:26:52.000Z</time>
      </trkpt>
      <trkpt lat="47.50913" lon="-2.29908">
        <ele>33</ele>
        <time>2021-10-17T09:26:58.000Z</time>
      </trkpt>
      <trkpt lat="47.50909" lon="-2.29909">
        <ele>33.400001525879</ele>
        <time>2021-10-17T09:26:59.000Z</time>
      </trkpt>
      <trkpt lat="47.50906" lon="-2.2991">
        <ele>33.799999237061</ele>
        <time>2021-10-17T09:27:00.000Z</time>
      </trkpt>
      <trkpt lat="47.50902" lon="-2.2991">
        <ele>34.200000762939</ele>
        <time>2021-10-17T09:27:01.000Z</time>
      </trkpt>
      <trkpt lat="47.50898" lon="-2.29911">
        <ele>34.599998474121</ele>
        <time>2021-10-17T09:27:02.000Z</time>
      </trkpt>
      <trkpt lat="47.50887" lon="-2.29912">
        <ele>34.599998474121</ele>
        <time>2021-10-17T09:27:05.000Z</time>
      </trkpt>
      <trkpt lat="47.5088" lon="-2.29914">
        <ele>35</ele>
        <time>2021-10-17T09:27:07.000Z</time>
      </trkpt>
      <trkpt lat="47.50875" lon="-2.29914">
        <ele>35.400001525879</ele>
        <time>2021-10-17T09:27:08.000Z</time>
      </trkpt>
      <trkpt lat="47.50871" lon="-2.29915">
        <ele>35.799999237061</ele>
        <time>2021-10-17T09:27:09.000Z</time>
      </trkpt>
      <trkpt lat="47.50867" lon="-2.29917">
        <ele>36.200000762939</ele>
        <time>2021-10-17T09:27:10.000Z</time>
      </trkpt>
      <trkpt lat="47.50862" lon="-2.29919">
        <ele>36.799999237061</ele>
        <time>2021-10-17T09:27:11.000Z</time>
      </trkpt>
      <trkpt lat="47.50824" lon="-2.29938">
        <ele>36.799999237061</ele>
        <time>2021-10-17T09:27:19.000Z</time>
      </trkpt>
      <trkpt lat="47.50782" lon="-2.29965">
        <ele>36.799999237061</ele>
        <time>2021-10-17T09:27:27.000Z</time>
      </trkpt>
      <trkpt lat="47.50765" lon="-2.29977">
        <ele>36.200000762939</ele>
        <time>2021-10-17T09:27:30.000Z</time>
      </trkpt>
      <trkpt lat="47.50759" lon="-2.29982">
        <ele>35.400001525879</ele>
        <time>2021-10-17T09:27:31.000Z</time>
      </trkpt>
      <trkpt lat="47.50753" lon="-2.29986">
        <ele>35</ele>
        <time>2021-10-17T09:27:32.000Z</time>
      </trkpt>
      <trkpt lat="47.50747" lon="-2.29992">
        <ele>34.599998474121</ele>
        <time>2021-10-17T09:27:33.000Z</time>
      </trkpt>
      <trkpt lat="47.50741" lon="-2.29997">
        <ele>34.599998474121</ele>
        <time>2021-10-17T09:27:34.000Z</time>
      </trkpt>
      <trkpt lat="47.5071" lon="-2.30023">
        <ele>34.200000762939</ele>
        <time>2021-10-17T09:27:39.000Z</time>
      </trkpt>
      <trkpt lat="47.50705" lon="-2.3003">
        <ele>33.799999237061</ele>
        <time>2021-10-17T09:27:40.000Z</time>
      </trkpt>
      <trkpt lat="47.50699" lon="-2.30037">
        <ele>33.400001525879</ele>
        <time>2021-10-17T09:27:41.000Z</time>
      </trkpt>
      <trkpt lat="47.50694" lon="-2.30043">
        <ele>33</ele>
        <time>2021-10-17T09:27:42.000Z</time>
      </trkpt>
      <trkpt lat="47.50688" lon="-2.30049">
        <ele>32.599998474121</ele>
        <time>2021-10-17T09:27:43.000Z</time>
      </trkpt>
      <trkpt lat="47.50683" lon="-2.30053">
        <ele>32.599998474121</ele>
        <time>2021-10-17T09:27:44.000Z</time>
      </trkpt>
      <trkpt lat="47.50671" lon="-2.3006">
        <ele>32.599998474121</ele>
        <time>2021-10-17T09:27:46.000Z</time>
      </trkpt>
      <trkpt lat="47.50654" lon="-2.30068">
        <ele>32.599998474121</ele>
        <time>2021-10-17T09:27:49.000Z</time>
      </trkpt>
      <trkpt lat="47.50638" lon="-2.30077">
        <ele>32.599998474121</ele>
        <time>2021-10-17T09:27:52.000Z</time>
      </trkpt>
      <trkpt lat="47.50632" lon="-2.30094">
        <ele>32.599998474121</ele>
        <time>2021-10-17T09:27:55.000Z</time>
      </trkpt>
      <trkpt lat="47.50637" lon="-2.30109">
        <ele>32.599998474121</ele>
        <time>2021-10-17T09:27:58.000Z</time>
      </trkpt>
      <trkpt lat="47.50655" lon="-2.30129">
        <ele>32.599998474121</ele>
        <time>2021-10-17T09:28:02.000Z</time>
      </trkpt>
      <trkpt lat="47.50664" lon="-2.30155">
        <ele>32.599998474121</ele>
        <time>2021-10-17T09:28:05.000Z</time>
      </trkpt>
      <trkpt lat="47.50667" lon="-2.30164">
        <ele>32.599998474121</ele>
        <time>2021-10-17T09:28:06.000Z</time>
      </trkpt>
      <trkpt lat="47.50683" lon="-2.30219">
        <ele>32.599998474121</ele>
        <time>2021-10-17T09:28:12.000Z</time>
      </trkpt>
      <trkpt lat="47.50689" lon="-2.30246">
        <ele>32.599998474121</ele>
        <time>2021-10-17T09:28:15.000Z</time>
      </trkpt>
      <trkpt lat="47.5069" lon="-2.30266">
        <ele>32.599998474121</ele>
        <time>2021-10-17T09:28:17.000Z</time>
      </trkpt>
      <trkpt lat="47.50691" lon="-2.30307">
        <ele>32.200000762939</ele>
        <time>2021-10-17T09:28:21.000Z</time>
      </trkpt>
      <trkpt lat="47.50691" lon="-2.30316">
        <ele>31.60000038147</ele>
        <time>2021-10-17T09:28:22.000Z</time>
      </trkpt>
      <trkpt lat="47.50692" lon="-2.30326">
        <ele>31.200000762939</ele>
        <time>2021-10-17T09:28:23.000Z</time>
      </trkpt>
      <trkpt lat="47.50693" lon="-2.30337">
        <ele>30.799999237061</ele>
        <time>2021-10-17T09:28:24.000Z</time>
      </trkpt>
      <trkpt lat="47.50693" lon="-2.30347">
        <ele>30.39999961853</ele>
        <time>2021-10-17T09:28:25.000Z</time>
      </trkpt>
      <trkpt lat="47.50693" lon="-2.30376">
        <ele>30.39999961853</ele>
        <time>2021-10-17T09:28:28.000Z</time>
      </trkpt>
      <trkpt lat="47.50692" lon="-2.30429">
        <ele>30.39999961853</ele>
        <time>2021-10-17T09:28:34.000Z</time>
      </trkpt>
      <trkpt lat="47.50694" lon="-2.30445">
        <ele>30.39999961853</ele>
        <time>2021-10-17T09:28:36.000Z</time>
      </trkpt>
      <trkpt lat="47.50701" lon="-2.30474">
        <ele>30.39999961853</ele>
        <time>2021-10-17T09:28:40.000Z</time>
      </trkpt>
      <trkpt lat="47.50705" lon="-2.30488">
        <ele>30.39999961853</ele>
        <time>2021-10-17T09:28:42.000Z</time>
      </trkpt>
      <trkpt lat="47.50705" lon="-2.3051">
        <ele>30.799999237061</ele>
        <time>2021-10-17T09:28:45.000Z</time>
      </trkpt>
      <trkpt lat="47.50704" lon="-2.30517">
        <ele>31.60000038147</ele>
        <time>2021-10-17T09:28:46.000Z</time>
      </trkpt>
      <trkpt lat="47.50704" lon="-2.30525">
        <ele>32</ele>
        <time>2021-10-17T09:28:47.000Z</time>
      </trkpt>
      <trkpt lat="47.50705" lon="-2.30532">
        <ele>32.400001525879</ele>
        <time>2021-10-17T09:28:48.000Z</time>
      </trkpt>
      <trkpt lat="47.50706" lon="-2.3054">
        <ele>32.400001525879</ele>
        <time>2021-10-17T09:28:49.000Z</time>
      </trkpt>
      <trkpt lat="47.5071" lon="-2.30554">
        <ele>32.400001525879</ele>
        <time>2021-10-17T09:28:51.000Z</time>
      </trkpt>
      <trkpt lat="47.50716" lon="-2.30573">
        <ele>32.400001525879</ele>
        <time>2021-10-17T09:28:54.000Z</time>
      </trkpt>
      <trkpt lat="47.50727" lon="-2.30603">
        <ele>32.400001525879</ele>
        <time>2021-10-17T09:28:59.000Z</time>
      </trkpt>
      <trkpt lat="47.50732" lon="-2.30614">
        <ele>32.400001525879</ele>
        <time>2021-10-17T09:29:01.000Z</time>
      </trkpt>
      <trkpt lat="47.50735" lon="-2.30619">
        <ele>32.400001525879</ele>
        <time>2021-10-17T09:29:02.000Z</time>
      </trkpt>
      <trkpt lat="47.50743" lon="-2.30629">
        <ele>32.799999237061</ele>
        <time>2021-10-17T09:29:04.000Z</time>
      </trkpt>
      <trkpt lat="47.50747" lon="-2.30633">
        <ele>33.200000762939</ele>
        <time>2021-10-17T09:29:05.000Z</time>
      </trkpt>
      <trkpt lat="47.50752" lon="-2.30637">
        <ele>33.799999237061</ele>
        <time>2021-10-17T09:29:06.000Z</time>
      </trkpt>
      <trkpt lat="47.50757" lon="-2.30642">
        <ele>34.200000762939</ele>
        <time>2021-10-17T09:29:07.000Z</time>
      </trkpt>
      <trkpt lat="47.50761" lon="-2.30647">
        <ele>34.599998474121</ele>
        <time>2021-10-17T09:29:08.000Z</time>
      </trkpt>
      <trkpt lat="47.50765" lon="-2.30652">
        <ele>34.599998474121</ele>
        <time>2021-10-17T09:29:09.000Z</time>
      </trkpt>
      <trkpt lat="47.50769" lon="-2.30659">
        <ele>34.599998474121</ele>
        <time>2021-10-17T09:29:10.000Z</time>
      </trkpt>
      <trkpt lat="47.5078" lon="-2.30689">
        <ele>34.599998474121</ele>
        <time>2021-10-17T09:29:15.000Z</time>
      </trkpt>
      <trkpt lat="47.50783" lon="-2.30697">
        <ele>34.599998474121</ele>
        <time>2021-10-17T09:29:16.000Z</time>
      </trkpt>
      <trkpt lat="47.50798" lon="-2.30766">
        <ele>34.599998474121</ele>
        <time>2021-10-17T09:29:24.000Z</time>
      </trkpt>
      <trkpt lat="47.50815" lon="-2.30829">
        <ele>34.599998474121</ele>
        <time>2021-10-17T09:29:31.000Z</time>
      </trkpt>
      <trkpt lat="47.50817" lon="-2.30839">
        <ele>34.599998474121</ele>
        <time>2021-10-17T09:29:32.000Z</time>
      </trkpt>
      <trkpt lat="47.50822" lon="-2.30873">
        <ele>34.599998474121</ele>
        <time>2021-10-17T09:29:36.000Z</time>
      </trkpt>
      <trkpt lat="47.50826" lon="-2.30894">
        <ele>34.599998474121</ele>
        <time>2021-10-17T09:29:39.000Z</time>
      </trkpt>
      <trkpt lat="47.50831" lon="-2.30906">
        <ele>34.599998474121</ele>
        <time>2021-10-17T09:29:41.000Z</time>
      </trkpt>
      <trkpt lat="47.50839" lon="-2.30915">
        <ele>34.599998474121</ele>
        <time>2021-10-17T09:29:43.000Z</time>
      </trkpt>
      <trkpt lat="47.50848" lon="-2.30925">
        <ele>34.599998474121</ele>
        <time>2021-10-17T09:29:45.000Z</time>
      </trkpt>
      <trkpt lat="47.50864" lon="-2.3095">
        <ele>34.599998474121</ele>
        <time>2021-10-17T09:29:49.000Z</time>
      </trkpt>
      <trkpt lat="47.50867" lon="-2.30957">
        <ele>34.599998474121</ele>
        <time>2021-10-17T09:29:50.000Z</time>
      </trkpt>
      <trkpt lat="47.50878" lon="-2.31002">
        <ele>34.599998474121</ele>
        <time>2021-10-17T09:29:56.000Z</time>
      </trkpt>
      <trkpt lat="47.50886" lon="-2.31015">
        <ele>34.599998474121</ele>
        <time>2021-10-17T09:29:59.000Z</time>
      </trkpt>
      <trkpt lat="47.5089" lon="-2.31015">
        <ele>34.599998474121</ele>
        <time>2021-10-17T09:30:00.000Z</time>
      </trkpt>
      <trkpt lat="47.50902" lon="-2.31006">
        <ele>34.599998474121</ele>
        <time>2021-10-17T09:30:03.000Z</time>
      </trkpt>
      <trkpt lat="47.50929" lon="-2.30976">
        <ele>34.599998474121</ele>
        <time>2021-10-17T09:30:09.000Z</time>
      </trkpt>
      <trkpt lat="47.5096" lon="-2.30943">
        <ele>34.200000762939</ele>
        <time>2021-10-17T09:30:15.000Z</time>
      </trkpt>
      <trkpt lat="47.50966" lon="-2.30938">
        <ele>33.599998474121</ele>
        <time>2021-10-17T09:30:16.000Z</time>
      </trkpt>
      <trkpt lat="47.50971" lon="-2.30933">
        <ele>33.200000762939</ele>
        <time>2021-10-17T09:30:17.000Z</time>
      </trkpt>
      <trkpt lat="47.50977" lon="-2.30928">
        <ele>32.799999237061</ele>
        <time>2021-10-17T09:30:18.000Z</time>
      </trkpt>
      <trkpt lat="47.50982" lon="-2.30923">
        <ele>32.400001525879</ele>
        <time>2021-10-17T09:30:19.000Z</time>
      </trkpt>
      <trkpt lat="47.50994" lon="-2.30913">
        <ele>32.400001525879</ele>
        <time>2021-10-17T09:30:21.000Z</time>
      </trkpt>
      <trkpt lat="47.51033" lon="-2.30885">
        <ele>32.400001525879</ele>
        <time>2021-10-17T09:30:28.000Z</time>
      </trkpt>
      <trkpt lat="47.51037" lon="-2.30888">
        <ele>32</ele>
        <time>2021-10-17T09:30:29.000Z</time>
      </trkpt>
      <trkpt lat="47.5104" lon="-2.30894">
        <ele>31.60000038147</ele>
        <time>2021-10-17T09:30:30.000Z</time>
      </trkpt>
      <trkpt lat="47.51041" lon="-2.30901">
        <ele>31.200000762939</ele>
        <time>2021-10-17T09:30:31.000Z</time>
      </trkpt>
      <trkpt lat="47.51042" lon="-2.30907">
        <ele>30.799999237061</ele>
        <time>2021-10-17T09:30:32.000Z</time>
      </trkpt>
      <trkpt lat="47.51044" lon="-2.30915">
        <ele>30.39999961853</ele>
        <time>2021-10-17T09:30:33.000Z</time>
      </trkpt>
      <trkpt lat="47.51046" lon="-2.30922">
        <ele>30.39999961853</ele>
        <time>2021-10-17T09:30:34.000Z</time>
      </trkpt>
      <trkpt lat="47.51048" lon="-2.3093">
        <ele>30.39999961853</ele>
        <time>2021-10-17T09:30:35.000Z</time>
      </trkpt>
      <trkpt lat="47.51058" lon="-2.30975">
        <ele>30.39999961853</ele>
        <time>2021-10-17T09:30:41.000Z</time>
      </trkpt>
      <trkpt lat="47.51062" lon="-2.31026">
        <ele>30.39999961853</ele>
        <time>2021-10-17T09:30:48.000Z</time>
      </trkpt>
      <trkpt lat="47.51062" lon="-2.31033">
        <ele>30.39999961853</ele>
        <time>2021-10-17T09:30:49.000Z</time>
      </trkpt>
      <trkpt lat="47.51062" lon="-2.31067">
        <ele>30.39999961853</ele>
        <time>2021-10-17T09:30:54.000Z</time>
      </trkpt>
      <trkpt lat="47.51071" lon="-2.31078">
        <ele>30.39999961853</ele>
        <time>2021-10-17T09:30:57.000Z</time>
      </trkpt>
      <trkpt lat="47.51076" lon="-2.31082">
        <ele>30.39999961853</ele>
        <time>2021-10-17T09:30:58.000Z</time>
      </trkpt>
      <trkpt lat="47.5108" lon="-2.31086">
        <ele>30.39999961853</ele>
        <time>2021-10-17T09:30:59.000Z</time>
      </trkpt>
      <trkpt lat="47.51085" lon="-2.31098">
        <ele>30.39999961853</ele>
        <time>2021-10-17T09:31:01.000Z</time>
      </trkpt>
      <trkpt lat="47.51087" lon="-2.31104">
        <ele>30.799999237061</ele>
        <time>2021-10-17T09:31:02.000Z</time>
      </trkpt>
      <trkpt lat="47.51089" lon="-2.3111">
        <ele>31.200000762939</ele>
        <time>2021-10-17T09:31:03.000Z</time>
      </trkpt>
      <trkpt lat="47.51091" lon="-2.31117">
        <ele>31.60000038147</ele>
        <time>2021-10-17T09:31:04.000Z</time>
      </trkpt>
      <trkpt lat="47.51092" lon="-2.31124">
        <ele>32</ele>
        <time>2021-10-17T09:31:05.000Z</time>
      </trkpt>
      <trkpt lat="47.51094" lon="-2.31131">
        <ele>32.400001525879</ele>
        <time>2021-10-17T09:31:06.000Z</time>
      </trkpt>
      <trkpt lat="47.51098" lon="-2.31145">
        <ele>32.400001525879</ele>
        <time>2021-10-17T09:31:08.000Z</time>
      </trkpt>
      <trkpt lat="47.51113" lon="-2.31191">
        <ele>32.400001525879</ele>
        <time>2021-10-17T09:31:15.000Z</time>
      </trkpt>
      <trkpt lat="47.51126" lon="-2.31232">
        <ele>32.400001525879</ele>
        <time>2021-10-17T09:31:21.000Z</time>
      </trkpt>
      <trkpt lat="47.51154" lon="-2.31278">
        <ele>32.400001525879</ele>
        <time>2021-10-17T09:31:29.000Z</time>
      </trkpt>
      <trkpt lat="47.51167" lon="-2.31299">
        <ele>32.400001525879</ele>
        <time>2021-10-17T09:31:33.000Z</time>
      </trkpt>
      <trkpt lat="47.51173" lon="-2.3131">
        <ele>32.400001525879</ele>
        <time>2021-10-17T09:31:35.000Z</time>
      </trkpt>
      <trkpt lat="47.51174" lon="-2.31321">
        <ele>32</ele>
        <time>2021-10-17T09:31:37.000Z</time>
      </trkpt>
      <trkpt lat="47.51172" lon="-2.31325">
        <ele>31.60000038147</ele>
        <time>2021-10-17T09:31:38.000Z</time>
      </trkpt>
      <trkpt lat="47.51169" lon="-2.3133">
        <ele>31.200000762939</ele>
        <time>2021-10-17T09:31:39.000Z</time>
      </trkpt>
      <trkpt lat="47.51164" lon="-2.31334">
        <ele>30.39999961853</ele>
        <time>2021-10-17T09:31:40.000Z</time>
      </trkpt>
      <trkpt lat="47.51159" lon="-2.31338">
        <ele>30.39999961853</ele>
        <time>2021-10-17T09:31:41.000Z</time>
      </trkpt>
      <trkpt lat="47.51139" lon="-2.31348">
        <ele>30.39999961853</ele>
        <time>2021-10-17T09:31:45.000Z</time>
      </trkpt>
      <trkpt lat="47.51129" lon="-2.31352">
        <ele>30.39999961853</ele>
        <time>2021-10-17T09:31:47.000Z</time>
      </trkpt>
      <trkpt lat="47.51104" lon="-2.31356">
        <ele>30.799999237061</ele>
        <time>2021-10-17T09:31:52.000Z</time>
      </trkpt>
      <trkpt lat="47.511" lon="-2.31356">
        <ele>31.39999961853</ele>
        <time>2021-10-17T09:31:53.000Z</time>
      </trkpt>
      <trkpt lat="47.51096" lon="-2.31356">
        <ele>31.799999237061</ele>
        <time>2021-10-17T09:31:54.000Z</time>
      </trkpt>
      <trkpt lat="47.51091" lon="-2.31357">
        <ele>32.200000762939</ele>
        <time>2021-10-17T09:31:55.000Z</time>
      </trkpt>
      <trkpt lat="47.51087" lon="-2.31357">
        <ele>32.599998474121</ele>
        <time>2021-10-17T09:31:56.000Z</time>
      </trkpt>
      <trkpt lat="47.51074" lon="-2.3136">
        <ele>32.599998474121</ele>
        <time>2021-10-17T09:31:59.000Z</time>
      </trkpt>
      <trkpt lat="47.5107" lon="-2.31363">
        <ele>32.599998474121</ele>
        <time>2021-10-17T09:32:00.000Z</time>
      </trkpt>
      <trkpt lat="47.51053" lon="-2.31382">
        <ele>33</ele>
        <time>2021-10-17T09:32:05.000Z</time>
      </trkpt>
      <trkpt lat="47.51051" lon="-2.31388">
        <ele>33.400001525879</ele>
        <time>2021-10-17T09:32:06.000Z</time>
      </trkpt>
      <trkpt lat="47.5105" lon="-2.31394">
        <ele>33.799999237061</ele>
        <time>2021-10-17T09:32:07.000Z</time>
      </trkpt>
      <trkpt lat="47.51048" lon="-2.31399">
        <ele>34.200000762939</ele>
        <time>2021-10-17T09:32:08.000Z</time>
      </trkpt>
      <trkpt lat="47.51048" lon="-2.31406">
        <ele>34.599998474121</ele>
        <time>2021-10-17T09:32:09.000Z</time>
      </trkpt>
      <trkpt lat="47.51047" lon="-2.31412">
        <ele>34.599998474121</ele>
        <time>2021-10-17T09:32:10.000Z</time>
      </trkpt>
      <trkpt lat="47.5104" lon="-2.3145">
        <ele>34.599998474121</ele>
        <time>2021-10-17T09:32:17.000Z</time>
      </trkpt>
      <trkpt lat="47.51037" lon="-2.3146">
        <ele>35</ele>
        <time>2021-10-17T09:32:19.000Z</time>
      </trkpt>
      <trkpt lat="47.51035" lon="-2.31465">
        <ele>35.400001525879</ele>
        <time>2021-10-17T09:32:20.000Z</time>
      </trkpt>
      <trkpt lat="47.51032" lon="-2.3147">
        <ele>35.799999237061</ele>
        <time>2021-10-17T09:32:21.000Z</time>
      </trkpt>
      <trkpt lat="47.51029" lon="-2.31474">
        <ele>36.200000762939</ele>
        <time>2021-10-17T09:32:22.000Z</time>
      </trkpt>
      <trkpt lat="47.51027" lon="-2.31478">
        <ele>36.599998474121</ele>
        <time>2021-10-17T09:32:23.000Z</time>
      </trkpt>
      <trkpt lat="47.51006" lon="-2.315">
        <ele>36.599998474121</ele>
        <time>2021-10-17T09:32:29.000Z</time>
      </trkpt>
      <trkpt lat="47.50974" lon="-2.31522">
        <ele>36.599998474121</ele>
        <time>2021-10-17T09:32:37.000Z</time>
      </trkpt>
      <trkpt lat="47.50965" lon="-2.31525">
        <ele>36.599998474121</ele>
        <time>2021-10-17T09:32:39.000Z</time>
      </trkpt>
      <trkpt lat="47.50943" lon="-2.31532">
        <ele>36.599998474121</ele>
        <time>2021-10-17T09:32:44.000Z</time>
      </trkpt>
      <trkpt lat="47.50934" lon="-2.31534">
        <ele>36.599998474121</ele>
        <time>2021-10-17T09:32:46.000Z</time>
      </trkpt>
      <trkpt lat="47.5092" lon="-2.3153">
        <ele>36.599998474121</ele>
        <time>2021-10-17T09:32:49.000Z</time>
      </trkpt>
      <trkpt lat="47.5091" lon="-2.31525">
        <ele>36.599998474121</ele>
        <time>2021-10-17T09:32:51.000Z</time>
      </trkpt>
      <trkpt lat="47.50905" lon="-2.31523">
        <ele>37</ele>
        <time>2021-10-17T09:32:52.000Z</time>
      </trkpt>
      <trkpt lat="47.509" lon="-2.31521">
        <ele>37.400001525879</ele>
        <time>2021-10-17T09:32:53.000Z</time>
      </trkpt>
      <trkpt lat="47.50895" lon="-2.31519">
        <ele>38.200000762939</ele>
        <time>2021-10-17T09:32:54.000Z</time>
      </trkpt>
      <trkpt lat="47.5089" lon="-2.31516">
        <ele>38.599998474121</ele>
        <time>2021-10-17T09:32:55.000Z</time>
      </trkpt>
      <trkpt lat="47.50851" lon="-2.31498">
        <ele>38.599998474121</ele>
        <time>2021-10-17T09:33:03.000Z</time>
      </trkpt>
      <trkpt lat="47.50812" lon="-2.31487">
        <ele>38.599998474121</ele>
        <time>2021-10-17T09:33:10.000Z</time>
      </trkpt>
      <trkpt lat="47.50777" lon="-2.31489">
        <ele>38.599998474121</ele>
        <time>2021-10-17T09:33:15.000Z</time>
      </trkpt>
      <trkpt lat="47.50771" lon="-2.31489">
        <ele>38.200000762939</ele>
        <time>2021-10-17T09:33:16.000Z</time>
      </trkpt>
      <trkpt lat="47.50765" lon="-2.31489">
        <ele>37.799999237061</ele>
        <time>2021-10-17T09:33:17.000Z</time>
      </trkpt>
      <trkpt lat="47.50759" lon="-2.31489">
        <ele>37.200000762939</ele>
        <time>2021-10-17T09:33:18.000Z</time>
      </trkpt>
      <trkpt lat="47.50752" lon="-2.31488">
        <ele>36.200000762939</ele>
        <time>2021-10-17T09:33:19.000Z</time>
      </trkpt>
      <trkpt lat="47.50746" lon="-2.31485">
        <ele>35.599998474121</ele>
        <time>2021-10-17T09:33:20.000Z</time>
      </trkpt>
      <trkpt lat="47.5074" lon="-2.31482">
        <ele>35</ele>
        <time>2021-10-17T09:33:21.000Z</time>
      </trkpt>
      <trkpt lat="47.50736" lon="-2.31479">
        <ele>34.200000762939</ele>
        <time>2021-10-17T09:33:22.000Z</time>
      </trkpt>
      <trkpt lat="47.50732" lon="-2.31477">
        <ele>33.599998474121</ele>
        <time>2021-10-17T09:33:23.000Z</time>
      </trkpt>
      <trkpt lat="47.5073" lon="-2.31479">
        <ele>32.799999237061</ele>
        <time>2021-10-17T09:33:24.000Z</time>
      </trkpt>
      <trkpt lat="47.50727" lon="-2.31484">
        <ele>32.200000762939</ele>
        <time>2021-10-17T09:33:25.000Z</time>
      </trkpt>
      <trkpt lat="47.50727" lon="-2.31489">
        <ele>31.60000038147</ele>
        <time>2021-10-17T09:33:26.000Z</time>
      </trkpt>
      <trkpt lat="47.50726" lon="-2.31494">
        <ele>31</ele>
        <time>2021-10-17T09:33:27.000Z</time>
      </trkpt>
      <trkpt lat="47.50726" lon="-2.31498">
        <ele>30.39999961853</ele>
        <time>2021-10-17T09:33:28.000Z</time>
      </trkpt>
      <trkpt lat="47.50727" lon="-2.31502">
        <ele>29.799999237061</ele>
        <time>2021-10-17T09:33:29.000Z</time>
      </trkpt>
      <trkpt lat="47.50727" lon="-2.31505">
        <ele>29.200000762939</ele>
        <time>2021-10-17T09:33:30.000Z</time>
      </trkpt>
      <trkpt lat="47.50727" lon="-2.31513">
        <ele>29.200000762939</ele>
        <time>2021-10-17T09:33:33.000Z</time>
      </trkpt>
      <trkpt lat="47.50723" lon="-2.31521">
        <ele>28.799999237061</ele>
        <time>2021-10-17T09:33:36.000Z</time>
      </trkpt>
      <trkpt lat="47.50721" lon="-2.31523">
        <ele>28.200000762939</ele>
        <time>2021-10-17T09:33:37.000Z</time>
      </trkpt>
      <trkpt lat="47.50718" lon="-2.31526">
        <ele>27.799999237061</ele>
        <time>2021-10-17T09:33:38.000Z</time>
      </trkpt>
      <trkpt lat="47.50715" lon="-2.3153">
        <ele>27.39999961853</ele>
        <time>2021-10-17T09:33:39.000Z</time>
      </trkpt>
      <trkpt lat="47.50712" lon="-2.31533">
        <ele>26.799999237061</ele>
        <time>2021-10-17T09:33:40.000Z</time>
      </trkpt>
      <trkpt lat="47.50708" lon="-2.31537">
        <ele>26.200000762939</ele>
        <time>2021-10-17T09:33:41.000Z</time>
      </trkpt>
      <trkpt lat="47.50704" lon="-2.3154">
        <ele>25.39999961853</ele>
        <time>2021-10-17T09:33:42.000Z</time>
      </trkpt>
      <trkpt lat="47.507" lon="-2.31544">
        <ele>24.799999237061</ele>
        <time>2021-10-17T09:33:43.000Z</time>
      </trkpt>
      <trkpt lat="47.50696" lon="-2.31548">
        <ele>23.200000762939</ele>
        <time>2021-10-17T09:33:44.000Z</time>
      </trkpt>
      <trkpt lat="47.50693" lon="-2.31552">
        <ele>22.39999961853</ele>
        <time>2021-10-17T09:33:45.000Z</time>
      </trkpt>
      <trkpt lat="47.5069" lon="-2.31555">
        <ele>21.39999961853</ele>
        <time>2021-10-17T09:33:46.000Z</time>
      </trkpt>
      <trkpt lat="47.50687" lon="-2.31559">
        <ele>20.60000038147</ele>
        <time>2021-10-17T09:33:47.000Z</time>
      </trkpt>
      <trkpt lat="47.50684" lon="-2.31564">
        <ele>19.799999237061</ele>
        <time>2021-10-17T09:33:48.000Z</time>
      </trkpt>
      <trkpt lat="47.50682" lon="-2.3157">
        <ele>18.799999237061</ele>
        <time>2021-10-17T09:33:49.000Z</time>
      </trkpt>
      <trkpt lat="47.50681" lon="-2.31577">
        <ele>18</ele>
        <time>2021-10-17T09:33:50.000Z</time>
      </trkpt>
      <trkpt lat="47.50679" lon="-2.31584">
        <ele>17.200000762939</ele>
        <time>2021-10-17T09:33:51.000Z</time>
      </trkpt>
      <trkpt lat="47.50676" lon="-2.3159">
        <ele>16.39999961853</ele>
        <time>2021-10-17T09:33:52.000Z</time>
      </trkpt>
      <trkpt lat="47.50673" lon="-2.31597">
        <ele>15.39999961853</ele>
        <time>2021-10-17T09:33:53.000Z</time>
      </trkpt>
      <trkpt lat="47.5067" lon="-2.31605">
        <ele>14.39999961853</ele>
        <time>2021-10-17T09:33:54.000Z</time>
      </trkpt>
      <trkpt lat="47.50668" lon="-2.31612">
        <ele>13.39999961853</ele>
        <time>2021-10-17T09:33:55.000Z</time>
      </trkpt>
      <trkpt lat="47.50665" lon="-2.31618">
        <ele>12.60000038147</ele>
        <time>2021-10-17T09:33:56.000Z</time>
      </trkpt>
      <trkpt lat="47.50663" lon="-2.31624">
        <ele>11.60000038147</ele>
        <time>2021-10-17T09:33:57.000Z</time>
      </trkpt>
      <trkpt lat="47.50661" lon="-2.31629">
        <ele>10.60000038147</ele>
        <time>2021-10-17T09:33:58.000Z</time>
      </trkpt>
      <trkpt lat="47.50658" lon="-2.31632">
        <ele>9.6000003814697</ele>
        <time>2021-10-17T09:33:59.000Z</time>
      </trkpt>
      <trkpt lat="47.50655" lon="-2.31634">
        <ele>8.6000003814697</ele>
        <time>2021-10-17T09:34:00.000Z</time>
      </trkpt>
      <trkpt lat="47.50653" lon="-2.31635">
        <ele>7.5999999046326</ele>
        <time>2021-10-17T09:34:01.000Z</time>
      </trkpt>
      <trkpt lat="47.50651" lon="-2.31635">
        <ele>6.8000001907349</ele>
        <time>2021-10-17T09:34:02.000Z</time>
      </trkpt>
      <trkpt lat="47.5065" lon="-2.31635">
        <ele>6</ele>
        <time>2021-10-17T09:34:03.000Z</time>
      </trkpt>
      <trkpt lat="47.50648" lon="-2.31636">
        <ele>5</ele>
        <time>2021-10-17T09:34:04.000Z</time>
      </trkpt>
      <trkpt lat="47.50646" lon="-2.31638">
        <ele>4.1999998092651</ele>
        <time>2021-10-17T09:34:05.000Z</time>
      </trkpt>
      <trkpt lat="47.50644" lon="-2.31641">
        <ele>3.7999999523163</ele>
        <time>2021-10-17T09:34:06.000Z</time>
      </trkpt>
      <trkpt lat="47.50641" lon="-2.31646">
        <ele>3.4000000953674</ele>
        <time>2021-10-17T09:34:07.000Z</time>
      </trkpt>
      <trkpt lat="47.50639" lon="-2.31651">
        <ele>2.4000000953674</ele>
        <time>2021-10-17T09:34:08.000Z</time>
      </trkpt>
      <trkpt lat="47.50637" lon="-2.31657">
        <ele>2</ele>
        <time>2021-10-17T09:34:09.000Z</time>
      </trkpt>
      <trkpt lat="47.50634" lon="-2.31662">
        <ele>1.6000000238419</ele>
        <time>2021-10-17T09:34:10.000Z</time>
      </trkpt>
      <trkpt lat="47.50632" lon="-2.31668">
        <ele>1.2000000476837</ele>
        <time>2021-10-17T09:34:11.000Z</time>
      </trkpt>
      <trkpt lat="47.5063" lon="-2.31672">
        <ele>0.60000002384186</ele>
        <time>2021-10-17T09:34:12.000Z</time>
      </trkpt>
      <trkpt lat="47.50628" lon="-2.31673">
        <ele>0.20000000298023</ele>
        <time>2021-10-17T09:34:13.000Z</time>
      </trkpt>
      <trkpt lat="47.50626" lon="-2.31673">
        <ele>-0.20000000298023</ele>
        <time>2021-10-17T09:34:14.000Z</time>
      </trkpt>
      <trkpt lat="47.50623" lon="-2.31672">
        <ele>-0.20000000298023</ele>
        <time>2021-10-17T09:34:15.000Z</time>
      </trkpt>
      <trkpt lat="47.50614" lon="-2.3166">
        <ele>-0.20000000298023</ele>
        <time>2021-10-17T09:34:19.000Z</time>
      </trkpt>
      <trkpt lat="47.50613" lon="-2.31655">
        <ele>-0.20000000298023</ele>
        <time>2021-10-17T09:34:20.000Z</time>
      </trkpt>
      <trkpt lat="47.50603" lon="-2.31631">
        <ele>-0.20000000298023</ele>
        <time>2021-10-17T09:34:26.000Z</time>
      </trkpt>
      <trkpt lat="47.50593" lon="-2.31612">
        <ele>-0.20000000298023</ele>
        <time>2021-10-17T09:34:32.000Z</time>
      </trkpt>
      <trkpt lat="47.50581" lon="-2.31593">
        <ele>-0.20000000298023</ele>
        <time>2021-10-17T09:34:38.000Z</time>
      </trkpt>
      <trkpt lat="47.50576" lon="-2.31585">
        <ele>-0.20000000298023</ele>
        <time>2021-10-17T09:34:44.000Z</time>
      </trkpt>
      <trkpt lat="47.50562" lon="-2.31584">
        <ele>2</ele>
        <time>2021-10-17T09:35:34.000Z</time>
      </trkpt>
      <trkpt lat="47.50556" lon="-2.31586">
        <ele>2</ele>
        <time>2021-10-17T09:35:37.000Z</time>
      </trkpt>
      <trkpt lat="47.50544" lon="-2.31581">
        <ele>2</ele>
        <time>2021-10-17T09:35:41.000Z</time>
      </trkpt>
      <trkpt lat="47.50541" lon="-2.31577">
        <ele>2</ele>
        <time>2021-10-17T09:35:42.000Z</time>
      </trkpt>
      <trkpt lat="47.50535" lon="-2.31574">
        <ele>2</ele>
        <time>2021-10-17T09:35:45.000Z</time>
      </trkpt>
      <trkpt lat="47.50534" lon="-2.31574">
        <ele>2</ele>
        <time>2021-10-17T09:35:46.000Z</time>
      </trkpt>
      <trkpt lat="47.50525" lon="-2.31574">
        <ele>2</ele>
        <time>2021-10-17T09:35:52.000Z</time>
      </trkpt>
      <trkpt lat="47.50519" lon="-2.31573">
        <ele>2</ele>
        <time>2021-10-17T09:35:57.000Z</time>
      </trkpt>
      <trkpt lat="47.50518" lon="-2.31573">
        <ele>2</ele>
        <time>2021-10-17T09:35:58.000Z</time>
      </trkpt>
      <trkpt lat="47.50516" lon="-2.31575">
        <ele>2</ele>
        <time>2021-10-17T09:36:01.000Z</time>
      </trkpt>
      <trkpt lat="47.50483" lon="-2.31593">
        <ele>4</ele>
        <time>2021-10-17T09:37:07.000Z</time>
      </trkpt>
      <trkpt lat="47.50481" lon="-2.31592">
        <ele>4</ele>
        <time>2021-10-17T09:37:08.000Z</time>
      </trkpt>
      <trkpt lat="47.50478" lon="-2.31595">
        <ele>4</ele>
        <time>2021-10-17T09:37:11.000Z</time>
      </trkpt>
      <trkpt lat="47.50473" lon="-2.31597">
        <ele>4</ele>
        <time>2021-10-17T09:37:13.000Z</time>
      </trkpt>
      <trkpt lat="47.50461" lon="-2.31597">
        <ele>4</ele>
        <time>2021-10-17T09:37:18.000Z</time>
      </trkpt>
      <trkpt lat="47.50458" lon="-2.31598">
        <ele>4</ele>
        <time>2021-10-17T09:37:19.000Z</time>
      </trkpt>
      <trkpt lat="47.50449" lon="-2.31601">
        <ele>4</ele>
        <time>2021-10-17T09:37:23.000Z</time>
      </trkpt>
      <trkpt lat="47.50428" lon="-2.31606">
        <ele>4</ele>
        <time>2021-10-17T09:37:29.000Z</time>
      </trkpt>
      <trkpt lat="47.50419" lon="-2.31606">
        <ele>4</ele>
        <time>2021-10-17T09:37:32.000Z</time>
      </trkpt>
      <trkpt lat="47.50415" lon="-2.31605">
        <ele>4</ele>
        <time>2021-10-17T09:37:33.000Z</time>
      </trkpt>
      <trkpt lat="47.50401" lon="-2.3161">
        <ele>4</ele>
        <time>2021-10-17T09:37:37.000Z</time>
      </trkpt>
      <trkpt lat="47.50398" lon="-2.31612">
        <ele>4.4000000953674</ele>
        <time>2021-10-17T09:37:38.000Z</time>
      </trkpt>
      <trkpt lat="47.50395" lon="-2.31615">
        <ele>4.8000001907349</ele>
        <time>2021-10-17T09:37:39.000Z</time>
      </trkpt>
      <trkpt lat="47.50392" lon="-2.31617">
        <ele>5.1999998092651</ele>
        <time>2021-10-17T09:37:40.000Z</time>
      </trkpt>
      <trkpt lat="47.50389" lon="-2.3162">
        <ele>5.5999999046326</ele>
        <time>2021-10-17T09:37:41.000Z</time>
      </trkpt>
      <trkpt lat="47.50386" lon="-2.31623">
        <ele>6</ele>
        <time>2021-10-17T09:37:42.000Z</time>
      </trkpt>
      <trkpt lat="47.50383" lon="-2.31627">
        <ele>6</ele>
        <time>2021-10-17T09:37:43.000Z</time>
      </trkpt>
      <trkpt lat="47.50366" lon="-2.31639">
        <ele>6</ele>
        <time>2021-10-17T09:37:48.000Z</time>
      </trkpt>
      <trkpt lat="47.50348" lon="-2.31651">
        <ele>6</ele>
        <time>2021-10-17T09:37:53.000Z</time>
      </trkpt>
      <trkpt lat="47.50336" lon="-2.3166">
        <ele>6</ele>
        <time>2021-10-17T09:37:57.000Z</time>
      </trkpt>
      <trkpt lat="47.50322" lon="-2.31673">
        <ele>6.4000000953674</ele>
        <time>2021-10-17T09:38:02.000Z</time>
      </trkpt>
      <trkpt lat="47.5032" lon="-2.31678">
        <ele>6.8000001907349</ele>
        <time>2021-10-17T09:38:03.000Z</time>
      </trkpt>
      <trkpt lat="47.50319" lon="-2.31682">
        <ele>7.1999998092651</ele>
        <time>2021-10-17T09:38:04.000Z</time>
      </trkpt>
      <trkpt lat="47.50317" lon="-2.31686">
        <ele>7.5999999046326</ele>
        <time>2021-10-17T09:38:05.000Z</time>
      </trkpt>
      <trkpt lat="47.50316" lon="-2.3169">
        <ele>8.1999998092651</ele>
        <time>2021-10-17T09:38:06.000Z</time>
      </trkpt>
      <trkpt lat="47.50314" lon="-2.31692">
        <ele>8.1999998092651</ele>
        <time>2021-10-17T09:38:07.000Z</time>
      </trkpt>
      <trkpt lat="47.50302" lon="-2.31706">
        <ele>8.1999998092651</ele>
        <time>2021-10-17T09:38:13.000Z</time>
      </trkpt>
      <trkpt lat="47.50302" lon="-2.31709">
        <ele>8.1999998092651</ele>
        <time>2021-10-17T09:38:15.000Z</time>
      </trkpt>
      <trkpt lat="47.50299" lon="-2.31714">
        <ele>8.1999998092651</ele>
        <time>2021-10-17T09:38:41.000Z</time>
      </trkpt>
      <trkpt lat="47.50299" lon="-2.31717">
        <ele>8.1999998092651</ele>
        <time>2021-10-17T09:38:42.000Z</time>
      </trkpt>
      <trkpt lat="47.50296" lon="-2.3172">
        <ele>8.6000003814697</ele>
        <time>2021-10-17T09:38:46.000Z</time>
      </trkpt>
      <trkpt lat="47.50296" lon="-2.3172">
        <ele>9</ele>
        <time>2021-10-17T09:38:47.000Z</time>
      </trkpt>
      <trkpt lat="47.50295" lon="-2.31721">
        <ele>9.3999996185303</ele>
        <time>2021-10-17T09:38:48.000Z</time>
      </trkpt>
      <trkpt lat="47.50292" lon="-2.31736">
        <ele>12.199999809265</ele>
        <time>2021-10-17T09:39:02.000Z</time>
      </trkpt>
      <trkpt lat="47.50292" lon="-2.31743">
        <ele>12.199999809265</ele>
        <time>2021-10-17T09:39:04.000Z</time>
      </trkpt>
      <trkpt lat="47.50287" lon="-2.31765">
        <ele>12.199999809265</ele>
        <time>2021-10-17T09:39:10.000Z</time>
      </trkpt>
      <trkpt lat="47.50271" lon="-2.31773">
        <ele>12.199999809265</ele>
        <time>2021-10-17T09:39:14.000Z</time>
      </trkpt>
      <trkpt lat="47.50248" lon="-2.31772">
        <ele>12.199999809265</ele>
        <time>2021-10-17T09:39:18.000Z</time>
      </trkpt>
      <trkpt lat="47.50215" lon="-2.31781">
        <ele>12.199999809265</ele>
        <time>2021-10-17T09:39:24.000Z</time>
      </trkpt>
      <trkpt lat="47.50181" lon="-2.31799">
        <ele>12.199999809265</ele>
        <time>2021-10-17T09:39:31.000Z</time>
      </trkpt>
      <trkpt lat="47.50171" lon="-2.31813">
        <ele>12.199999809265</ele>
        <time>2021-10-17T09:39:34.000Z</time>
      </trkpt>
      <trkpt lat="47.50166" lon="-2.31823">
        <ele>12.199999809265</ele>
        <time>2021-10-17T09:39:36.000Z</time>
      </trkpt>
      <trkpt lat="47.5016" lon="-2.31845">
        <ele>12.199999809265</ele>
        <time>2021-10-17T09:39:40.000Z</time>
      </trkpt>
      <trkpt lat="47.50159" lon="-2.31851">
        <ele>12.60000038147</ele>
        <time>2021-10-17T09:39:41.000Z</time>
      </trkpt>
      <trkpt lat="47.50158" lon="-2.31857">
        <ele>13</ele>
        <time>2021-10-17T09:39:42.000Z</time>
      </trkpt>
      <trkpt lat="47.50157" lon="-2.31863">
        <ele>13.39999961853</ele>
        <time>2021-10-17T09:39:43.000Z</time>
      </trkpt>
      <trkpt lat="47.50156" lon="-2.31869">
        <ele>13.800000190735</ele>
        <time>2021-10-17T09:39:44.000Z</time>
      </trkpt>
      <trkpt lat="47.50154" lon="-2.31875">
        <ele>14.199999809265</ele>
        <time>2021-10-17T09:39:45.000Z</time>
      </trkpt>
      <trkpt lat="47.5015" lon="-2.31894">
        <ele>14.199999809265</ele>
        <time>2021-10-17T09:39:48.000Z</time>
      </trkpt>
      <trkpt lat="47.50139" lon="-2.31936">
        <ele>14.199999809265</ele>
        <time>2021-10-17T09:39:55.000Z</time>
      </trkpt>
      <trkpt lat="47.50135" lon="-2.31955">
        <ele>14.60000038147</ele>
        <time>2021-10-17T09:39:58.000Z</time>
      </trkpt>
      <trkpt lat="47.50133" lon="-2.31961">
        <ele>15</ele>
        <time>2021-10-17T09:39:59.000Z</time>
      </trkpt>
      <trkpt lat="47.50132" lon="-2.31967">
        <ele>15.39999961853</ele>
        <time>2021-10-17T09:40:00.000Z</time>
      </trkpt>
      <trkpt lat="47.5013" lon="-2.31973">
        <ele>15.800000190735</ele>
        <time>2021-10-17T09:40:01.000Z</time>
      </trkpt>
      <trkpt lat="47.50129" lon="-2.31979">
        <ele>16.200000762939</ele>
        <time>2021-10-17T09:40:02.000Z</time>
      </trkpt>
      <trkpt lat="47.50121" lon="-2.32015">
        <ele>16.200000762939</ele>
        <time>2021-10-17T09:40:08.000Z</time>
      </trkpt>
      <trkpt lat="47.50113" lon="-2.32045">
        <ele>16.60000038147</ele>
        <time>2021-10-17T09:40:13.000Z</time>
      </trkpt>
      <trkpt lat="47.50111" lon="-2.32052">
        <ele>17</ele>
        <time>2021-10-17T09:40:14.000Z</time>
      </trkpt>
      <trkpt lat="47.5011" lon="-2.32059">
        <ele>17.39999961853</ele>
        <time>2021-10-17T09:40:15.000Z</time>
      </trkpt>
      <trkpt lat="47.50108" lon="-2.32066">
        <ele>17.799999237061</ele>
        <time>2021-10-17T09:40:16.000Z</time>
      </trkpt>
      <trkpt lat="47.50106" lon="-2.32072">
        <ele>18.200000762939</ele>
        <time>2021-10-17T09:40:17.000Z</time>
      </trkpt>
      <trkpt lat="47.50092" lon="-2.32123">
        <ele>18.799999237061</ele>
        <time>2021-10-17T09:40:24.000Z</time>
      </trkpt>
      <trkpt lat="47.5009" lon="-2.3213">
        <ele>19.200000762939</ele>
        <time>2021-10-17T09:40:25.000Z</time>
      </trkpt>
      <trkpt lat="47.50088" lon="-2.32138">
        <ele>19.60000038147</ele>
        <time>2021-10-17T09:40:26.000Z</time>
      </trkpt>
      <trkpt lat="47.50086" lon="-2.32145">
        <ele>20</ele>
        <time>2021-10-17T09:40:27.000Z</time>
      </trkpt>
      <trkpt lat="47.50084" lon="-2.32153">
        <ele>20.39999961853</ele>
        <time>2021-10-17T09:40:28.000Z</time>
      </trkpt>
      <trkpt lat="47.50072" lon="-2.32199">
        <ele>20.39999961853</ele>
        <time>2021-10-17T09:40:34.000Z</time>
      </trkpt>
      <trkpt lat="47.50068" lon="-2.32214">
        <ele>20.799999237061</ele>
        <time>2021-10-17T09:40:36.000Z</time>
      </trkpt>
      <trkpt lat="47.50066" lon="-2.32222">
        <ele>21.200000762939</ele>
        <time>2021-10-17T09:40:37.000Z</time>
      </trkpt>
      <trkpt lat="47.50064" lon="-2.32229">
        <ele>21.60000038147</ele>
        <time>2021-10-17T09:40:38.000Z</time>
      </trkpt>
      <trkpt lat="47.50062" lon="-2.32237">
        <ele>22</ele>
        <time>2021-10-17T09:40:39.000Z</time>
      </trkpt>
      <trkpt lat="47.5006" lon="-2.32244">
        <ele>22.39999961853</ele>
        <time>2021-10-17T09:40:40.000Z</time>
      </trkpt>
      <trkpt lat="47.50055" lon="-2.32268">
        <ele>22.39999961853</ele>
        <time>2021-10-17T09:40:43.000Z</time>
      </trkpt>
      <trkpt lat="47.50042" lon="-2.32314">
        <ele>22.39999961853</ele>
        <time>2021-10-17T09:40:49.000Z</time>
      </trkpt>
      <trkpt lat="47.5004" lon="-2.32322">
        <ele>22.39999961853</ele>
        <time>2021-10-17T09:40:50.000Z</time>
      </trkpt>
      <trkpt lat="47.50034" lon="-2.32343">
        <ele>23</ele>
        <time>2021-10-17T09:40:53.000Z</time>
      </trkpt>
      <trkpt lat="47.50032" lon="-2.3235">
        <ele>23.39999961853</ele>
        <time>2021-10-17T09:40:54.000Z</time>
      </trkpt>
      <trkpt lat="47.5003" lon="-2.32357">
        <ele>23.799999237061</ele>
        <time>2021-10-17T09:40:55.000Z</time>
      </trkpt>
      <trkpt lat="47.50028" lon="-2.32363">
        <ele>24.200000762939</ele>
        <time>2021-10-17T09:40:56.000Z</time>
      </trkpt>
      <trkpt lat="47.50026" lon="-2.32369">
        <ele>24.60000038147</ele>
        <time>2021-10-17T09:40:57.000Z</time>
      </trkpt>
      <trkpt lat="47.50024" lon="-2.32376">
        <ele>24.60000038147</ele>
        <time>2021-10-17T09:40:58.000Z</time>
      </trkpt>
      <trkpt lat="47.50009" lon="-2.32411">
        <ele>25</ele>
        <time>2021-10-17T09:41:04.000Z</time>
      </trkpt>
      <trkpt lat="47.50006" lon="-2.32416">
        <ele>25.39999961853</ele>
        <time>2021-10-17T09:41:05.000Z</time>
      </trkpt>
      <trkpt lat="47.50004" lon="-2.32421">
        <ele>25.799999237061</ele>
        <time>2021-10-17T09:41:06.000Z</time>
      </trkpt>
      <trkpt lat="47.50001" lon="-2.32427">
        <ele>26.200000762939</ele>
        <time>2021-10-17T09:41:07.000Z</time>
      </trkpt>
      <trkpt lat="47.49998" lon="-2.32432">
        <ele>26.60000038147</ele>
        <time>2021-10-17T09:41:08.000Z</time>
      </trkpt>
      <trkpt lat="47.49989" lon="-2.3245">
        <ele>26.60000038147</ele>
        <time>2021-10-17T09:41:11.000Z</time>
      </trkpt>
      <trkpt lat="47.49962" lon="-2.32501">
        <ele>26.60000038147</ele>
        <time>2021-10-17T09:41:20.000Z</time>
      </trkpt>
      <trkpt lat="47.49939" lon="-2.32548">
        <ele>26.60000038147</ele>
        <time>2021-10-17T09:41:28.000Z</time>
      </trkpt>
      <trkpt lat="47.49915" lon="-2.32599">
        <ele>26.60000038147</ele>
        <time>2021-10-17T09:41:36.000Z</time>
      </trkpt>
      <trkpt lat="47.49916" lon="-2.32626">
        <ele>26.60000038147</ele>
        <time>2021-10-17T09:41:39.000Z</time>
      </trkpt>
      <trkpt lat="47.49927" lon="-2.32648">
        <ele>26.60000038147</ele>
        <time>2021-10-17T09:41:42.000Z</time>
      </trkpt>
      <trkpt lat="47.49935" lon="-2.3266">
        <ele>26.60000038147</ele>
        <time>2021-10-17T09:41:44.000Z</time>
      </trkpt>
      <trkpt lat="47.49949" lon="-2.32684">
        <ele>26.60000038147</ele>
        <time>2021-10-17T09:41:48.000Z</time>
      </trkpt>
      <trkpt lat="47.49966" lon="-2.32724">
        <ele>26.60000038147</ele>
        <time>2021-10-17T09:41:54.000Z</time>
      </trkpt>
      <trkpt lat="47.49983" lon="-2.32761">
        <ele>26.60000038147</ele>
        <time>2021-10-17T09:42:00.000Z</time>
      </trkpt>
      <trkpt lat="47.4999" lon="-2.32771">
        <ele>27</ele>
        <time>2021-10-17T09:42:02.000Z</time>
      </trkpt>
      <trkpt lat="47.49993" lon="-2.32776">
        <ele>27.39999961853</ele>
        <time>2021-10-17T09:42:03.000Z</time>
      </trkpt>
      <trkpt lat="47.49996" lon="-2.32782">
        <ele>27.799999237061</ele>
        <time>2021-10-17T09:42:04.000Z</time>
      </trkpt>
      <trkpt lat="47.5" lon="-2.32787">
        <ele>28.200000762939</ele>
        <time>2021-10-17T09:42:05.000Z</time>
      </trkpt>
      <trkpt lat="47.50003" lon="-2.32792">
        <ele>28.60000038147</ele>
        <time>2021-10-17T09:42:06.000Z</time>
      </trkpt>
      <trkpt lat="47.50006" lon="-2.32797">
        <ele>28.60000038147</ele>
        <time>2021-10-17T09:42:07.000Z</time>
      </trkpt>
      <trkpt lat="47.5003" lon="-2.32834">
        <ele>28.60000038147</ele>
        <time>2021-10-17T09:42:14.000Z</time>
      </trkpt>
      <trkpt lat="47.50054" lon="-2.32874">
        <ele>28.60000038147</ele>
        <time>2021-10-17T09:42:21.000Z</time>
      </trkpt>
      <trkpt lat="47.5008" lon="-2.32917">
        <ele>28.60000038147</ele>
        <time>2021-10-17T09:42:28.000Z</time>
      </trkpt>
      <trkpt lat="47.50109" lon="-2.32961">
        <ele>28.60000038147</ele>
        <time>2021-10-17T09:42:35.000Z</time>
      </trkpt>
      <trkpt lat="47.50131" lon="-2.32995">
        <ele>28.60000038147</ele>
        <time>2021-10-17T09:42:40.000Z</time>
      </trkpt>
      <trkpt lat="47.50172" lon="-2.33057">
        <ele>28.60000038147</ele>
        <time>2021-10-17T09:42:49.000Z</time>
      </trkpt>
      <trkpt lat="47.50177" lon="-2.33065">
        <ele>28.60000038147</ele>
        <time>2021-10-17T09:42:50.000Z</time>
      </trkpt>
      <trkpt lat="47.502" lon="-2.33102">
        <ele>28.200000762939</ele>
        <time>2021-10-17T09:42:55.000Z</time>
      </trkpt>
      <trkpt lat="47.50206" lon="-2.3311">
        <ele>27.799999237061</ele>
        <time>2021-10-17T09:42:56.000Z</time>
      </trkpt>
      <trkpt lat="47.50211" lon="-2.33116">
        <ele>27.39999961853</ele>
        <time>2021-10-17T09:42:57.000Z</time>
      </trkpt>
      <trkpt lat="47.50216" lon="-2.33122">
        <ele>27</ele>
        <time>2021-10-17T09:42:58.000Z</time>
      </trkpt>
      <trkpt lat="47.50221" lon="-2.33129">
        <ele>26.60000038147</ele>
        <time>2021-10-17T09:42:59.000Z</time>
      </trkpt>
      <trkpt lat="47.50226" lon="-2.33136">
        <ele>26.60000038147</ele>
        <time>2021-10-17T09:43:00.000Z</time>
      </trkpt>
      <trkpt lat="47.50229" lon="-2.33145">
        <ele>26.60000038147</ele>
        <time>2021-10-17T09:43:01.000Z</time>
      </trkpt>
      <trkpt lat="47.50229" lon="-2.33163">
        <ele>26.60000038147</ele>
        <time>2021-10-17T09:43:03.000Z</time>
      </trkpt>
      <trkpt lat="47.50218" lon="-2.33181">
        <ele>26.60000038147</ele>
        <time>2021-10-17T09:43:06.000Z</time>
      </trkpt>
      <trkpt lat="47.50193" lon="-2.33223">
        <ele>26.60000038147</ele>
        <time>2021-10-17T09:43:12.000Z</time>
      </trkpt>
      <trkpt lat="47.50187" lon="-2.33237">
        <ele>26.60000038147</ele>
        <time>2021-10-17T09:43:14.000Z</time>
      </trkpt>
      <trkpt lat="47.50186" lon="-2.33254">
        <ele>26.60000038147</ele>
        <time>2021-10-17T09:43:16.000Z</time>
      </trkpt>
      <trkpt lat="47.50192" lon="-2.33278">
        <ele>26.60000038147</ele>
        <time>2021-10-17T09:43:19.000Z</time>
      </trkpt>
      <trkpt lat="47.50203" lon="-2.33332">
        <ele>26.60000038147</ele>
        <time>2021-10-17T09:43:26.000Z</time>
      </trkpt>
      <trkpt lat="47.50208" lon="-2.33353">
        <ele>26.60000038147</ele>
        <time>2021-10-17T09:43:29.000Z</time>
      </trkpt>
      <trkpt lat="47.50207" lon="-2.33365">
        <ele>26.60000038147</ele>
        <time>2021-10-17T09:43:31.000Z</time>
      </trkpt>
      <trkpt lat="47.50203" lon="-2.33368">
        <ele>26.60000038147</ele>
        <time>2021-10-17T09:43:32.000Z</time>
      </trkpt>
      <trkpt lat="47.5019" lon="-2.33369">
        <ele>26.60000038147</ele>
        <time>2021-10-17T09:43:35.000Z</time>
      </trkpt>
      <trkpt lat="47.50185" lon="-2.33369">
        <ele>26.60000038147</ele>
        <time>2021-10-17T09:43:36.000Z</time>
      </trkpt>
      <trkpt lat="47.5016" lon="-2.33372">
        <ele>26.60000038147</ele>
        <time>2021-10-17T09:43:41.000Z</time>
      </trkpt>
      <trkpt lat="47.50116" lon="-2.33378">
        <ele>26.60000038147</ele>
        <time>2021-10-17T09:43:50.000Z</time>
      </trkpt>
      <trkpt lat="47.5008" lon="-2.33383">
        <ele>26.60000038147</ele>
        <time>2021-10-17T09:43:58.000Z</time>
      </trkpt>
      <trkpt lat="47.50061" lon="-2.33385">
        <ele>26.60000038147</ele>
        <time>2021-10-17T09:44:03.000Z</time>
      </trkpt>
      <trkpt lat="47.50041" lon="-2.33386">
        <ele>26.60000038147</ele>
        <time>2021-10-17T09:44:10.000Z</time>
      </trkpt>
      <trkpt lat="47.50039" lon="-2.33384">
        <ele>27</ele>
        <time>2021-10-17T09:44:11.000Z</time>
      </trkpt>
      <trkpt lat="47.50037" lon="-2.33384">
        <ele>27.39999961853</ele>
        <time>2021-10-17T09:44:12.000Z</time>
      </trkpt>
      <trkpt lat="47.50035" lon="-2.33385">
        <ele>27.799999237061</ele>
        <time>2021-10-17T09:44:13.000Z</time>
      </trkpt>
      <trkpt lat="47.50033" lon="-2.33386">
        <ele>28.200000762939</ele>
        <time>2021-10-17T09:44:14.000Z</time>
      </trkpt>
      <trkpt lat="47.50031" lon="-2.33388">
        <ele>28.60000038147</ele>
        <time>2021-10-17T09:44:15.000Z</time>
      </trkpt>
      <trkpt lat="47.5003" lon="-2.33395">
        <ele>28.60000038147</ele>
        <time>2021-10-17T09:44:17.000Z</time>
      </trkpt>
      <trkpt lat="47.5003" lon="-2.33401">
        <ele>28.60000038147</ele>
        <time>2021-10-17T09:44:19.000Z</time>
      </trkpt>
      <trkpt lat="47.50023" lon="-2.33413">
        <ele>28.60000038147</ele>
        <time>2021-10-17T09:44:24.000Z</time>
      </trkpt>
      <trkpt lat="47.50019" lon="-2.33423">
        <ele>28.60000038147</ele>
        <time>2021-10-17T09:44:27.000Z</time>
      </trkpt>
      <trkpt lat="47.50019" lon="-2.33427">
        <ele>28.60000038147</ele>
        <time>2021-10-17T09:44:28.000Z</time>
      </trkpt>
      <trkpt lat="47.50027" lon="-2.33438">
        <ele>28.60000038147</ele>
        <time>2021-10-17T09:44:33.000Z</time>
      </trkpt>
      <trkpt lat="47.50035" lon="-2.33431">
        <ele>28.60000038147</ele>
        <time>2021-10-17T09:44:37.000Z</time>
      </trkpt>
      <trkpt lat="47.50035" lon="-2.33428">
        <ele>28.60000038147</ele>
        <time>2021-10-17T09:44:38.000Z</time>
      </trkpt>
      <trkpt lat="47.50039" lon="-2.33424">
        <ele>28.60000038147</ele>
        <time>2021-10-17T09:44:42.000Z</time>
      </trkpt>
      <trkpt lat="47.50045" lon="-2.33432">
        <ele>28.60000038147</ele>
        <time>2021-10-17T09:44:46.000Z</time>
      </trkpt>
      <trkpt lat="47.50044" lon="-2.33447">
        <ele>28.60000038147</ele>
        <time>2021-10-17T09:44:50.000Z</time>
      </trkpt>
      <trkpt lat="47.50036" lon="-2.33459">
        <ele>28.60000038147</ele>
        <time>2021-10-17T09:44:55.000Z</time>
      </trkpt>
      <trkpt lat="47.50023" lon="-2.3346">
        <ele>28.60000038147</ele>
        <time>2021-10-17T09:45:01.000Z</time>
      </trkpt>
      <trkpt lat="47.50018" lon="-2.33476">
        <ele>28.60000038147</ele>
        <time>2021-10-17T09:45:06.000Z</time>
      </trkpt>
      <trkpt lat="47.50015" lon="-2.33505">
        <ele>28.60000038147</ele>
        <time>2021-10-17T09:45:12.000Z</time>
      </trkpt>
      <trkpt lat="47.50008" lon="-2.33518">
        <ele>28.60000038147</ele>
        <time>2021-10-17T09:45:16.000Z</time>
      </trkpt>
      <trkpt lat="47.5" lon="-2.3351">
        <ele>28.60000038147</ele>
        <time>2021-10-17T09:45:19.000Z</time>
      </trkpt>
      <trkpt lat="47.49992" lon="-2.33493">
        <ele>28.60000038147</ele>
        <time>2021-10-17T09:45:24.000Z</time>
      </trkpt>
      <trkpt lat="47.49992" lon="-2.3349">
        <ele>28.60000038147</ele>
        <time>2021-10-17T09:45:25.000Z</time>
      </trkpt>
      <trkpt lat="47.49989" lon="-2.33487">
        <ele>28.60000038147</ele>
        <time>2021-10-17T09:45:28.000Z</time>
      </trkpt>
      <trkpt lat="47.49985" lon="-2.33493">
        <ele>28.60000038147</ele>
        <time>2021-10-17T09:45:39.000Z</time>
      </trkpt>
      <trkpt lat="47.49981" lon="-2.33503">
        <ele>28.60000038147</ele>
        <time>2021-10-17T09:45:44.000Z</time>
      </trkpt>
      <trkpt lat="47.49969" lon="-2.33513">
        <ele>28.60000038147</ele>
        <time>2021-10-17T09:45:48.000Z</time>
      </trkpt>
      <trkpt lat="47.49963" lon="-2.33513">
        <ele>28.60000038147</ele>
        <time>2021-10-17T09:45:50.000Z</time>
      </trkpt>
      <trkpt lat="47.49955" lon="-2.33512">
        <ele>28.60000038147</ele>
        <time>2021-10-17T09:45:53.000Z</time>
      </trkpt>
      <trkpt lat="47.49946" lon="-2.33508">
        <ele>28.60000038147</ele>
        <time>2021-10-17T09:45:56.000Z</time>
      </trkpt>
      <trkpt lat="47.49943" lon="-2.33502">
        <ele>28.60000038147</ele>
        <time>2021-10-17T09:45:58.000Z</time>
      </trkpt>
      <trkpt lat="47.49933" lon="-2.33496">
        <ele>28.60000038147</ele>
        <time>2021-10-17T09:46:03.000Z</time>
      </trkpt>
      <trkpt lat="47.49927" lon="-2.33501">
        <ele>29</ele>
        <time>2021-10-17T09:46:06.000Z</time>
      </trkpt>
      <trkpt lat="47.49924" lon="-2.33501">
        <ele>29.39999961853</ele>
        <time>2021-10-17T09:46:07.000Z</time>
      </trkpt>
      <trkpt lat="47.49921" lon="-2.33502">
        <ele>29.799999237061</ele>
        <time>2021-10-17T09:46:08.000Z</time>
      </trkpt>
      <trkpt lat="47.49917" lon="-2.33503">
        <ele>30.200000762939</ele>
        <time>2021-10-17T09:46:09.000Z</time>
      </trkpt>
      <trkpt lat="47.49913" lon="-2.33505">
        <ele>30.60000038147</ele>
        <time>2021-10-17T09:46:10.000Z</time>
      </trkpt>
      <trkpt lat="47.499" lon="-2.33514">
        <ele>30.60000038147</ele>
        <time>2021-10-17T09:46:14.000Z</time>
      </trkpt>
      <trkpt lat="47.49889" lon="-2.33524">
        <ele>30.60000038147</ele>
        <time>2021-10-17T09:46:18.000Z</time>
      </trkpt>
      <trkpt lat="47.49887" lon="-2.33527">
        <ele>30.60000038147</ele>
        <time>2021-10-17T09:46:19.000Z</time>
      </trkpt>
      <trkpt lat="47.49872" lon="-2.33545">
        <ele>30.60000038147</ele>
        <time>2021-10-17T09:46:25.000Z</time>
      </trkpt>
      <trkpt lat="47.4987" lon="-2.33546">
        <ele>30.60000038147</ele>
        <time>2021-10-17T09:46:26.000Z</time>
      </trkpt>
      <trkpt lat="47.49856" lon="-2.33547">
        <ele>30.60000038147</ele>
        <time>2021-10-17T09:46:31.000Z</time>
      </trkpt>
      <trkpt lat="47.49852" lon="-2.33547">
        <ele>30.60000038147</ele>
        <time>2021-10-17T09:46:32.000Z</time>
      </trkpt>
      <trkpt lat="47.49842" lon="-2.33551">
        <ele>30.60000038147</ele>
        <time>2021-10-17T09:46:37.000Z</time>
      </trkpt>
      <trkpt lat="47.49831" lon="-2.33552">
        <ele>30.60000038147</ele>
        <time>2021-10-17T09:46:44.000Z</time>
      </trkpt>
      <trkpt lat="47.49828" lon="-2.33549">
        <ele>30.60000038147</ele>
        <time>2021-10-17T09:46:47.000Z</time>
      </trkpt>
      <trkpt lat="47.49827" lon="-2.33543">
        <ele>30.60000038147</ele>
        <time>2021-10-17T09:46:49.000Z</time>
      </trkpt>
      <trkpt lat="47.49826" lon="-2.33537">
        <ele>31</ele>
        <time>2021-10-17T09:46:51.000Z</time>
      </trkpt>
      <trkpt lat="47.49826" lon="-2.33534">
        <ele>31.39999961853</ele>
        <time>2021-10-17T09:46:52.000Z</time>
      </trkpt>
      <trkpt lat="47.49825" lon="-2.3353">
        <ele>32.200000762939</ele>
        <time>2021-10-17T09:46:53.000Z</time>
      </trkpt>
      <trkpt lat="47.49825" lon="-2.33527">
        <ele>32.599998474121</ele>
        <time>2021-10-17T09:46:54.000Z</time>
      </trkpt>
      <trkpt lat="47.49825" lon="-2.3352">
        <ele>32.599998474121</ele>
        <time>2021-10-17T09:46:56.000Z</time>
      </trkpt>
      <trkpt lat="47.49823" lon="-2.33513">
        <ele>32.599998474121</ele>
        <time>2021-10-17T09:46:58.000Z</time>
      </trkpt>
      <trkpt lat="47.49819" lon="-2.33511">
        <ele>32.599998474121</ele>
        <time>2021-10-17T09:47:00.000Z</time>
      </trkpt>
      <trkpt lat="47.49816" lon="-2.3351">
        <ele>32.599998474121</ele>
        <time>2021-10-17T09:47:01.000Z</time>
      </trkpt>
      <trkpt lat="47.4981" lon="-2.33512">
        <ele>32.599998474121</ele>
        <time>2021-10-17T09:47:03.000Z</time>
      </trkpt>
      <trkpt lat="47.49798" lon="-2.33498">
        <ele>32.599998474121</ele>
        <time>2021-10-17T09:47:07.000Z</time>
      </trkpt>
      <trkpt lat="47.49789" lon="-2.33496">
        <ele>32.599998474121</ele>
        <time>2021-10-17T09:47:10.000Z</time>
      </trkpt>
      <trkpt lat="47.49784" lon="-2.33496">
        <ele>32.599998474121</ele>
        <time>2021-10-17T09:47:12.000Z</time>
      </trkpt>
      <trkpt lat="47.49773" lon="-2.33495">
        <ele>32.599998474121</ele>
        <time>2021-10-17T09:47:16.000Z</time>
      </trkpt>
      <trkpt lat="47.49761" lon="-2.33496">
        <ele>32.599998474121</ele>
        <time>2021-10-17T09:47:21.000Z</time>
      </trkpt>
      <trkpt lat="47.49756" lon="-2.33498">
        <ele>33</ele>
        <time>2021-10-17T09:47:24.000Z</time>
      </trkpt>
      <trkpt lat="47.49754" lon="-2.33497">
        <ele>33.400001525879</ele>
        <time>2021-10-17T09:47:25.000Z</time>
      </trkpt>
      <trkpt lat="47.49751" lon="-2.33497">
        <ele>33.799999237061</ele>
        <time>2021-10-17T09:47:26.000Z</time>
      </trkpt>
      <trkpt lat="47.49747" lon="-2.33496">
        <ele>34.200000762939</ele>
        <time>2021-10-17T09:47:27.000Z</time>
      </trkpt>
      <trkpt lat="47.49744" lon="-2.33496">
        <ele>34.599998474121</ele>
        <time>2021-10-17T09:47:28.000Z</time>
      </trkpt>
      <trkpt lat="47.4973" lon="-2.335">
        <ele>34.599998474121</ele>
        <time>2021-10-17T09:47:33.000Z</time>
      </trkpt>
      <trkpt lat="47.49728" lon="-2.33503">
        <ele>34.599998474121</ele>
        <time>2021-10-17T09:47:34.000Z</time>
      </trkpt>
      <trkpt lat="47.49731" lon="-2.33508">
        <ele>34.599998474121</ele>
        <time>2021-10-17T09:47:37.000Z</time>
      </trkpt>
      <trkpt lat="47.49739" lon="-2.33509">
        <ele>34.599998474121</ele>
        <time>2021-10-17T09:47:41.000Z</time>
      </trkpt>
      <trkpt lat="47.49742" lon="-2.33521">
        <ele>34.599998474121</ele>
        <time>2021-10-17T09:47:45.000Z</time>
      </trkpt>
      <trkpt lat="47.49738" lon="-2.33529">
        <ele>34.599998474121</ele>
        <time>2021-10-17T09:47:48.000Z</time>
      </trkpt>
      <trkpt lat="47.49735" lon="-2.33535">
        <ele>34.599998474121</ele>
        <time>2021-10-17T09:47:50.000Z</time>
      </trkpt>
      <trkpt lat="47.49733" lon="-2.33541">
        <ele>34.599998474121</ele>
        <time>2021-10-17T09:47:52.000Z</time>
      </trkpt>
      <trkpt lat="47.49729" lon="-2.33546">
        <ele>34.599998474121</ele>
        <time>2021-10-17T09:47:54.000Z</time>
      </trkpt>
      <trkpt lat="47.49724" lon="-2.33548">
        <ele>34.599998474121</ele>
        <time>2021-10-17T09:47:56.000Z</time>
      </trkpt>
      <trkpt lat="47.49721" lon="-2.33546">
        <ele>34.599998474121</ele>
        <time>2021-10-17T09:47:58.000Z</time>
      </trkpt>
      <trkpt lat="47.49712" lon="-2.3354">
        <ele>34.599998474121</ele>
        <time>2021-10-17T09:48:02.000Z</time>
      </trkpt>
      <trkpt lat="47.4971" lon="-2.33534">
        <ele>34.599998474121</ele>
        <time>2021-10-17T09:48:04.000Z</time>
      </trkpt>
      <trkpt lat="47.49708" lon="-2.33524">
        <ele>34.599998474121</ele>
        <time>2021-10-17T09:48:07.000Z</time>
      </trkpt>
      <trkpt lat="47.49702" lon="-2.33514">
        <ele>34.599998474121</ele>
        <time>2021-10-17T09:48:10.000Z</time>
      </trkpt>
      <trkpt lat="47.49701" lon="-2.3351">
        <ele>34.599998474121</ele>
        <time>2021-10-17T09:48:11.000Z</time>
      </trkpt>
      <trkpt lat="47.497" lon="-2.33495">
        <ele>34.599998474121</ele>
        <time>2021-10-17T09:48:14.000Z</time>
      </trkpt>
      <trkpt lat="47.49696" lon="-2.33476">
        <ele>34.599998474121</ele>
        <time>2021-10-17T09:48:18.000Z</time>
      </trkpt>
      <trkpt lat="47.49694" lon="-2.33472">
        <ele>34.599998474121</ele>
        <time>2021-10-17T09:48:19.000Z</time>
      </trkpt>
      <trkpt lat="47.49682" lon="-2.33458">
        <ele>34.599998474121</ele>
        <time>2021-10-17T09:48:24.000Z</time>
      </trkpt>
      <trkpt lat="47.49665" lon="-2.3346">
        <ele>34.599998474121</ele>
        <time>2021-10-17T09:48:28.000Z</time>
      </trkpt>
      <trkpt lat="47.49631" lon="-2.33479">
        <ele>34.599998474121</ele>
        <time>2021-10-17T09:48:36.000Z</time>
      </trkpt>
      <trkpt lat="47.49592" lon="-2.33503">
        <ele>34.599998474121</ele>
        <time>2021-10-17T09:48:45.000Z</time>
      </trkpt>
      <trkpt lat="47.49557" lon="-2.33524">
        <ele>34.599998474121</ele>
        <time>2021-10-17T09:48:52.000Z</time>
      </trkpt>
      <trkpt lat="47.49547" lon="-2.3353">
        <ele>34.599998474121</ele>
        <time>2021-10-17T09:48:54.000Z</time>
      </trkpt>
      <trkpt lat="47.49527" lon="-2.33542">
        <ele>34.599998474121</ele>
        <time>2021-10-17T09:48:58.000Z</time>
      </trkpt>
      <trkpt lat="47.49496" lon="-2.33568">
        <ele>34.599998474121</ele>
        <time>2021-10-17T09:49:05.000Z</time>
      </trkpt>
      <trkpt lat="47.49459" lon="-2.33602">
        <ele>34.599998474121</ele>
        <time>2021-10-17T09:49:14.000Z</time>
      </trkpt>
      <trkpt lat="47.49438" lon="-2.33621">
        <ele>35</ele>
        <time>2021-10-17T09:49:19.000Z</time>
      </trkpt>
      <trkpt lat="47.49434" lon="-2.33624">
        <ele>35.400001525879</ele>
        <time>2021-10-17T09:49:20.000Z</time>
      </trkpt>
      <trkpt lat="47.49431" lon="-2.33628">
        <ele>35.799999237061</ele>
        <time>2021-10-17T09:49:21.000Z</time>
      </trkpt>
      <trkpt lat="47.49427" lon="-2.33632">
        <ele>36.599998474121</ele>
        <time>2021-10-17T09:49:22.000Z</time>
      </trkpt>
      <trkpt lat="47.49401" lon="-2.33656">
        <ele>36.599998474121</ele>
        <time>2021-10-17T09:49:29.000Z</time>
      </trkpt>
      <trkpt lat="47.49388" lon="-2.33671">
        <ele>36.599998474121</ele>
        <time>2021-10-17T09:49:34.000Z</time>
      </trkpt>
      <trkpt lat="47.49373" lon="-2.33673">
        <ele>36.599998474121</ele>
        <time>2021-10-17T09:49:38.000Z</time>
      </trkpt>
      <trkpt lat="47.49335" lon="-2.3367">
        <ele>36.599998474121</ele>
        <time>2021-10-17T09:49:46.000Z</time>
      </trkpt>
      <trkpt lat="47.49297" lon="-2.3367">
        <ele>36.599998474121</ele>
        <time>2021-10-17T09:49:53.000Z</time>
      </trkpt>
      <trkpt lat="47.49264" lon="-2.33676">
        <ele>36.599998474121</ele>
        <time>2021-10-17T09:49:59.000Z</time>
      </trkpt>
      <trkpt lat="47.49209" lon="-2.33695">
        <ele>36.599998474121</ele>
        <time>2021-10-17T09:50:08.000Z</time>
      </trkpt>
      <trkpt lat="47.49181" lon="-2.33704">
        <ele>36.599998474121</ele>
        <time>2021-10-17T09:50:13.000Z</time>
      </trkpt>
      <trkpt lat="47.4917" lon="-2.33707">
        <ele>36.599998474121</ele>
        <time>2021-10-17T09:50:15.000Z</time>
      </trkpt>
      <trkpt lat="47.49157" lon="-2.33713">
        <ele>36.599998474121</ele>
        <time>2021-10-17T09:50:18.000Z</time>
      </trkpt>
      <trkpt lat="47.49154" lon="-2.33719">
        <ele>36.599998474121</ele>
        <time>2021-10-17T09:50:19.000Z</time>
      </trkpt>
      <trkpt lat="47.49152" lon="-2.3374">
        <ele>36.599998474121</ele>
        <time>2021-10-17T09:50:22.000Z</time>
      </trkpt>
      <trkpt lat="47.49152" lon="-2.33748">
        <ele>36.599998474121</ele>
        <time>2021-10-17T09:50:23.000Z</time>
      </trkpt>
      <trkpt lat="47.49147" lon="-2.33816">
        <ele>36.599998474121</ele>
        <time>2021-10-17T09:50:32.000Z</time>
      </trkpt>
      <trkpt lat="47.49145" lon="-2.33851">
        <ele>36.599998474121</ele>
        <time>2021-10-17T09:50:36.000Z</time>
      </trkpt>
      <trkpt lat="47.49143" lon="-2.33858">
        <ele>36.599998474121</ele>
        <time>2021-10-17T09:50:37.000Z</time>
      </trkpt>
      <trkpt lat="47.49139" lon="-2.33865">
        <ele>36.200000762939</ele>
        <time>2021-10-17T09:50:38.000Z</time>
      </trkpt>
      <trkpt lat="47.49135" lon="-2.3387">
        <ele>35.799999237061</ele>
        <time>2021-10-17T09:50:39.000Z</time>
      </trkpt>
      <trkpt lat="47.4913" lon="-2.33875">
        <ele>35.400001525879</ele>
        <time>2021-10-17T09:50:40.000Z</time>
      </trkpt>
      <trkpt lat="47.49125" lon="-2.3388">
        <ele>35</ele>
        <time>2021-10-17T09:50:41.000Z</time>
      </trkpt>
      <trkpt lat="47.49119" lon="-2.33885">
        <ele>34.599998474121</ele>
        <time>2021-10-17T09:50:42.000Z</time>
      </trkpt>
      <trkpt lat="47.49101" lon="-2.33905">
        <ele>34.599998474121</ele>
        <time>2021-10-17T09:50:46.000Z</time>
      </trkpt>
      <trkpt lat="47.49065" lon="-2.33948">
        <ele>34.599998474121</ele>
        <time>2021-10-17T09:50:54.000Z</time>
      </trkpt>
      <trkpt lat="47.49032" lon="-2.33986">
        <ele>34.599998474121</ele>
        <time>2021-10-17T09:51:01.000Z</time>
      </trkpt>
      <trkpt lat="47.49027" lon="-2.33991">
        <ele>34.200000762939</ele>
        <time>2021-10-17T09:51:02.000Z</time>
      </trkpt>
      <trkpt lat="47.49022" lon="-2.33997">
        <ele>33.799999237061</ele>
        <time>2021-10-17T09:51:03.000Z</time>
      </trkpt>
      <trkpt lat="47.49017" lon="-2.34003">
        <ele>33.400001525879</ele>
        <time>2021-10-17T09:51:04.000Z</time>
      </trkpt>
      <trkpt lat="47.49012" lon="-2.34009">
        <ele>33</ele>
        <time>2021-10-17T09:51:05.000Z</time>
      </trkpt>
      <trkpt lat="47.49006" lon="-2.34016">
        <ele>32.599998474121</ele>
        <time>2021-10-17T09:51:06.000Z</time>
      </trkpt>
      <trkpt lat="47.48996" lon="-2.34029">
        <ele>32.599998474121</ele>
        <time>2021-10-17T09:51:08.000Z</time>
      </trkpt>
      <trkpt lat="47.48986" lon="-2.34043">
        <ele>32.200000762939</ele>
        <time>2021-10-17T09:51:10.000Z</time>
      </trkpt>
      <trkpt lat="47.48981" lon="-2.3405">
        <ele>31.799999237061</ele>
        <time>2021-10-17T09:51:11.000Z</time>
      </trkpt>
      <trkpt lat="47.48977" lon="-2.34058">
        <ele>31.39999961853</ele>
        <time>2021-10-17T09:51:12.000Z</time>
      </trkpt>
      <trkpt lat="47.48973" lon="-2.34064">
        <ele>31</ele>
        <time>2021-10-17T09:51:13.000Z</time>
      </trkpt>
      <trkpt lat="47.48969" lon="-2.3407">
        <ele>30.60000038147</ele>
        <time>2021-10-17T09:51:14.000Z</time>
      </trkpt>
      <trkpt lat="47.48963" lon="-2.3408">
        <ele>30.60000038147</ele>
        <time>2021-10-17T09:51:16.000Z</time>
      </trkpt>
      <trkpt lat="47.4896" lon="-2.34086">
        <ele>30.60000038147</ele>
        <time>2021-10-17T09:51:17.000Z</time>
      </trkpt>
      <trkpt lat="47.48948" lon="-2.341">
        <ele>30.200000762939</ele>
        <time>2021-10-17T09:51:20.000Z</time>
      </trkpt>
      <trkpt lat="47.48943" lon="-2.34105">
        <ele>29.799999237061</ele>
        <time>2021-10-17T09:51:21.000Z</time>
      </trkpt>
      <trkpt lat="47.48939" lon="-2.34111">
        <ele>29.39999961853</ele>
        <time>2021-10-17T09:51:22.000Z</time>
      </trkpt>
      <trkpt lat="47.48934" lon="-2.34116">
        <ele>29</ele>
        <time>2021-10-17T09:51:23.000Z</time>
      </trkpt>
      <trkpt lat="47.48928" lon="-2.34121">
        <ele>28.60000038147</ele>
        <time>2021-10-17T09:51:24.000Z</time>
      </trkpt>
      <trkpt lat="47.48923" lon="-2.34126">
        <ele>28.200000762939</ele>
        <time>2021-10-17T09:51:25.000Z</time>
      </trkpt>
      <trkpt lat="47.48917" lon="-2.34131">
        <ele>27.799999237061</ele>
        <time>2021-10-17T09:51:26.000Z</time>
      </trkpt>
      <trkpt lat="47.48911" lon="-2.34136">
        <ele>27.39999961853</ele>
        <time>2021-10-17T09:51:27.000Z</time>
      </trkpt>
      <trkpt lat="47.48905" lon="-2.34142">
        <ele>27</ele>
        <time>2021-10-17T09:51:28.000Z</time>
      </trkpt>
      <trkpt lat="47.489" lon="-2.34148">
        <ele>26.39999961853</ele>
        <time>2021-10-17T09:51:29.000Z</time>
      </trkpt>
      <trkpt lat="47.4889" lon="-2.34158">
        <ele>26.39999961853</ele>
        <time>2021-10-17T09:51:31.000Z</time>
      </trkpt>
      <trkpt lat="47.48864" lon="-2.34191">
        <ele>26.39999961853</ele>
        <time>2021-10-17T09:51:37.000Z</time>
      </trkpt>
      <trkpt lat="47.48852" lon="-2.34208">
        <ele>26.39999961853</ele>
        <time>2021-10-17T09:51:40.000Z</time>
      </trkpt>
      <trkpt lat="47.48837" lon="-2.34221">
        <ele>26.39999961853</ele>
        <time>2021-10-17T09:51:43.000Z</time>
      </trkpt>
      <trkpt lat="47.4881" lon="-2.34245">
        <ele>26.39999961853</ele>
        <time>2021-10-17T09:51:48.000Z</time>
      </trkpt>
      <trkpt lat="47.4879" lon="-2.34259">
        <ele>26.39999961853</ele>
        <time>2021-10-17T09:51:51.000Z</time>
      </trkpt>
      <trkpt lat="47.4878" lon="-2.34271">
        <ele>26.39999961853</ele>
        <time>2021-10-17T09:51:53.000Z</time>
      </trkpt>
      <trkpt lat="47.48752" lon="-2.34319">
        <ele>26.39999961853</ele>
        <time>2021-10-17T09:52:00.000Z</time>
      </trkpt>
      <trkpt lat="47.48736" lon="-2.34357">
        <ele>26</ele>
        <time>2021-10-17T09:52:05.000Z</time>
      </trkpt>
      <trkpt lat="47.48733" lon="-2.34365">
        <ele>25.60000038147</ele>
        <time>2021-10-17T09:52:06.000Z</time>
      </trkpt>
      <trkpt lat="47.4873" lon="-2.34373">
        <ele>25.200000762939</ele>
        <time>2021-10-17T09:52:07.000Z</time>
      </trkpt>
      <trkpt lat="47.48728" lon="-2.34382">
        <ele>24.799999237061</ele>
        <time>2021-10-17T09:52:08.000Z</time>
      </trkpt>
      <trkpt lat="47.48726" lon="-2.3439">
        <ele>24.39999961853</ele>
        <time>2021-10-17T09:52:09.000Z</time>
      </trkpt>
      <trkpt lat="47.48714" lon="-2.34424">
        <ele>24.39999961853</ele>
        <time>2021-10-17T09:52:13.000Z</time>
      </trkpt>
      <trkpt lat="47.48695" lon="-2.34465">
        <ele>24.39999961853</ele>
        <time>2021-10-17T09:52:19.000Z</time>
      </trkpt>
      <trkpt lat="47.48692" lon="-2.34472">
        <ele>24.39999961853</ele>
        <time>2021-10-17T09:52:20.000Z</time>
      </trkpt>
      <trkpt lat="47.48685" lon="-2.34482">
        <ele>24.39999961853</ele>
        <time>2021-10-17T09:52:22.000Z</time>
      </trkpt>
      <trkpt lat="47.48678" lon="-2.34492">
        <ele>24.39999961853</ele>
        <time>2021-10-17T09:52:24.000Z</time>
      </trkpt>
      <trkpt lat="47.48673" lon="-2.34503">
        <ele>24.39999961853</ele>
        <time>2021-10-17T09:52:26.000Z</time>
      </trkpt>
      <trkpt lat="47.48665" lon="-2.3452">
        <ele>24.39999961853</ele>
        <time>2021-10-17T09:52:29.000Z</time>
      </trkpt>
      <trkpt lat="47.48641" lon="-2.3457">
        <ele>24.39999961853</ele>
        <time>2021-10-17T09:52:37.000Z</time>
      </trkpt>
      <trkpt lat="47.48621" lon="-2.34617">
        <ele>24.39999961853</ele>
        <time>2021-10-17T09:52:44.000Z</time>
      </trkpt>
      <trkpt lat="47.48613" lon="-2.34637">
        <ele>24.799999237061</ele>
        <time>2021-10-17T09:52:47.000Z</time>
      </trkpt>
      <trkpt lat="47.48611" lon="-2.34643">
        <ele>25.200000762939</ele>
        <time>2021-10-17T09:52:48.000Z</time>
      </trkpt>
      <trkpt lat="47.48608" lon="-2.3465">
        <ele>25.60000038147</ele>
        <time>2021-10-17T09:52:49.000Z</time>
      </trkpt>
      <trkpt lat="47.48606" lon="-2.34657">
        <ele>26</ele>
        <time>2021-10-17T09:52:50.000Z</time>
      </trkpt>
      <trkpt lat="47.48604" lon="-2.34664">
        <ele>26.39999961853</ele>
        <time>2021-10-17T09:52:51.000Z</time>
      </trkpt>
      <trkpt lat="47.4859" lon="-2.34705">
        <ele>26.39999961853</ele>
        <time>2021-10-17T09:52:57.000Z</time>
      </trkpt>
      <trkpt lat="47.48574" lon="-2.34755">
        <ele>26.39999961853</ele>
        <time>2021-10-17T09:53:04.000Z</time>
      </trkpt>
      <trkpt lat="47.48557" lon="-2.34804">
        <ele>26.39999961853</ele>
        <time>2021-10-17T09:53:11.000Z</time>
      </trkpt>
      <trkpt lat="47.48542" lon="-2.34845">
        <ele>26.39999961853</ele>
        <time>2021-10-17T09:53:17.000Z</time>
      </trkpt>
      <trkpt lat="47.48527" lon="-2.34892">
        <ele>26.39999961853</ele>
        <time>2021-10-17T09:53:24.000Z</time>
      </trkpt>
      <trkpt lat="47.48524" lon="-2.34898">
        <ele>26.799999237061</ele>
        <time>2021-10-17T09:53:25.000Z</time>
      </trkpt>
      <trkpt lat="47.48522" lon="-2.34904">
        <ele>27.200000762939</ele>
        <time>2021-10-17T09:53:26.000Z</time>
      </trkpt>
      <trkpt lat="47.48519" lon="-2.3491">
        <ele>27.60000038147</ele>
        <time>2021-10-17T09:53:27.000Z</time>
      </trkpt>
      <trkpt lat="47.48517" lon="-2.34916">
        <ele>28</ele>
        <time>2021-10-17T09:53:28.000Z</time>
      </trkpt>
      <trkpt lat="47.48515" lon="-2.34922">
        <ele>28.39999961853</ele>
        <time>2021-10-17T09:53:29.000Z</time>
      </trkpt>
      <trkpt lat="47.48512" lon="-2.34928">
        <ele>28.39999961853</ele>
        <time>2021-10-17T09:53:30.000Z</time>
      </trkpt>
      <trkpt lat="47.48499" lon="-2.34949">
        <ele>28.39999961853</ele>
        <time>2021-10-17T09:53:34.000Z</time>
      </trkpt>
      <trkpt lat="47.48479" lon="-2.34983">
        <ele>28.39999961853</ele>
        <time>2021-10-17T09:53:41.000Z</time>
      </trkpt>
      <trkpt lat="47.48476" lon="-2.34988">
        <ele>28.799999237061</ele>
        <time>2021-10-17T09:53:42.000Z</time>
      </trkpt>
      <trkpt lat="47.48473" lon="-2.34993">
        <ele>29.200000762939</ele>
        <time>2021-10-17T09:53:43.000Z</time>
      </trkpt>
      <trkpt lat="47.4847" lon="-2.34998">
        <ele>29.60000038147</ele>
        <time>2021-10-17T09:53:44.000Z</time>
      </trkpt>
      <trkpt lat="47.48468" lon="-2.35002">
        <ele>30</ele>
        <time>2021-10-17T09:53:45.000Z</time>
      </trkpt>
      <trkpt lat="47.48466" lon="-2.35007">
        <ele>30.60000038147</ele>
        <time>2021-10-17T09:53:46.000Z</time>
      </trkpt>
      <trkpt lat="47.48461" lon="-2.35017">
        <ele>30.60000038147</ele>
        <time>2021-10-17T09:53:48.000Z</time>
      </trkpt>
      <trkpt lat="47.48444" lon="-2.35047">
        <ele>31</ele>
        <time>2021-10-17T09:53:54.000Z</time>
      </trkpt>
      <trkpt lat="47.48441" lon="-2.35052">
        <ele>31.39999961853</ele>
        <time>2021-10-17T09:53:55.000Z</time>
      </trkpt>
      <trkpt lat="47.48438" lon="-2.35056">
        <ele>31.799999237061</ele>
        <time>2021-10-17T09:53:56.000Z</time>
      </trkpt>
      <trkpt lat="47.48435" lon="-2.35062">
        <ele>32.200000762939</ele>
        <time>2021-10-17T09:53:57.000Z</time>
      </trkpt>
      <trkpt lat="47.48432" lon="-2.35067">
        <ele>32.599998474121</ele>
        <time>2021-10-17T09:53:58.000Z</time>
      </trkpt>
      <trkpt lat="47.48417" lon="-2.35094">
        <ele>32.599998474121</ele>
        <time>2021-10-17T09:54:03.000Z</time>
      </trkpt>
      <trkpt lat="47.48402" lon="-2.35127">
        <ele>33</ele>
        <time>2021-10-17T09:54:09.000Z</time>
      </trkpt>
      <trkpt lat="47.48399" lon="-2.35132">
        <ele>33.400001525879</ele>
        <time>2021-10-17T09:54:10.000Z</time>
      </trkpt>
      <trkpt lat="47.48398" lon="-2.35137">
        <ele>33.799999237061</ele>
        <time>2021-10-17T09:54:11.000Z</time>
      </trkpt>
      <trkpt lat="47.48396" lon="-2.35142">
        <ele>34.200000762939</ele>
        <time>2021-10-17T09:54:12.000Z</time>
      </trkpt>
      <trkpt lat="47.48394" lon="-2.35146">
        <ele>34.599998474121</ele>
        <time>2021-10-17T09:54:13.000Z</time>
      </trkpt>
      <trkpt lat="47.48384" lon="-2.35166">
        <ele>34.599998474121</ele>
        <time>2021-10-17T09:54:17.000Z</time>
      </trkpt>
      <trkpt lat="47.48377" lon="-2.35175">
        <ele>34.599998474121</ele>
        <time>2021-10-17T09:54:19.000Z</time>
      </trkpt>
      <trkpt lat="47.48368" lon="-2.3519">
        <ele>34.599998474121</ele>
        <time>2021-10-17T09:54:22.000Z</time>
      </trkpt>
      <trkpt lat="47.48365" lon="-2.35195">
        <ele>35</ele>
        <time>2021-10-17T09:54:23.000Z</time>
      </trkpt>
      <trkpt lat="47.48362" lon="-2.352">
        <ele>35.400001525879</ele>
        <time>2021-10-17T09:54:24.000Z</time>
      </trkpt>
      <trkpt lat="47.48359" lon="-2.35204">
        <ele>35.799999237061</ele>
        <time>2021-10-17T09:54:25.000Z</time>
      </trkpt>
      <trkpt lat="47.48356" lon="-2.35208">
        <ele>36.200000762939</ele>
        <time>2021-10-17T09:54:26.000Z</time>
      </trkpt>
      <trkpt lat="47.48352" lon="-2.35213">
        <ele>36.799999237061</ele>
        <time>2021-10-17T09:54:27.000Z</time>
      </trkpt>
      <trkpt lat="47.48345" lon="-2.3522">
        <ele>36.799999237061</ele>
        <time>2021-10-17T09:54:29.000Z</time>
      </trkpt>
      <trkpt lat="47.4834" lon="-2.35238">
        <ele>36.799999237061</ele>
        <time>2021-10-17T09:54:32.000Z</time>
      </trkpt>
      <trkpt lat="47.48342" lon="-2.35261">
        <ele>36.799999237061</ele>
        <time>2021-10-17T09:54:35.000Z</time>
      </trkpt>
      <trkpt lat="47.48344" lon="-2.35284">
        <ele>36.799999237061</ele>
        <time>2021-10-17T09:54:38.000Z</time>
      </trkpt>
      <trkpt lat="47.48349" lon="-2.35347">
        <ele>36.799999237061</ele>
        <time>2021-10-17T09:54:46.000Z</time>
      </trkpt>
      <trkpt lat="47.48353" lon="-2.35402">
        <ele>36.799999237061</ele>
        <time>2021-10-17T09:54:53.000Z</time>
      </trkpt>
      <trkpt lat="47.48353" lon="-2.3541">
        <ele>36.799999237061</ele>
        <time>2021-10-17T09:54:54.000Z</time>
      </trkpt>
      <trkpt lat="47.48347" lon="-2.35426">
        <ele>36.799999237061</ele>
        <time>2021-10-17T09:54:57.000Z</time>
      </trkpt>
      <trkpt lat="47.48336" lon="-2.35431">
        <ele>36.799999237061</ele>
        <time>2021-10-17T09:55:00.000Z</time>
      </trkpt>
      <trkpt lat="47.48332" lon="-2.35431">
        <ele>36.799999237061</ele>
        <time>2021-10-17T09:55:01.000Z</time>
      </trkpt>
      <trkpt lat="47.48327" lon="-2.35431">
        <ele>36.799999237061</ele>
        <time>2021-10-17T09:55:02.000Z</time>
      </trkpt>
      <trkpt lat="47.4831" lon="-2.35431">
        <ele>36.799999237061</ele>
        <time>2021-10-17T09:55:06.000Z</time>
      </trkpt>
      <trkpt lat="47.48282" lon="-2.35431">
        <ele>36.799999237061</ele>
        <time>2021-10-17T09:55:13.000Z</time>
      </trkpt>
      <trkpt lat="47.48265" lon="-2.35433">
        <ele>36.799999237061</ele>
        <time>2021-10-17T09:55:19.000Z</time>
      </trkpt>
      <trkpt lat="47.48257" lon="-2.35435">
        <ele>36.799999237061</ele>
        <time>2021-10-17T09:55:24.000Z</time>
      </trkpt>
      <trkpt lat="47.48255" lon="-2.35436">
        <ele>36.799999237061</ele>
        <time>2021-10-17T09:55:27.000Z</time>
      </trkpt>
      <trkpt lat="47.48254" lon="-2.35436">
        <ele>36.799999237061</ele>
        <time>2021-10-17T09:55:32.000Z</time>
      </trkpt>
      <trkpt lat="47.48242" lon="-2.35429">
        <ele>36.799999237061</ele>
        <time>2021-10-17T09:55:36.000Z</time>
      </trkpt>
      <trkpt lat="47.48239" lon="-2.35426">
        <ele>36.799999237061</ele>
        <time>2021-10-17T09:55:37.000Z</time>
      </trkpt>
      <trkpt lat="47.48225" lon="-2.3541">
        <ele>37.200000762939</ele>
        <time>2021-10-17T09:55:41.000Z</time>
      </trkpt>
      <trkpt lat="47.48222" lon="-2.35406">
        <ele>37.599998474121</ele>
        <time>2021-10-17T09:55:42.000Z</time>
      </trkpt>
      <trkpt lat="47.48218" lon="-2.35403">
        <ele>38</ele>
        <time>2021-10-17T09:55:43.000Z</time>
      </trkpt>
      <trkpt lat="47.48214" lon="-2.354">
        <ele>38.400001525879</ele>
        <time>2021-10-17T09:55:44.000Z</time>
      </trkpt>
      <trkpt lat="47.4821" lon="-2.35396">
        <ele>38.799999237061</ele>
        <time>2021-10-17T09:55:45.000Z</time>
      </trkpt>
      <trkpt lat="47.48203" lon="-2.35388">
        <ele>38.799999237061</ele>
        <time>2021-10-17T09:55:47.000Z</time>
      </trkpt>
      <trkpt lat="47.4817" lon="-2.35354">
        <ele>38.799999237061</ele>
        <time>2021-10-17T09:55:55.000Z</time>
      </trkpt>
      <trkpt lat="47.48163" lon="-2.35358">
        <ele>38.799999237061</ele>
        <time>2021-10-17T09:55:57.000Z</time>
      </trkpt>
      <trkpt lat="47.48159" lon="-2.35375">
        <ele>38.799999237061</ele>
        <time>2021-10-17T09:56:00.000Z</time>
      </trkpt>
      <trkpt lat="47.48158" lon="-2.35381">
        <ele>38.799999237061</ele>
        <time>2021-10-17T09:56:01.000Z</time>
      </trkpt>
      <trkpt lat="47.48151" lon="-2.35426">
        <ele>38.799999237061</ele>
        <time>2021-10-17T09:56:08.000Z</time>
      </trkpt>
      <trkpt lat="47.48149" lon="-2.35432">
        <ele>38.799999237061</ele>
        <time>2021-10-17T09:56:09.000Z</time>
      </trkpt>
      <trkpt lat="47.48147" lon="-2.35438">
        <ele>39.200000762939</ele>
        <time>2021-10-17T09:56:10.000Z</time>
      </trkpt>
      <trkpt lat="47.48145" lon="-2.35444">
        <ele>39.599998474121</ele>
        <time>2021-10-17T09:56:11.000Z</time>
      </trkpt>
      <trkpt lat="47.48143" lon="-2.35449">
        <ele>40</ele>
        <time>2021-10-17T09:56:12.000Z</time>
      </trkpt>
      <trkpt lat="47.48141" lon="-2.35455">
        <ele>40.400001525879</ele>
        <time>2021-10-17T09:56:13.000Z</time>
      </trkpt>
      <trkpt lat="47.48139" lon="-2.3546">
        <ele>40.799999237061</ele>
        <time>2021-10-17T09:56:14.000Z</time>
      </trkpt>
      <trkpt lat="47.48135" lon="-2.35471">
        <ele>40.799999237061</ele>
        <time>2021-10-17T09:56:16.000Z</time>
      </trkpt>
      <trkpt lat="47.48128" lon="-2.3549">
        <ele>40.799999237061</ele>
        <time>2021-10-17T09:56:19.000Z</time>
      </trkpt>
      <trkpt lat="47.48117" lon="-2.35521">
        <ele>40.799999237061</ele>
        <time>2021-10-17T09:56:24.000Z</time>
      </trkpt>
      <trkpt lat="47.48114" lon="-2.35526">
        <ele>40.799999237061</ele>
        <time>2021-10-17T09:56:25.000Z</time>
      </trkpt>
      <trkpt lat="47.481" lon="-2.35539">
        <ele>40.799999237061</ele>
        <time>2021-10-17T09:56:28.000Z</time>
      </trkpt>
      <trkpt lat="47.4809" lon="-2.35548">
        <ele>40.799999237061</ele>
        <time>2021-10-17T09:56:30.000Z</time>
      </trkpt>
      <trkpt lat="47.48046" lon="-2.35582">
        <ele>40.799999237061</ele>
        <time>2021-10-17T09:56:39.000Z</time>
      </trkpt>
      <trkpt lat="47.48022" lon="-2.35592">
        <ele>40.799999237061</ele>
        <time>2021-10-17T09:56:43.000Z</time>
      </trkpt>
      <trkpt lat="47.47992" lon="-2.35597">
        <ele>40.799999237061</ele>
        <time>2021-10-17T09:56:48.000Z</time>
      </trkpt>
      <trkpt lat="47.47985" lon="-2.35597">
        <ele>40.799999237061</ele>
        <time>2021-10-17T09:56:49.000Z</time>
      </trkpt>
      <trkpt lat="47.47945" lon="-2.35601">
        <ele>40.799999237061</ele>
        <time>2021-10-17T09:56:56.000Z</time>
      </trkpt>
      <trkpt lat="47.47903" lon="-2.35595">
        <ele>40.799999237061</ele>
        <time>2021-10-17T09:57:04.000Z</time>
      </trkpt>
      <trkpt lat="47.4787" lon="-2.35579">
        <ele>40.799999237061</ele>
        <time>2021-10-17T09:57:11.000Z</time>
      </trkpt>
      <trkpt lat="47.47837" lon="-2.35563">
        <ele>40.799999237061</ele>
        <time>2021-10-17T09:57:18.000Z</time>
      </trkpt>
      <trkpt lat="47.47825" lon="-2.35553">
        <ele>40.799999237061</ele>
        <time>2021-10-17T09:57:21.000Z</time>
      </trkpt>
      <trkpt lat="47.47817" lon="-2.35544">
        <ele>40.799999237061</ele>
        <time>2021-10-17T09:57:23.000Z</time>
      </trkpt>
      <trkpt lat="47.47796" lon="-2.35507">
        <ele>40.799999237061</ele>
        <time>2021-10-17T09:57:30.000Z</time>
      </trkpt>
      <trkpt lat="47.4779" lon="-2.35498">
        <ele>40.799999237061</ele>
        <time>2021-10-17T09:57:32.000Z</time>
      </trkpt>
      <trkpt lat="47.47779" lon="-2.35481">
        <ele>40.799999237061</ele>
        <time>2021-10-17T09:57:36.000Z</time>
      </trkpt>
      <trkpt lat="47.47776" lon="-2.3547">
        <ele>40.799999237061</ele>
        <time>2021-10-17T09:57:38.000Z</time>
      </trkpt>
      <trkpt lat="47.47771" lon="-2.3546">
        <ele>40.799999237061</ele>
        <time>2021-10-17T09:57:40.000Z</time>
      </trkpt>
      <trkpt lat="47.47767" lon="-2.35456">
        <ele>40.799999237061</ele>
        <time>2021-10-17T09:57:41.000Z</time>
      </trkpt>
      <trkpt lat="47.47755" lon="-2.35451">
        <ele>40.799999237061</ele>
        <time>2021-10-17T09:57:44.000Z</time>
      </trkpt>
      <trkpt lat="47.47751" lon="-2.3545">
        <ele>40.799999237061</ele>
        <time>2021-10-17T09:57:45.000Z</time>
      </trkpt>
      <trkpt lat="47.47726" lon="-2.3544">
        <ele>40.799999237061</ele>
        <time>2021-10-17T09:57:50.000Z</time>
      </trkpt>
      <trkpt lat="47.47709" lon="-2.35418">
        <ele>40.799999237061</ele>
        <time>2021-10-17T09:57:54.000Z</time>
      </trkpt>
      <trkpt lat="47.47706" lon="-2.3541">
        <ele>40.799999237061</ele>
        <time>2021-10-17T09:57:55.000Z</time>
      </trkpt>
      <trkpt lat="47.47692" lon="-2.3537">
        <ele>40.799999237061</ele>
        <time>2021-10-17T09:58:00.000Z</time>
      </trkpt>
      <trkpt lat="47.47684" lon="-2.35316">
        <ele>40.799999237061</ele>
        <time>2021-10-17T09:58:06.000Z</time>
      </trkpt>
      <trkpt lat="47.47676" lon="-2.35273">
        <ele>40.400001525879</ele>
        <time>2021-10-17T09:58:11.000Z</time>
      </trkpt>
      <trkpt lat="47.47674" lon="-2.35264">
        <ele>40</ele>
        <time>2021-10-17T09:58:12.000Z</time>
      </trkpt>
      <trkpt lat="47.47672" lon="-2.35255">
        <ele>39.599998474121</ele>
        <time>2021-10-17T09:58:13.000Z</time>
      </trkpt>
      <trkpt lat="47.4767" lon="-2.35247">
        <ele>39.200000762939</ele>
        <time>2021-10-17T09:58:14.000Z</time>
      </trkpt>
      <trkpt lat="47.47668" lon="-2.35238">
        <ele>38.599998474121</ele>
        <time>2021-10-17T09:58:15.000Z</time>
      </trkpt>
      <trkpt lat="47.47663" lon="-2.35203">
        <ele>38.599998474121</ele>
        <time>2021-10-17T09:58:19.000Z</time>
      </trkpt>
      <trkpt lat="47.47655" lon="-2.35147">
        <ele>38.599998474121</ele>
        <time>2021-10-17T09:58:26.000Z</time>
      </trkpt>
      <trkpt lat="47.47645" lon="-2.35078">
        <ele>38.599998474121</ele>
        <time>2021-10-17T09:58:35.000Z</time>
      </trkpt>
      <trkpt lat="47.47648" lon="-2.3503">
        <ele>38.599998474121</ele>
        <time>2021-10-17T09:58:41.000Z</time>
      </trkpt>
      <trkpt lat="47.47658" lon="-2.34995">
        <ele>38.599998474121</ele>
        <time>2021-10-17T09:58:46.000Z</time>
      </trkpt>
      <trkpt lat="47.47669" lon="-2.34942">
        <ele>38.599998474121</ele>
        <time>2021-10-17T09:58:53.000Z</time>
      </trkpt>
      <trkpt lat="47.47676" lon="-2.34889">
        <ele>38.599998474121</ele>
        <time>2021-10-17T09:59:00.000Z</time>
      </trkpt>
      <trkpt lat="47.4768" lon="-2.34839">
        <ele>38.599998474121</ele>
        <time>2021-10-17T09:59:07.000Z</time>
      </trkpt>
      <trkpt lat="47.4768" lon="-2.34831">
        <ele>38.599998474121</ele>
        <time>2021-10-17T09:59:08.000Z</time>
      </trkpt>
      <trkpt lat="47.47677" lon="-2.34792">
        <ele>38.599998474121</ele>
        <time>2021-10-17T09:59:13.000Z</time>
      </trkpt>
      <trkpt lat="47.47672" lon="-2.34762">
        <ele>38.599998474121</ele>
        <time>2021-10-17T09:59:18.000Z</time>
      </trkpt>
      <trkpt lat="47.47667" lon="-2.34756">
        <ele>38.599998474121</ele>
        <time>2021-10-17T09:59:20.000Z</time>
      </trkpt>
      <trkpt lat="47.4766" lon="-2.34756">
        <ele>38.599998474121</ele>
        <time>2021-10-17T09:59:22.000Z</time>
      </trkpt>
      <trkpt lat="47.47647" lon="-2.34766">
        <ele>38.599998474121</ele>
        <time>2021-10-17T09:59:26.000Z</time>
      </trkpt>
      <trkpt lat="47.47643" lon="-2.3477">
        <ele>38.599998474121</ele>
        <time>2021-10-17T09:59:27.000Z</time>
      </trkpt>
      <trkpt lat="47.47616" lon="-2.3479">
        <ele>38.599998474121</ele>
        <time>2021-10-17T09:59:34.000Z</time>
      </trkpt>
      <trkpt lat="47.47577" lon="-2.34817">
        <ele>38.599998474121</ele>
        <time>2021-10-17T09:59:43.000Z</time>
      </trkpt>
      <trkpt lat="47.47561" lon="-2.34824">
        <ele>38.599998474121</ele>
        <time>2021-10-17T09:59:48.000Z</time>
      </trkpt>
      <trkpt lat="47.47556" lon="-2.34814">
        <ele>38.599998474121</ele>
        <time>2021-10-17T09:59:51.000Z</time>
      </trkpt>
      <trkpt lat="47.47556" lon="-2.3481">
        <ele>38.599998474121</ele>
        <time>2021-10-17T09:59:52.000Z</time>
      </trkpt>
      <trkpt lat="47.47554" lon="-2.34783">
        <ele>38.599998474121</ele>
        <time>2021-10-17T09:59:57.000Z</time>
      </trkpt>
      <trkpt lat="47.47548" lon="-2.34756">
        <ele>38.599998474121</ele>
        <time>2021-10-17T10:00:03.000Z</time>
      </trkpt>
      <trkpt lat="47.47546" lon="-2.3473">
        <ele>38.599998474121</ele>
        <time>2021-10-17T10:00:08.000Z</time>
      </trkpt>
      <trkpt lat="47.47544" lon="-2.34702">
        <ele>38.599998474121</ele>
        <time>2021-10-17T10:00:14.000Z</time>
      </trkpt>
      <trkpt lat="47.47542" lon="-2.34685">
        <ele>38.599998474121</ele>
        <time>2021-10-17T10:00:20.000Z</time>
      </trkpt>
    </trkseg>
  </trk>
</gpx>